<?xml version="1.0" encoding="UTF-8" standalone="no" ?>
<gpx xmlns="http://www.topografix.com/GPX/1/1" xmlns:xsi="http://www.w3.org/2001/XMLSchema-instance" xsi:schemaLocation="http://www.topografix.com/GPX/1/1 http://www.topografix.com/GPX/1/1/gpx.xsd" version="1.1" creator="VisuGPX - https://www.visugpx.com">
  <metadata>
    <name>Aravis, séjour du RCMF</name>
    <desc><![CDATA[Aravis, séjour du RCMF]]></desc>
  </metadata>
  <trk>
    <name><![CDATA[Aufferand]]></name>
    <trkseg>
      <trkpt lat="45.97819" lon="6.46867">
        <ele>1394</ele>
        <time>2004-01-19T18:03:57Z</time>
      </trkpt>
      <trkpt lat="45.9786" lon="6.46839">
        <ele>1410</ele>
        <time>2004-01-19T18:03:57Z</time>
      </trkpt>
      <trkpt lat="45.97901" lon="6.46728">
        <ele>1414</ele>
        <time>2004-01-19T18:03:57Z</time>
      </trkpt>
      <trkpt lat="45.98044" lon="6.46601">
        <ele>1428</ele>
        <time>2004-01-19T18:03:57Z</time>
      </trkpt>
      <trkpt lat="45.98313" lon="6.46528">
        <ele>1441</ele>
        <time>2004-01-19T18:03:57Z</time>
      </trkpt>
      <trkpt lat="45.98401" lon="6.46571">
        <ele>1442</ele>
        <time>2004-01-19T18:03:57Z</time>
      </trkpt>
      <trkpt lat="45.98484" lon="6.46571">
        <ele>1443</ele>
        <time>2004-01-19T18:03:57Z</time>
      </trkpt>
      <trkpt lat="45.98538" lon="6.46595">
        <ele>1442</ele>
        <time>2004-01-19T18:03:57Z</time>
      </trkpt>
      <trkpt lat="45.98592" lon="6.46636">
        <ele>1449</ele>
        <time>2004-01-19T18:03:57Z</time>
      </trkpt>
      <trkpt lat="45.9863" lon="6.46724">
        <ele>1465</ele>
        <time>2004-01-19T18:03:57Z</time>
      </trkpt>
      <trkpt lat="45.98718" lon="6.4694">
        <ele>1494</ele>
        <time>2004-01-19T18:03:57Z</time>
      </trkpt>
      <trkpt lat="45.98798" lon="6.47075">
        <ele>1495</ele>
        <time>2004-01-19T18:03:57Z</time>
      </trkpt>
      <trkpt lat="45.98798" lon="6.4709">
        <ele>1516</ele>
        <time>2004-01-19T18:03:57Z</time>
      </trkpt>
      <trkpt lat="45.98819" lon="6.47193">
        <ele>1510</ele>
        <time>2004-01-19T18:03:57Z</time>
      </trkpt>
      <trkpt lat="45.98825" lon="6.47271">
        <ele>1513</ele>
        <time>2004-01-19T18:03:57Z</time>
      </trkpt>
      <trkpt lat="45.98894" lon="6.47341">
        <ele>1514</ele>
        <time>2004-01-19T18:03:57Z</time>
      </trkpt>
      <trkpt lat="45.98926" lon="6.47367">
        <ele>1514</ele>
        <time>2004-01-19T18:03:57Z</time>
      </trkpt>
      <trkpt lat="45.98997" lon="6.47363">
        <ele>1571</ele>
        <time>2004-01-19T18:03:57Z</time>
      </trkpt>
      <trkpt lat="45.99059" lon="6.47399">
        <ele>1573</ele>
        <time>2004-01-19T18:03:57Z</time>
      </trkpt>
      <trkpt lat="45.99197" lon="6.4756">
        <ele>1600</ele>
        <time>2004-01-19T18:03:57Z</time>
      </trkpt>
      <trkpt lat="45.99203" lon="6.47595">
        <ele>1603</ele>
        <time>2004-01-19T18:03:57Z</time>
      </trkpt>
      <trkpt lat="45.9918" lon="6.4765">
        <ele>1606</ele>
        <time>2004-01-19T18:03:57Z</time>
      </trkpt>
      <trkpt lat="45.99184" lon="6.47711">
        <ele>1613</ele>
        <time>2004-01-19T18:03:57Z</time>
      </trkpt>
      <trkpt lat="45.99169" lon="6.47771">
        <ele>1611</ele>
        <time>2004-01-19T18:03:57Z</time>
      </trkpt>
      <trkpt lat="45.99164" lon="6.48069">
        <ele>1613</ele>
        <time>2004-01-19T18:03:57Z</time>
      </trkpt>
      <trkpt lat="45.99173" lon="6.4811">
        <ele>1613</ele>
        <time>2004-01-19T18:03:57Z</time>
      </trkpt>
      <trkpt lat="45.99167" lon="6.48221">
        <ele>1601</ele>
        <time>2004-01-19T18:03:57Z</time>
      </trkpt>
      <trkpt lat="45.99152" lon="6.48253">
        <ele>1607</ele>
        <time>2004-01-19T18:03:57Z</time>
      </trkpt>
      <trkpt lat="45.99171" lon="6.48453">
        <ele>1598</ele>
        <time>2004-01-19T18:03:57Z</time>
      </trkpt>
      <trkpt lat="45.99231" lon="6.48629">
        <ele>1605</ele>
        <time>2004-01-19T18:03:57Z</time>
      </trkpt>
      <trkpt lat="45.99237" lon="6.48719">
        <ele>1593</ele>
        <time>2004-01-19T18:03:57Z</time>
      </trkpt>
      <trkpt lat="45.9922" lon="6.48747">
        <ele>1591</ele>
        <time>2004-01-19T18:03:57Z</time>
      </trkpt>
      <trkpt lat="45.99188" lon="6.48726">
        <ele>1593</ele>
        <time>2004-01-19T18:03:57Z</time>
      </trkpt>
      <trkpt lat="45.99158" lon="6.48736">
        <ele>1594</ele>
        <time>2004-01-19T18:03:57Z</time>
      </trkpt>
      <trkpt lat="45.99132" lon="6.48764">
        <ele>1599</ele>
        <time>2004-01-19T18:03:57Z</time>
      </trkpt>
      <trkpt lat="45.99117" lon="6.48813">
        <ele>1607</ele>
        <time>2004-01-19T18:03:57Z</time>
      </trkpt>
      <trkpt lat="45.9904" lon="6.48886">
        <ele>1625</ele>
        <time>2004-01-19T18:03:57Z</time>
      </trkpt>
      <trkpt lat="45.99019" lon="6.48938">
        <ele>1635</ele>
        <time>2004-01-19T18:03:57Z</time>
      </trkpt>
      <trkpt lat="45.98971" lon="6.48949">
        <ele>1624</ele>
        <time>2004-01-19T18:03:57Z</time>
      </trkpt>
      <trkpt lat="45.98958" lon="6.48987">
        <ele>1630</ele>
        <time>2004-01-19T18:03:57Z</time>
      </trkpt>
      <trkpt lat="45.98918" lon="6.49004">
        <ele>1620</ele>
        <time>2004-01-19T18:03:57Z</time>
      </trkpt>
      <trkpt lat="45.98901" lon="6.49161">
        <ele>1626</ele>
        <time>2004-01-19T18:03:57Z</time>
      </trkpt>
      <trkpt lat="45.98858" lon="6.49153">
        <ele>1631</ele>
        <time>2004-01-19T18:03:57Z</time>
      </trkpt>
      <trkpt lat="45.98851" lon="6.49071">
        <ele>1640</ele>
        <time>2004-01-19T18:03:57Z</time>
      </trkpt>
      <trkpt lat="45.98828" lon="6.49009">
        <ele>1640</ele>
        <time>2004-01-19T18:03:57Z</time>
      </trkpt>
      <trkpt lat="45.98834" lon="6.48979">
        <ele>1644</ele>
        <time>2004-01-19T18:03:57Z</time>
      </trkpt>
      <trkpt lat="45.98789" lon="6.48884">
        <ele>1662</ele>
        <time>2004-01-19T18:03:57Z</time>
      </trkpt>
      <trkpt lat="45.98761" lon="6.4888">
        <ele>1657</ele>
        <time>2004-01-19T18:03:57Z</time>
      </trkpt>
      <trkpt lat="45.98703" lon="6.48934">
        <ele>1699</ele>
        <time>2004-01-19T18:03:57Z</time>
      </trkpt>
      <trkpt lat="45.98669" lon="6.48919">
        <ele>1692</ele>
        <time>2004-01-19T18:03:57Z</time>
      </trkpt>
      <trkpt lat="45.9863" lon="6.4897">
        <ele>1708</ele>
        <time>2004-01-19T18:03:57Z</time>
      </trkpt>
      <trkpt lat="45.98594" lon="6.48934">
        <ele>1731</ele>
        <time>2004-01-19T18:03:57Z</time>
      </trkpt>
      <trkpt lat="45.98559" lon="6.48949">
        <ele>1740</ele>
        <time>2004-01-19T18:03:57Z</time>
      </trkpt>
      <trkpt lat="45.98553" lon="6.48801">
        <ele>1772</ele>
        <time>2004-01-19T18:03:57Z</time>
      </trkpt>
      <trkpt lat="45.98521" lon="6.48766">
        <ele>1778</ele>
        <time>2004-01-19T18:03:57Z</time>
      </trkpt>
      <trkpt lat="45.98512" lon="6.48708">
        <ele>1785</ele>
        <time>2004-01-19T18:03:57Z</time>
      </trkpt>
      <trkpt lat="45.98465" lon="6.48633">
        <ele>1828</ele>
        <time>2004-01-19T18:03:57Z</time>
      </trkpt>
      <trkpt lat="45.98467" lon="6.48575">
        <ele>1834</ele>
        <time>2004-01-19T18:03:57Z</time>
      </trkpt>
      <trkpt lat="45.9845" lon="6.48565">
        <ele>1843</ele>
        <time>2004-01-19T18:03:57Z</time>
      </trkpt>
      <trkpt lat="45.98467" lon="6.4852">
        <ele>1877</ele>
        <time>2004-01-19T18:03:57Z</time>
      </trkpt>
      <trkpt lat="45.98484" lon="6.48494">
        <ele>1892</ele>
        <time>2004-01-19T18:03:57Z</time>
      </trkpt>
      <trkpt lat="45.98527" lon="6.48543">
        <ele>1881</ele>
        <time>2004-01-19T18:03:57Z</time>
      </trkpt>
      <trkpt lat="45.98602" lon="6.4855">
        <ele>1865</ele>
        <time>2004-01-19T18:03:57Z</time>
      </trkpt>
      <trkpt lat="45.98581" lon="6.4847">
        <ele>1844</ele>
        <time>2004-01-19T18:03:57Z</time>
      </trkpt>
      <trkpt lat="45.98665" lon="6.48286">
        <ele>1775</ele>
        <time>2004-01-19T18:03:57Z</time>
      </trkpt>
      <trkpt lat="45.9869" lon="6.48082">
        <ele>1743</ele>
        <time>2004-01-19T18:03:57Z</time>
      </trkpt>
      <trkpt lat="45.9872" lon="6.47966">
        <ele>1712</ele>
        <time>2004-01-19T18:03:57Z</time>
      </trkpt>
      <trkpt lat="45.98716" lon="6.47736">
        <ele>1686</ele>
        <time>2004-01-19T18:03:57Z</time>
      </trkpt>
      <trkpt lat="45.98757" lon="6.47683">
        <ele>1655</ele>
        <time>2004-01-19T18:03:57Z</time>
      </trkpt>
      <trkpt lat="45.98765" lon="6.47635">
        <ele>1654</ele>
        <time>2004-01-19T18:03:57Z</time>
      </trkpt>
      <trkpt lat="45.98763" lon="6.4758">
        <ele>1649</ele>
        <time>2004-01-19T18:03:57Z</time>
      </trkpt>
      <trkpt lat="45.98695" lon="6.47367">
        <ele>1603</ele>
        <time>2004-01-19T18:03:57Z</time>
      </trkpt>
      <trkpt lat="45.9868" lon="6.47352">
        <ele>1598</ele>
        <time>2004-01-19T18:03:57Z</time>
      </trkpt>
      <trkpt lat="45.98686" lon="6.47318">
        <ele>1598</ele>
        <time>2004-01-19T18:03:57Z</time>
      </trkpt>
      <trkpt lat="45.98707" lon="6.47243">
        <ele>1532</ele>
        <time>2004-01-19T18:03:57Z</time>
      </trkpt>
      <trkpt lat="45.98752" lon="6.47181">
        <ele>1479</ele>
        <time>2004-01-19T18:03:57Z</time>
      </trkpt>
      <trkpt lat="45.98804" lon="6.47075">
        <ele>1513</ele>
        <time>2004-01-19T18:03:57Z</time>
      </trkpt>
      <trkpt lat="45.98697" lon="6.46919">
        <ele>1497</ele>
        <time>2004-01-19T18:03:57Z</time>
      </trkpt>
      <trkpt lat="45.98587" lon="6.46668">
        <ele>1480</ele>
        <time>2004-01-19T18:03:57Z</time>
      </trkpt>
      <trkpt lat="45.98521" lon="6.4661">
        <ele>1476</ele>
        <time>2004-01-19T18:03:57Z</time>
      </trkpt>
      <trkpt lat="45.9851" lon="6.46621">
        <ele>1480</ele>
        <time>2004-01-19T18:03:57Z</time>
      </trkpt>
      <trkpt lat="45.98523" lon="6.46608">
        <ele>1457</ele>
        <time>2004-01-19T18:03:57Z</time>
      </trkpt>
      <trkpt lat="45.98512" lon="6.4661">
        <ele>1472</ele>
        <time>2004-01-19T18:03:57Z</time>
      </trkpt>
      <trkpt lat="45.98525" lon="6.46623">
        <ele>1464</ele>
        <time>2004-01-19T18:03:57Z</time>
      </trkpt>
      <trkpt lat="45.98334" lon="6.46541">
        <ele>1457</ele>
        <time>2004-01-19T18:03:57Z</time>
      </trkpt>
      <trkpt lat="45.98255" lon="6.46541">
        <ele>1454</ele>
        <time>2004-01-19T18:03:57Z</time>
      </trkpt>
      <trkpt lat="45.98019" lon="6.46618">
        <ele>1439</ele>
        <time>2004-01-19T18:03:57Z</time>
      </trkpt>
      <trkpt lat="45.97892" lon="6.46732">
        <ele>1433</ele>
        <time>2004-01-19T18:03:57Z</time>
      </trkpt>
      <trkpt lat="45.97843" lon="6.46848">
        <ele>1423</ele>
        <time>2004-01-19T18:03:57Z</time>
      </trkpt>
      <trkpt lat="45.97821" lon="6.46872">
        <ele>1420</ele>
        <time>2004-01-19T18:03:57Z</time>
      </trkpt>
      <trkpt lat="45.9774" lon="6.46912">
        <ele>1416</ele>
        <time>2004-01-19T18:03:57Z</time>
      </trkpt>
    </trkseg>
  </trk>
  <trk>
    <name><![CDATA[Beauregard2]]></name>
    <trkseg>
      <trkpt lat="45.87706" lon="6.40366">
        <ele>1462</ele>
        <time>2004-01-19T18:03:57Z</time>
      </trkpt>
      <trkpt lat="45.87749" lon="6.40342">
        <ele>1466</ele>
        <time>2004-01-19T18:03:57Z</time>
      </trkpt>
      <trkpt lat="45.87813" lon="6.40378">
        <ele>1460</ele>
        <time>2004-01-19T18:03:57Z</time>
      </trkpt>
      <trkpt lat="45.87751" lon="6.4034">
        <ele>1467</ele>
        <time>2004-01-19T18:03:57Z</time>
      </trkpt>
      <trkpt lat="45.87753" lon="6.40318">
        <ele>1471</ele>
        <time>2004-01-19T18:03:57Z</time>
      </trkpt>
      <trkpt lat="45.87848" lon="6.40314">
        <ele>1460</ele>
        <time>2004-01-19T18:03:57Z</time>
      </trkpt>
      <trkpt lat="45.87867" lon="6.4028">
        <ele>1463</ele>
        <time>2004-01-19T18:03:57Z</time>
      </trkpt>
      <trkpt lat="45.87949" lon="6.40233">
        <ele>1472</ele>
        <time>2004-01-19T18:03:57Z</time>
      </trkpt>
      <trkpt lat="45.88043" lon="6.40213">
        <ele>1543</ele>
        <time>2004-01-19T18:03:57Z</time>
      </trkpt>
      <trkpt lat="45.88114" lon="6.40235">
        <ele>1539</ele>
        <time>2004-01-19T18:03:57Z</time>
      </trkpt>
      <trkpt lat="45.88142" lon="6.40263">
        <ele>1536</ele>
        <time>2004-01-19T18:03:57Z</time>
      </trkpt>
      <trkpt lat="45.88142" lon="6.40288">
        <ele>1537</ele>
        <time>2004-01-19T18:03:57Z</time>
      </trkpt>
      <trkpt lat="45.88157" lon="6.40271">
        <ele>1544</ele>
        <time>2004-01-19T18:03:57Z</time>
      </trkpt>
      <trkpt lat="45.88182" lon="6.40318">
        <ele>1550</ele>
        <time>2004-01-19T18:03:57Z</time>
      </trkpt>
      <trkpt lat="45.88206" lon="6.40432">
        <ele>1579</ele>
        <time>2004-01-19T18:03:57Z</time>
      </trkpt>
      <trkpt lat="45.88279" lon="6.40383">
        <ele>1604</ele>
        <time>2004-01-19T18:03:57Z</time>
      </trkpt>
      <trkpt lat="45.88324" lon="6.40385">
        <ele>1585</ele>
        <time>2004-01-19T18:03:57Z</time>
      </trkpt>
      <trkpt lat="45.88378" lon="6.40306">
        <ele>1585</ele>
        <time>2004-01-19T18:03:57Z</time>
      </trkpt>
      <trkpt lat="45.88326" lon="6.40258">
        <ele>1585</ele>
        <time>2004-01-19T18:03:57Z</time>
      </trkpt>
      <trkpt lat="45.88382" lon="6.40269">
        <ele>1583</ele>
        <time>2004-01-19T18:03:57Z</time>
      </trkpt>
      <trkpt lat="45.88361" lon="6.40228">
        <ele>1583</ele>
        <time>2004-01-19T18:03:57Z</time>
      </trkpt>
      <trkpt lat="45.88363" lon="6.40188">
        <ele>1583</ele>
        <time>2004-01-19T18:03:57Z</time>
      </trkpt>
      <trkpt lat="45.88416" lon="6.40078">
        <ele>1588</ele>
        <time>2004-01-19T18:03:57Z</time>
      </trkpt>
      <trkpt lat="45.88453" lon="6.40044">
        <ele>1588</ele>
        <time>2004-01-19T18:03:57Z</time>
      </trkpt>
      <trkpt lat="45.88472" lon="6.39988">
        <ele>1592</ele>
        <time>2004-01-19T18:03:57Z</time>
      </trkpt>
      <trkpt lat="45.88431" lon="6.39808">
        <ele>1617</ele>
        <time>2004-01-19T18:03:57Z</time>
      </trkpt>
      <trkpt lat="45.88436" lon="6.39718">
        <ele>1627</ele>
        <time>2004-01-19T18:03:57Z</time>
      </trkpt>
      <trkpt lat="45.88479" lon="6.39698">
        <ele>1628</ele>
        <time>2004-01-19T18:03:57Z</time>
      </trkpt>
      <trkpt lat="45.88496" lon="6.39668">
        <ele>1635</ele>
        <time>2004-01-19T18:03:57Z</time>
      </trkpt>
      <trkpt lat="45.88479" lon="6.39638">
        <ele>1644</ele>
        <time>2004-01-19T18:03:57Z</time>
      </trkpt>
      <trkpt lat="45.88485" lon="6.39574">
        <ele>1658</ele>
        <time>2004-01-19T18:03:57Z</time>
      </trkpt>
      <trkpt lat="45.88472" lon="6.39582">
        <ele>1661</ele>
        <time>2004-01-19T18:03:57Z</time>
      </trkpt>
      <trkpt lat="45.88483" lon="6.3958">
        <ele>1663</ele>
        <time>2004-01-19T18:03:57Z</time>
      </trkpt>
      <trkpt lat="45.88554" lon="6.39713">
        <ele>1663</ele>
        <time>2004-01-19T18:03:57Z</time>
      </trkpt>
      <trkpt lat="45.88498" lon="6.39539">
        <ele>1663</ele>
        <time>2004-01-19T18:03:57Z</time>
      </trkpt>
      <trkpt lat="45.88509" lon="6.39548">
        <ele>1668</ele>
        <time>2004-01-19T18:03:57Z</time>
      </trkpt>
      <trkpt lat="45.88521" lon="6.39527">
        <ele>1673</ele>
        <time>2004-01-19T18:03:57Z</time>
      </trkpt>
      <trkpt lat="45.88526" lon="6.39559">
        <ele>1672</ele>
        <time>2004-01-19T18:03:57Z</time>
      </trkpt>
      <trkpt lat="45.88554" lon="6.39499">
        <ele>1681</ele>
        <time>2004-01-19T18:03:57Z</time>
      </trkpt>
      <trkpt lat="45.88547" lon="6.39306">
        <ele>1710</ele>
        <time>2004-01-19T18:03:57Z</time>
      </trkpt>
      <trkpt lat="45.88528" lon="6.39239">
        <ele>1706</ele>
        <time>2004-01-19T18:03:57Z</time>
      </trkpt>
      <trkpt lat="45.88451" lon="6.39082">
        <ele>1688</ele>
        <time>2004-01-19T18:03:57Z</time>
      </trkpt>
      <trkpt lat="45.88386" lon="6.38814">
        <ele>1713</ele>
        <time>2004-01-19T18:03:57Z</time>
      </trkpt>
      <trkpt lat="45.88365" lon="6.38776">
        <ele>1718</ele>
        <time>2004-01-19T18:03:57Z</time>
      </trkpt>
      <trkpt lat="45.88361" lon="6.38782">
        <ele>1719</ele>
        <time>2004-01-19T18:03:57Z</time>
      </trkpt>
      <trkpt lat="45.88346" lon="6.3867">
        <ele>1728</ele>
        <time>2004-01-19T18:03:57Z</time>
      </trkpt>
      <trkpt lat="45.88352" lon="6.38623">
        <ele>1730</ele>
        <time>2004-01-19T18:03:57Z</time>
      </trkpt>
      <trkpt lat="45.88315" lon="6.3849">
        <ele>1739</ele>
        <time>2004-01-19T18:03:57Z</time>
      </trkpt>
      <trkpt lat="45.88294" lon="6.38329">
        <ele>1730</ele>
        <time>2004-01-19T18:03:57Z</time>
      </trkpt>
      <trkpt lat="45.88208" lon="6.38115">
        <ele>1701</ele>
        <time>2004-01-19T18:03:57Z</time>
      </trkpt>
      <trkpt lat="45.882" lon="6.37984">
        <ele>1695</ele>
        <time>2004-01-19T18:03:57Z</time>
      </trkpt>
      <trkpt lat="45.88206" lon="6.37958">
        <ele>1693</ele>
        <time>2004-01-19T18:03:57Z</time>
      </trkpt>
      <trkpt lat="45.88223" lon="6.37945">
        <ele>1687</ele>
        <time>2004-01-19T18:03:57Z</time>
      </trkpt>
      <trkpt lat="45.88341" lon="6.3798">
        <ele>1691</ele>
        <time>2004-01-19T18:03:57Z</time>
      </trkpt>
      <trkpt lat="45.88403" lon="6.37958">
        <ele>1685</ele>
        <time>2004-01-19T18:03:57Z</time>
      </trkpt>
      <trkpt lat="45.88489" lon="6.37761">
        <ele>1686</ele>
        <time>2004-01-19T18:03:57Z</time>
      </trkpt>
      <trkpt lat="45.88532" lon="6.37724">
        <ele>1684</ele>
        <time>2004-01-19T18:03:57Z</time>
      </trkpt>
      <trkpt lat="45.88549" lon="6.37587">
        <ele>1693</ele>
        <time>2004-01-19T18:03:57Z</time>
      </trkpt>
      <trkpt lat="45.88519" lon="6.37512">
        <ele>1696</ele>
        <time>2004-01-19T18:03:57Z</time>
      </trkpt>
      <trkpt lat="45.88491" lon="6.37595">
        <ele>1692</ele>
        <time>2004-01-19T18:03:57Z</time>
      </trkpt>
      <trkpt lat="45.88526" lon="6.37668">
        <ele>1693</ele>
        <time>2004-01-19T18:03:57Z</time>
      </trkpt>
      <trkpt lat="45.88541" lon="6.37754">
        <ele>1688</ele>
        <time>2004-01-19T18:03:57Z</time>
      </trkpt>
      <trkpt lat="45.88504" lon="6.37892">
        <ele>1696</ele>
        <time>2004-01-19T18:03:57Z</time>
      </trkpt>
      <trkpt lat="45.88466" lon="6.37958">
        <ele>1699</ele>
        <time>2004-01-19T18:03:57Z</time>
      </trkpt>
      <trkpt lat="45.88414" lon="6.37977">
        <ele>1697</ele>
        <time>2004-01-19T18:03:57Z</time>
      </trkpt>
      <trkpt lat="45.88388" lon="6.38027">
        <ele>1695</ele>
        <time>2004-01-19T18:03:57Z</time>
      </trkpt>
      <trkpt lat="45.8829" lon="6.38027">
        <ele>1706</ele>
        <time>2004-01-19T18:03:57Z</time>
      </trkpt>
      <trkpt lat="45.88324" lon="6.3804">
        <ele>1705</ele>
        <time>2004-01-19T18:03:57Z</time>
      </trkpt>
      <trkpt lat="45.88318" lon="6.38007">
        <ele>1701</ele>
        <time>2004-01-19T18:03:57Z</time>
      </trkpt>
      <trkpt lat="45.88313" lon="6.38018">
        <ele>1692</ele>
        <time>2004-01-19T18:03:57Z</time>
      </trkpt>
      <trkpt lat="45.88333" lon="6.38018">
        <ele>1705</ele>
        <time>2004-01-19T18:03:57Z</time>
      </trkpt>
      <trkpt lat="45.8838" lon="6.38074">
        <ele>1698</ele>
        <time>2004-01-19T18:03:57Z</time>
      </trkpt>
      <trkpt lat="45.88498" lon="6.38037">
        <ele>1668</ele>
        <time>2004-01-19T18:03:57Z</time>
      </trkpt>
      <trkpt lat="45.88519" lon="6.38052">
        <ele>1664</ele>
        <time>2004-01-19T18:03:57Z</time>
      </trkpt>
      <trkpt lat="45.8856" lon="6.38123">
        <ele>1644</ele>
        <time>2004-01-19T18:03:57Z</time>
      </trkpt>
      <trkpt lat="45.88605" lon="6.38329">
        <ele>1643</ele>
        <time>2004-01-19T18:03:57Z</time>
      </trkpt>
      <trkpt lat="45.8871" lon="6.38619">
        <ele>1621</ele>
        <time>2004-01-19T18:03:57Z</time>
      </trkpt>
      <trkpt lat="45.88712" lon="6.38771">
        <ele>1599</ele>
        <time>2004-01-19T18:03:57Z</time>
      </trkpt>
      <trkpt lat="45.8874" lon="6.38855">
        <ele>1591</ele>
        <time>2004-01-19T18:03:57Z</time>
      </trkpt>
      <trkpt lat="45.88788" lon="6.38872">
        <ele>1587</ele>
        <time>2004-01-19T18:03:57Z</time>
      </trkpt>
      <trkpt lat="45.88835" lon="6.38849">
        <ele>1577</ele>
        <time>2004-01-19T18:03:57Z</time>
      </trkpt>
      <trkpt lat="45.88843" lon="6.38868">
        <ele>1586</ele>
        <time>2004-01-19T18:03:57Z</time>
      </trkpt>
      <trkpt lat="45.88869" lon="6.38812">
        <ele>1568</ele>
        <time>2004-01-19T18:03:57Z</time>
      </trkpt>
      <trkpt lat="45.89004" lon="6.38803">
        <ele>1577</ele>
        <time>2004-01-19T18:03:57Z</time>
      </trkpt>
      <trkpt lat="45.89122" lon="6.38994">
        <ele>1601</ele>
        <time>2004-01-19T18:03:57Z</time>
      </trkpt>
      <trkpt lat="45.89219" lon="6.39044">
        <ele>1610</ele>
        <time>2004-01-19T18:03:57Z</time>
      </trkpt>
      <trkpt lat="45.89236" lon="6.39106">
        <ele>1617</ele>
        <time>2004-01-19T18:03:57Z</time>
      </trkpt>
      <trkpt lat="45.89272" lon="6.39164">
        <ele>1624</ele>
        <time>2004-01-19T18:03:57Z</time>
      </trkpt>
      <trkpt lat="45.89215" lon="6.392">
        <ele>1627</ele>
        <time>2004-01-19T18:03:57Z</time>
      </trkpt>
      <trkpt lat="45.89133" lon="6.39323">
        <ele>1613</ele>
        <time>2004-01-19T18:03:57Z</time>
      </trkpt>
      <trkpt lat="45.89034" lon="6.39361">
        <ele>1592</ele>
        <time>2004-01-19T18:03:57Z</time>
      </trkpt>
      <trkpt lat="45.88974" lon="6.39421">
        <ele>1584</ele>
        <time>2004-01-19T18:03:57Z</time>
      </trkpt>
      <trkpt lat="45.88923" lon="6.39501">
        <ele>1578</ele>
        <time>2004-01-19T18:03:57Z</time>
      </trkpt>
      <trkpt lat="45.88876" lon="6.39533">
        <ele>1578</ele>
        <time>2004-01-19T18:03:57Z</time>
      </trkpt>
      <trkpt lat="45.88811" lon="6.39651">
        <ele>1572</ele>
        <time>2004-01-19T18:03:57Z</time>
      </trkpt>
      <trkpt lat="45.88779" lon="6.39743">
        <ele>1570</ele>
        <time>2004-01-19T18:03:57Z</time>
      </trkpt>
      <trkpt lat="45.88734" lon="6.3981">
        <ele>1567</ele>
        <time>2004-01-19T18:03:57Z</time>
      </trkpt>
      <trkpt lat="45.88732" lon="6.39868">
        <ele>1568</ele>
        <time>2004-01-19T18:03:57Z</time>
      </trkpt>
      <trkpt lat="45.88689" lon="6.39906">
        <ele>1571</ele>
        <time>2004-01-19T18:03:57Z</time>
      </trkpt>
      <trkpt lat="45.88646" lon="6.39986">
        <ele>1575</ele>
        <time>2004-01-19T18:03:57Z</time>
      </trkpt>
      <trkpt lat="45.88614" lon="6.40012">
        <ele>1574</ele>
        <time>2004-01-19T18:03:57Z</time>
      </trkpt>
      <trkpt lat="45.88541" lon="6.402">
        <ele>1562</ele>
        <time>2004-01-19T18:03:57Z</time>
      </trkpt>
      <trkpt lat="45.88352" lon="6.40496">
        <ele>1533</ele>
        <time>2004-01-19T18:03:57Z</time>
      </trkpt>
      <trkpt lat="45.88294" lon="6.40552">
        <ele>1531</ele>
        <time>2004-01-19T18:03:57Z</time>
      </trkpt>
      <trkpt lat="45.88112" lon="6.40469">
        <ele>1535</ele>
        <time>2004-01-19T18:03:57Z</time>
      </trkpt>
      <trkpt lat="45.88049" lon="6.40458">
        <ele>1531</ele>
        <time>2004-01-19T18:03:57Z</time>
      </trkpt>
      <trkpt lat="45.87944" lon="6.40342">
        <ele>1519</ele>
        <time>2004-01-19T18:03:57Z</time>
      </trkpt>
      <trkpt lat="45.87854" lon="6.40314">
        <ele>1498</ele>
        <time>2004-01-19T18:03:57Z</time>
      </trkpt>
      <trkpt lat="45.87755" lon="6.40321">
        <ele>1482</ele>
        <time>2004-01-19T18:03:57Z</time>
      </trkpt>
      <trkpt lat="45.87738" lon="6.40355">
        <ele>1470</ele>
        <time>2004-01-19T18:03:57Z</time>
      </trkpt>
      <trkpt lat="45.87713" lon="6.40366">
        <ele>1466</ele>
        <time>2004-01-19T18:03:57Z</time>
      </trkpt>
    </trkseg>
  </trk>
  <trk>
    <name><![CDATA[Chalet Auges 2]]></name>
    <trkseg>
      <trkpt lat="45.97194" lon="6.35095">
        <ele>1393.1</ele>
        <time>2003-02-06T13:08:28Z</time>
      </trkpt>
      <trkpt lat="45.97251" lon="6.35003">
        <ele>1389.3</ele>
        <time>2003-02-06T13:08:28Z</time>
      </trkpt>
      <trkpt lat="45.97232" lon="6.34911">
        <ele>1384.9</ele>
        <time>2003-02-06T13:08:28Z</time>
      </trkpt>
      <trkpt lat="45.97116" lon="6.3475">
        <ele>1389.7</ele>
        <time>2003-02-06T13:08:28Z</time>
      </trkpt>
      <trkpt lat="45.96974" lon="6.34617">
        <ele>1389.4</ele>
        <time>2003-02-06T13:08:28Z</time>
      </trkpt>
      <trkpt lat="45.96846" lon="6.34227">
        <ele>1401.4</ele>
        <time>2003-02-06T13:08:28Z</time>
      </trkpt>
      <trkpt lat="45.96688" lon="6.33934">
        <ele>1411.6</ele>
        <time>2003-02-06T13:08:28Z</time>
      </trkpt>
      <trkpt lat="45.96517" lon="6.33405">
        <ele>1434.3</ele>
        <time>2003-02-06T13:08:28Z</time>
      </trkpt>
      <trkpt lat="45.96404" lon="6.3331">
        <ele>1437.1</ele>
        <time>2003-02-06T13:08:28Z</time>
      </trkpt>
      <trkpt lat="45.96326" lon="6.33091">
        <ele>1424.4</ele>
        <time>2003-02-06T13:08:28Z</time>
      </trkpt>
      <trkpt lat="45.96227" lon="6.33006">
        <ele>1420.7</ele>
        <time>2003-02-06T13:08:28Z</time>
      </trkpt>
      <trkpt lat="45.96081" lon="6.33021">
        <ele>1433.7</ele>
        <time>2003-02-06T13:08:28Z</time>
      </trkpt>
      <trkpt lat="45.95912" lon="6.32818">
        <ele>1453.2</ele>
        <time>2003-02-06T13:08:28Z</time>
      </trkpt>
      <trkpt lat="45.95812" lon="6.32779">
        <ele>1461.4</ele>
        <time>2003-02-06T13:08:28Z</time>
      </trkpt>
      <trkpt lat="45.95604" lon="6.33048">
        <ele>1505</ele>
        <time>2003-02-06T13:08:28Z</time>
      </trkpt>
      <trkpt lat="45.95599" lon="6.33186">
        <ele>1504</ele>
        <time>2003-02-06T13:08:28Z</time>
      </trkpt>
      <trkpt lat="45.95475" lon="6.33397">
        <ele>1542.1</ele>
        <time>2003-02-06T13:08:28Z</time>
      </trkpt>
      <trkpt lat="45.95377" lon="6.33493">
        <ele>1533.9</ele>
        <time>2003-02-06T13:08:28Z</time>
      </trkpt>
      <trkpt lat="45.95205" lon="6.33397">
        <ele>1535.1</ele>
        <time>2003-02-06T13:08:28Z</time>
      </trkpt>
      <trkpt lat="45.95004" lon="6.33469">
        <ele>1552.9</ele>
        <time>2003-02-06T13:08:28Z</time>
      </trkpt>
      <trkpt lat="45.94966" lon="6.33531">
        <ele>1562.6</ele>
        <time>2003-02-06T13:08:28Z</time>
      </trkpt>
      <trkpt lat="45.94864" lon="6.33488">
        <ele>1573.5</ele>
        <time>2003-02-06T13:08:28Z</time>
      </trkpt>
      <trkpt lat="45.9488" lon="6.33586">
        <ele>1590.8</ele>
        <time>2003-02-06T13:08:28Z</time>
      </trkpt>
      <trkpt lat="45.94748" lon="6.33696">
        <ele>1592.7</ele>
        <time>2003-02-06T13:08:28Z</time>
      </trkpt>
      <trkpt lat="45.94835" lon="6.33734">
        <ele>1606</ele>
        <time>2003-02-06T13:08:28Z</time>
      </trkpt>
      <trkpt lat="45.94982" lon="6.33887">
        <ele>1641.9</ele>
        <time>2003-02-06T13:08:28Z</time>
      </trkpt>
      <trkpt lat="45.95007" lon="6.3395">
        <ele>1649.7</ele>
        <time>2003-02-06T13:08:28Z</time>
      </trkpt>
      <trkpt lat="45.95082" lon="6.34001">
        <ele>1662.9</ele>
        <time>2003-02-06T13:08:28Z</time>
      </trkpt>
      <trkpt lat="45.9518" lon="6.34163">
        <ele>1683.4</ele>
        <time>2003-02-06T13:08:28Z</time>
      </trkpt>
      <trkpt lat="45.95233" lon="6.34241">
        <ele>1676.7</ele>
        <time>2003-02-06T13:08:28Z</time>
      </trkpt>
      <trkpt lat="45.95384" lon="6.34378">
        <ele>1685.5</ele>
        <time>2003-02-06T13:08:28Z</time>
      </trkpt>
      <trkpt lat="45.95396" lon="6.34547">
        <ele>1719.4</ele>
        <time>2003-02-06T13:08:28Z</time>
      </trkpt>
      <trkpt lat="45.95377" lon="6.34642">
        <ele>1741.7</ele>
        <time>2003-02-06T13:08:28Z</time>
      </trkpt>
      <trkpt lat="45.9539" lon="6.34705">
        <ele>1766.3</ele>
        <time>2003-02-06T13:08:28Z</time>
      </trkpt>
      <trkpt lat="45.95446" lon="6.34651">
        <ele>1768.7</ele>
        <time>2003-02-06T13:08:28Z</time>
      </trkpt>
      <trkpt lat="45.95473" lon="6.34666">
        <ele>1774.1</ele>
        <time>2003-02-06T13:08:28Z</time>
      </trkpt>
      <trkpt lat="45.95515" lon="6.34795">
        <ele>1796.8</ele>
        <time>2003-02-06T13:08:28Z</time>
      </trkpt>
      <trkpt lat="45.95674" lon="6.34877">
        <ele>1795.4</ele>
        <time>2003-02-06T13:08:28Z</time>
      </trkpt>
      <trkpt lat="45.95795" lon="6.35093">
        <ele>1786.4</ele>
        <time>2003-02-06T13:08:28Z</time>
      </trkpt>
      <trkpt lat="45.95833" lon="6.35538">
        <ele>1778.3</ele>
        <time>2003-02-06T13:08:28Z</time>
      </trkpt>
      <trkpt lat="45.95915" lon="6.35773">
        <ele>1775.7</ele>
        <time>2003-02-06T13:08:28Z</time>
      </trkpt>
      <trkpt lat="45.95938" lon="6.35962">
        <ele>1753.5</ele>
        <time>2003-02-06T13:08:28Z</time>
      </trkpt>
      <trkpt lat="45.96029" lon="6.35872">
        <ele>1764.5</ele>
        <time>2003-02-06T13:08:28Z</time>
      </trkpt>
      <trkpt lat="45.96131" lon="6.35902">
        <ele>1786.7</ele>
        <time>2003-02-06T13:08:28Z</time>
      </trkpt>
      <trkpt lat="45.96289" lon="6.36146">
        <ele>1814.7</ele>
        <time>2003-02-06T13:08:28Z</time>
      </trkpt>
      <trkpt lat="45.96186" lon="6.362">
        <ele>1779.6</ele>
        <time>2003-02-06T13:08:28Z</time>
      </trkpt>
      <trkpt lat="45.96076" lon="6.36124">
        <ele>1762.7</ele>
        <time>2003-02-06T13:08:28Z</time>
      </trkpt>
      <trkpt lat="45.95854" lon="6.35591">
        <ele>1776.8</ele>
        <time>2003-02-06T13:08:28Z</time>
      </trkpt>
      <trkpt lat="45.958" lon="6.35087">
        <ele>1786.8</ele>
        <time>2003-02-06T13:08:28Z</time>
      </trkpt>
      <trkpt lat="45.95625" lon="6.34758">
        <ele>1794.5</ele>
        <time>2003-02-06T13:08:28Z</time>
      </trkpt>
      <trkpt lat="45.95442" lon="6.34641">
        <ele>1766.7</ele>
        <time>2003-02-06T13:08:28Z</time>
      </trkpt>
      <trkpt lat="45.95393" lon="6.34695">
        <ele>1763.1</ele>
        <time>2003-02-06T13:08:28Z</time>
      </trkpt>
      <trkpt lat="45.95317" lon="6.34289">
        <ele>1670.2</ele>
        <time>2003-02-06T13:08:28Z</time>
      </trkpt>
      <trkpt lat="45.95353" lon="6.34237">
        <ele>1660.5</ele>
        <time>2003-02-06T13:08:28Z</time>
      </trkpt>
      <trkpt lat="45.95389" lon="6.34091">
        <ele>1642.9</ele>
        <time>2003-02-06T13:08:28Z</time>
      </trkpt>
      <trkpt lat="45.95476" lon="6.33946">
        <ele>1590</ele>
        <time>2003-02-06T13:08:28Z</time>
      </trkpt>
      <trkpt lat="45.95505" lon="6.33938">
        <ele>1577.1</ele>
        <time>2003-02-06T13:08:28Z</time>
      </trkpt>
      <trkpt lat="45.95525" lon="6.33878">
        <ele>1556.4</ele>
        <time>2003-02-06T13:08:28Z</time>
      </trkpt>
      <trkpt lat="45.95509" lon="6.33842">
        <ele>1554.3</ele>
        <time>2003-02-06T13:08:28Z</time>
      </trkpt>
      <trkpt lat="45.95538" lon="6.33718">
        <ele>1532.5</ele>
        <time>2003-02-06T13:08:28Z</time>
      </trkpt>
      <trkpt lat="45.95649" lon="6.33762">
        <ele>1528.6</ele>
        <time>2003-02-06T13:08:28Z</time>
      </trkpt>
      <trkpt lat="45.95757" lon="6.33711">
        <ele>1519.9</ele>
        <time>2003-02-06T13:08:28Z</time>
      </trkpt>
      <trkpt lat="45.95787" lon="6.33675">
        <ele>1507.5</ele>
        <time>2003-02-06T13:08:28Z</time>
      </trkpt>
      <trkpt lat="45.95866" lon="6.3368">
        <ele>1498.8</ele>
        <time>2003-02-06T13:08:28Z</time>
      </trkpt>
      <trkpt lat="45.95966" lon="6.33652">
        <ele>1498.9</ele>
        <time>2003-02-06T13:08:28Z</time>
      </trkpt>
      <trkpt lat="45.96222" lon="6.33532">
        <ele>1471.4</ele>
        <time>2003-02-06T13:08:28Z</time>
      </trkpt>
      <trkpt lat="45.96297" lon="6.33528">
        <ele>1455.3</ele>
        <time>2003-02-06T13:08:28Z</time>
      </trkpt>
      <trkpt lat="45.9636" lon="6.33658">
        <ele>1437.4</ele>
        <time>2003-02-06T13:08:28Z</time>
      </trkpt>
      <trkpt lat="45.96518" lon="6.34019">
        <ele>1410.4</ele>
        <time>2003-02-06T13:08:28Z</time>
      </trkpt>
      <trkpt lat="45.96653" lon="6.34038">
        <ele>1404.3</ele>
        <time>2003-02-06T13:08:28Z</time>
      </trkpt>
      <trkpt lat="45.96826" lon="6.34219">
        <ele>1398.7</ele>
        <time>2003-02-06T13:08:28Z</time>
      </trkpt>
      <trkpt lat="45.96978" lon="6.34637">
        <ele>1387.8</ele>
        <time>2003-02-06T13:08:28Z</time>
      </trkpt>
      <trkpt lat="45.97118" lon="6.34757">
        <ele>1390.3</ele>
        <time>2003-02-06T13:08:28Z</time>
      </trkpt>
      <trkpt lat="45.97234" lon="6.34914">
        <ele>1384.7</ele>
        <time>2003-02-06T13:08:28Z</time>
      </trkpt>
      <trkpt lat="45.97249" lon="6.35002">
        <ele>1389.4</ele>
        <time>2003-02-06T13:08:28Z</time>
      </trkpt>
      <trkpt lat="45.97193" lon="6.35102">
        <ele>1393.2</ele>
        <time>2003-02-06T13:08:28Z</time>
      </trkpt>
      <trkpt lat="45.97191" lon="6.35102">
        <ele>1392.1</ele>
        <time>2003-02-06T13:08:28Z</time>
      </trkpt>
    </trkseg>
  </trk>
  <trk>
    <name><![CDATA[Chalets des Auges]]></name>
    <trkseg>
      <trkpt lat="45.97188" lon="6.35087">
        <ele>1404</ele>
        <time>2003-02-06T13:08:28Z</time>
      </trkpt>
      <trkpt lat="45.97227" lon="6.35055">
        <ele>1403</ele>
        <time>2003-02-06T13:08:28Z</time>
      </trkpt>
      <trkpt lat="45.97253" lon="6.3499">
        <ele>1398</ele>
        <time>2003-02-06T13:08:28Z</time>
      </trkpt>
      <trkpt lat="45.97147" lon="6.34789">
        <ele>1394</ele>
        <time>2003-02-06T13:08:28Z</time>
      </trkpt>
      <trkpt lat="45.9698" lon="6.34632">
        <ele>1404</ele>
        <time>2003-02-06T13:08:28Z</time>
      </trkpt>
      <trkpt lat="45.96856" lon="6.34235">
        <ele>1410</ele>
        <time>2003-02-06T13:08:28Z</time>
      </trkpt>
      <trkpt lat="45.96849" lon="6.34244">
        <ele>1410</ele>
        <time>2003-02-06T13:08:28Z</time>
      </trkpt>
      <trkpt lat="45.96849" lon="6.34222">
        <ele>1412</ele>
        <time>2003-02-06T13:08:28Z</time>
      </trkpt>
      <trkpt lat="45.96723" lon="6.34033">
        <ele>1413</ele>
        <time>2003-02-06T13:08:28Z</time>
      </trkpt>
      <trkpt lat="45.96678" lon="6.33939">
        <ele>1417</ele>
        <time>2003-02-06T13:08:28Z</time>
      </trkpt>
      <trkpt lat="45.96665" lon="6.33804">
        <ele>1425</ele>
        <time>2003-02-06T13:08:28Z</time>
      </trkpt>
      <trkpt lat="45.96639" lon="6.33767">
        <ele>1425</ele>
        <time>2003-02-06T13:08:28Z</time>
      </trkpt>
      <trkpt lat="45.9659" lon="6.33632">
        <ele>1426</ele>
        <time>2003-02-06T13:08:28Z</time>
      </trkpt>
      <trkpt lat="45.9654" lon="6.33424">
        <ele>1435</ele>
        <time>2003-02-06T13:08:28Z</time>
      </trkpt>
      <trkpt lat="45.96405" lon="6.33308">
        <ele>1441</ele>
        <time>2003-02-06T13:08:28Z</time>
      </trkpt>
      <trkpt lat="45.96323" lon="6.33098">
        <ele>1436</ele>
        <time>2003-02-06T13:08:28Z</time>
      </trkpt>
      <trkpt lat="45.96229" lon="6.3301">
        <ele>1436</ele>
        <time>2003-02-06T13:08:28Z</time>
      </trkpt>
      <trkpt lat="45.96186" lon="6.32858">
        <ele>1425</ele>
        <time>2003-02-06T13:08:28Z</time>
      </trkpt>
      <trkpt lat="45.96075" lon="6.32598">
        <ele>1418</ele>
        <time>2003-02-06T13:08:28Z</time>
      </trkpt>
      <trkpt lat="45.96012" lon="6.32557">
        <ele>1415</ele>
        <time>2003-02-06T13:08:28Z</time>
      </trkpt>
      <trkpt lat="45.95927" lon="6.32428">
        <ele>1416</ele>
        <time>2003-02-06T13:08:28Z</time>
      </trkpt>
      <trkpt lat="45.95796" lon="6.3233">
        <ele>1417</ele>
        <time>2003-02-06T13:08:28Z</time>
      </trkpt>
      <trkpt lat="45.95776" lon="6.32295">
        <ele>1417</ele>
        <time>2003-02-06T13:08:28Z</time>
      </trkpt>
      <trkpt lat="45.95699" lon="6.32225">
        <ele>1416</ele>
        <time>2003-02-06T13:08:28Z</time>
      </trkpt>
      <trkpt lat="45.95635" lon="6.32216">
        <ele>1417</ele>
        <time>2003-02-06T13:08:28Z</time>
      </trkpt>
      <trkpt lat="45.95598" lon="6.32257">
        <ele>1413</ele>
        <time>2003-02-06T13:08:28Z</time>
      </trkpt>
      <trkpt lat="45.95517" lon="6.32272">
        <ele>1405</ele>
        <time>2003-02-06T13:08:28Z</time>
      </trkpt>
      <trkpt lat="45.95463" lon="6.32323">
        <ele>1401</ele>
        <time>2003-02-06T13:08:28Z</time>
      </trkpt>
      <trkpt lat="45.95422" lon="6.32338">
        <ele>1402</ele>
        <time>2003-02-06T13:08:28Z</time>
      </trkpt>
      <trkpt lat="45.95302" lon="6.32272">
        <ele>1400</ele>
        <time>2003-02-06T13:08:28Z</time>
      </trkpt>
      <trkpt lat="45.95304" lon="6.3224">
        <ele>1398</ele>
        <time>2003-02-06T13:08:28Z</time>
      </trkpt>
      <trkpt lat="45.95259" lon="6.32212">
        <ele>1397</ele>
        <time>2003-02-06T13:08:28Z</time>
      </trkpt>
      <trkpt lat="45.95165" lon="6.32229">
        <ele>1403</ele>
        <time>2003-02-06T13:08:28Z</time>
      </trkpt>
      <trkpt lat="45.95139" lon="6.32265">
        <ele>1405</ele>
        <time>2003-02-06T13:08:28Z</time>
      </trkpt>
      <trkpt lat="45.94972" lon="6.32184">
        <ele>1421</ele>
        <time>2003-02-06T13:08:28Z</time>
      </trkpt>
      <trkpt lat="45.94944" lon="6.32197">
        <ele>1423</ele>
        <time>2003-02-06T13:08:28Z</time>
      </trkpt>
      <trkpt lat="45.94877" lon="6.32175">
        <ele>1423</ele>
        <time>2003-02-06T13:08:28Z</time>
      </trkpt>
      <trkpt lat="45.94776" lon="6.32248">
        <ele>1421</ele>
        <time>2003-02-06T13:08:28Z</time>
      </trkpt>
      <trkpt lat="45.94658" lon="6.32261">
        <ele>1423</ele>
        <time>2003-02-06T13:08:28Z</time>
      </trkpt>
      <trkpt lat="45.9456" lon="6.32317">
        <ele>1430</ele>
        <time>2003-02-06T13:08:28Z</time>
      </trkpt>
      <trkpt lat="45.94543" lon="6.32334">
        <ele>1461</ele>
        <time>2003-02-06T13:08:28Z</time>
      </trkpt>
      <trkpt lat="45.94467" lon="6.32454">
        <ele>1462</ele>
        <time>2003-02-06T13:08:28Z</time>
      </trkpt>
      <trkpt lat="45.94431" lon="6.32585">
        <ele>1478</ele>
        <time>2003-02-06T13:08:28Z</time>
      </trkpt>
      <trkpt lat="45.94427" lon="6.32658">
        <ele>1487</ele>
        <time>2003-02-06T13:08:28Z</time>
      </trkpt>
      <trkpt lat="45.94442" lon="6.3275">
        <ele>1500</ele>
        <time>2003-02-06T13:08:28Z</time>
      </trkpt>
      <trkpt lat="45.9442" lon="6.32939">
        <ele>1522</ele>
        <time>2003-02-06T13:08:28Z</time>
      </trkpt>
      <trkpt lat="45.94474" lon="6.32997">
        <ele>1540</ele>
        <time>2003-02-06T13:08:28Z</time>
      </trkpt>
      <trkpt lat="45.94573" lon="6.33207">
        <ele>1567</ele>
        <time>2003-02-06T13:08:28Z</time>
      </trkpt>
      <trkpt lat="45.94643" lon="6.33437">
        <ele>1566</ele>
        <time>2003-02-06T13:08:28Z</time>
      </trkpt>
      <trkpt lat="45.94695" lon="6.33533">
        <ele>1569</ele>
        <time>2003-02-06T13:08:28Z</time>
      </trkpt>
      <trkpt lat="45.9471" lon="6.33654">
        <ele>1573</ele>
        <time>2003-02-06T13:08:28Z</time>
      </trkpt>
      <trkpt lat="45.94748" lon="6.33703">
        <ele>1578</ele>
        <time>2003-02-06T13:08:28Z</time>
      </trkpt>
      <trkpt lat="45.94832" lon="6.33735">
        <ele>1595</ele>
        <time>2003-02-06T13:08:28Z</time>
      </trkpt>
      <trkpt lat="45.94899" lon="6.33791">
        <ele>1608</ele>
        <time>2003-02-06T13:08:28Z</time>
      </trkpt>
      <trkpt lat="45.94985" lon="6.33896">
        <ele>1634</ele>
        <time>2003-02-06T13:08:28Z</time>
      </trkpt>
      <trkpt lat="45.95012" lon="6.33954">
        <ele>1641</ele>
        <time>2003-02-06T13:08:28Z</time>
      </trkpt>
      <trkpt lat="45.95077" lon="6.33993">
        <ele>1654</ele>
        <time>2003-02-06T13:08:28Z</time>
      </trkpt>
      <trkpt lat="45.95122" lon="6.34051">
        <ele>1664</ele>
        <time>2003-02-06T13:08:28Z</time>
      </trkpt>
      <trkpt lat="45.95178" lon="6.34156">
        <ele>1673</ele>
        <time>2003-02-06T13:08:28Z</time>
      </trkpt>
      <trkpt lat="45.95193" lon="6.34149">
        <ele>1684</ele>
        <time>2003-02-06T13:08:28Z</time>
      </trkpt>
      <trkpt lat="45.95206" lon="6.34201">
        <ele>1682</ele>
        <time>2003-02-06T13:08:28Z</time>
      </trkpt>
      <trkpt lat="45.95225" lon="6.34224">
        <ele>1682</ele>
        <time>2003-02-06T13:08:28Z</time>
      </trkpt>
      <trkpt lat="45.95274" lon="6.34239">
        <ele>1680</ele>
        <time>2003-02-06T13:08:28Z</time>
      </trkpt>
      <trkpt lat="45.95384" lon="6.34383">
        <ele>1680</ele>
        <time>2003-02-06T13:08:28Z</time>
      </trkpt>
      <trkpt lat="45.95399" lon="6.34542">
        <ele>1693</ele>
        <time>2003-02-06T13:08:28Z</time>
      </trkpt>
      <trkpt lat="45.95381" lon="6.34647">
        <ele>1711</ele>
        <time>2003-02-06T13:08:28Z</time>
      </trkpt>
      <trkpt lat="45.95399" lon="6.34699">
        <ele>1725</ele>
        <time>2003-02-06T13:08:28Z</time>
      </trkpt>
      <trkpt lat="45.95431" lon="6.34662">
        <ele>1752</ele>
        <time>2003-02-06T13:08:28Z</time>
      </trkpt>
      <trkpt lat="45.95467" lon="6.34669">
        <ele>1755</ele>
        <time>2003-02-06T13:08:28Z</time>
      </trkpt>
      <trkpt lat="45.95517" lon="6.34799">
        <ele>1766</ele>
        <time>2003-02-06T13:08:28Z</time>
      </trkpt>
      <trkpt lat="45.95671" lon="6.34868">
        <ele>1794</ele>
        <time>2003-02-06T13:08:28Z</time>
      </trkpt>
      <trkpt lat="45.95748" lon="6.34975">
        <ele>1796</ele>
        <time>2003-02-06T13:08:28Z</time>
      </trkpt>
      <trkpt lat="45.95806" lon="6.35156">
        <ele>1793</ele>
        <time>2003-02-06T13:08:28Z</time>
      </trkpt>
      <trkpt lat="45.95824" lon="6.35415">
        <ele>1788</ele>
        <time>2003-02-06T13:08:28Z</time>
      </trkpt>
      <trkpt lat="45.95851" lon="6.35508">
        <ele>1787</ele>
        <time>2003-02-06T13:08:28Z</time>
      </trkpt>
      <trkpt lat="45.95856" lon="6.35591">
        <ele>1784</ele>
        <time>2003-02-06T13:08:28Z</time>
      </trkpt>
      <trkpt lat="45.95914" lon="6.35778">
        <ele>1783</ele>
        <time>2003-02-06T13:08:28Z</time>
      </trkpt>
      <trkpt lat="45.95935" lon="6.35986">
        <ele>1765</ele>
        <time>2003-02-06T13:08:28Z</time>
      </trkpt>
      <trkpt lat="45.95942" lon="6.35962">
        <ele>1766</ele>
        <time>2003-02-06T13:08:28Z</time>
      </trkpt>
      <trkpt lat="45.9595" lon="6.35967">
        <ele>1765</ele>
        <time>2003-02-06T13:08:28Z</time>
      </trkpt>
      <trkpt lat="45.95939" lon="6.35967">
        <ele>1765</ele>
        <time>2003-02-06T13:08:28Z</time>
      </trkpt>
      <trkpt lat="45.95948" lon="6.35958">
        <ele>1767</ele>
        <time>2003-02-06T13:08:28Z</time>
      </trkpt>
      <trkpt lat="45.95942" lon="6.35967">
        <ele>1768</ele>
        <time>2003-02-06T13:08:28Z</time>
      </trkpt>
      <trkpt lat="45.9595" lon="6.35958">
        <ele>1770</ele>
        <time>2003-02-06T13:08:28Z</time>
      </trkpt>
      <trkpt lat="45.95937" lon="6.35952">
        <ele>1764</ele>
        <time>2003-02-06T13:08:28Z</time>
      </trkpt>
      <trkpt lat="45.95942" lon="6.35969">
        <ele>1762</ele>
        <time>2003-02-06T13:08:28Z</time>
      </trkpt>
      <trkpt lat="45.95999" lon="6.35937">
        <ele>1763</ele>
        <time>2003-02-06T13:08:28Z</time>
      </trkpt>
      <trkpt lat="45.96008" lon="6.35879">
        <ele>1766</ele>
        <time>2003-02-06T13:08:28Z</time>
      </trkpt>
      <trkpt lat="45.96023" lon="6.35868">
        <ele>1767</ele>
        <time>2003-02-06T13:08:28Z</time>
      </trkpt>
      <trkpt lat="45.96092" lon="6.35879">
        <ele>1772</ele>
        <time>2003-02-06T13:08:28Z</time>
      </trkpt>
      <trkpt lat="45.96133" lon="6.35909">
        <ele>1780</ele>
        <time>2003-02-06T13:08:28Z</time>
      </trkpt>
      <trkpt lat="45.9619" lon="6.36059">
        <ele>1798</ele>
        <time>2003-02-06T13:08:28Z</time>
      </trkpt>
      <trkpt lat="45.96229" lon="6.3607">
        <ele>1806</ele>
        <time>2003-02-06T13:08:28Z</time>
      </trkpt>
      <trkpt lat="45.96291" lon="6.36147">
        <ele>1818</ele>
        <time>2003-02-06T13:08:28Z</time>
      </trkpt>
      <trkpt lat="45.96236" lon="6.36061">
        <ele>1822</ele>
        <time>2003-02-06T13:08:28Z</time>
      </trkpt>
      <trkpt lat="45.9621" lon="6.36048">
        <ele>1821</ele>
        <time>2003-02-06T13:08:28Z</time>
      </trkpt>
      <trkpt lat="45.96165" lon="6.35956">
        <ele>1815</ele>
        <time>2003-02-06T13:08:28Z</time>
      </trkpt>
      <trkpt lat="45.96019" lon="6.35915">
        <ele>1788</ele>
        <time>2003-02-06T13:08:28Z</time>
      </trkpt>
      <trkpt lat="45.95987" lon="6.35922">
        <ele>1784</ele>
        <time>2003-02-06T13:08:28Z</time>
      </trkpt>
      <trkpt lat="45.95933" lon="6.35971">
        <ele>1772</ele>
        <time>2003-02-06T13:08:28Z</time>
      </trkpt>
      <trkpt lat="45.95931" lon="6.3595">
        <ele>1750</ele>
        <time>2003-02-06T13:08:28Z</time>
      </trkpt>
      <trkpt lat="45.95944" lon="6.35954">
        <ele>1747</ele>
        <time>2003-02-06T13:08:28Z</time>
      </trkpt>
      <trkpt lat="45.95907" lon="6.35769">
        <ele>1766</ele>
        <time>2003-02-06T13:08:28Z</time>
      </trkpt>
      <trkpt lat="45.95836" lon="6.3552">
        <ele>1776</ele>
        <time>2003-02-06T13:08:28Z</time>
      </trkpt>
      <trkpt lat="45.95802" lon="6.35087">
        <ele>1787</ele>
        <time>2003-02-06T13:08:28Z</time>
      </trkpt>
      <trkpt lat="45.9563" lon="6.34761">
        <ele>1793</ele>
        <time>2003-02-06T13:08:28Z</time>
      </trkpt>
      <trkpt lat="45.95437" lon="6.34634">
        <ele>1781</ele>
        <time>2003-02-06T13:08:28Z</time>
      </trkpt>
      <trkpt lat="45.95388" lon="6.34686">
        <ele>1777</ele>
        <time>2003-02-06T13:08:28Z</time>
      </trkpt>
      <trkpt lat="45.95362" lon="6.3454">
        <ele>1733</ele>
        <time>2003-02-06T13:08:28Z</time>
      </trkpt>
      <trkpt lat="45.95321" lon="6.34284">
        <ele>1687</ele>
        <time>2003-02-06T13:08:28Z</time>
      </trkpt>
      <trkpt lat="45.95349" lon="6.34254">
        <ele>1671</ele>
        <time>2003-02-06T13:08:28Z</time>
      </trkpt>
      <trkpt lat="45.9539" lon="6.341">
        <ele>1658</ele>
        <time>2003-02-06T13:08:28Z</time>
      </trkpt>
      <trkpt lat="45.95469" lon="6.33967">
        <ele>1644</ele>
        <time>2003-02-06T13:08:28Z</time>
      </trkpt>
      <trkpt lat="45.95487" lon="6.33913">
        <ele>1635</ele>
        <time>2003-02-06T13:08:28Z</time>
      </trkpt>
      <trkpt lat="45.95545" lon="6.33718">
        <ele>1558</ele>
        <time>2003-02-06T13:08:28Z</time>
      </trkpt>
      <trkpt lat="45.9565" lon="6.33761">
        <ele>1547</ele>
        <time>2003-02-06T13:08:28Z</time>
      </trkpt>
      <trkpt lat="45.95755" lon="6.33718">
        <ele>1539</ele>
        <time>2003-02-06T13:08:28Z</time>
      </trkpt>
      <trkpt lat="45.95787" lon="6.33679">
        <ele>1538</ele>
        <time>2003-02-06T13:08:28Z</time>
      </trkpt>
      <trkpt lat="45.9586" lon="6.33684">
        <ele>1533</ele>
        <time>2003-02-06T13:08:28Z</time>
      </trkpt>
      <trkpt lat="45.95963" lon="6.33651">
        <ele>1532</ele>
        <time>2003-02-06T13:08:28Z</time>
      </trkpt>
      <trkpt lat="45.96008" lon="6.33523">
        <ele>1525</ele>
        <time>2003-02-06T13:08:28Z</time>
      </trkpt>
      <trkpt lat="45.96049" lon="6.33461">
        <ele>1524</ele>
        <time>2003-02-06T13:08:28Z</time>
      </trkpt>
      <trkpt lat="45.96081" lon="6.33458">
        <ele>1520</ele>
        <time>2003-02-06T13:08:28Z</time>
      </trkpt>
      <trkpt lat="45.96225" lon="6.33533">
        <ele>1520</ele>
        <time>2003-02-06T13:08:28Z</time>
      </trkpt>
      <trkpt lat="45.96298" lon="6.33525">
        <ele>1456</ele>
        <time>2003-02-06T13:08:28Z</time>
      </trkpt>
      <trkpt lat="45.96347" lon="6.33598">
        <ele>1451</ele>
        <time>2003-02-06T13:08:28Z</time>
      </trkpt>
      <trkpt lat="45.9636" lon="6.33656">
        <ele>1446</ele>
        <time>2003-02-06T13:08:28Z</time>
      </trkpt>
      <trkpt lat="45.96399" lon="6.33722">
        <ele>1441</ele>
        <time>2003-02-06T13:08:28Z</time>
      </trkpt>
      <trkpt lat="45.96514" lon="6.34023">
        <ele>1426</ele>
        <time>2003-02-06T13:08:28Z</time>
      </trkpt>
      <trkpt lat="45.9665" lon="6.34038">
        <ele>1415</ele>
        <time>2003-02-06T13:08:28Z</time>
      </trkpt>
      <trkpt lat="45.9677" lon="6.34143">
        <ele>1409</ele>
        <time>2003-02-06T13:08:28Z</time>
      </trkpt>
      <trkpt lat="45.96821" lon="6.34205">
        <ele>1410</ele>
        <time>2003-02-06T13:08:28Z</time>
      </trkpt>
      <trkpt lat="45.96853" lon="6.34315">
        <ele>1411</ele>
        <time>2003-02-06T13:08:28Z</time>
      </trkpt>
      <trkpt lat="45.96926" lon="6.34512">
        <ele>1400</ele>
        <time>2003-02-06T13:08:28Z</time>
      </trkpt>
      <trkpt lat="45.96939" lon="6.34551">
        <ele>1399</ele>
        <time>2003-02-06T13:08:28Z</time>
      </trkpt>
      <trkpt lat="45.96946" lon="6.34576">
        <ele>1381</ele>
        <time>2003-02-06T13:08:28Z</time>
      </trkpt>
      <trkpt lat="45.96963" lon="6.34604">
        <ele>1381</ele>
        <time>2003-02-06T13:08:28Z</time>
      </trkpt>
      <trkpt lat="45.97025" lon="6.34686">
        <ele>1382</ele>
        <time>2003-02-06T13:08:28Z</time>
      </trkpt>
      <trkpt lat="45.97115" lon="6.34742">
        <ele>1404</ele>
        <time>2003-02-06T13:08:28Z</time>
      </trkpt>
      <trkpt lat="45.97107" lon="6.34763">
        <ele>1403</ele>
        <time>2003-02-06T13:08:28Z</time>
      </trkpt>
      <trkpt lat="45.97137" lon="6.34776">
        <ele>1402</ele>
        <time>2003-02-06T13:08:28Z</time>
      </trkpt>
      <trkpt lat="45.97244" lon="6.34933">
        <ele>1392</ele>
        <time>2003-02-06T13:08:28Z</time>
      </trkpt>
      <trkpt lat="45.97265" lon="6.35029">
        <ele>1391</ele>
        <time>2003-02-06T13:08:28Z</time>
      </trkpt>
      <trkpt lat="45.97259" lon="6.35051">
        <ele>1390</ele>
        <time>2003-02-06T13:08:28Z</time>
      </trkpt>
      <trkpt lat="45.97233" lon="6.35063">
        <ele>1391</ele>
        <time>2003-02-06T13:08:28Z</time>
      </trkpt>
      <trkpt lat="45.97201" lon="6.35117">
        <ele>1393</ele>
        <time>2003-02-06T13:08:28Z</time>
      </trkpt>
    </trkseg>
  </trk>
  <trk>
    <name><![CDATA[Christomet]]></name>
    <trkseg>
      <trkpt lat="45.87847" lon="6.52634">
        <ele>1218.6</ele>
        <time>2003-02-06T13:08:28Z</time>
      </trkpt>
      <trkpt lat="45.86184" lon="6.53264">
        <ele>1921.8</ele>
        <time>2003-02-06T13:08:28Z</time>
      </trkpt>
      <trkpt lat="45.86184" lon="6.53506">
        <ele>1887.6</ele>
        <time>2003-02-06T13:08:28Z</time>
      </trkpt>
      <trkpt lat="45.86292" lon="6.53992">
        <ele>1871.2</ele>
        <time>2003-02-06T13:08:28Z</time>
      </trkpt>
      <trkpt lat="45.86306" lon="6.54689">
        <ele>1820.7</ele>
        <time>2003-02-06T13:08:28Z</time>
      </trkpt>
      <trkpt lat="45.86249" lon="6.55023">
        <ele>1829.6</ele>
        <time>2003-02-06T13:08:28Z</time>
      </trkpt>
      <trkpt lat="45.86017" lon="6.55376">
        <ele>1827.3</ele>
        <time>2003-02-06T13:08:28Z</time>
      </trkpt>
      <trkpt lat="45.86056" lon="6.55585">
        <ele>1786.2</ele>
        <time>2003-02-06T13:08:28Z</time>
      </trkpt>
      <trkpt lat="45.86162" lon="6.55713">
        <ele>1755.8</ele>
        <time>2003-02-06T13:08:28Z</time>
      </trkpt>
      <trkpt lat="45.86245" lon="6.55958">
        <ele>1730.2</ele>
        <time>2003-02-06T13:08:28Z</time>
      </trkpt>
      <trkpt lat="45.86351" lon="6.5614">
        <ele>1750.2</ele>
        <time>2003-02-06T13:08:28Z</time>
      </trkpt>
      <trkpt lat="45.86271" lon="6.56837">
        <ele>1843.9</ele>
        <time>2003-02-06T13:08:28Z</time>
      </trkpt>
      <trkpt lat="45.86414" lon="6.56925">
        <ele>1807.9</ele>
        <time>2003-02-06T13:08:28Z</time>
      </trkpt>
      <trkpt lat="45.86491" lon="6.56857">
        <ele>1781.5</ele>
        <time>2003-02-06T13:08:28Z</time>
      </trkpt>
      <trkpt lat="45.86773" lon="6.56769">
        <ele>1733.8</ele>
        <time>2003-02-06T13:08:28Z</time>
      </trkpt>
      <trkpt lat="45.86903" lon="6.56676">
        <ele>1730.7</ele>
        <time>2003-02-06T13:08:28Z</time>
      </trkpt>
      <trkpt lat="45.86991" lon="6.56667">
        <ele>1752.7</ele>
        <time>2003-02-06T13:08:28Z</time>
      </trkpt>
      <trkpt lat="45.87106" lon="6.56595">
        <ele>1770.2</ele>
        <time>2003-02-06T13:08:28Z</time>
      </trkpt>
      <trkpt lat="45.87084" lon="6.56345">
        <ele>1716.6</ele>
        <time>2003-02-06T13:08:28Z</time>
      </trkpt>
      <trkpt lat="45.87132" lon="6.56091">
        <ele>1651.9</ele>
        <time>2003-02-06T13:08:28Z</time>
      </trkpt>
      <trkpt lat="45.87228" lon="6.55924">
        <ele>1580.4</ele>
        <time>2003-02-06T13:08:28Z</time>
      </trkpt>
      <trkpt lat="45.87307" lon="6.55869">
        <ele>1535.7</ele>
        <time>2003-02-06T13:08:28Z</time>
      </trkpt>
      <trkpt lat="45.87308" lon="6.5573">
        <ele>1513.5</ele>
        <time>2003-02-06T13:08:28Z</time>
      </trkpt>
      <trkpt lat="45.87186" lon="6.55553">
        <ele>1463.8</ele>
        <time>2003-02-06T13:08:28Z</time>
      </trkpt>
      <trkpt lat="45.87107" lon="6.55373">
        <ele>1413.8</ele>
        <time>2003-02-06T13:08:28Z</time>
      </trkpt>
      <trkpt lat="45.87143" lon="6.55079">
        <ele>1388.6</ele>
        <time>2003-02-06T13:08:28Z</time>
      </trkpt>
      <trkpt lat="45.87282" lon="6.54729">
        <ele>1371.5</ele>
        <time>2003-02-06T13:08:28Z</time>
      </trkpt>
      <trkpt lat="45.87338" lon="6.54436">
        <ele>1357.2</ele>
        <time>2003-02-06T13:08:28Z</time>
      </trkpt>
      <trkpt lat="45.87428" lon="6.54079">
        <ele>1343</ele>
        <time>2003-02-06T13:08:28Z</time>
      </trkpt>
      <trkpt lat="45.87569" lon="6.53938">
        <ele>1322.5</ele>
        <time>2003-02-06T13:08:28Z</time>
      </trkpt>
      <trkpt lat="45.877" lon="6.53687">
        <ele>1315.5</ele>
        <time>2003-02-06T13:08:28Z</time>
      </trkpt>
      <trkpt lat="45.87803" lon="6.53269">
        <ele>1307.6</ele>
        <time>2003-02-06T13:08:28Z</time>
      </trkpt>
      <trkpt lat="45.87809" lon="6.53118">
        <ele>1300.6</ele>
        <time>2003-02-06T13:08:28Z</time>
      </trkpt>
      <trkpt lat="45.87842" lon="6.53014">
        <ele>1281.7</ele>
        <time>2003-02-06T13:08:28Z</time>
      </trkpt>
      <trkpt lat="45.87835" lon="6.52959">
        <ele>1281.1</ele>
        <time>2003-02-06T13:08:28Z</time>
      </trkpt>
      <trkpt lat="45.87907" lon="6.52732">
        <ele>1222.7</ele>
        <time>2003-02-06T13:08:28Z</time>
      </trkpt>
      <trkpt lat="45.87847" lon="6.52631">
        <ele>1218.4</ele>
        <time>2003-02-06T13:08:28Z</time>
      </trkpt>
    </trkseg>
  </trk>
  <trk>
    <name><![CDATA[Col de Cenise]]></name>
    <trkseg>
      <trkpt lat="46.00128" lon="6.4149">
        <ele>1006</ele>
        <time>2003-02-06T13:08:28Z</time>
      </trkpt>
      <trkpt lat="46.00064" lon="6.41565">
        <ele>1011</ele>
        <time>2003-02-06T13:08:28Z</time>
      </trkpt>
      <trkpt lat="46.00059" lon="6.41599">
        <ele>1018</ele>
        <time>2003-02-06T13:08:28Z</time>
      </trkpt>
      <trkpt lat="45.99971" lon="6.41698">
        <ele>1032</ele>
        <time>2003-02-06T13:08:28Z</time>
      </trkpt>
      <trkpt lat="45.99941" lon="6.4178">
        <ele>1051</ele>
        <time>2003-02-06T13:08:28Z</time>
      </trkpt>
      <trkpt lat="45.99948" lon="6.41799">
        <ele>1054</ele>
        <time>2003-02-06T13:08:28Z</time>
      </trkpt>
      <trkpt lat="45.9998" lon="6.41795">
        <ele>1054</ele>
        <time>2003-02-06T13:08:28Z</time>
      </trkpt>
      <trkpt lat="45.99965" lon="6.41891">
        <ele>1054</ele>
        <time>2003-02-06T13:08:28Z</time>
      </trkpt>
      <trkpt lat="46.00027" lon="6.41784">
        <ele>1057</ele>
        <time>2003-02-06T13:08:28Z</time>
      </trkpt>
      <trkpt lat="46.00012" lon="6.4181">
        <ele>1057</ele>
        <time>2003-02-06T13:08:28Z</time>
      </trkpt>
      <trkpt lat="46.00021" lon="6.41823">
        <ele>1062</ele>
        <time>2003-02-06T13:08:28Z</time>
      </trkpt>
      <trkpt lat="46.00034" lon="6.41964">
        <ele>1097</ele>
        <time>2003-02-06T13:08:28Z</time>
      </trkpt>
      <trkpt lat="45.99885" lon="6.4219">
        <ele>1160</ele>
        <time>2003-02-06T13:08:28Z</time>
      </trkpt>
      <trkpt lat="45.99888" lon="6.42147">
        <ele>1160</ele>
        <time>2003-02-06T13:08:28Z</time>
      </trkpt>
      <trkpt lat="45.99911" lon="6.42205">
        <ele>1171</ele>
        <time>2003-02-06T13:08:28Z</time>
      </trkpt>
      <trkpt lat="45.9998" lon="6.42271">
        <ele>1210</ele>
        <time>2003-02-06T13:08:28Z</time>
      </trkpt>
      <trkpt lat="46.00001" lon="6.42267">
        <ele>1215</ele>
        <time>2003-02-06T13:08:28Z</time>
      </trkpt>
      <trkpt lat="46.00014" lon="6.42243">
        <ele>1217</ele>
        <time>2003-02-06T13:08:28Z</time>
      </trkpt>
      <trkpt lat="46.00008" lon="6.42213">
        <ele>1222</ele>
        <time>2003-02-06T13:08:28Z</time>
      </trkpt>
      <trkpt lat="46.00042" lon="6.42241">
        <ele>1222</ele>
        <time>2003-02-06T13:08:28Z</time>
      </trkpt>
      <trkpt lat="46.00027" lon="6.42174">
        <ele>1221</ele>
        <time>2003-02-06T13:08:28Z</time>
      </trkpt>
      <trkpt lat="46.00083" lon="6.4222">
        <ele>1227</ele>
        <time>2003-02-06T13:08:28Z</time>
      </trkpt>
      <trkpt lat="46.00066" lon="6.42269">
        <ele>1271</ele>
        <time>2003-02-06T13:08:28Z</time>
      </trkpt>
      <trkpt lat="46.00175" lon="6.42466">
        <ele>1292</ele>
        <time>2003-02-06T13:08:28Z</time>
      </trkpt>
      <trkpt lat="46.00167" lon="6.42415">
        <ele>1312</ele>
        <time>2003-02-06T13:08:28Z</time>
      </trkpt>
      <trkpt lat="46.0022" lon="6.42604">
        <ele>1334</ele>
        <time>2003-02-06T13:08:28Z</time>
      </trkpt>
      <trkpt lat="46.00304" lon="6.42623">
        <ele>1284</ele>
        <time>2003-02-06T13:08:28Z</time>
      </trkpt>
      <trkpt lat="46.00261" lon="6.4261">
        <ele>1295</ele>
        <time>2003-02-06T13:08:28Z</time>
      </trkpt>
      <trkpt lat="46.00415" lon="6.42773">
        <ele>1288</ele>
        <time>2003-02-06T13:08:28Z</time>
      </trkpt>
      <trkpt lat="46.00493" lon="6.42814">
        <ele>1288</ele>
        <time>2003-02-06T13:08:28Z</time>
      </trkpt>
      <trkpt lat="46.00426" lon="6.42782">
        <ele>1312</ele>
        <time>2003-02-06T13:08:28Z</time>
      </trkpt>
      <trkpt lat="46.00456" lon="6.4284">
        <ele>1313</ele>
        <time>2003-02-06T13:08:28Z</time>
      </trkpt>
      <trkpt lat="46.00428" lon="6.42923">
        <ele>1313</ele>
        <time>2003-02-06T13:08:28Z</time>
      </trkpt>
      <trkpt lat="46.00454" lon="6.42962">
        <ele>1307</ele>
        <time>2003-02-06T13:08:28Z</time>
      </trkpt>
      <trkpt lat="46.00523" lon="6.43024">
        <ele>1309</ele>
        <time>2003-02-06T13:08:28Z</time>
      </trkpt>
      <trkpt lat="46.00392" lon="6.42906">
        <ele>1309</ele>
        <time>2003-02-06T13:08:28Z</time>
      </trkpt>
      <trkpt lat="46.00506" lon="6.42988">
        <ele>1313</ele>
        <time>2003-02-06T13:08:28Z</time>
      </trkpt>
      <trkpt lat="46.0048" lon="6.43189">
        <ele>1315</ele>
        <time>2003-02-06T13:08:28Z</time>
      </trkpt>
      <trkpt lat="46.00538" lon="6.43217">
        <ele>1348</ele>
        <time>2003-02-06T13:08:28Z</time>
      </trkpt>
      <trkpt lat="46.00576" lon="6.43346">
        <ele>1356</ele>
        <time>2003-02-06T13:08:28Z</time>
      </trkpt>
      <trkpt lat="46.00579" lon="6.43423">
        <ele>1365</ele>
        <time>2003-02-06T13:08:28Z</time>
      </trkpt>
      <trkpt lat="46.00566" lon="6.43406">
        <ele>1389</ele>
        <time>2003-02-06T13:08:28Z</time>
      </trkpt>
      <trkpt lat="46.00564" lon="6.43438">
        <ele>1411</ele>
        <time>2003-02-06T13:08:28Z</time>
      </trkpt>
      <trkpt lat="46.00594" lon="6.43597">
        <ele>1433</ele>
        <time>2003-02-06T13:08:28Z</time>
      </trkpt>
      <trkpt lat="46.00609" lon="6.43612">
        <ele>1436</ele>
        <time>2003-02-06T13:08:28Z</time>
      </trkpt>
      <trkpt lat="46.00626" lon="6.43524">
        <ele>1448</ele>
        <time>2003-02-06T13:08:28Z</time>
      </trkpt>
      <trkpt lat="46.00709" lon="6.43408">
        <ele>1464</ele>
        <time>2003-02-06T13:08:28Z</time>
      </trkpt>
      <trkpt lat="46.0075" lon="6.43316">
        <ele>1487</ele>
        <time>2003-02-06T13:08:28Z</time>
      </trkpt>
      <trkpt lat="46.00806" lon="6.43232">
        <ele>1510</ele>
        <time>2003-02-06T13:08:28Z</time>
      </trkpt>
      <trkpt lat="46.00812" lon="6.43256">
        <ele>1556</ele>
        <time>2003-02-06T13:08:28Z</time>
      </trkpt>
      <trkpt lat="46.0086" lon="6.43299">
        <ele>1558</ele>
        <time>2003-02-06T13:08:28Z</time>
      </trkpt>
      <trkpt lat="46.00879" lon="6.43353">
        <ele>1566</ele>
        <time>2003-02-06T13:08:28Z</time>
      </trkpt>
      <trkpt lat="46.00922" lon="6.43578">
        <ele>1584</ele>
        <time>2003-02-06T13:08:28Z</time>
      </trkpt>
      <trkpt lat="46.00935" lon="6.43606">
        <ele>1594</ele>
        <time>2003-02-06T13:08:28Z</time>
      </trkpt>
      <trkpt lat="46.00945" lon="6.43606">
        <ele>1609</ele>
        <time>2003-02-06T13:08:28Z</time>
      </trkpt>
      <trkpt lat="46.00976" lon="6.43734">
        <ele>1626</ele>
        <time>2003-02-06T13:08:28Z</time>
      </trkpt>
      <trkpt lat="46.01025" lon="6.43758">
        <ele>1630</ele>
        <time>2003-02-06T13:08:28Z</time>
      </trkpt>
      <trkpt lat="46.01053" lon="6.43812">
        <ele>1635</ele>
        <time>2003-02-06T13:08:28Z</time>
      </trkpt>
      <trkpt lat="46.01233" lon="6.44007">
        <ele>1660</ele>
        <time>2003-02-06T13:08:28Z</time>
      </trkpt>
      <trkpt lat="46.01263" lon="6.44028">
        <ele>1664</ele>
        <time>2003-02-06T13:08:28Z</time>
      </trkpt>
      <trkpt lat="46.01357" lon="6.44149">
        <ele>1676</ele>
        <time>2003-02-06T13:08:28Z</time>
      </trkpt>
      <trkpt lat="46.01357" lon="6.44121">
        <ele>1684</ele>
        <time>2003-02-06T13:08:28Z</time>
      </trkpt>
      <trkpt lat="46.01413" lon="6.44153">
        <ele>1689</ele>
        <time>2003-02-06T13:08:28Z</time>
      </trkpt>
      <trkpt lat="46.01435" lon="6.44149">
        <ele>1688</ele>
        <time>2003-02-06T13:08:28Z</time>
      </trkpt>
      <trkpt lat="46.01497" lon="6.44073">
        <ele>1687</ele>
        <time>2003-02-06T13:08:28Z</time>
      </trkpt>
      <trkpt lat="46.01512" lon="6.4408">
        <ele>1688</ele>
        <time>2003-02-06T13:08:28Z</time>
      </trkpt>
      <trkpt lat="46.01553" lon="6.44142">
        <ele>1692</ele>
        <time>2003-02-06T13:08:28Z</time>
      </trkpt>
      <trkpt lat="46.01581" lon="6.44136">
        <ele>1692</ele>
        <time>2003-02-06T13:08:28Z</time>
      </trkpt>
      <trkpt lat="46.01649" lon="6.44058">
        <ele>1688</ele>
        <time>2003-02-06T13:08:28Z</time>
      </trkpt>
      <trkpt lat="46.01714" lon="6.44084">
        <ele>1692</ele>
        <time>2003-02-06T13:08:28Z</time>
      </trkpt>
      <trkpt lat="46.01729" lon="6.44016">
        <ele>1696</ele>
        <time>2003-02-06T13:08:28Z</time>
      </trkpt>
      <trkpt lat="46.01799" lon="6.43904">
        <ele>1708</ele>
        <time>2003-02-06T13:08:28Z</time>
      </trkpt>
      <trkpt lat="46.0184" lon="6.43867">
        <ele>1722</ele>
        <time>2003-02-06T13:08:28Z</time>
      </trkpt>
      <trkpt lat="46.01857" lon="6.43827">
        <ele>1737</ele>
        <time>2003-02-06T13:08:28Z</time>
      </trkpt>
      <trkpt lat="46.01855" lon="6.43767">
        <ele>1748</ele>
        <time>2003-02-06T13:08:28Z</time>
      </trkpt>
      <trkpt lat="46.01883" lon="6.43728">
        <ele>1765</ele>
        <time>2003-02-06T13:08:28Z</time>
      </trkpt>
      <trkpt lat="46.01883" lon="6.43535">
        <ele>1798</ele>
        <time>2003-02-06T13:08:28Z</time>
      </trkpt>
      <trkpt lat="46.01954" lon="6.43501">
        <ele>1807</ele>
        <time>2003-02-06T13:08:28Z</time>
      </trkpt>
      <trkpt lat="46.01924" lon="6.43503">
        <ele>1826</ele>
        <time>2003-02-06T13:08:28Z</time>
      </trkpt>
      <trkpt lat="46.01945" lon="6.43503">
        <ele>1813</ele>
        <time>2003-02-06T13:08:28Z</time>
      </trkpt>
      <trkpt lat="46.01939" lon="6.43496">
        <ele>1815</ele>
        <time>2003-02-06T13:08:28Z</time>
      </trkpt>
      <trkpt lat="46.01922" lon="6.43533">
        <ele>1814</ele>
        <time>2003-02-06T13:08:28Z</time>
      </trkpt>
      <trkpt lat="46.01918" lon="6.43586">
        <ele>1809</ele>
        <time>2003-02-06T13:08:28Z</time>
      </trkpt>
      <trkpt lat="46.0189" lon="6.43604">
        <ele>1804</ele>
        <time>2003-02-06T13:08:28Z</time>
      </trkpt>
      <trkpt lat="46.01896" lon="6.43694">
        <ele>1792</ele>
        <time>2003-02-06T13:08:28Z</time>
      </trkpt>
      <trkpt lat="46.01877" lon="6.43713">
        <ele>1790</ele>
        <time>2003-02-06T13:08:28Z</time>
      </trkpt>
      <trkpt lat="46.01862" lon="6.43762">
        <ele>1765</ele>
        <time>2003-02-06T13:08:28Z</time>
      </trkpt>
      <trkpt lat="46.01845" lon="6.43773">
        <ele>1763</ele>
        <time>2003-02-06T13:08:28Z</time>
      </trkpt>
      <trkpt lat="46.01849" lon="6.4379">
        <ele>1759</ele>
        <time>2003-02-06T13:08:28Z</time>
      </trkpt>
      <trkpt lat="46.01834" lon="6.43797">
        <ele>1756</ele>
        <time>2003-02-06T13:08:28Z</time>
      </trkpt>
      <trkpt lat="46.01838" lon="6.4385">
        <ele>1746</ele>
        <time>2003-02-06T13:08:28Z</time>
      </trkpt>
      <trkpt lat="46.01815" lon="6.43887">
        <ele>1737</ele>
        <time>2003-02-06T13:08:28Z</time>
      </trkpt>
      <trkpt lat="46.01795" lon="6.43968">
        <ele>1726</ele>
        <time>2003-02-06T13:08:28Z</time>
      </trkpt>
      <trkpt lat="46.0192" lon="6.44582">
        <ele>1709</ele>
        <time>2003-02-06T13:08:28Z</time>
      </trkpt>
      <trkpt lat="46.01915" lon="6.44784">
        <ele>1726</ele>
        <time>2003-02-06T13:08:28Z</time>
      </trkpt>
      <trkpt lat="46.01954" lon="6.44917">
        <ele>1732</ele>
        <time>2003-02-06T13:08:28Z</time>
      </trkpt>
      <trkpt lat="46.01864" lon="6.44872">
        <ele>1732</ele>
        <time>2003-02-06T13:08:28Z</time>
      </trkpt>
      <trkpt lat="46.01789" lon="6.44872">
        <ele>1730</ele>
        <time>2003-02-06T13:08:28Z</time>
      </trkpt>
      <trkpt lat="46.01643" lon="6.44921">
        <ele>1739</ele>
        <time>2003-02-06T13:08:28Z</time>
      </trkpt>
      <trkpt lat="46.01544" lon="6.44912">
        <ele>1741</ele>
        <time>2003-02-06T13:08:28Z</time>
      </trkpt>
      <trkpt lat="46.01463" lon="6.44947">
        <ele>1748</ele>
        <time>2003-02-06T13:08:28Z</time>
      </trkpt>
      <trkpt lat="46.01418" lon="6.4491">
        <ele>1751</ele>
        <time>2003-02-06T13:08:28Z</time>
      </trkpt>
      <trkpt lat="46.01411" lon="6.44882">
        <ele>1754</ele>
        <time>2003-02-06T13:08:28Z</time>
      </trkpt>
      <trkpt lat="46.01368" lon="6.44827">
        <ele>1752</ele>
        <time>2003-02-06T13:08:28Z</time>
      </trkpt>
      <trkpt lat="46.01362" lon="6.44842">
        <ele>1753</ele>
        <time>2003-02-06T13:08:28Z</time>
      </trkpt>
      <trkpt lat="46.01364" lon="6.44831">
        <ele>1753</ele>
        <time>2003-02-06T13:08:28Z</time>
      </trkpt>
      <trkpt lat="46.013" lon="6.44767">
        <ele>1752</ele>
        <time>2003-02-06T13:08:28Z</time>
      </trkpt>
      <trkpt lat="46.01207" lon="6.44739">
        <ele>1755</ele>
        <time>2003-02-06T13:08:28Z</time>
      </trkpt>
      <trkpt lat="46.01023" lon="6.44754">
        <ele>1768</ele>
        <time>2003-02-06T13:08:28Z</time>
      </trkpt>
      <trkpt lat="46.00997" lon="6.44595">
        <ele>1750</ele>
        <time>2003-02-06T13:08:28Z</time>
      </trkpt>
      <trkpt lat="46.0101" lon="6.4452">
        <ele>1742</ele>
        <time>2003-02-06T13:08:28Z</time>
      </trkpt>
      <trkpt lat="46.00999" lon="6.44492">
        <ele>1733</ele>
        <time>2003-02-06T13:08:28Z</time>
      </trkpt>
      <trkpt lat="46.00945" lon="6.44479">
        <ele>1718</ele>
        <time>2003-02-06T13:08:28Z</time>
      </trkpt>
      <trkpt lat="46.00952" lon="6.44458">
        <ele>1705</ele>
        <time>2003-02-06T13:08:28Z</time>
      </trkpt>
      <trkpt lat="46.00937" lon="6.44438">
        <ele>1697</ele>
        <time>2003-02-06T13:08:28Z</time>
      </trkpt>
      <trkpt lat="46.00866" lon="6.44503">
        <ele>1680</ele>
        <time>2003-02-06T13:08:28Z</time>
      </trkpt>
      <trkpt lat="46.0084" lon="6.44505">
        <ele>1675</ele>
        <time>2003-02-06T13:08:28Z</time>
      </trkpt>
      <trkpt lat="46.008" lon="6.44475">
        <ele>1660</ele>
        <time>2003-02-06T13:08:28Z</time>
      </trkpt>
      <trkpt lat="46.00739" lon="6.44269">
        <ele>1631</ele>
        <time>2003-02-06T13:08:28Z</time>
      </trkpt>
      <trkpt lat="46.00709" lon="6.44073">
        <ele>1608</ele>
        <time>2003-02-06T13:08:28Z</time>
      </trkpt>
      <trkpt lat="46.00709" lon="6.4405">
        <ele>1606</ele>
        <time>2003-02-06T13:08:28Z</time>
      </trkpt>
      <trkpt lat="46.00774" lon="6.43945">
        <ele>1596</ele>
        <time>2003-02-06T13:08:28Z</time>
      </trkpt>
      <trkpt lat="46.00716" lon="6.43951">
        <ele>1577</ele>
        <time>2003-02-06T13:08:28Z</time>
      </trkpt>
      <trkpt lat="46.00679" lon="6.43938">
        <ele>1572</ele>
        <time>2003-02-06T13:08:28Z</time>
      </trkpt>
      <trkpt lat="46.00664" lon="6.43889">
        <ele>1564</ele>
        <time>2003-02-06T13:08:28Z</time>
      </trkpt>
      <trkpt lat="46.00609" lon="6.43889">
        <ele>1564</ele>
        <time>2003-02-06T13:08:28Z</time>
      </trkpt>
      <trkpt lat="46.00643" lon="6.43904">
        <ele>1511</ele>
        <time>2003-02-06T13:08:28Z</time>
      </trkpt>
      <trkpt lat="46.00594" lon="6.43885">
        <ele>1542</ele>
        <time>2003-02-06T13:08:28Z</time>
      </trkpt>
      <trkpt lat="46.00551" lon="6.4381">
        <ele>1520</ele>
        <time>2003-02-06T13:08:28Z</time>
      </trkpt>
      <trkpt lat="46.00538" lon="6.43752">
        <ele>1511</ele>
        <time>2003-02-06T13:08:28Z</time>
      </trkpt>
      <trkpt lat="46.00514" lon="6.43552">
        <ele>1476</ele>
        <time>2003-02-06T13:08:28Z</time>
      </trkpt>
      <trkpt lat="46.00559" lon="6.43417">
        <ele>1460</ele>
        <time>2003-02-06T13:08:28Z</time>
      </trkpt>
      <trkpt lat="46.00576" lon="6.43295">
        <ele>1448</ele>
        <time>2003-02-06T13:08:28Z</time>
      </trkpt>
      <trkpt lat="46.00549" lon="6.4323">
        <ele>1434</ele>
        <time>2003-02-06T13:08:28Z</time>
      </trkpt>
      <trkpt lat="46.0051" lon="6.43037">
        <ele>1410</ele>
        <time>2003-02-06T13:08:28Z</time>
      </trkpt>
      <trkpt lat="46.00512" lon="6.42981">
        <ele>1399</ele>
        <time>2003-02-06T13:08:28Z</time>
      </trkpt>
      <trkpt lat="46.00495" lon="6.42932">
        <ele>1391</ele>
        <time>2003-02-06T13:08:28Z</time>
      </trkpt>
      <trkpt lat="46.00467" lon="6.4291">
        <ele>1384</ele>
        <time>2003-02-06T13:08:28Z</time>
      </trkpt>
      <trkpt lat="46.00482" lon="6.42915">
        <ele>1381</ele>
        <time>2003-02-06T13:08:28Z</time>
      </trkpt>
      <trkpt lat="46.00482" lon="6.4293">
        <ele>1374</ele>
        <time>2003-02-06T13:08:28Z</time>
      </trkpt>
      <trkpt lat="46.00465" lon="6.42919">
        <ele>1370</ele>
        <time>2003-02-06T13:08:28Z</time>
      </trkpt>
      <trkpt lat="46.0043" lon="6.42771">
        <ele>1345</ele>
        <time>2003-02-06T13:08:28Z</time>
      </trkpt>
      <trkpt lat="46.0022" lon="6.42604">
        <ele>1334</ele>
        <time>2003-02-06T13:08:28Z</time>
      </trkpt>
      <trkpt lat="46.00167" lon="6.42415">
        <ele>1312</ele>
        <time>2003-02-06T13:08:28Z</time>
      </trkpt>
      <trkpt lat="46.00175" lon="6.42466">
        <ele>1292</ele>
        <time>2003-02-06T13:08:28Z</time>
      </trkpt>
      <trkpt lat="46.00066" lon="6.42269">
        <ele>1271</ele>
        <time>2003-02-06T13:08:28Z</time>
      </trkpt>
      <trkpt lat="46.00083" lon="6.4222">
        <ele>1227</ele>
        <time>2003-02-06T13:08:28Z</time>
      </trkpt>
      <trkpt lat="46.00027" lon="6.42174">
        <ele>1221</ele>
        <time>2003-02-06T13:08:28Z</time>
      </trkpt>
      <trkpt lat="46.00042" lon="6.42241">
        <ele>1222</ele>
        <time>2003-02-06T13:08:28Z</time>
      </trkpt>
      <trkpt lat="46.00008" lon="6.42213">
        <ele>1222</ele>
        <time>2003-02-06T13:08:28Z</time>
      </trkpt>
      <trkpt lat="46.00014" lon="6.42243">
        <ele>1217</ele>
        <time>2003-02-06T13:08:28Z</time>
      </trkpt>
      <trkpt lat="46.00001" lon="6.42267">
        <ele>1215</ele>
        <time>2003-02-06T13:08:28Z</time>
      </trkpt>
      <trkpt lat="45.9998" lon="6.42271">
        <ele>1210</ele>
        <time>2003-02-06T13:08:28Z</time>
      </trkpt>
      <trkpt lat="45.99911" lon="6.42205">
        <ele>1171</ele>
        <time>2003-02-06T13:08:28Z</time>
      </trkpt>
      <trkpt lat="45.99888" lon="6.42147">
        <ele>1160</ele>
        <time>2003-02-06T13:08:28Z</time>
      </trkpt>
      <trkpt lat="45.99885" lon="6.4219">
        <ele>1160</ele>
        <time>2003-02-06T13:08:28Z</time>
      </trkpt>
      <trkpt lat="46.00034" lon="6.41964">
        <ele>1097</ele>
        <time>2003-02-06T13:08:28Z</time>
      </trkpt>
      <trkpt lat="46.00021" lon="6.41823">
        <ele>1062</ele>
        <time>2003-02-06T13:08:28Z</time>
      </trkpt>
      <trkpt lat="46.00012" lon="6.4181">
        <ele>1057</ele>
        <time>2003-02-06T13:08:28Z</time>
      </trkpt>
      <trkpt lat="46.00027" lon="6.41784">
        <ele>1057</ele>
        <time>2003-02-06T13:08:28Z</time>
      </trkpt>
      <trkpt lat="45.99965" lon="6.41891">
        <ele>1054</ele>
        <time>2003-02-06T13:08:28Z</time>
      </trkpt>
      <trkpt lat="45.9998" lon="6.41795">
        <ele>1054</ele>
        <time>2003-02-06T13:08:28Z</time>
      </trkpt>
      <trkpt lat="45.99948" lon="6.41799">
        <ele>1054</ele>
        <time>2003-02-06T13:08:28Z</time>
      </trkpt>
      <trkpt lat="45.99941" lon="6.4178">
        <ele>1051</ele>
        <time>2003-02-06T13:08:28Z</time>
      </trkpt>
      <trkpt lat="45.99971" lon="6.41698">
        <ele>1032</ele>
        <time>2003-02-06T13:08:28Z</time>
      </trkpt>
      <trkpt lat="46.00059" lon="6.41599">
        <ele>1018</ele>
        <time>2003-02-06T13:08:28Z</time>
      </trkpt>
      <trkpt lat="46.00064" lon="6.41565">
        <ele>1011</ele>
        <time>2003-02-06T13:08:28Z</time>
      </trkpt>
      <trkpt lat="46.00128" lon="6.4149">
        <ele>1006</ele>
        <time>2003-02-06T13:08:28Z</time>
      </trkpt>
    </trkseg>
  </trk>
  <trk>
    <name><![CDATA[Col de Spee]]></name>
    <trkseg>
      <trkpt lat="45.97225" lon="6.3507">
        <ele>1389</ele>
        <time>2004-01-19T18:03:57Z</time>
      </trkpt>
      <trkpt lat="45.97272" lon="6.35089">
        <ele>1394</ele>
        <time>2004-01-19T18:03:57Z</time>
      </trkpt>
      <trkpt lat="45.97416" lon="6.35302">
        <ele>1410</ele>
        <time>2004-01-19T18:03:57Z</time>
      </trkpt>
      <trkpt lat="45.97456" lon="6.35334">
        <ele>1421</ele>
        <time>2004-01-19T18:03:57Z</time>
      </trkpt>
      <trkpt lat="45.97474" lon="6.35381">
        <ele>1431</ele>
        <time>2004-01-19T18:03:57Z</time>
      </trkpt>
      <trkpt lat="45.97607" lon="6.35585">
        <ele>1457</ele>
        <time>2004-01-19T18:03:57Z</time>
      </trkpt>
      <trkpt lat="45.97656" lon="6.35714">
        <ele>1448</ele>
        <time>2004-01-19T18:03:57Z</time>
      </trkpt>
      <trkpt lat="45.97708" lon="6.35776">
        <ele>1442</ele>
        <time>2004-01-19T18:03:57Z</time>
      </trkpt>
      <trkpt lat="45.97838" lon="6.36012">
        <ele>1436</ele>
        <time>2004-01-19T18:03:57Z</time>
      </trkpt>
      <trkpt lat="45.97853" lon="6.36083">
        <ele>1430</ele>
        <time>2004-01-19T18:03:57Z</time>
      </trkpt>
      <trkpt lat="45.97946" lon="6.36282">
        <ele>1432</ele>
        <time>2004-01-19T18:03:57Z</time>
      </trkpt>
      <trkpt lat="45.97959" lon="6.36338">
        <ele>1435</ele>
        <time>2004-01-19T18:03:57Z</time>
      </trkpt>
      <trkpt lat="45.98027" lon="6.36456">
        <ele>1436</ele>
        <time>2004-01-19T18:03:57Z</time>
      </trkpt>
      <trkpt lat="45.98102" lon="6.36501">
        <ele>1432</ele>
        <time>2004-01-19T18:03:57Z</time>
      </trkpt>
      <trkpt lat="45.98128" lon="6.36499">
        <ele>1428</ele>
        <time>2004-01-19T18:03:57Z</time>
      </trkpt>
      <trkpt lat="45.98231" lon="6.36542">
        <ele>1418</ele>
        <time>2004-01-19T18:03:57Z</time>
      </trkpt>
      <trkpt lat="45.9827" lon="6.36574">
        <ele>1415</ele>
        <time>2004-01-19T18:03:57Z</time>
      </trkpt>
      <trkpt lat="45.98293" lon="6.36634">
        <ele>1407</ele>
        <time>2004-01-19T18:03:57Z</time>
      </trkpt>
      <trkpt lat="45.98345" lon="6.36638">
        <ele>1397</ele>
        <time>2004-01-19T18:03:57Z</time>
      </trkpt>
      <trkpt lat="45.98356" lon="6.36683">
        <ele>1398</ele>
        <time>2004-01-19T18:03:57Z</time>
      </trkpt>
      <trkpt lat="45.98405" lon="6.36696">
        <ele>1394</ele>
        <time>2004-01-19T18:03:57Z</time>
      </trkpt>
      <trkpt lat="45.98426" lon="6.36673">
        <ele>1392</ele>
        <time>2004-01-19T18:03:57Z</time>
      </trkpt>
      <trkpt lat="45.98474" lon="6.36677">
        <ele>1376</ele>
        <time>2004-01-19T18:03:57Z</time>
      </trkpt>
      <trkpt lat="45.98482" lon="6.36694">
        <ele>1364</ele>
        <time>2004-01-19T18:03:57Z</time>
      </trkpt>
      <trkpt lat="45.98493" lon="6.36694">
        <ele>1366</ele>
        <time>2004-01-19T18:03:57Z</time>
      </trkpt>
      <trkpt lat="45.98499" lon="6.36675">
        <ele>1362</ele>
        <time>2004-01-19T18:03:57Z</time>
      </trkpt>
      <trkpt lat="45.98508" lon="6.36553">
        <ele>1347</ele>
        <time>2004-01-19T18:03:57Z</time>
      </trkpt>
      <trkpt lat="45.98549" lon="6.36497">
        <ele>1358</ele>
        <time>2004-01-19T18:03:57Z</time>
      </trkpt>
      <trkpt lat="45.98574" lon="6.36503">
        <ele>1357</ele>
        <time>2004-01-19T18:03:57Z</time>
      </trkpt>
      <trkpt lat="45.9865" lon="6.36636">
        <ele>1360</ele>
        <time>2004-01-19T18:03:57Z</time>
      </trkpt>
      <trkpt lat="45.98667" lon="6.36696">
        <ele>1361</ele>
        <time>2004-01-19T18:03:57Z</time>
      </trkpt>
      <trkpt lat="45.98712" lon="6.36756">
        <ele>1367</ele>
        <time>2004-01-19T18:03:57Z</time>
      </trkpt>
      <trkpt lat="45.98746" lon="6.36881">
        <ele>1369</ele>
        <time>2004-01-19T18:03:57Z</time>
      </trkpt>
      <trkpt lat="45.98783" lon="6.36939">
        <ele>1399</ele>
        <time>2004-01-19T18:03:57Z</time>
      </trkpt>
      <trkpt lat="45.98819" lon="6.37085">
        <ele>1393</ele>
        <time>2004-01-19T18:03:57Z</time>
      </trkpt>
      <trkpt lat="45.98849" lon="6.37143">
        <ele>1400</ele>
        <time>2004-01-19T18:03:57Z</time>
      </trkpt>
      <trkpt lat="45.98883" lon="6.37196">
        <ele>1416</ele>
        <time>2004-01-19T18:03:57Z</time>
      </trkpt>
      <trkpt lat="45.98984" lon="6.37246">
        <ele>1432</ele>
        <time>2004-01-19T18:03:57Z</time>
      </trkpt>
      <trkpt lat="45.99098" lon="6.37334">
        <ele>1430</ele>
        <time>2004-01-19T18:03:57Z</time>
      </trkpt>
      <trkpt lat="45.99128" lon="6.37308">
        <ele>1431</ele>
        <time>2004-01-19T18:03:57Z</time>
      </trkpt>
      <trkpt lat="45.99173" lon="6.37196">
        <ele>1430</ele>
        <time>2004-01-19T18:03:57Z</time>
      </trkpt>
      <trkpt lat="45.99207" lon="6.37164">
        <ele>1430</ele>
        <time>2004-01-19T18:03:57Z</time>
      </trkpt>
      <trkpt lat="45.99308" lon="6.37196">
        <ele>1440</ele>
        <time>2004-01-19T18:03:57Z</time>
      </trkpt>
      <trkpt lat="45.99405" lon="6.37093">
        <ele>1449</ele>
        <time>2004-01-19T18:03:57Z</time>
      </trkpt>
      <trkpt lat="45.99488" lon="6.37104">
        <ele>1473</ele>
        <time>2004-01-19T18:03:57Z</time>
      </trkpt>
      <trkpt lat="45.99501" lon="6.37046">
        <ele>1478</ele>
        <time>2004-01-19T18:03:57Z</time>
      </trkpt>
      <trkpt lat="45.9948" lon="6.36952">
        <ele>1492</ele>
        <time>2004-01-19T18:03:57Z</time>
      </trkpt>
      <trkpt lat="45.99506" lon="6.36935">
        <ele>1507</ele>
        <time>2004-01-19T18:03:57Z</time>
      </trkpt>
      <trkpt lat="45.99566" lon="6.36748">
        <ele>1532</ele>
        <time>2004-01-19T18:03:57Z</time>
      </trkpt>
      <trkpt lat="45.99607" lon="6.36679">
        <ele>1542</ele>
        <time>2004-01-19T18:03:57Z</time>
      </trkpt>
      <trkpt lat="45.99654" lon="6.3663">
        <ele>1547</ele>
        <time>2004-01-19T18:03:57Z</time>
      </trkpt>
      <trkpt lat="45.9969" lon="6.36542">
        <ele>1561</ele>
        <time>2004-01-19T18:03:57Z</time>
      </trkpt>
      <trkpt lat="45.99744" lon="6.36426">
        <ele>1574</ele>
        <time>2004-01-19T18:03:57Z</time>
      </trkpt>
      <trkpt lat="45.99767" lon="6.36387">
        <ele>1594</ele>
        <time>2004-01-19T18:03:57Z</time>
      </trkpt>
      <trkpt lat="45.99789" lon="6.36349">
        <ele>1594</ele>
        <time>2004-01-19T18:03:57Z</time>
      </trkpt>
      <trkpt lat="45.99778" lon="6.36321">
        <ele>1581</ele>
        <time>2004-01-19T18:03:57Z</time>
      </trkpt>
      <trkpt lat="45.99782" lon="6.36299">
        <ele>1584</ele>
        <time>2004-01-19T18:03:57Z</time>
      </trkpt>
      <trkpt lat="45.99767" lon="6.36276">
        <ele>1594</ele>
        <time>2004-01-19T18:03:57Z</time>
      </trkpt>
      <trkpt lat="45.9978" lon="6.36229">
        <ele>1606</ele>
        <time>2004-01-19T18:03:57Z</time>
      </trkpt>
      <trkpt lat="45.99853" lon="6.36151">
        <ele>1646</ele>
        <time>2004-01-19T18:03:57Z</time>
      </trkpt>
      <trkpt lat="45.99939" lon="6.36134">
        <ele>1680</ele>
        <time>2004-01-19T18:03:57Z</time>
      </trkpt>
      <trkpt lat="45.999" lon="6.36158">
        <ele>1654</ele>
        <time>2004-01-19T18:03:57Z</time>
      </trkpt>
      <trkpt lat="45.99903" lon="6.36218">
        <ele>1647</ele>
        <time>2004-01-19T18:03:57Z</time>
      </trkpt>
      <trkpt lat="45.99847" lon="6.36383">
        <ele>1636</ele>
        <time>2004-01-19T18:03:57Z</time>
      </trkpt>
      <trkpt lat="45.99759" lon="6.36413">
        <ele>1557</ele>
        <time>2004-01-19T18:03:57Z</time>
      </trkpt>
      <trkpt lat="45.99729" lon="6.36503">
        <ele>1570</ele>
        <time>2004-01-19T18:03:57Z</time>
      </trkpt>
      <trkpt lat="45.99688" lon="6.3655">
        <ele>1572</ele>
        <time>2004-01-19T18:03:57Z</time>
      </trkpt>
      <trkpt lat="45.99673" lon="6.36604">
        <ele>1570</ele>
        <time>2004-01-19T18:03:57Z</time>
      </trkpt>
      <trkpt lat="45.99632" lon="6.36668">
        <ele>1559</ele>
        <time>2004-01-19T18:03:57Z</time>
      </trkpt>
      <trkpt lat="45.99607" lon="6.36683">
        <ele>1553</ele>
        <time>2004-01-19T18:03:57Z</time>
      </trkpt>
      <trkpt lat="45.99551" lon="6.36838">
        <ele>1550</ele>
        <time>2004-01-19T18:03:57Z</time>
      </trkpt>
      <trkpt lat="45.99495" lon="6.36881">
        <ele>1525</ele>
        <time>2004-01-19T18:03:57Z</time>
      </trkpt>
      <trkpt lat="45.99379" lon="6.36874">
        <ele>1525</ele>
        <time>2004-01-19T18:03:57Z</time>
      </trkpt>
      <trkpt lat="45.99345" lon="6.369">
        <ele>1512</ele>
        <time>2004-01-19T18:03:57Z</time>
      </trkpt>
      <trkpt lat="45.99334" lon="6.36926">
        <ele>1501</ele>
        <time>2004-01-19T18:03:57Z</time>
      </trkpt>
      <trkpt lat="45.9934" lon="6.36973">
        <ele>1493</ele>
        <time>2004-01-19T18:03:57Z</time>
      </trkpt>
      <trkpt lat="45.9936" lon="6.37031">
        <ele>1463</ele>
        <time>2004-01-19T18:03:57Z</time>
      </trkpt>
      <trkpt lat="45.9939" lon="6.37104">
        <ele>1460</ele>
        <time>2004-01-19T18:03:57Z</time>
      </trkpt>
      <trkpt lat="45.99304" lon="6.37179">
        <ele>1456</ele>
        <time>2004-01-19T18:03:57Z</time>
      </trkpt>
      <trkpt lat="45.99192" lon="6.37194">
        <ele>1450</ele>
        <time>2004-01-19T18:03:57Z</time>
      </trkpt>
      <trkpt lat="45.99119" lon="6.37319">
        <ele>1440</ele>
        <time>2004-01-19T18:03:57Z</time>
      </trkpt>
      <trkpt lat="45.99081" lon="6.37331">
        <ele>1435</ele>
        <time>2004-01-19T18:03:57Z</time>
      </trkpt>
      <trkpt lat="45.99027" lon="6.37308">
        <ele>1434</ele>
        <time>2004-01-19T18:03:57Z</time>
      </trkpt>
      <trkpt lat="45.98971" lon="6.37237">
        <ele>1437</ele>
        <time>2004-01-19T18:03:57Z</time>
      </trkpt>
      <trkpt lat="45.98905" lon="6.37125">
        <ele>1426</ele>
        <time>2004-01-19T18:03:57Z</time>
      </trkpt>
      <trkpt lat="45.98843" lon="6.3695">
        <ele>1415</ele>
        <time>2004-01-19T18:03:57Z</time>
      </trkpt>
      <trkpt lat="45.98765" lon="6.36808">
        <ele>1406</ele>
        <time>2004-01-19T18:03:57Z</time>
      </trkpt>
      <trkpt lat="45.98714" lon="6.36752">
        <ele>1384</ele>
        <time>2004-01-19T18:03:57Z</time>
      </trkpt>
      <trkpt lat="45.98669" lon="6.36692">
        <ele>1386</ele>
        <time>2004-01-19T18:03:57Z</time>
      </trkpt>
      <trkpt lat="45.98645" lon="6.36604">
        <ele>1379</ele>
        <time>2004-01-19T18:03:57Z</time>
      </trkpt>
      <trkpt lat="45.98557" lon="6.36497">
        <ele>1365</ele>
        <time>2004-01-19T18:03:57Z</time>
      </trkpt>
      <trkpt lat="45.98525" lon="6.36475">
        <ele>1366</ele>
        <time>2004-01-19T18:03:57Z</time>
      </trkpt>
      <trkpt lat="45.98482" lon="6.36402">
        <ele>1364</ele>
        <time>2004-01-19T18:03:57Z</time>
      </trkpt>
      <trkpt lat="45.9845" lon="6.36377">
        <ele>1367</ele>
        <time>2004-01-19T18:03:57Z</time>
      </trkpt>
      <trkpt lat="45.98373" lon="6.36207">
        <ele>1373</ele>
        <time>2004-01-19T18:03:57Z</time>
      </trkpt>
      <trkpt lat="45.98295" lon="6.3613">
        <ele>1363</ele>
        <time>2004-01-19T18:03:57Z</time>
      </trkpt>
      <trkpt lat="45.98212" lon="6.35937">
        <ele>1370</ele>
        <time>2004-01-19T18:03:57Z</time>
      </trkpt>
      <trkpt lat="45.98038" lon="6.35598">
        <ele>1373</ele>
        <time>2004-01-19T18:03:57Z</time>
      </trkpt>
      <trkpt lat="45.97995" lon="6.35538">
        <ele>1373</ele>
        <time>2004-01-19T18:03:57Z</time>
      </trkpt>
      <trkpt lat="45.97935" lon="6.3551">
        <ele>1369</ele>
        <time>2004-01-19T18:03:57Z</time>
      </trkpt>
      <trkpt lat="45.97898" lon="6.35422">
        <ele>1371</ele>
        <time>2004-01-19T18:03:57Z</time>
      </trkpt>
      <trkpt lat="45.97886" lon="6.35402">
        <ele>1380</ele>
        <time>2004-01-19T18:03:57Z</time>
      </trkpt>
      <trkpt lat="45.97716" lon="6.35171">
        <ele>1383</ele>
        <time>2004-01-19T18:03:57Z</time>
      </trkpt>
      <trkpt lat="45.97598" lon="6.35085">
        <ele>1400</ele>
        <time>2004-01-19T18:03:57Z</time>
      </trkpt>
      <trkpt lat="45.97529" lon="6.35066">
        <ele>1407</ele>
        <time>2004-01-19T18:03:57Z</time>
      </trkpt>
      <trkpt lat="45.97429" lon="6.35111">
        <ele>1405</ele>
        <time>2004-01-19T18:03:57Z</time>
      </trkpt>
      <trkpt lat="45.97323" lon="6.35074">
        <ele>1402</ele>
        <time>2004-01-19T18:03:57Z</time>
      </trkpt>
      <trkpt lat="45.97229" lon="6.35085">
        <ele>1400</ele>
        <time>2004-01-19T18:03:57Z</time>
      </trkpt>
      <trkpt lat="45.97216" lon="6.35068">
        <ele>1398</ele>
        <time>2004-01-19T18:03:57Z</time>
      </trkpt>
    </trkseg>
  </trk>
  <trk>
    <name><![CDATA[Croisse Baulet]]></name>
    <trkseg>
      <trkpt lat="45.88026" lon="6.52742">
        <ele>1248</ele>
        <time>2004-01-19T18:03:57Z</time>
      </trkpt>
      <trkpt lat="45.87989" lon="6.52865">
        <ele>1259</ele>
        <time>2004-01-19T18:03:57Z</time>
      </trkpt>
      <trkpt lat="45.87949" lon="6.52923">
        <ele>1264</ele>
        <time>2004-01-19T18:03:57Z</time>
      </trkpt>
      <trkpt lat="45.87934" lon="6.53017">
        <ele>1275</ele>
        <time>2004-01-19T18:03:57Z</time>
      </trkpt>
      <trkpt lat="45.87946" lon="6.53071">
        <ele>1275</ele>
        <time>2004-01-19T18:03:57Z</time>
      </trkpt>
      <trkpt lat="45.87991" lon="6.53133">
        <ele>1277</ele>
        <time>2004-01-19T18:03:57Z</time>
      </trkpt>
      <trkpt lat="45.87989" lon="6.53169">
        <ele>1279</ele>
        <time>2004-01-19T18:03:57Z</time>
      </trkpt>
      <trkpt lat="45.87899" lon="6.53326">
        <ele>1290</ele>
        <time>2004-01-19T18:03:57Z</time>
      </trkpt>
      <trkpt lat="45.87843" lon="6.53461">
        <ele>1292</ele>
        <time>2004-01-19T18:03:57Z</time>
      </trkpt>
      <trkpt lat="45.8782" lon="6.53553">
        <ele>1293</ele>
        <time>2004-01-19T18:03:57Z</time>
      </trkpt>
      <trkpt lat="45.87749" lon="6.53708">
        <ele>1310</ele>
        <time>2004-01-19T18:03:57Z</time>
      </trkpt>
      <trkpt lat="45.87685" lon="6.5383">
        <ele>1318</ele>
        <time>2004-01-19T18:03:57Z</time>
      </trkpt>
      <trkpt lat="45.87657" lon="6.53998">
        <ele>1325</ele>
        <time>2004-01-19T18:03:57Z</time>
      </trkpt>
      <trkpt lat="45.87582" lon="6.54068">
        <ele>1330</ele>
        <time>2004-01-19T18:03:57Z</time>
      </trkpt>
      <trkpt lat="45.87554" lon="6.54169">
        <ele>1337</ele>
        <time>2004-01-19T18:03:57Z</time>
      </trkpt>
      <trkpt lat="45.87567" lon="6.54182">
        <ele>1337</ele>
        <time>2004-01-19T18:03:57Z</time>
      </trkpt>
      <trkpt lat="45.87569" lon="6.54317">
        <ele>1390</ele>
        <time>2004-01-19T18:03:57Z</time>
      </trkpt>
      <trkpt lat="45.87552" lon="6.54377">
        <ele>1404</ele>
        <time>2004-01-19T18:03:57Z</time>
      </trkpt>
      <trkpt lat="45.87562" lon="6.54453">
        <ele>1413</ele>
        <time>2004-01-19T18:03:57Z</time>
      </trkpt>
      <trkpt lat="45.87586" lon="6.54515">
        <ele>1424</ele>
        <time>2004-01-19T18:03:57Z</time>
      </trkpt>
      <trkpt lat="45.87528" lon="6.54564">
        <ele>1428</ele>
        <time>2004-01-19T18:03:57Z</time>
      </trkpt>
      <trkpt lat="45.87502" lon="6.54616">
        <ele>1435</ele>
        <time>2004-01-19T18:03:57Z</time>
      </trkpt>
      <trkpt lat="45.87429" lon="6.54663">
        <ele>1450</ele>
        <time>2004-01-19T18:03:57Z</time>
      </trkpt>
      <trkpt lat="45.87401" lon="6.548">
        <ele>1458</ele>
        <time>2004-01-19T18:03:57Z</time>
      </trkpt>
      <trkpt lat="45.87389" lon="6.54935">
        <ele>1479</ele>
        <time>2004-01-19T18:03:57Z</time>
      </trkpt>
      <trkpt lat="45.87404" lon="6.55043">
        <ele>1491</ele>
        <time>2004-01-19T18:03:57Z</time>
      </trkpt>
      <trkpt lat="45.87365" lon="6.55266">
        <ele>1507</ele>
        <time>2004-01-19T18:03:57Z</time>
      </trkpt>
      <trkpt lat="45.8735" lon="6.55302">
        <ele>1511</ele>
        <time>2004-01-19T18:03:57Z</time>
      </trkpt>
      <trkpt lat="45.87316" lon="6.55384">
        <ele>1518</ele>
        <time>2004-01-19T18:03:57Z</time>
      </trkpt>
      <trkpt lat="45.87316" lon="6.55446">
        <ele>1519</ele>
        <time>2004-01-19T18:03:57Z</time>
      </trkpt>
      <trkpt lat="45.87401" lon="6.55631">
        <ele>1532</ele>
        <time>2004-01-19T18:03:57Z</time>
      </trkpt>
      <trkpt lat="45.87446" lon="6.55663">
        <ele>1538</ele>
        <time>2004-01-19T18:03:57Z</time>
      </trkpt>
      <trkpt lat="45.87438" lon="6.55719">
        <ele>1543</ele>
        <time>2004-01-19T18:03:57Z</time>
      </trkpt>
      <trkpt lat="45.87412" lon="6.55759">
        <ele>1548</ele>
        <time>2004-01-19T18:03:57Z</time>
      </trkpt>
      <trkpt lat="45.8741" lon="6.5586">
        <ele>1553</ele>
        <time>2004-01-19T18:03:57Z</time>
      </trkpt>
      <trkpt lat="45.87434" lon="6.55957">
        <ele>1559</ele>
        <time>2004-01-19T18:03:57Z</time>
      </trkpt>
      <trkpt lat="45.87451" lon="6.56">
        <ele>1557</ele>
        <time>2004-01-19T18:03:57Z</time>
      </trkpt>
      <trkpt lat="45.87498" lon="6.5606">
        <ele>1563</ele>
        <time>2004-01-19T18:03:57Z</time>
      </trkpt>
      <trkpt lat="45.87528" lon="6.56077">
        <ele>1566</ele>
        <time>2004-01-19T18:03:57Z</time>
      </trkpt>
      <trkpt lat="45.87519" lon="6.56105">
        <ele>1565</ele>
        <time>2004-01-19T18:03:57Z</time>
      </trkpt>
      <trkpt lat="45.87586" lon="6.56188">
        <ele>1573</ele>
        <time>2004-01-19T18:03:57Z</time>
      </trkpt>
      <trkpt lat="45.87659" lon="6.56319">
        <ele>1588</ele>
        <time>2004-01-19T18:03:57Z</time>
      </trkpt>
      <trkpt lat="45.87715" lon="6.56347">
        <ele>1596</ele>
        <time>2004-01-19T18:03:57Z</time>
      </trkpt>
      <trkpt lat="45.87738" lon="6.56418">
        <ele>1595</ele>
        <time>2004-01-19T18:03:57Z</time>
      </trkpt>
      <trkpt lat="45.87762" lon="6.56573">
        <ele>1610</ele>
        <time>2004-01-19T18:03:57Z</time>
      </trkpt>
      <trkpt lat="45.87792" lon="6.56611">
        <ele>1622</ele>
        <time>2004-01-19T18:03:57Z</time>
      </trkpt>
      <trkpt lat="45.87822" lon="6.56626">
        <ele>1636</ele>
        <time>2004-01-19T18:03:57Z</time>
      </trkpt>
      <trkpt lat="45.87841" lon="6.56628">
        <ele>1640</ele>
        <time>2004-01-19T18:03:57Z</time>
      </trkpt>
      <trkpt lat="45.87854" lon="6.56588">
        <ele>1658</ele>
        <time>2004-01-19T18:03:57Z</time>
      </trkpt>
      <trkpt lat="45.87919" lon="6.5668">
        <ele>1681</ele>
        <time>2004-01-19T18:03:57Z</time>
      </trkpt>
      <trkpt lat="45.87994" lon="6.56742">
        <ele>1699</ele>
        <time>2004-01-19T18:03:57Z</time>
      </trkpt>
      <trkpt lat="45.8806" lon="6.56755">
        <ele>1701</ele>
        <time>2004-01-19T18:03:57Z</time>
      </trkpt>
      <trkpt lat="45.88097" lon="6.56781">
        <ele>1708</ele>
        <time>2004-01-19T18:03:57Z</time>
      </trkpt>
      <trkpt lat="45.88133" lon="6.56841">
        <ele>1711</ele>
        <time>2004-01-19T18:03:57Z</time>
      </trkpt>
      <trkpt lat="45.88127" lon="6.56993">
        <ele>1723</ele>
        <time>2004-01-19T18:03:57Z</time>
      </trkpt>
      <trkpt lat="45.88107" lon="6.57113">
        <ele>1737</ele>
        <time>2004-01-19T18:03:57Z</time>
      </trkpt>
      <trkpt lat="45.88047" lon="6.57064">
        <ele>1737</ele>
        <time>2004-01-19T18:03:57Z</time>
      </trkpt>
      <trkpt lat="45.88019" lon="6.57068">
        <ele>1740</ele>
        <time>2004-01-19T18:03:57Z</time>
      </trkpt>
      <trkpt lat="45.8794" lon="6.57146">
        <ele>1736</ele>
        <time>2004-01-19T18:03:57Z</time>
      </trkpt>
      <trkpt lat="45.87794" lon="6.57062">
        <ele>1749</ele>
        <time>2004-01-19T18:03:57Z</time>
      </trkpt>
      <trkpt lat="45.87743" lon="6.57045">
        <ele>1745</ele>
        <time>2004-01-19T18:03:57Z</time>
      </trkpt>
      <trkpt lat="45.87702" lon="6.56976">
        <ele>1746</ele>
        <time>2004-01-19T18:03:57Z</time>
      </trkpt>
      <trkpt lat="45.87564" lon="6.56867">
        <ele>1731</ele>
        <time>2004-01-19T18:03:57Z</time>
      </trkpt>
      <trkpt lat="45.87444" lon="6.56854">
        <ele>1737</ele>
        <time>2004-01-19T18:03:57Z</time>
      </trkpt>
      <trkpt lat="45.87419" lon="6.56815">
        <ele>1742</ele>
        <time>2004-01-19T18:03:57Z</time>
      </trkpt>
      <trkpt lat="45.87264" lon="6.56712">
        <ele>1767</ele>
        <time>2004-01-19T18:03:57Z</time>
      </trkpt>
      <trkpt lat="45.87202" lon="6.56635">
        <ele>1767</ele>
        <time>2004-01-19T18:03:57Z</time>
      </trkpt>
      <trkpt lat="45.87101" lon="6.56598">
        <ele>1774</ele>
        <time>2004-01-19T18:03:57Z</time>
      </trkpt>
      <trkpt lat="45.87122" lon="6.56536">
        <ele>1768</ele>
        <time>2004-01-19T18:03:57Z</time>
      </trkpt>
      <trkpt lat="45.8711" lon="6.56427">
        <ele>1743</ele>
        <time>2004-01-19T18:03:57Z</time>
      </trkpt>
      <trkpt lat="45.87118" lon="6.56229">
        <ele>1689</ele>
        <time>2004-01-19T18:03:57Z</time>
      </trkpt>
      <trkpt lat="45.87144" lon="6.56128">
        <ele>1658</ele>
        <time>2004-01-19T18:03:57Z</time>
      </trkpt>
      <trkpt lat="45.8715" lon="6.56073">
        <ele>1649</ele>
        <time>2004-01-19T18:03:57Z</time>
      </trkpt>
      <trkpt lat="45.87191" lon="6.56">
        <ele>1614</ele>
        <time>2004-01-19T18:03:57Z</time>
      </trkpt>
      <trkpt lat="45.87277" lon="6.5592">
        <ele>1559</ele>
        <time>2004-01-19T18:03:57Z</time>
      </trkpt>
      <trkpt lat="45.87309" lon="6.55864">
        <ele>1539</ele>
        <time>2004-01-19T18:03:57Z</time>
      </trkpt>
      <trkpt lat="45.87262" lon="6.55779">
        <ele>1523</ele>
        <time>2004-01-19T18:03:57Z</time>
      </trkpt>
      <trkpt lat="45.87219" lon="6.55656">
        <ele>1494</ele>
        <time>2004-01-19T18:03:57Z</time>
      </trkpt>
      <trkpt lat="45.8718" lon="6.55607">
        <ele>1481</ele>
        <time>2004-01-19T18:03:57Z</time>
      </trkpt>
      <trkpt lat="45.87157" lon="6.55536">
        <ele>1457</ele>
        <time>2004-01-19T18:03:57Z</time>
      </trkpt>
      <trkpt lat="45.87135" lon="6.55446">
        <ele>1449</ele>
        <time>2004-01-19T18:03:57Z</time>
      </trkpt>
      <trkpt lat="45.8712" lon="6.5545">
        <ele>1448</ele>
        <time>2004-01-19T18:03:57Z</time>
      </trkpt>
      <trkpt lat="45.87095" lon="6.55427">
        <ele>1427</ele>
        <time>2004-01-19T18:03:57Z</time>
      </trkpt>
      <trkpt lat="45.87071" lon="6.55345">
        <ele>1429</ele>
        <time>2004-01-19T18:03:57Z</time>
      </trkpt>
      <trkpt lat="45.8706" lon="6.55229">
        <ele>1427</ele>
        <time>2004-01-19T18:03:57Z</time>
      </trkpt>
      <trkpt lat="45.87082" lon="6.55176">
        <ele>1418</ele>
        <time>2004-01-19T18:03:57Z</time>
      </trkpt>
      <trkpt lat="45.87097" lon="6.55163">
        <ele>1412</ele>
        <time>2004-01-19T18:03:57Z</time>
      </trkpt>
      <trkpt lat="45.8709" lon="6.55141">
        <ele>1410</ele>
        <time>2004-01-19T18:03:57Z</time>
      </trkpt>
      <trkpt lat="45.87195" lon="6.5501">
        <ele>1399</ele>
        <time>2004-01-19T18:03:57Z</time>
      </trkpt>
      <trkpt lat="45.87236" lon="6.54912">
        <ele>1392</ele>
        <time>2004-01-19T18:03:57Z</time>
      </trkpt>
      <trkpt lat="45.87251" lon="6.548">
        <ele>1390</ele>
        <time>2004-01-19T18:03:57Z</time>
      </trkpt>
      <trkpt lat="45.87303" lon="6.54641">
        <ele>1380</ele>
        <time>2004-01-19T18:03:57Z</time>
      </trkpt>
      <trkpt lat="45.87283" lon="6.54616">
        <ele>1380</ele>
        <time>2004-01-19T18:03:57Z</time>
      </trkpt>
      <trkpt lat="45.87298" lon="6.54573">
        <ele>1380</ele>
        <time>2004-01-19T18:03:57Z</time>
      </trkpt>
      <trkpt lat="45.87283" lon="6.54506">
        <ele>1380</ele>
        <time>2004-01-19T18:03:57Z</time>
      </trkpt>
      <trkpt lat="45.87311" lon="6.54465">
        <ele>1380</ele>
        <time>2004-01-19T18:03:57Z</time>
      </trkpt>
      <trkpt lat="45.8735" lon="6.54468">
        <ele>1369</ele>
        <time>2004-01-19T18:03:57Z</time>
      </trkpt>
      <trkpt lat="45.87346" lon="6.54498">
        <ele>1366</ele>
        <time>2004-01-19T18:03:57Z</time>
      </trkpt>
      <trkpt lat="45.87369" lon="6.545">
        <ele>1366</ele>
        <time>2004-01-19T18:03:57Z</time>
      </trkpt>
      <trkpt lat="45.87427" lon="6.54435">
        <ele>1367</ele>
        <time>2004-01-19T18:03:57Z</time>
      </trkpt>
      <trkpt lat="45.87446" lon="6.54384">
        <ele>1368</ele>
        <time>2004-01-19T18:03:57Z</time>
      </trkpt>
      <trkpt lat="45.87436" lon="6.54358">
        <ele>1363</ele>
        <time>2004-01-19T18:03:57Z</time>
      </trkpt>
      <trkpt lat="45.87558" lon="6.54118">
        <ele>1340</ele>
        <time>2004-01-19T18:03:57Z</time>
      </trkpt>
      <trkpt lat="45.87567" lon="6.54056">
        <ele>1326</ele>
        <time>2004-01-19T18:03:57Z</time>
      </trkpt>
      <trkpt lat="45.87652" lon="6.53918">
        <ele>1321</ele>
        <time>2004-01-19T18:03:57Z</time>
      </trkpt>
      <trkpt lat="45.87766" lon="6.53687">
        <ele>1325</ele>
        <time>2004-01-19T18:03:57Z</time>
      </trkpt>
      <trkpt lat="45.87783" lon="6.53629">
        <ele>1321</ele>
        <time>2004-01-19T18:03:57Z</time>
      </trkpt>
      <trkpt lat="45.87831" lon="6.53553">
        <ele>1296</ele>
        <time>2004-01-19T18:03:57Z</time>
      </trkpt>
      <trkpt lat="45.8785" lon="6.53468">
        <ele>1301</ele>
        <time>2004-01-19T18:03:57Z</time>
      </trkpt>
      <trkpt lat="45.87899" lon="6.53337">
        <ele>1299</ele>
        <time>2004-01-19T18:03:57Z</time>
      </trkpt>
      <trkpt lat="45.87953" lon="6.53255">
        <ele>1295</ele>
        <time>2004-01-19T18:03:57Z</time>
      </trkpt>
      <trkpt lat="45.87996" lon="6.53154">
        <ele>1294</ele>
        <time>2004-01-19T18:03:57Z</time>
      </trkpt>
      <trkpt lat="45.87942" lon="6.5306">
        <ele>1286</ele>
        <time>2004-01-19T18:03:57Z</time>
      </trkpt>
      <trkpt lat="45.87931" lon="6.53006">
        <ele>1286</ele>
        <time>2004-01-19T18:03:57Z</time>
      </trkpt>
      <trkpt lat="45.87951" lon="6.52931">
        <ele>1278</ele>
        <time>2004-01-19T18:03:57Z</time>
      </trkpt>
      <trkpt lat="45.87985" lon="6.52882">
        <ele>1268</ele>
        <time>2004-01-19T18:03:57Z</time>
      </trkpt>
      <trkpt lat="45.88028" lon="6.52712">
        <ele>1255</ele>
        <time>2004-01-19T18:03:57Z</time>
      </trkpt>
      <trkpt lat="45.88079" lon="6.52616">
        <ele>1245</ele>
        <time>2004-01-19T18:03:57Z</time>
      </trkpt>
      <trkpt lat="45.88064" lon="6.52616">
        <ele>1243</ele>
        <time>2004-01-19T18:03:57Z</time>
      </trkpt>
      <trkpt lat="45.87996" lon="6.52659">
        <ele>1234</ele>
        <time>2004-01-19T18:03:57Z</time>
      </trkpt>
    </trkseg>
  </trk>
  <trk>
    <name><![CDATA[Croisse Baulet 2]]></name>
    <trkseg>
      <trkpt lat="45.88026" lon="6.52742">
        <ele>1248</ele>
        <time>2003-03-19T20:25:33Z</time>
      </trkpt>
      <trkpt lat="45.88009" lon="6.52785">
        <ele>1253</ele>
        <time>2003-03-19T20:25:33Z</time>
      </trkpt>
      <trkpt lat="45.87989" lon="6.52865">
        <ele>1259</ele>
        <time>2003-03-19T20:25:33Z</time>
      </trkpt>
      <trkpt lat="45.87979" lon="6.52884">
        <ele>1261</ele>
        <time>2003-03-19T20:25:33Z</time>
      </trkpt>
      <trkpt lat="45.87949" lon="6.52923">
        <ele>1264</ele>
        <time>2003-03-19T20:25:33Z</time>
      </trkpt>
      <trkpt lat="45.87934" lon="6.53017">
        <ele>1275</ele>
        <time>2003-03-19T20:25:33Z</time>
      </trkpt>
      <trkpt lat="45.87938" lon="6.53049">
        <ele>1275</ele>
        <time>2003-03-19T20:25:33Z</time>
      </trkpt>
      <trkpt lat="45.87946" lon="6.53071">
        <ele>1275</ele>
        <time>2003-03-19T20:25:33Z</time>
      </trkpt>
      <trkpt lat="45.87959" lon="6.53092">
        <ele>1276</ele>
        <time>2003-03-19T20:25:33Z</time>
      </trkpt>
      <trkpt lat="45.87991" lon="6.53133">
        <ele>1277</ele>
        <time>2003-03-19T20:25:33Z</time>
      </trkpt>
      <trkpt lat="45.87989" lon="6.53169">
        <ele>1279</ele>
        <time>2003-03-19T20:25:33Z</time>
      </trkpt>
      <trkpt lat="45.87968" lon="6.53197">
        <ele>1279</ele>
        <time>2003-03-19T20:25:33Z</time>
      </trkpt>
      <trkpt lat="45.87951" lon="6.53247">
        <ele>1283</ele>
        <time>2003-03-19T20:25:33Z</time>
      </trkpt>
      <trkpt lat="45.87899" lon="6.53326">
        <ele>1290</ele>
        <time>2003-03-19T20:25:33Z</time>
      </trkpt>
      <trkpt lat="45.87843" lon="6.53461">
        <ele>1292</ele>
        <time>2003-03-19T20:25:33Z</time>
      </trkpt>
      <trkpt lat="45.8782" lon="6.53553">
        <ele>1293</ele>
        <time>2003-03-19T20:25:33Z</time>
      </trkpt>
      <trkpt lat="45.87773" lon="6.53633">
        <ele>1300</ele>
        <time>2003-03-19T20:25:33Z</time>
      </trkpt>
      <trkpt lat="45.87762" lon="6.53656">
        <ele>1304</ele>
        <time>2003-03-19T20:25:33Z</time>
      </trkpt>
      <trkpt lat="45.87749" lon="6.53708">
        <ele>1310</ele>
        <time>2003-03-19T20:25:33Z</time>
      </trkpt>
      <trkpt lat="45.87685" lon="6.5383">
        <ele>1318</ele>
        <time>2003-03-19T20:25:33Z</time>
      </trkpt>
      <trkpt lat="45.8767" lon="6.53899">
        <ele>1321</ele>
        <time>2003-03-19T20:25:33Z</time>
      </trkpt>
      <trkpt lat="45.8767" lon="6.53935">
        <ele>1321</ele>
        <time>2003-03-19T20:25:33Z</time>
      </trkpt>
      <trkpt lat="45.87659" lon="6.5397">
        <ele>1324</ele>
        <time>2003-03-19T20:25:33Z</time>
      </trkpt>
      <trkpt lat="45.87661" lon="6.53983">
        <ele>1325</ele>
        <time>2003-03-19T20:25:33Z</time>
      </trkpt>
      <trkpt lat="45.87655" lon="6.53996">
        <ele>1329</ele>
        <time>2003-03-19T20:25:33Z</time>
      </trkpt>
      <trkpt lat="45.87659" lon="6.53989">
        <ele>1321</ele>
        <time>2003-03-19T20:25:33Z</time>
      </trkpt>
      <trkpt lat="45.87655" lon="6.53991">
        <ele>1330</ele>
        <time>2003-03-19T20:25:33Z</time>
      </trkpt>
      <trkpt lat="45.87657" lon="6.53998">
        <ele>1325</ele>
        <time>2003-03-19T20:25:33Z</time>
      </trkpt>
      <trkpt lat="45.8765" lon="6.54002">
        <ele>1329</ele>
        <time>2003-03-19T20:25:33Z</time>
      </trkpt>
      <trkpt lat="45.87629" lon="6.54034">
        <ele>1326</ele>
        <time>2003-03-19T20:25:33Z</time>
      </trkpt>
      <trkpt lat="45.8759" lon="6.5406">
        <ele>1328</ele>
        <time>2003-03-19T20:25:33Z</time>
      </trkpt>
      <trkpt lat="45.87582" lon="6.54068">
        <ele>1330</ele>
        <time>2003-03-19T20:25:33Z</time>
      </trkpt>
      <trkpt lat="45.87575" lon="6.54116">
        <ele>1331</ele>
        <time>2003-03-19T20:25:33Z</time>
      </trkpt>
      <trkpt lat="45.87562" lon="6.54146">
        <ele>1334</ele>
        <time>2003-03-19T20:25:33Z</time>
      </trkpt>
      <trkpt lat="45.87554" lon="6.54169">
        <ele>1337</ele>
        <time>2003-03-19T20:25:33Z</time>
      </trkpt>
      <trkpt lat="45.87556" lon="6.54178">
        <ele>1337</ele>
        <time>2003-03-19T20:25:33Z</time>
      </trkpt>
      <trkpt lat="45.87567" lon="6.54182">
        <ele>1337</ele>
        <time>2003-03-19T20:25:33Z</time>
      </trkpt>
      <trkpt lat="45.87569" lon="6.54242">
        <ele>1340</ele>
        <time>2003-03-19T20:25:33Z</time>
      </trkpt>
      <trkpt lat="45.87573" lon="6.54255">
        <ele>1341</ele>
        <time>2003-03-19T20:25:33Z</time>
      </trkpt>
      <trkpt lat="45.87586" lon="6.54279">
        <ele>1342</ele>
        <time>2003-03-19T20:25:33Z</time>
      </trkpt>
      <trkpt lat="45.87588" lon="6.54289">
        <ele>1343</ele>
        <time>2003-03-19T20:25:33Z</time>
      </trkpt>
      <trkpt lat="45.87584" lon="6.54298">
        <ele>1363</ele>
        <time>2003-03-19T20:25:33Z</time>
      </trkpt>
      <trkpt lat="45.87577" lon="6.543">
        <ele>1386</ele>
        <time>2003-03-19T20:25:33Z</time>
      </trkpt>
      <trkpt lat="45.87569" lon="6.54317">
        <ele>1390</ele>
        <time>2003-03-19T20:25:33Z</time>
      </trkpt>
      <trkpt lat="45.8756" lon="6.54356">
        <ele>1399</ele>
        <time>2003-03-19T20:25:33Z</time>
      </trkpt>
      <trkpt lat="45.87552" lon="6.54377">
        <ele>1404</ele>
        <time>2003-03-19T20:25:33Z</time>
      </trkpt>
      <trkpt lat="45.87556" lon="6.54403">
        <ele>1408</ele>
        <time>2003-03-19T20:25:33Z</time>
      </trkpt>
      <trkpt lat="45.8756" lon="6.5441">
        <ele>1410</ele>
        <time>2003-03-19T20:25:33Z</time>
      </trkpt>
      <trkpt lat="45.87562" lon="6.54453">
        <ele>1413</ele>
        <time>2003-03-19T20:25:33Z</time>
      </trkpt>
      <trkpt lat="45.87569" lon="6.54476">
        <ele>1420</ele>
        <time>2003-03-19T20:25:33Z</time>
      </trkpt>
      <trkpt lat="45.87586" lon="6.54515">
        <ele>1424</ele>
        <time>2003-03-19T20:25:33Z</time>
      </trkpt>
      <trkpt lat="45.87575" lon="6.54521">
        <ele>1425</ele>
        <time>2003-03-19T20:25:33Z</time>
      </trkpt>
      <trkpt lat="45.87577" lon="6.54528">
        <ele>1425</ele>
        <time>2003-03-19T20:25:33Z</time>
      </trkpt>
      <trkpt lat="45.87571" lon="6.54523">
        <ele>1420</ele>
        <time>2003-03-19T20:25:33Z</time>
      </trkpt>
      <trkpt lat="45.87558" lon="6.54534">
        <ele>1421</ele>
        <time>2003-03-19T20:25:33Z</time>
      </trkpt>
      <trkpt lat="45.87547" lon="6.54545">
        <ele>1420</ele>
        <time>2003-03-19T20:25:33Z</time>
      </trkpt>
      <trkpt lat="45.87528" lon="6.54564">
        <ele>1428</ele>
        <time>2003-03-19T20:25:33Z</time>
      </trkpt>
      <trkpt lat="45.87524" lon="6.54583">
        <ele>1431</ele>
        <time>2003-03-19T20:25:33Z</time>
      </trkpt>
      <trkpt lat="45.87517" lon="6.54596">
        <ele>1433</ele>
        <time>2003-03-19T20:25:33Z</time>
      </trkpt>
      <trkpt lat="45.87502" lon="6.54616">
        <ele>1435</ele>
        <time>2003-03-19T20:25:33Z</time>
      </trkpt>
      <trkpt lat="45.87449" lon="6.54644">
        <ele>1442</ele>
        <time>2003-03-19T20:25:33Z</time>
      </trkpt>
      <trkpt lat="45.87438" lon="6.5465">
        <ele>1445</ele>
        <time>2003-03-19T20:25:33Z</time>
      </trkpt>
      <trkpt lat="45.87429" lon="6.54663">
        <ele>1450</ele>
        <time>2003-03-19T20:25:33Z</time>
      </trkpt>
      <trkpt lat="45.87425" lon="6.54678">
        <ele>1449</ele>
        <time>2003-03-19T20:25:33Z</time>
      </trkpt>
      <trkpt lat="45.87401" lon="6.548">
        <ele>1458</ele>
        <time>2003-03-19T20:25:33Z</time>
      </trkpt>
      <trkpt lat="45.87389" lon="6.54935">
        <ele>1479</ele>
        <time>2003-03-19T20:25:33Z</time>
      </trkpt>
      <trkpt lat="45.87391" lon="6.54959">
        <ele>1480</ele>
        <time>2003-03-19T20:25:33Z</time>
      </trkpt>
      <trkpt lat="45.87404" lon="6.55">
        <ele>1487</ele>
        <time>2003-03-19T20:25:33Z</time>
      </trkpt>
      <trkpt lat="45.87401" lon="6.55008">
        <ele>1489</ele>
        <time>2003-03-19T20:25:33Z</time>
      </trkpt>
      <trkpt lat="45.87404" lon="6.55006">
        <ele>1500</ele>
        <time>2003-03-19T20:25:33Z</time>
      </trkpt>
      <trkpt lat="45.87401" lon="6.55008">
        <ele>1489</ele>
        <time>2003-03-19T20:25:33Z</time>
      </trkpt>
      <trkpt lat="45.87401" lon="6.5503">
        <ele>1490</ele>
        <time>2003-03-19T20:25:33Z</time>
      </trkpt>
      <trkpt lat="45.87404" lon="6.55043">
        <ele>1491</ele>
        <time>2003-03-19T20:25:33Z</time>
      </trkpt>
      <trkpt lat="45.87397" lon="6.55073">
        <ele>1494</ele>
        <time>2003-03-19T20:25:33Z</time>
      </trkpt>
      <trkpt lat="45.87397" lon="6.55088">
        <ele>1496</ele>
        <time>2003-03-19T20:25:33Z</time>
      </trkpt>
      <trkpt lat="45.87386" lon="6.55143">
        <ele>1500</ele>
        <time>2003-03-19T20:25:33Z</time>
      </trkpt>
      <trkpt lat="45.87382" lon="6.55174">
        <ele>1498</ele>
        <time>2003-03-19T20:25:33Z</time>
      </trkpt>
      <trkpt lat="45.87376" lon="6.55189">
        <ele>1500</ele>
        <time>2003-03-19T20:25:33Z</time>
      </trkpt>
      <trkpt lat="45.87369" lon="6.55227">
        <ele>1503</ele>
        <time>2003-03-19T20:25:33Z</time>
      </trkpt>
      <trkpt lat="45.87365" lon="6.55266">
        <ele>1507</ele>
        <time>2003-03-19T20:25:33Z</time>
      </trkpt>
      <trkpt lat="45.8735" lon="6.55302">
        <ele>1511</ele>
        <time>2003-03-19T20:25:33Z</time>
      </trkpt>
      <trkpt lat="45.87331" lon="6.55332">
        <ele>1515</ele>
        <time>2003-03-19T20:25:33Z</time>
      </trkpt>
      <trkpt lat="45.87316" lon="6.55384">
        <ele>1518</ele>
        <time>2003-03-19T20:25:33Z</time>
      </trkpt>
      <trkpt lat="45.87313" lon="6.55407">
        <ele>1519</ele>
        <time>2003-03-19T20:25:33Z</time>
      </trkpt>
      <trkpt lat="45.87316" lon="6.55446">
        <ele>1519</ele>
        <time>2003-03-19T20:25:33Z</time>
      </trkpt>
      <trkpt lat="45.87322" lon="6.55463">
        <ele>1521</ele>
        <time>2003-03-19T20:25:33Z</time>
      </trkpt>
      <trkpt lat="45.87343" lon="6.55502">
        <ele>1525</ele>
        <time>2003-03-19T20:25:33Z</time>
      </trkpt>
      <trkpt lat="45.87356" lon="6.5554">
        <ele>1525</ele>
        <time>2003-03-19T20:25:33Z</time>
      </trkpt>
      <trkpt lat="45.87384" lon="6.55588">
        <ele>1527</ele>
        <time>2003-03-19T20:25:33Z</time>
      </trkpt>
      <trkpt lat="45.87393" lon="6.55616">
        <ele>1532</ele>
        <time>2003-03-19T20:25:33Z</time>
      </trkpt>
      <trkpt lat="45.87401" lon="6.55631">
        <ele>1532</ele>
        <time>2003-03-19T20:25:33Z</time>
      </trkpt>
      <trkpt lat="45.87446" lon="6.55663">
        <ele>1538</ele>
        <time>2003-03-19T20:25:33Z</time>
      </trkpt>
      <trkpt lat="45.87436" lon="6.55691">
        <ele>1541</ele>
        <time>2003-03-19T20:25:33Z</time>
      </trkpt>
      <trkpt lat="45.87438" lon="6.55719">
        <ele>1543</ele>
        <time>2003-03-19T20:25:33Z</time>
      </trkpt>
      <trkpt lat="45.87412" lon="6.55759">
        <ele>1548</ele>
        <time>2003-03-19T20:25:33Z</time>
      </trkpt>
      <trkpt lat="45.87408" lon="6.55781">
        <ele>1550</ele>
        <time>2003-03-19T20:25:33Z</time>
      </trkpt>
      <trkpt lat="45.8741" lon="6.5586">
        <ele>1553</ele>
        <time>2003-03-19T20:25:33Z</time>
      </trkpt>
      <trkpt lat="45.87419" lon="6.55875">
        <ele>1557</ele>
        <time>2003-03-19T20:25:33Z</time>
      </trkpt>
      <trkpt lat="45.87434" lon="6.55957">
        <ele>1559</ele>
        <time>2003-03-19T20:25:33Z</time>
      </trkpt>
      <trkpt lat="45.87446" lon="6.55993">
        <ele>1557</ele>
        <time>2003-03-19T20:25:33Z</time>
      </trkpt>
      <trkpt lat="45.87451" lon="6.56">
        <ele>1557</ele>
        <time>2003-03-19T20:25:33Z</time>
      </trkpt>
      <trkpt lat="45.87472" lon="6.56021">
        <ele>1563</ele>
        <time>2003-03-19T20:25:33Z</time>
      </trkpt>
      <trkpt lat="45.87498" lon="6.5606">
        <ele>1563</ele>
        <time>2003-03-19T20:25:33Z</time>
      </trkpt>
      <trkpt lat="45.87509" lon="6.5607">
        <ele>1564</ele>
        <time>2003-03-19T20:25:33Z</time>
      </trkpt>
      <trkpt lat="45.87528" lon="6.56077">
        <ele>1566</ele>
        <time>2003-03-19T20:25:33Z</time>
      </trkpt>
      <trkpt lat="45.87519" lon="6.56105">
        <ele>1565</ele>
        <time>2003-03-19T20:25:33Z</time>
      </trkpt>
      <trkpt lat="45.8753" lon="6.5612">
        <ele>1566</ele>
        <time>2003-03-19T20:25:33Z</time>
      </trkpt>
      <trkpt lat="45.87545" lon="6.56133">
        <ele>1572</ele>
        <time>2003-03-19T20:25:33Z</time>
      </trkpt>
      <trkpt lat="45.87586" lon="6.56188">
        <ele>1573</ele>
        <time>2003-03-19T20:25:33Z</time>
      </trkpt>
      <trkpt lat="45.87595" lon="6.56208">
        <ele>1573</ele>
        <time>2003-03-19T20:25:33Z</time>
      </trkpt>
      <trkpt lat="45.87614" lon="6.56242">
        <ele>1577</ele>
        <time>2003-03-19T20:25:33Z</time>
      </trkpt>
      <trkpt lat="45.87642" lon="6.56285">
        <ele>1584</ele>
        <time>2003-03-19T20:25:33Z</time>
      </trkpt>
      <trkpt lat="45.8765" lon="6.56294">
        <ele>1586</ele>
        <time>2003-03-19T20:25:33Z</time>
      </trkpt>
      <trkpt lat="45.87659" lon="6.56319">
        <ele>1588</ele>
        <time>2003-03-19T20:25:33Z</time>
      </trkpt>
      <trkpt lat="45.87676" lon="6.5633">
        <ele>1590</ele>
        <time>2003-03-19T20:25:33Z</time>
      </trkpt>
      <trkpt lat="45.87687" lon="6.56343">
        <ele>1592</ele>
        <time>2003-03-19T20:25:33Z</time>
      </trkpt>
      <trkpt lat="45.87715" lon="6.56347">
        <ele>1596</ele>
        <time>2003-03-19T20:25:33Z</time>
      </trkpt>
      <trkpt lat="45.87717" lon="6.56356">
        <ele>1594</ele>
        <time>2003-03-19T20:25:33Z</time>
      </trkpt>
      <trkpt lat="45.87706" lon="6.56377">
        <ele>1595</ele>
        <time>2003-03-19T20:25:33Z</time>
      </trkpt>
      <trkpt lat="45.87732" lon="6.56397">
        <ele>1594</ele>
        <time>2003-03-19T20:25:33Z</time>
      </trkpt>
      <trkpt lat="45.87738" lon="6.56418">
        <ele>1595</ele>
        <time>2003-03-19T20:25:33Z</time>
      </trkpt>
      <trkpt lat="45.87751" lon="6.56474">
        <ele>1599</ele>
        <time>2003-03-19T20:25:33Z</time>
      </trkpt>
      <trkpt lat="45.87751" lon="6.56506">
        <ele>1600</ele>
        <time>2003-03-19T20:25:33Z</time>
      </trkpt>
      <trkpt lat="45.87764" lon="6.56545">
        <ele>1600</ele>
        <time>2003-03-19T20:25:33Z</time>
      </trkpt>
      <trkpt lat="45.8776" lon="6.56555">
        <ele>1604</ele>
        <time>2003-03-19T20:25:33Z</time>
      </trkpt>
      <trkpt lat="45.87766" lon="6.56551">
        <ele>1605</ele>
        <time>2003-03-19T20:25:33Z</time>
      </trkpt>
      <trkpt lat="45.87766" lon="6.5656">
        <ele>1608</ele>
        <time>2003-03-19T20:25:33Z</time>
      </trkpt>
      <trkpt lat="45.87762" lon="6.56573">
        <ele>1610</ele>
        <time>2003-03-19T20:25:33Z</time>
      </trkpt>
      <trkpt lat="45.87775" lon="6.56579">
        <ele>1613</ele>
        <time>2003-03-19T20:25:33Z</time>
      </trkpt>
      <trkpt lat="45.87792" lon="6.56611">
        <ele>1622</ele>
        <time>2003-03-19T20:25:33Z</time>
      </trkpt>
      <trkpt lat="45.87803" lon="6.56609">
        <ele>1625</ele>
        <time>2003-03-19T20:25:33Z</time>
      </trkpt>
      <trkpt lat="45.87805" lon="6.5659">
        <ele>1631</ele>
        <time>2003-03-19T20:25:33Z</time>
      </trkpt>
      <trkpt lat="45.87816" lon="6.56613">
        <ele>1637</ele>
        <time>2003-03-19T20:25:33Z</time>
      </trkpt>
      <trkpt lat="45.87822" lon="6.56626">
        <ele>1636</ele>
        <time>2003-03-19T20:25:33Z</time>
      </trkpt>
      <trkpt lat="45.87841" lon="6.56628">
        <ele>1640</ele>
        <time>2003-03-19T20:25:33Z</time>
      </trkpt>
      <trkpt lat="45.87848" lon="6.56618">
        <ele>1651</ele>
        <time>2003-03-19T20:25:33Z</time>
      </trkpt>
      <trkpt lat="45.87854" lon="6.56588">
        <ele>1658</ele>
        <time>2003-03-19T20:25:33Z</time>
      </trkpt>
      <trkpt lat="45.87871" lon="6.56607">
        <ele>1666</ele>
        <time>2003-03-19T20:25:33Z</time>
      </trkpt>
      <trkpt lat="45.87873" lon="6.56618">
        <ele>1668</ele>
        <time>2003-03-19T20:25:33Z</time>
      </trkpt>
      <trkpt lat="45.8788" lon="6.56628">
        <ele>1671</ele>
        <time>2003-03-19T20:25:33Z</time>
      </trkpt>
      <trkpt lat="45.87906" lon="6.56661">
        <ele>1679</ele>
        <time>2003-03-19T20:25:33Z</time>
      </trkpt>
      <trkpt lat="45.87903" lon="6.56661">
        <ele>1681</ele>
        <time>2003-03-19T20:25:33Z</time>
      </trkpt>
      <trkpt lat="45.87906" lon="6.56661">
        <ele>1679</ele>
        <time>2003-03-19T20:25:33Z</time>
      </trkpt>
      <trkpt lat="45.87903" lon="6.56667">
        <ele>1685</ele>
        <time>2003-03-19T20:25:33Z</time>
      </trkpt>
      <trkpt lat="45.87906" lon="6.56658">
        <ele>1680</ele>
        <time>2003-03-19T20:25:33Z</time>
      </trkpt>
      <trkpt lat="45.87919" lon="6.5668">
        <ele>1681</ele>
        <time>2003-03-19T20:25:33Z</time>
      </trkpt>
      <trkpt lat="45.87936" lon="6.56691">
        <ele>1687</ele>
        <time>2003-03-19T20:25:33Z</time>
      </trkpt>
      <trkpt lat="45.87968" lon="6.56725">
        <ele>1693</ele>
        <time>2003-03-19T20:25:33Z</time>
      </trkpt>
      <trkpt lat="45.87994" lon="6.56742">
        <ele>1699</ele>
        <time>2003-03-19T20:25:33Z</time>
      </trkpt>
      <trkpt lat="45.8803" lon="6.56744">
        <ele>1698</ele>
        <time>2003-03-19T20:25:33Z</time>
      </trkpt>
      <trkpt lat="45.8806" lon="6.56755">
        <ele>1701</ele>
        <time>2003-03-19T20:25:33Z</time>
      </trkpt>
      <trkpt lat="45.88077" lon="6.56766">
        <ele>1705</ele>
        <time>2003-03-19T20:25:33Z</time>
      </trkpt>
      <trkpt lat="45.88097" lon="6.56781">
        <ele>1708</ele>
        <time>2003-03-19T20:25:33Z</time>
      </trkpt>
      <trkpt lat="45.88122" lon="6.5683">
        <ele>1710</ele>
        <time>2003-03-19T20:25:33Z</time>
      </trkpt>
      <trkpt lat="45.88133" lon="6.56841">
        <ele>1711</ele>
        <time>2003-03-19T20:25:33Z</time>
      </trkpt>
      <trkpt lat="45.88129" lon="6.56852">
        <ele>1712</ele>
        <time>2003-03-19T20:25:33Z</time>
      </trkpt>
      <trkpt lat="45.88118" lon="6.56864">
        <ele>1715</ele>
        <time>2003-03-19T20:25:33Z</time>
      </trkpt>
      <trkpt lat="45.88118" lon="6.56882">
        <ele>1715</ele>
        <time>2003-03-19T20:25:33Z</time>
      </trkpt>
      <trkpt lat="45.88125" lon="6.56912">
        <ele>1717</ele>
        <time>2003-03-19T20:25:33Z</time>
      </trkpt>
      <trkpt lat="45.88127" lon="6.56993">
        <ele>1723</ele>
        <time>2003-03-19T20:25:33Z</time>
      </trkpt>
      <trkpt lat="45.88109" lon="6.57064">
        <ele>1731</ele>
        <time>2003-03-19T20:25:33Z</time>
      </trkpt>
      <trkpt lat="45.88109" lon="6.57109">
        <ele>1733</ele>
        <time>2003-03-19T20:25:33Z</time>
      </trkpt>
      <trkpt lat="45.88107" lon="6.57109">
        <ele>1735</ele>
        <time>2003-03-19T20:25:33Z</time>
      </trkpt>
      <trkpt lat="45.88107" lon="6.57105">
        <ele>1731</ele>
        <time>2003-03-19T20:25:33Z</time>
      </trkpt>
      <trkpt lat="45.88109" lon="6.57109">
        <ele>1731</ele>
        <time>2003-03-19T20:25:33Z</time>
      </trkpt>
      <trkpt lat="45.88107" lon="6.57111">
        <ele>1733</ele>
        <time>2003-03-19T20:25:33Z</time>
      </trkpt>
      <trkpt lat="45.88107" lon="6.57113">
        <ele>1737</ele>
        <time>2003-03-19T20:25:33Z</time>
      </trkpt>
      <trkpt lat="45.88086" lon="6.57088">
        <ele>1730</ele>
        <time>2003-03-19T20:25:33Z</time>
      </trkpt>
      <trkpt lat="45.88047" lon="6.57064">
        <ele>1737</ele>
        <time>2003-03-19T20:25:33Z</time>
      </trkpt>
      <trkpt lat="45.88019" lon="6.57068">
        <ele>1740</ele>
        <time>2003-03-19T20:25:33Z</time>
      </trkpt>
      <trkpt lat="45.87996" lon="6.57083">
        <ele>1742</ele>
        <time>2003-03-19T20:25:33Z</time>
      </trkpt>
      <trkpt lat="45.87955" lon="6.57137">
        <ele>1738</ele>
        <time>2003-03-19T20:25:33Z</time>
      </trkpt>
      <trkpt lat="45.8794" lon="6.57146">
        <ele>1736</ele>
        <time>2003-03-19T20:25:33Z</time>
      </trkpt>
      <trkpt lat="45.87921" lon="6.57141">
        <ele>1736</ele>
        <time>2003-03-19T20:25:33Z</time>
      </trkpt>
      <trkpt lat="45.87897" lon="6.57128">
        <ele>1739</ele>
        <time>2003-03-19T20:25:33Z</time>
      </trkpt>
      <trkpt lat="45.87846" lon="6.57107">
        <ele>1748</ele>
        <time>2003-03-19T20:25:33Z</time>
      </trkpt>
      <trkpt lat="45.8782" lon="6.57088">
        <ele>1752</ele>
        <time>2003-03-19T20:25:33Z</time>
      </trkpt>
      <trkpt lat="45.87794" lon="6.57062">
        <ele>1749</ele>
        <time>2003-03-19T20:25:33Z</time>
      </trkpt>
      <trkpt lat="45.87743" lon="6.57045">
        <ele>1745</ele>
        <time>2003-03-19T20:25:33Z</time>
      </trkpt>
      <trkpt lat="45.87725" lon="6.57023">
        <ele>1746</ele>
        <time>2003-03-19T20:25:33Z</time>
      </trkpt>
      <trkpt lat="45.87713" lon="6.56991">
        <ele>1746</ele>
        <time>2003-03-19T20:25:33Z</time>
      </trkpt>
      <trkpt lat="45.87702" lon="6.56976">
        <ele>1746</ele>
        <time>2003-03-19T20:25:33Z</time>
      </trkpt>
      <trkpt lat="45.87616" lon="6.56899">
        <ele>1736</ele>
        <time>2003-03-19T20:25:33Z</time>
      </trkpt>
      <trkpt lat="45.87564" lon="6.56867">
        <ele>1731</ele>
        <time>2003-03-19T20:25:33Z</time>
      </trkpt>
      <trkpt lat="45.87539" lon="6.56867">
        <ele>1729</ele>
        <time>2003-03-19T20:25:33Z</time>
      </trkpt>
      <trkpt lat="45.87534" lon="6.56871">
        <ele>1731</ele>
        <time>2003-03-19T20:25:33Z</time>
      </trkpt>
      <trkpt lat="45.87534" lon="6.56867">
        <ele>1729</ele>
        <time>2003-03-19T20:25:33Z</time>
      </trkpt>
      <trkpt lat="45.87539" lon="6.56873">
        <ele>1733</ele>
        <time>2003-03-19T20:25:33Z</time>
      </trkpt>
      <trkpt lat="45.87532" lon="6.56869">
        <ele>1725</ele>
        <time>2003-03-19T20:25:33Z</time>
      </trkpt>
      <trkpt lat="45.87504" lon="6.56858">
        <ele>1727</ele>
        <time>2003-03-19T20:25:33Z</time>
      </trkpt>
      <trkpt lat="45.87444" lon="6.56854">
        <ele>1737</ele>
        <time>2003-03-19T20:25:33Z</time>
      </trkpt>
      <trkpt lat="45.87419" lon="6.56815">
        <ele>1742</ele>
        <time>2003-03-19T20:25:33Z</time>
      </trkpt>
      <trkpt lat="45.8738" lon="6.56798">
        <ele>1750</ele>
        <time>2003-03-19T20:25:33Z</time>
      </trkpt>
      <trkpt lat="45.87335" lon="6.56755">
        <ele>1753</ele>
        <time>2003-03-19T20:25:33Z</time>
      </trkpt>
      <trkpt lat="45.8729" lon="6.56731">
        <ele>1760</ele>
        <time>2003-03-19T20:25:33Z</time>
      </trkpt>
      <trkpt lat="45.87264" lon="6.56712">
        <ele>1767</ele>
        <time>2003-03-19T20:25:33Z</time>
      </trkpt>
      <trkpt lat="45.87221" lon="6.56654">
        <ele>1766</ele>
        <time>2003-03-19T20:25:33Z</time>
      </trkpt>
      <trkpt lat="45.87202" lon="6.56635">
        <ele>1767</ele>
        <time>2003-03-19T20:25:33Z</time>
      </trkpt>
      <trkpt lat="45.87187" lon="6.56626">
        <ele>1768</ele>
        <time>2003-03-19T20:25:33Z</time>
      </trkpt>
      <trkpt lat="45.87144" lon="6.56611">
        <ele>1768</ele>
        <time>2003-03-19T20:25:33Z</time>
      </trkpt>
      <trkpt lat="45.87107" lon="6.56607">
        <ele>1773</ele>
        <time>2003-03-19T20:25:33Z</time>
      </trkpt>
      <trkpt lat="45.87101" lon="6.56598">
        <ele>1774</ele>
        <time>2003-03-19T20:25:33Z</time>
      </trkpt>
      <trkpt lat="45.87103" lon="6.56575">
        <ele>1775</ele>
        <time>2003-03-19T20:25:33Z</time>
      </trkpt>
      <trkpt lat="45.87107" lon="6.56568">
        <ele>1775</ele>
        <time>2003-03-19T20:25:33Z</time>
      </trkpt>
      <trkpt lat="45.87107" lon="6.56568">
        <ele>1775</ele>
        <time>2003-03-19T20:25:33Z</time>
      </trkpt>
      <trkpt lat="45.87114" lon="6.56564">
        <ele>1773</ele>
        <time>2003-03-19T20:25:33Z</time>
      </trkpt>
      <trkpt lat="45.87122" lon="6.56536">
        <ele>1768</ele>
        <time>2003-03-19T20:25:33Z</time>
      </trkpt>
      <trkpt lat="45.87114" lon="6.56504">
        <ele>1763</ele>
        <time>2003-03-19T20:25:33Z</time>
      </trkpt>
      <trkpt lat="45.87112" lon="6.5648">
        <ele>1758</ele>
        <time>2003-03-19T20:25:33Z</time>
      </trkpt>
      <trkpt lat="45.8711" lon="6.56427">
        <ele>1743</ele>
        <time>2003-03-19T20:25:33Z</time>
      </trkpt>
      <trkpt lat="45.87118" lon="6.56229">
        <ele>1689</ele>
        <time>2003-03-19T20:25:33Z</time>
      </trkpt>
      <trkpt lat="45.87125" lon="6.56171">
        <ele>1672</ele>
        <time>2003-03-19T20:25:33Z</time>
      </trkpt>
      <trkpt lat="45.87135" lon="6.56137">
        <ele>1662</ele>
        <time>2003-03-19T20:25:33Z</time>
      </trkpt>
      <trkpt lat="45.87142" lon="6.56128">
        <ele>1658</ele>
        <time>2003-03-19T20:25:33Z</time>
      </trkpt>
      <trkpt lat="45.87144" lon="6.56128">
        <ele>1658</ele>
        <time>2003-03-19T20:25:33Z</time>
      </trkpt>
      <trkpt lat="45.87146" lon="6.56116">
        <ele>1656</ele>
        <time>2003-03-19T20:25:33Z</time>
      </trkpt>
      <trkpt lat="45.8715" lon="6.56073">
        <ele>1649</ele>
        <time>2003-03-19T20:25:33Z</time>
      </trkpt>
      <trkpt lat="45.8717" lon="6.56034">
        <ele>1631</ele>
        <time>2003-03-19T20:25:33Z</time>
      </trkpt>
      <trkpt lat="45.87191" lon="6.56">
        <ele>1614</ele>
        <time>2003-03-19T20:25:33Z</time>
      </trkpt>
      <trkpt lat="45.87213" lon="6.5598">
        <ele>1601</ele>
        <time>2003-03-19T20:25:33Z</time>
      </trkpt>
      <trkpt lat="45.87234" lon="6.55961">
        <ele>1589</ele>
        <time>2003-03-19T20:25:33Z</time>
      </trkpt>
      <trkpt lat="45.87238" lon="6.5595">
        <ele>1583</ele>
        <time>2003-03-19T20:25:33Z</time>
      </trkpt>
      <trkpt lat="45.87253" lon="6.5594">
        <ele>1573</ele>
        <time>2003-03-19T20:25:33Z</time>
      </trkpt>
      <trkpt lat="45.87277" lon="6.5592">
        <ele>1559</ele>
        <time>2003-03-19T20:25:33Z</time>
      </trkpt>
      <trkpt lat="45.87309" lon="6.55864">
        <ele>1539</ele>
        <time>2003-03-19T20:25:33Z</time>
      </trkpt>
      <trkpt lat="45.87296" lon="6.55841">
        <ele>1537</ele>
        <time>2003-03-19T20:25:33Z</time>
      </trkpt>
      <trkpt lat="45.87288" lon="6.55822">
        <ele>1532</ele>
        <time>2003-03-19T20:25:33Z</time>
      </trkpt>
      <trkpt lat="45.87275" lon="6.55804">
        <ele>1529</ele>
        <time>2003-03-19T20:25:33Z</time>
      </trkpt>
      <trkpt lat="45.87262" lon="6.55779">
        <ele>1523</ele>
        <time>2003-03-19T20:25:33Z</time>
      </trkpt>
      <trkpt lat="45.87251" lon="6.55753">
        <ele>1516</ele>
        <time>2003-03-19T20:25:33Z</time>
      </trkpt>
      <trkpt lat="45.8724" lon="6.5571">
        <ele>1505</ele>
        <time>2003-03-19T20:25:33Z</time>
      </trkpt>
      <trkpt lat="45.87219" lon="6.55656">
        <ele>1494</ele>
        <time>2003-03-19T20:25:33Z</time>
      </trkpt>
      <trkpt lat="45.87187" lon="6.5562">
        <ele>1484</ele>
        <time>2003-03-19T20:25:33Z</time>
      </trkpt>
      <trkpt lat="45.8718" lon="6.55607">
        <ele>1481</ele>
        <time>2003-03-19T20:25:33Z</time>
      </trkpt>
      <trkpt lat="45.8718" lon="6.55581">
        <ele>1473</ele>
        <time>2003-03-19T20:25:33Z</time>
      </trkpt>
      <trkpt lat="45.87168" lon="6.55549">
        <ele>1463</ele>
        <time>2003-03-19T20:25:33Z</time>
      </trkpt>
      <trkpt lat="45.87161" lon="6.55543">
        <ele>1460</ele>
        <time>2003-03-19T20:25:33Z</time>
      </trkpt>
      <trkpt lat="45.87157" lon="6.55536">
        <ele>1457</ele>
        <time>2003-03-19T20:25:33Z</time>
      </trkpt>
      <trkpt lat="45.8715" lon="6.55485">
        <ele>1449</ele>
        <time>2003-03-19T20:25:33Z</time>
      </trkpt>
      <trkpt lat="45.87135" lon="6.55446">
        <ele>1449</ele>
        <time>2003-03-19T20:25:33Z</time>
      </trkpt>
      <trkpt lat="45.8712" lon="6.5545">
        <ele>1448</ele>
        <time>2003-03-19T20:25:33Z</time>
      </trkpt>
      <trkpt lat="45.87095" lon="6.55427">
        <ele>1427</ele>
        <time>2003-03-19T20:25:33Z</time>
      </trkpt>
      <trkpt lat="45.87088" lon="6.55386">
        <ele>1427</ele>
        <time>2003-03-19T20:25:33Z</time>
      </trkpt>
      <trkpt lat="45.87077" lon="6.55352">
        <ele>1427</ele>
        <time>2003-03-19T20:25:33Z</time>
      </trkpt>
      <trkpt lat="45.87071" lon="6.55345">
        <ele>1429</ele>
        <time>2003-03-19T20:25:33Z</time>
      </trkpt>
      <trkpt lat="45.87073" lon="6.55307">
        <ele>1428</ele>
        <time>2003-03-19T20:25:33Z</time>
      </trkpt>
      <trkpt lat="45.8706" lon="6.55229">
        <ele>1427</ele>
        <time>2003-03-19T20:25:33Z</time>
      </trkpt>
      <trkpt lat="45.87071" lon="6.55225">
        <ele>1422</ele>
        <time>2003-03-19T20:25:33Z</time>
      </trkpt>
      <trkpt lat="45.87082" lon="6.55206">
        <ele>1419</ele>
        <time>2003-03-19T20:25:33Z</time>
      </trkpt>
      <trkpt lat="45.8708" lon="6.55193">
        <ele>1418</ele>
        <time>2003-03-19T20:25:33Z</time>
      </trkpt>
      <trkpt lat="45.87082" lon="6.55176">
        <ele>1418</ele>
        <time>2003-03-19T20:25:33Z</time>
      </trkpt>
      <trkpt lat="45.87097" lon="6.55163">
        <ele>1412</ele>
        <time>2003-03-19T20:25:33Z</time>
      </trkpt>
      <trkpt lat="45.8709" lon="6.55141">
        <ele>1410</ele>
        <time>2003-03-19T20:25:33Z</time>
      </trkpt>
      <trkpt lat="45.87095" lon="6.55141">
        <ele>1410</ele>
        <time>2003-03-19T20:25:33Z</time>
      </trkpt>
      <trkpt lat="45.8712" lon="6.55116">
        <ele>1406</ele>
        <time>2003-03-19T20:25:33Z</time>
      </trkpt>
      <trkpt lat="45.8717" lon="6.55049">
        <ele>1399</ele>
        <time>2003-03-19T20:25:33Z</time>
      </trkpt>
      <trkpt lat="45.87195" lon="6.5501">
        <ele>1399</ele>
        <time>2003-03-19T20:25:33Z</time>
      </trkpt>
      <trkpt lat="45.87236" lon="6.54912">
        <ele>1392</ele>
        <time>2003-03-19T20:25:33Z</time>
      </trkpt>
      <trkpt lat="45.87251" lon="6.548">
        <ele>1390</ele>
        <time>2003-03-19T20:25:33Z</time>
      </trkpt>
      <trkpt lat="45.87313" lon="6.54678">
        <ele>1379</ele>
        <time>2003-03-19T20:25:33Z</time>
      </trkpt>
      <trkpt lat="45.87303" lon="6.54641">
        <ele>1380</ele>
        <time>2003-03-19T20:25:33Z</time>
      </trkpt>
      <trkpt lat="45.87283" lon="6.54616">
        <ele>1380</ele>
        <time>2003-03-19T20:25:33Z</time>
      </trkpt>
      <trkpt lat="45.87298" lon="6.54573">
        <ele>1380</ele>
        <time>2003-03-19T20:25:33Z</time>
      </trkpt>
      <trkpt lat="45.87286" lon="6.54534">
        <ele>1380</ele>
        <time>2003-03-19T20:25:33Z</time>
      </trkpt>
      <trkpt lat="45.87283" lon="6.54506">
        <ele>1380</ele>
        <time>2003-03-19T20:25:33Z</time>
      </trkpt>
      <trkpt lat="45.87296" lon="6.54489">
        <ele>1380</ele>
        <time>2003-03-19T20:25:33Z</time>
      </trkpt>
      <trkpt lat="45.87303" lon="6.54489">
        <ele>1380</ele>
        <time>2003-03-19T20:25:33Z</time>
      </trkpt>
      <trkpt lat="45.87311" lon="6.54465">
        <ele>1380</ele>
        <time>2003-03-19T20:25:33Z</time>
      </trkpt>
      <trkpt lat="45.87324" lon="6.54468">
        <ele>1378</ele>
        <time>2003-03-19T20:25:33Z</time>
      </trkpt>
      <trkpt lat="45.87339" lon="6.54463">
        <ele>1371</ele>
        <time>2003-03-19T20:25:33Z</time>
      </trkpt>
      <trkpt lat="45.8735" lon="6.54468">
        <ele>1369</ele>
        <time>2003-03-19T20:25:33Z</time>
      </trkpt>
      <trkpt lat="45.87346" lon="6.54489">
        <ele>1366</ele>
        <time>2003-03-19T20:25:33Z</time>
      </trkpt>
      <trkpt lat="45.87346" lon="6.54498">
        <ele>1366</ele>
        <time>2003-03-19T20:25:33Z</time>
      </trkpt>
      <trkpt lat="45.87369" lon="6.545">
        <ele>1366</ele>
        <time>2003-03-19T20:25:33Z</time>
      </trkpt>
      <trkpt lat="45.87395" lon="6.54483">
        <ele>1367</ele>
        <time>2003-03-19T20:25:33Z</time>
      </trkpt>
      <trkpt lat="45.8741" lon="6.54465">
        <ele>1366</ele>
        <time>2003-03-19T20:25:33Z</time>
      </trkpt>
      <trkpt lat="45.87427" lon="6.54435">
        <ele>1367</ele>
        <time>2003-03-19T20:25:33Z</time>
      </trkpt>
      <trkpt lat="45.87446" lon="6.54384">
        <ele>1368</ele>
        <time>2003-03-19T20:25:33Z</time>
      </trkpt>
      <trkpt lat="45.87436" lon="6.54358">
        <ele>1363</ele>
        <time>2003-03-19T20:25:33Z</time>
      </trkpt>
      <trkpt lat="45.8744" lon="6.54347">
        <ele>1361</ele>
        <time>2003-03-19T20:25:33Z</time>
      </trkpt>
      <trkpt lat="45.87457" lon="6.54328">
        <ele>1361</ele>
        <time>2003-03-19T20:25:33Z</time>
      </trkpt>
      <trkpt lat="45.87472" lon="6.54294">
        <ele>1351</ele>
        <time>2003-03-19T20:25:33Z</time>
      </trkpt>
      <trkpt lat="45.87511" lon="6.54219">
        <ele>1341</ele>
        <time>2003-03-19T20:25:33Z</time>
      </trkpt>
      <trkpt lat="45.87519" lon="6.54193">
        <ele>1341</ele>
        <time>2003-03-19T20:25:33Z</time>
      </trkpt>
      <trkpt lat="45.87558" lon="6.54118">
        <ele>1340</ele>
        <time>2003-03-19T20:25:33Z</time>
      </trkpt>
      <trkpt lat="45.87556" lon="6.54083">
        <ele>1331</ele>
        <time>2003-03-19T20:25:33Z</time>
      </trkpt>
      <trkpt lat="45.87567" lon="6.54056">
        <ele>1326</ele>
        <time>2003-03-19T20:25:33Z</time>
      </trkpt>
      <trkpt lat="45.8762" lon="6.53972">
        <ele>1326</ele>
        <time>2003-03-19T20:25:33Z</time>
      </trkpt>
      <trkpt lat="45.87622" lon="6.53961">
        <ele>1325</ele>
        <time>2003-03-19T20:25:33Z</time>
      </trkpt>
      <trkpt lat="45.87637" lon="6.53942">
        <ele>1323</ele>
        <time>2003-03-19T20:25:33Z</time>
      </trkpt>
      <trkpt lat="45.87652" lon="6.53918">
        <ele>1321</ele>
        <time>2003-03-19T20:25:33Z</time>
      </trkpt>
      <trkpt lat="45.87659" lon="6.53895">
        <ele>1321</ele>
        <time>2003-03-19T20:25:33Z</time>
      </trkpt>
      <trkpt lat="45.8767" lon="6.5388">
        <ele>1320</ele>
        <time>2003-03-19T20:25:33Z</time>
      </trkpt>
      <trkpt lat="45.87672" lon="6.5386">
        <ele>1319</ele>
        <time>2003-03-19T20:25:33Z</time>
      </trkpt>
      <trkpt lat="45.8768" lon="6.53854">
        <ele>1322</ele>
        <time>2003-03-19T20:25:33Z</time>
      </trkpt>
      <trkpt lat="45.8768" lon="6.5385">
        <ele>1323</ele>
        <time>2003-03-19T20:25:33Z</time>
      </trkpt>
      <trkpt lat="45.877" lon="6.5382">
        <ele>1328</ele>
        <time>2003-03-19T20:25:33Z</time>
      </trkpt>
      <trkpt lat="45.87708" lon="6.53796">
        <ele>1328</ele>
        <time>2003-03-19T20:25:33Z</time>
      </trkpt>
      <trkpt lat="45.87736" lon="6.53751">
        <ele>1325</ele>
        <time>2003-03-19T20:25:33Z</time>
      </trkpt>
      <trkpt lat="45.87766" lon="6.53687">
        <ele>1325</ele>
        <time>2003-03-19T20:25:33Z</time>
      </trkpt>
      <trkpt lat="45.8777" lon="6.53659">
        <ele>1321</ele>
        <time>2003-03-19T20:25:33Z</time>
      </trkpt>
      <trkpt lat="45.87783" lon="6.53629">
        <ele>1321</ele>
        <time>2003-03-19T20:25:33Z</time>
      </trkpt>
      <trkpt lat="45.87831" lon="6.53553">
        <ele>1296</ele>
        <time>2003-03-19T20:25:33Z</time>
      </trkpt>
      <trkpt lat="45.87839" lon="6.53502">
        <ele>1299</ele>
        <time>2003-03-19T20:25:33Z</time>
      </trkpt>
      <trkpt lat="45.8785" lon="6.53468">
        <ele>1301</ele>
        <time>2003-03-19T20:25:33Z</time>
      </trkpt>
      <trkpt lat="45.87899" lon="6.53337">
        <ele>1299</ele>
        <time>2003-03-19T20:25:33Z</time>
      </trkpt>
      <trkpt lat="45.87934" lon="6.53281">
        <ele>1298</ele>
        <time>2003-03-19T20:25:33Z</time>
      </trkpt>
      <trkpt lat="45.87953" lon="6.53255">
        <ele>1295</ele>
        <time>2003-03-19T20:25:33Z</time>
      </trkpt>
      <trkpt lat="45.87964" lon="6.53219">
        <ele>1295</ele>
        <time>2003-03-19T20:25:33Z</time>
      </trkpt>
      <trkpt lat="45.87996" lon="6.53154">
        <ele>1294</ele>
        <time>2003-03-19T20:25:33Z</time>
      </trkpt>
      <trkpt lat="45.87996" lon="6.53141">
        <ele>1293</ele>
        <time>2003-03-19T20:25:33Z</time>
      </trkpt>
      <trkpt lat="45.87991" lon="6.53135">
        <ele>1294</ele>
        <time>2003-03-19T20:25:33Z</time>
      </trkpt>
      <trkpt lat="45.87968" lon="6.53107">
        <ele>1295</ele>
        <time>2003-03-19T20:25:33Z</time>
      </trkpt>
      <trkpt lat="45.87953" lon="6.53084">
        <ele>1291</ele>
        <time>2003-03-19T20:25:33Z</time>
      </trkpt>
      <trkpt lat="45.87942" lon="6.5306">
        <ele>1286</ele>
        <time>2003-03-19T20:25:33Z</time>
      </trkpt>
      <trkpt lat="45.87931" lon="6.53006">
        <ele>1286</ele>
        <time>2003-03-19T20:25:33Z</time>
      </trkpt>
      <trkpt lat="45.87951" lon="6.52931">
        <ele>1278</ele>
        <time>2003-03-19T20:25:33Z</time>
      </trkpt>
      <trkpt lat="45.87985" lon="6.52882">
        <ele>1268</ele>
        <time>2003-03-19T20:25:33Z</time>
      </trkpt>
      <trkpt lat="45.87994" lon="6.52852">
        <ele>1264</ele>
        <time>2003-03-19T20:25:33Z</time>
      </trkpt>
      <trkpt lat="45.88026" lon="6.52734">
        <ele>1252</ele>
        <time>2003-03-19T20:25:33Z</time>
      </trkpt>
      <trkpt lat="45.88028" lon="6.52712">
        <ele>1255</ele>
        <time>2003-03-19T20:25:33Z</time>
      </trkpt>
      <trkpt lat="45.88047" lon="6.52674">
        <ele>1248</ele>
        <time>2003-03-19T20:25:33Z</time>
      </trkpt>
      <trkpt lat="45.8806" lon="6.52637">
        <ele>1246</ele>
        <time>2003-03-19T20:25:33Z</time>
      </trkpt>
      <trkpt lat="45.88077" lon="6.52629">
        <ele>1245</ele>
        <time>2003-03-19T20:25:33Z</time>
      </trkpt>
      <trkpt lat="45.88079" lon="6.52622">
        <ele>1245</ele>
        <time>2003-03-19T20:25:33Z</time>
      </trkpt>
      <trkpt lat="45.88079" lon="6.52616">
        <ele>1245</ele>
        <time>2003-03-19T20:25:33Z</time>
      </trkpt>
      <trkpt lat="45.88064" lon="6.52616">
        <ele>1243</ele>
        <time>2003-03-19T20:25:33Z</time>
      </trkpt>
      <trkpt lat="45.88043" lon="6.52644">
        <ele>1242</ele>
        <time>2003-03-19T20:25:33Z</time>
      </trkpt>
      <trkpt lat="45.88026" lon="6.5265">
        <ele>1239</ele>
        <time>2003-03-19T20:25:33Z</time>
      </trkpt>
      <trkpt lat="45.88011" lon="6.52652">
        <ele>1236</ele>
        <time>2003-03-19T20:25:33Z</time>
      </trkpt>
      <trkpt lat="45.88" lon="6.52648">
        <ele>1232</ele>
        <time>2003-03-19T20:25:33Z</time>
      </trkpt>
      <trkpt lat="45.87996" lon="6.52654">
        <ele>1233</ele>
        <time>2003-03-19T20:25:33Z</time>
      </trkpt>
      <trkpt lat="45.87996" lon="6.52659">
        <ele>1234</ele>
        <time>2003-03-19T20:25:33Z</time>
      </trkpt>
    </trkseg>
  </trk>
  <trk>
    <name><![CDATA[Croisse Baulet 3]]></name>
    <trkseg>
      <trkpt lat="45.87975" lon="6.52653">
        <ele>1224.7</ele>
        <time>2003-02-06T13:08:28Z</time>
      </trkpt>
      <trkpt lat="45.88022" lon="6.52663">
        <ele>1229.9</ele>
        <time>2003-02-06T13:08:28Z</time>
      </trkpt>
      <trkpt lat="45.88089" lon="6.5262">
        <ele>1241.1</ele>
        <time>2003-02-06T13:08:28Z</time>
      </trkpt>
      <trkpt lat="45.87947" lon="6.52909">
        <ele>1255</ele>
        <time>2003-02-06T13:08:28Z</time>
      </trkpt>
      <trkpt lat="45.8793" lon="6.53079">
        <ele>1253.9</ele>
        <time>2003-02-06T13:08:28Z</time>
      </trkpt>
      <trkpt lat="45.87985" lon="6.5316">
        <ele>1272.1</ele>
        <time>2003-02-06T13:08:28Z</time>
      </trkpt>
      <trkpt lat="45.87675" lon="6.53853">
        <ele>1312.3</ele>
        <time>2003-02-06T13:08:28Z</time>
      </trkpt>
      <trkpt lat="45.8764" lon="6.5403">
        <ele>1321.8</ele>
        <time>2003-02-06T13:08:28Z</time>
      </trkpt>
      <trkpt lat="45.87577" lon="6.54074">
        <ele>1322.8</ele>
        <time>2003-02-06T13:08:28Z</time>
      </trkpt>
      <trkpt lat="45.87551" lon="6.54169">
        <ele>1340</ele>
        <time>2003-02-06T13:08:28Z</time>
      </trkpt>
      <trkpt lat="45.87559" lon="6.54379">
        <ele>1390.4</ele>
        <time>2003-02-06T13:08:28Z</time>
      </trkpt>
      <trkpt lat="45.87601" lon="6.5446">
        <ele>1413.2</ele>
        <time>2003-02-06T13:08:28Z</time>
      </trkpt>
      <trkpt lat="45.87435" lon="6.54673">
        <ele>1440.6</ele>
        <time>2003-02-06T13:08:28Z</time>
      </trkpt>
      <trkpt lat="45.87384" lon="6.55249">
        <ele>1503.1</ele>
        <time>2003-02-06T13:08:28Z</time>
      </trkpt>
      <trkpt lat="45.87314" lon="6.55398">
        <ele>1506</ele>
        <time>2003-02-06T13:08:28Z</time>
      </trkpt>
      <trkpt lat="45.87458" lon="6.55687">
        <ele>1538.8</ele>
        <time>2003-02-06T13:08:28Z</time>
      </trkpt>
      <trkpt lat="45.8742" lon="6.5581">
        <ele>1547.4</ele>
        <time>2003-02-06T13:08:28Z</time>
      </trkpt>
      <trkpt lat="45.87458" lon="6.55996">
        <ele>1552</ele>
        <time>2003-02-06T13:08:28Z</time>
      </trkpt>
      <trkpt lat="45.87736" lon="6.56395">
        <ele>1596</ele>
        <time>2003-02-06T13:08:28Z</time>
      </trkpt>
      <trkpt lat="45.87926" lon="6.56674">
        <ele>1671.3</ele>
        <time>2003-02-06T13:08:28Z</time>
      </trkpt>
      <trkpt lat="45.8807" lon="6.5673">
        <ele>1695.6</ele>
        <time>2003-02-06T13:08:28Z</time>
      </trkpt>
      <trkpt lat="45.88136" lon="6.56842">
        <ele>1702</ele>
        <time>2003-02-06T13:08:28Z</time>
      </trkpt>
      <trkpt lat="45.88125" lon="6.56989">
        <ele>1716.6</ele>
        <time>2003-02-06T13:08:28Z</time>
      </trkpt>
      <trkpt lat="45.88078" lon="6.57044">
        <ele>1718.2</ele>
        <time>2003-02-06T13:08:28Z</time>
      </trkpt>
      <trkpt lat="45.8826" lon="6.56945">
        <ele>1739.3</ele>
        <time>2003-02-06T13:08:28Z</time>
      </trkpt>
      <trkpt lat="45.88353" lon="6.56678">
        <ele>1789</ele>
        <time>2003-02-06T13:08:28Z</time>
      </trkpt>
      <trkpt lat="45.88362" lon="6.56447">
        <ele>1829.3</ele>
        <time>2003-02-06T13:08:28Z</time>
      </trkpt>
      <trkpt lat="45.88472" lon="6.56397">
        <ele>1879.5</ele>
        <time>2003-02-06T13:08:28Z</time>
      </trkpt>
      <trkpt lat="45.88519" lon="6.56217">
        <ele>1915.7</ele>
        <time>2003-02-06T13:08:28Z</time>
      </trkpt>
      <trkpt lat="45.88483" lon="6.56095">
        <ele>1943.1</ele>
        <time>2003-02-06T13:08:28Z</time>
      </trkpt>
      <trkpt lat="45.88537" lon="6.5587">
        <ele>2002.5</ele>
        <time>2003-02-06T13:08:28Z</time>
      </trkpt>
      <trkpt lat="45.88429" lon="6.55697">
        <ele>1968</ele>
        <time>2003-02-06T13:08:28Z</time>
      </trkpt>
      <trkpt lat="45.88427" lon="6.55371">
        <ele>1883.8</ele>
        <time>2003-02-06T13:08:28Z</time>
      </trkpt>
      <trkpt lat="45.88283" lon="6.54767">
        <ele>1745.6</ele>
        <time>2003-02-06T13:08:28Z</time>
      </trkpt>
      <trkpt lat="45.88209" lon="6.54651">
        <ele>1739.8</ele>
        <time>2003-02-06T13:08:28Z</time>
      </trkpt>
      <trkpt lat="45.88073" lon="6.54496">
        <ele>1699</ele>
        <time>2003-02-06T13:08:28Z</time>
      </trkpt>
      <trkpt lat="45.88066" lon="6.54376">
        <ele>1653.4</ele>
        <time>2003-02-06T13:08:28Z</time>
      </trkpt>
      <trkpt lat="45.88121" lon="6.54274">
        <ele>1603</ele>
        <time>2003-02-06T13:08:28Z</time>
      </trkpt>
      <trkpt lat="45.88136" lon="6.54178">
        <ele>1586.7</ele>
        <time>2003-02-06T13:08:28Z</time>
      </trkpt>
      <trkpt lat="45.88125" lon="6.54051">
        <ele>1551.6</ele>
        <time>2003-02-06T13:08:28Z</time>
      </trkpt>
      <trkpt lat="45.88068" lon="6.53889">
        <ele>1520.9</ele>
        <time>2003-02-06T13:08:28Z</time>
      </trkpt>
      <trkpt lat="45.88074" lon="6.53725">
        <ele>1478.7</ele>
        <time>2003-02-06T13:08:28Z</time>
      </trkpt>
      <trkpt lat="45.88063" lon="6.53666">
        <ele>1461.3</ele>
        <time>2003-02-06T13:08:28Z</time>
      </trkpt>
      <trkpt lat="45.88087" lon="6.5362">
        <ele>1444.2</ele>
        <time>2003-02-06T13:08:28Z</time>
      </trkpt>
      <trkpt lat="45.88061" lon="6.53589">
        <ele>1435.6</ele>
        <time>2003-02-06T13:08:28Z</time>
      </trkpt>
      <trkpt lat="45.88147" lon="6.5354">
        <ele>1389.7</ele>
        <time>2003-02-06T13:08:28Z</time>
      </trkpt>
      <trkpt lat="45.88111" lon="6.53399">
        <ele>1338.9</ele>
        <time>2003-02-06T13:08:28Z</time>
      </trkpt>
      <trkpt lat="45.87987" lon="6.53164">
        <ele>1272</ele>
        <time>2003-02-06T13:08:28Z</time>
      </trkpt>
      <trkpt lat="45.8793" lon="6.53075">
        <ele>1254</ele>
        <time>2003-02-06T13:08:28Z</time>
      </trkpt>
      <trkpt lat="45.87947" lon="6.52909">
        <ele>1255</ele>
        <time>2003-02-06T13:08:28Z</time>
      </trkpt>
      <trkpt lat="45.88086" lon="6.5262">
        <ele>1240.2</ele>
        <time>2003-02-06T13:08:28Z</time>
      </trkpt>
      <trkpt lat="45.88024" lon="6.52667">
        <ele>1230.4</ele>
        <time>2003-02-06T13:08:28Z</time>
      </trkpt>
      <trkpt lat="45.87973" lon="6.52653">
        <ele>1224.5</ele>
        <time>2003-02-06T13:08:28Z</time>
      </trkpt>
      <trkpt lat="45.87975" lon="6.52653">
        <ele>1224.7</ele>
        <time>2003-02-06T13:08:28Z</time>
      </trkpt>
    </trkseg>
  </trk>
  <trk>
    <name><![CDATA[Croix Cartier]]></name>
    <trkseg>
      <trkpt lat="45.87949" lon="6.44925">
        <ele>1362</ele>
        <time>2004-01-19T18:03:57Z</time>
      </trkpt>
      <trkpt lat="45.87966" lon="6.45078">
        <ele>1363</ele>
        <time>2004-01-19T18:03:57Z</time>
      </trkpt>
      <trkpt lat="45.8797" lon="6.45125">
        <ele>1392</ele>
        <time>2004-01-19T18:03:57Z</time>
      </trkpt>
      <trkpt lat="45.87981" lon="6.45174">
        <ele>1392</ele>
        <time>2004-01-19T18:03:57Z</time>
      </trkpt>
      <trkpt lat="45.87964" lon="6.45224">
        <ele>1411</ele>
        <time>2004-01-19T18:03:57Z</time>
      </trkpt>
      <trkpt lat="45.87869" lon="6.45299">
        <ele>1411</ele>
        <time>2004-01-19T18:03:57Z</time>
      </trkpt>
      <trkpt lat="45.87837" lon="6.45376">
        <ele>1409</ele>
        <time>2004-01-19T18:03:57Z</time>
      </trkpt>
      <trkpt lat="45.87798" lon="6.45389">
        <ele>1405</ele>
        <time>2004-01-19T18:03:57Z</time>
      </trkpt>
      <trkpt lat="45.87603" lon="6.45629">
        <ele>1465</ele>
        <time>2004-01-19T18:03:57Z</time>
      </trkpt>
      <trkpt lat="45.87545" lon="6.45769">
        <ele>1479</ele>
        <time>2004-01-19T18:03:57Z</time>
      </trkpt>
      <trkpt lat="45.87515" lon="6.45897">
        <ele>1482</ele>
        <time>2004-01-19T18:03:57Z</time>
      </trkpt>
      <trkpt lat="45.87479" lon="6.45938">
        <ele>1478</ele>
        <time>2004-01-19T18:03:57Z</time>
      </trkpt>
      <trkpt lat="45.87404" lon="6.45975">
        <ele>1472</ele>
        <time>2004-01-19T18:03:57Z</time>
      </trkpt>
      <trkpt lat="45.87371" lon="6.45994">
        <ele>1472</ele>
        <time>2004-01-19T18:03:57Z</time>
      </trkpt>
      <trkpt lat="45.87238" lon="6.46063">
        <ele>1469</ele>
        <time>2004-01-19T18:03:57Z</time>
      </trkpt>
      <trkpt lat="45.87208" lon="6.46178">
        <ele>1484</ele>
        <time>2004-01-19T18:03:57Z</time>
      </trkpt>
      <trkpt lat="45.8711" lon="6.46181">
        <ele>1496</ele>
        <time>2004-01-19T18:03:57Z</time>
      </trkpt>
      <trkpt lat="45.86972" lon="6.46273">
        <ele>1515</ele>
        <time>2004-01-19T18:03:57Z</time>
      </trkpt>
      <trkpt lat="45.86869" lon="6.46299">
        <ele>1533</ele>
        <time>2004-01-19T18:03:57Z</time>
      </trkpt>
      <trkpt lat="45.86796" lon="6.46288">
        <ele>1544</ele>
        <time>2004-01-19T18:03:57Z</time>
      </trkpt>
      <trkpt lat="45.86691" lon="6.46344">
        <ele>1566</ele>
        <time>2004-01-19T18:03:57Z</time>
      </trkpt>
      <trkpt lat="45.86614" lon="6.46327">
        <ele>1570</ele>
        <time>2004-01-19T18:03:57Z</time>
      </trkpt>
      <trkpt lat="45.86449" lon="6.46344">
        <ele>1586</ele>
        <time>2004-01-19T18:03:57Z</time>
      </trkpt>
      <trkpt lat="45.86324" lon="6.46312">
        <ele>1614</ele>
        <time>2004-01-19T18:03:57Z</time>
      </trkpt>
      <trkpt lat="45.86234" lon="6.46316">
        <ele>1634</ele>
        <time>2004-01-19T18:03:57Z</time>
      </trkpt>
      <trkpt lat="45.86116" lon="6.46277">
        <ele>1656</ele>
        <time>2004-01-19T18:03:57Z</time>
      </trkpt>
      <trkpt lat="45.86065" lon="6.46241">
        <ele>1668</ele>
        <time>2004-01-19T18:03:57Z</time>
      </trkpt>
      <trkpt lat="45.86041" lon="6.46262">
        <ele>1674</ele>
        <time>2004-01-19T18:03:57Z</time>
      </trkpt>
      <trkpt lat="45.85957" lon="6.46187">
        <ele>1698</ele>
        <time>2004-01-19T18:03:57Z</time>
      </trkpt>
      <trkpt lat="45.85919" lon="6.46209">
        <ele>1705</ele>
        <time>2004-01-19T18:03:57Z</time>
      </trkpt>
      <trkpt lat="45.85929" lon="6.46191">
        <ele>1706</ele>
        <time>2004-01-19T18:03:57Z</time>
      </trkpt>
      <trkpt lat="45.85914" lon="6.46224">
        <ele>1707</ele>
        <time>2004-01-19T18:03:57Z</time>
      </trkpt>
      <trkpt lat="45.85897" lon="6.46211">
        <ele>1717</ele>
        <time>2004-01-19T18:03:57Z</time>
      </trkpt>
      <trkpt lat="45.85871" lon="6.46232">
        <ele>1730</ele>
        <time>2004-01-19T18:03:57Z</time>
      </trkpt>
      <trkpt lat="45.85826" lon="6.46198">
        <ele>1728</ele>
        <time>2004-01-19T18:03:57Z</time>
      </trkpt>
      <trkpt lat="45.85811" lon="6.46204">
        <ele>1728</ele>
        <time>2004-01-19T18:03:57Z</time>
      </trkpt>
      <trkpt lat="45.85824" lon="6.46221">
        <ele>1725</ele>
        <time>2004-01-19T18:03:57Z</time>
      </trkpt>
      <trkpt lat="45.85796" lon="6.46236">
        <ele>1710</ele>
        <time>2004-01-19T18:03:57Z</time>
      </trkpt>
      <trkpt lat="45.85796" lon="6.46273">
        <ele>1708</ele>
        <time>2004-01-19T18:03:57Z</time>
      </trkpt>
      <trkpt lat="45.85781" lon="6.46275">
        <ele>1701</ele>
        <time>2004-01-19T18:03:57Z</time>
      </trkpt>
      <trkpt lat="45.85758" lon="6.46273">
        <ele>1699</ele>
        <time>2004-01-19T18:03:57Z</time>
      </trkpt>
      <trkpt lat="45.85749" lon="6.46286">
        <ele>1688</ele>
        <time>2004-01-19T18:03:57Z</time>
      </trkpt>
      <trkpt lat="45.85723" lon="6.46297">
        <ele>1689</ele>
        <time>2004-01-19T18:03:57Z</time>
      </trkpt>
      <trkpt lat="45.85685" lon="6.46352">
        <ele>1691</ele>
        <time>2004-01-19T18:03:57Z</time>
      </trkpt>
      <trkpt lat="45.8565" lon="6.46357">
        <ele>1679</ele>
        <time>2004-01-19T18:03:57Z</time>
      </trkpt>
      <trkpt lat="45.85575" lon="6.46406">
        <ele>1663</ele>
        <time>2004-01-19T18:03:57Z</time>
      </trkpt>
      <trkpt lat="45.85507" lon="6.46485">
        <ele>1662</ele>
        <time>2004-01-19T18:03:57Z</time>
      </trkpt>
      <trkpt lat="45.85365" lon="6.46601">
        <ele>1609</ele>
        <time>2004-01-19T18:03:57Z</time>
      </trkpt>
      <trkpt lat="45.85311" lon="6.46659">
        <ele>1623</ele>
        <time>2004-01-19T18:03:57Z</time>
      </trkpt>
      <trkpt lat="45.85211" lon="6.46829">
        <ele>1648</ele>
        <time>2004-01-19T18:03:57Z</time>
      </trkpt>
      <trkpt lat="45.8506" lon="6.46917">
        <ele>1663</ele>
        <time>2004-01-19T18:03:57Z</time>
      </trkpt>
      <trkpt lat="45.8503" lon="6.46887">
        <ele>1654</ele>
        <time>2004-01-19T18:03:57Z</time>
      </trkpt>
      <trkpt lat="45.85017" lon="6.46857">
        <ele>1649</ele>
        <time>2004-01-19T18:03:57Z</time>
      </trkpt>
      <trkpt lat="45.84955" lon="6.46728">
        <ele>1618</ele>
        <time>2004-01-19T18:03:57Z</time>
      </trkpt>
      <trkpt lat="45.8491" lon="6.4667">
        <ele>1596</ele>
        <time>2004-01-19T18:03:57Z</time>
      </trkpt>
      <trkpt lat="45.84869" lon="6.46537">
        <ele>1578</ele>
        <time>2004-01-19T18:03:57Z</time>
      </trkpt>
      <trkpt lat="45.84796" lon="6.46455">
        <ele>1576</ele>
        <time>2004-01-19T18:03:57Z</time>
      </trkpt>
      <trkpt lat="45.84781" lon="6.46423">
        <ele>1574</ele>
        <time>2004-01-19T18:03:57Z</time>
      </trkpt>
      <trkpt lat="45.84781" lon="6.46372">
        <ele>1571</ele>
        <time>2004-01-19T18:03:57Z</time>
      </trkpt>
      <trkpt lat="45.84764" lon="6.46359">
        <ele>1579</ele>
        <time>2004-01-19T18:03:57Z</time>
      </trkpt>
      <trkpt lat="45.84708" lon="6.46202">
        <ele>1583</ele>
        <time>2004-01-19T18:03:57Z</time>
      </trkpt>
      <trkpt lat="45.84612" lon="6.46065">
        <ele>1596</ele>
        <time>2004-01-19T18:03:57Z</time>
      </trkpt>
      <trkpt lat="45.84498" lon="6.46022">
        <ele>1606</ele>
        <time>2004-01-19T18:03:57Z</time>
      </trkpt>
      <trkpt lat="45.84434" lon="6.46121">
        <ele>1645</ele>
        <time>2004-01-19T18:03:57Z</time>
      </trkpt>
      <trkpt lat="45.84318" lon="6.46136">
        <ele>1635</ele>
        <time>2004-01-19T18:03:57Z</time>
      </trkpt>
      <trkpt lat="45.84247" lon="6.46258">
        <ele>1626</ele>
        <time>2004-01-19T18:03:57Z</time>
      </trkpt>
      <trkpt lat="45.84118" lon="6.46275">
        <ele>1648</ele>
        <time>2004-01-19T18:03:57Z</time>
      </trkpt>
      <trkpt lat="45.83942" lon="6.46206">
        <ele>1668</ele>
        <time>2004-01-19T18:03:57Z</time>
      </trkpt>
      <trkpt lat="45.83904" lon="6.46161">
        <ele>1672</ele>
        <time>2004-01-19T18:03:57Z</time>
      </trkpt>
      <trkpt lat="45.8388" lon="6.46172">
        <ele>1675</ele>
        <time>2004-01-19T18:03:57Z</time>
      </trkpt>
      <trkpt lat="45.83863" lon="6.46234">
        <ele>1682</ele>
        <time>2004-01-19T18:03:57Z</time>
      </trkpt>
      <trkpt lat="45.83846" lon="6.46254">
        <ele>1680</ele>
        <time>2004-01-19T18:03:57Z</time>
      </trkpt>
      <trkpt lat="45.83786" lon="6.46279">
        <ele>1686</ele>
        <time>2004-01-19T18:03:57Z</time>
      </trkpt>
      <trkpt lat="45.83781" lon="6.46312">
        <ele>1694</ele>
        <time>2004-01-19T18:03:57Z</time>
      </trkpt>
      <trkpt lat="45.83685" lon="6.46384">
        <ele>1695</ele>
        <time>2004-01-19T18:03:57Z</time>
      </trkpt>
      <trkpt lat="45.8367" lon="6.46447">
        <ele>1695</ele>
        <time>2004-01-19T18:03:57Z</time>
      </trkpt>
      <trkpt lat="45.83668" lon="6.46616">
        <ele>1709</ele>
        <time>2004-01-19T18:03:57Z</time>
      </trkpt>
      <trkpt lat="45.8361" lon="6.46803">
        <ele>1717</ele>
        <time>2004-01-19T18:03:57Z</time>
      </trkpt>
      <trkpt lat="45.83556" lon="6.46889">
        <ele>1730</ele>
        <time>2004-01-19T18:03:57Z</time>
      </trkpt>
      <trkpt lat="45.83541" lon="6.47058">
        <ele>1760</ele>
        <time>2004-01-19T18:03:57Z</time>
      </trkpt>
      <trkpt lat="45.83509" lon="6.47211">
        <ele>1784</ele>
        <time>2004-01-19T18:03:57Z</time>
      </trkpt>
      <trkpt lat="45.83543" lon="6.47286">
        <ele>1802</ele>
        <time>2004-01-19T18:03:57Z</time>
      </trkpt>
      <trkpt lat="45.83569" lon="6.47545">
        <ele>1810</ele>
        <time>2004-01-19T18:03:57Z</time>
      </trkpt>
      <trkpt lat="45.83631" lon="6.47814">
        <ele>1831</ele>
        <time>2004-01-19T18:03:57Z</time>
      </trkpt>
      <trkpt lat="45.83657" lon="6.47895">
        <ele>1834</ele>
        <time>2004-01-19T18:03:57Z</time>
      </trkpt>
      <trkpt lat="45.83709" lon="6.48011">
        <ele>1830</ele>
        <time>2004-01-19T18:03:57Z</time>
      </trkpt>
      <trkpt lat="45.83784" lon="6.48101">
        <ele>1816</ele>
        <time>2004-01-19T18:03:57Z</time>
      </trkpt>
      <trkpt lat="45.83803" lon="6.48142">
        <ele>1817</ele>
        <time>2004-01-19T18:03:57Z</time>
      </trkpt>
      <trkpt lat="45.83829" lon="6.48365">
        <ele>1837</ele>
        <time>2004-01-19T18:03:57Z</time>
      </trkpt>
      <trkpt lat="45.83816" lon="6.48339">
        <ele>1832</ele>
        <time>2004-01-19T18:03:57Z</time>
      </trkpt>
      <trkpt lat="45.83805" lon="6.48148">
        <ele>1804</ele>
        <time>2004-01-19T18:03:57Z</time>
      </trkpt>
      <trkpt lat="45.83775" lon="6.48099">
        <ele>1810</ele>
        <time>2004-01-19T18:03:57Z</time>
      </trkpt>
      <trkpt lat="45.83745" lon="6.4808">
        <ele>1819</ele>
        <time>2004-01-19T18:03:57Z</time>
      </trkpt>
      <trkpt lat="45.83685" lon="6.47979">
        <ele>1828</ele>
        <time>2004-01-19T18:03:57Z</time>
      </trkpt>
      <trkpt lat="45.83648" lon="6.47891">
        <ele>1832</ele>
        <time>2004-01-19T18:03:57Z</time>
      </trkpt>
      <trkpt lat="45.83575" lon="6.47603">
        <ele>1801</ele>
        <time>2004-01-19T18:03:57Z</time>
      </trkpt>
      <trkpt lat="45.83545" lon="6.47374">
        <ele>1795</ele>
        <time>2004-01-19T18:03:57Z</time>
      </trkpt>
      <trkpt lat="45.83541" lon="6.47245">
        <ele>1787</ele>
        <time>2004-01-19T18:03:57Z</time>
      </trkpt>
      <trkpt lat="45.83556" lon="6.47097">
        <ele>1754</ele>
        <time>2004-01-19T18:03:57Z</time>
      </trkpt>
      <trkpt lat="45.83539" lon="6.47041">
        <ele>1753</ele>
        <time>2004-01-19T18:03:57Z</time>
      </trkpt>
      <trkpt lat="45.83556" lon="6.4694">
        <ele>1726</ele>
        <time>2004-01-19T18:03:57Z</time>
      </trkpt>
      <trkpt lat="45.83655" lon="6.46685">
        <ele>1713</ele>
        <time>2004-01-19T18:03:57Z</time>
      </trkpt>
      <trkpt lat="45.83668" lon="6.46522">
        <ele>1703</ele>
        <time>2004-01-19T18:03:57Z</time>
      </trkpt>
      <trkpt lat="45.837" lon="6.46369">
        <ele>1692</ele>
        <time>2004-01-19T18:03:57Z</time>
      </trkpt>
      <trkpt lat="45.83794" lon="6.46297">
        <ele>1693</ele>
        <time>2004-01-19T18:03:57Z</time>
      </trkpt>
      <trkpt lat="45.83833" lon="6.46299">
        <ele>1694</ele>
        <time>2004-01-19T18:03:57Z</time>
      </trkpt>
      <trkpt lat="45.83908" lon="6.46178">
        <ele>1689</ele>
        <time>2004-01-19T18:03:57Z</time>
      </trkpt>
      <trkpt lat="45.83957" lon="6.46226">
        <ele>1680</ele>
        <time>2004-01-19T18:03:57Z</time>
      </trkpt>
      <trkpt lat="45.84168" lon="6.46264">
        <ele>1645</ele>
        <time>2004-01-19T18:03:57Z</time>
      </trkpt>
      <trkpt lat="45.84251" lon="6.46215">
        <ele>1630</ele>
        <time>2004-01-19T18:03:57Z</time>
      </trkpt>
      <trkpt lat="45.84316" lon="6.46146">
        <ele>1631</ele>
        <time>2004-01-19T18:03:57Z</time>
      </trkpt>
      <trkpt lat="45.84434" lon="6.46125">
        <ele>1624</ele>
        <time>2004-01-19T18:03:57Z</time>
      </trkpt>
      <trkpt lat="45.84502" lon="6.46033">
        <ele>1618</ele>
        <time>2004-01-19T18:03:57Z</time>
      </trkpt>
      <trkpt lat="45.84605" lon="6.46065">
        <ele>1605</ele>
        <time>2004-01-19T18:03:57Z</time>
      </trkpt>
      <trkpt lat="45.84708" lon="6.46198">
        <ele>1589</ele>
        <time>2004-01-19T18:03:57Z</time>
      </trkpt>
      <trkpt lat="45.84758" lon="6.46324">
        <ele>1585</ele>
        <time>2004-01-19T18:03:57Z</time>
      </trkpt>
      <trkpt lat="45.84743" lon="6.46316">
        <ele>1587</ele>
        <time>2004-01-19T18:03:57Z</time>
      </trkpt>
      <trkpt lat="45.84781" lon="6.46391">
        <ele>1581</ele>
        <time>2004-01-19T18:03:57Z</time>
      </trkpt>
      <trkpt lat="45.84794" lon="6.46457">
        <ele>1579</ele>
        <time>2004-01-19T18:03:57Z</time>
      </trkpt>
      <trkpt lat="45.84876" lon="6.46539">
        <ele>1575</ele>
        <time>2004-01-19T18:03:57Z</time>
      </trkpt>
      <trkpt lat="45.84904" lon="6.46668">
        <ele>1580</ele>
        <time>2004-01-19T18:03:57Z</time>
      </trkpt>
      <trkpt lat="45.84955" lon="6.46796">
        <ele>1603</ele>
        <time>2004-01-19T18:03:57Z</time>
      </trkpt>
      <trkpt lat="45.84951" lon="6.46842">
        <ele>1611</ele>
        <time>2004-01-19T18:03:57Z</time>
      </trkpt>
      <trkpt lat="45.84925" lon="6.4688">
        <ele>1621</ele>
        <time>2004-01-19T18:03:57Z</time>
      </trkpt>
      <trkpt lat="45.84936" lon="6.46951">
        <ele>1626</ele>
        <time>2004-01-19T18:03:57Z</time>
      </trkpt>
      <trkpt lat="45.84949" lon="6.46983">
        <ele>1633</ele>
        <time>2004-01-19T18:03:57Z</time>
      </trkpt>
      <trkpt lat="45.85028" lon="6.47097">
        <ele>1653</ele>
        <time>2004-01-19T18:03:57Z</time>
      </trkpt>
      <trkpt lat="45.85022" lon="6.47183">
        <ele>1655</ele>
        <time>2004-01-19T18:03:57Z</time>
      </trkpt>
      <trkpt lat="45.84994" lon="6.47249">
        <ele>1651</ele>
        <time>2004-01-19T18:03:57Z</time>
      </trkpt>
      <trkpt lat="45.85013" lon="6.47271">
        <ele>1650</ele>
        <time>2004-01-19T18:03:57Z</time>
      </trkpt>
      <trkpt lat="45.85028" lon="6.47223">
        <ele>1643</ele>
        <time>2004-01-19T18:03:57Z</time>
      </trkpt>
      <trkpt lat="45.85129" lon="6.4705">
        <ele>1637</ele>
        <time>2004-01-19T18:03:57Z</time>
      </trkpt>
      <trkpt lat="45.85146" lon="6.46985">
        <ele>1634</ele>
        <time>2004-01-19T18:03:57Z</time>
      </trkpt>
      <trkpt lat="45.85238" lon="6.46891">
        <ele>1623</ele>
        <time>2004-01-19T18:03:57Z</time>
      </trkpt>
      <trkpt lat="45.85275" lon="6.46749">
        <ele>1613</ele>
        <time>2004-01-19T18:03:57Z</time>
      </trkpt>
      <trkpt lat="45.85337" lon="6.46633">
        <ele>1612</ele>
        <time>2004-01-19T18:03:57Z</time>
      </trkpt>
      <trkpt lat="45.85371" lon="6.46599">
        <ele>1606</ele>
        <time>2004-01-19T18:03:57Z</time>
      </trkpt>
      <trkpt lat="45.85423" lon="6.46601">
        <ele>1599</ele>
        <time>2004-01-19T18:03:57Z</time>
      </trkpt>
      <trkpt lat="45.85597" lon="6.46681">
        <ele>1597</ele>
        <time>2004-01-19T18:03:57Z</time>
      </trkpt>
      <trkpt lat="45.85605" lon="6.46708">
        <ele>1587</ele>
        <time>2004-01-19T18:03:57Z</time>
      </trkpt>
      <trkpt lat="45.85648" lon="6.46724">
        <ele>1587</ele>
        <time>2004-01-19T18:03:57Z</time>
      </trkpt>
      <trkpt lat="45.8567" lon="6.46751">
        <ele>1587</ele>
        <time>2004-01-19T18:03:57Z</time>
      </trkpt>
      <trkpt lat="45.85668" lon="6.46784">
        <ele>1501</ele>
        <time>2004-01-19T18:03:57Z</time>
      </trkpt>
      <trkpt lat="45.85708" lon="6.4688">
        <ele>1562</ele>
        <time>2004-01-19T18:03:57Z</time>
      </trkpt>
      <trkpt lat="45.85747" lon="6.46874">
        <ele>1562</ele>
        <time>2004-01-19T18:03:57Z</time>
      </trkpt>
      <trkpt lat="45.8585" lon="6.46975">
        <ele>1562</ele>
        <time>2004-01-19T18:03:57Z</time>
      </trkpt>
      <trkpt lat="45.85897" lon="6.46968">
        <ele>1560</ele>
        <time>2004-01-19T18:03:57Z</time>
      </trkpt>
      <trkpt lat="45.85979" lon="6.46996">
        <ele>1559</ele>
        <time>2004-01-19T18:03:57Z</time>
      </trkpt>
      <trkpt lat="45.86026" lon="6.47093">
        <ele>1552</ele>
        <time>2004-01-19T18:03:57Z</time>
      </trkpt>
      <trkpt lat="45.86161" lon="6.47123">
        <ele>1552</ele>
        <time>2004-01-19T18:03:57Z</time>
      </trkpt>
      <trkpt lat="45.86251" lon="6.47071">
        <ele>1552</ele>
        <time>2004-01-19T18:03:57Z</time>
      </trkpt>
      <trkpt lat="45.86348" lon="6.47097">
        <ele>1552</ele>
        <time>2004-01-19T18:03:57Z</time>
      </trkpt>
      <trkpt lat="45.86466" lon="6.4709">
        <ele>1552</ele>
        <time>2004-01-19T18:03:57Z</time>
      </trkpt>
      <trkpt lat="45.86582" lon="6.47148">
        <ele>1552</ele>
        <time>2004-01-19T18:03:57Z</time>
      </trkpt>
      <trkpt lat="45.8661" lon="6.47213">
        <ele>1586</ele>
        <time>2004-01-19T18:03:57Z</time>
      </trkpt>
      <trkpt lat="45.86693" lon="6.47219">
        <ele>1596</ele>
        <time>2004-01-19T18:03:57Z</time>
      </trkpt>
      <trkpt lat="45.86704" lon="6.47243">
        <ele>1591</ele>
        <time>2004-01-19T18:03:57Z</time>
      </trkpt>
      <trkpt lat="45.86734" lon="6.47232">
        <ele>1589</ele>
        <time>2004-01-19T18:03:57Z</time>
      </trkpt>
      <trkpt lat="45.8676" lon="6.47178">
        <ele>1585</ele>
        <time>2004-01-19T18:03:57Z</time>
      </trkpt>
      <trkpt lat="45.86762" lon="6.47097">
        <ele>1582</ele>
        <time>2004-01-19T18:03:57Z</time>
      </trkpt>
      <trkpt lat="45.86715" lon="6.47024">
        <ele>1575</ele>
        <time>2004-01-19T18:03:57Z</time>
      </trkpt>
      <trkpt lat="45.86685" lon="6.46923">
        <ele>1567</ele>
        <time>2004-01-19T18:03:57Z</time>
      </trkpt>
      <trkpt lat="45.86631" lon="6.46822">
        <ele>1565</ele>
        <time>2004-01-19T18:03:57Z</time>
      </trkpt>
      <trkpt lat="45.86618" lon="6.46696">
        <ele>1555</ele>
        <time>2004-01-19T18:03:57Z</time>
      </trkpt>
      <trkpt lat="45.86547" lon="6.4658">
        <ele>1550</ele>
        <time>2004-01-19T18:03:57Z</time>
      </trkpt>
      <trkpt lat="45.86543" lon="6.46533">
        <ele>1550</ele>
        <time>2004-01-19T18:03:57Z</time>
      </trkpt>
      <trkpt lat="45.86586" lon="6.46434">
        <ele>1550</ele>
        <time>2004-01-19T18:03:57Z</time>
      </trkpt>
      <trkpt lat="45.86616" lon="6.46427">
        <ele>1547</ele>
        <time>2004-01-19T18:03:57Z</time>
      </trkpt>
      <trkpt lat="45.86719" lon="6.46464">
        <ele>1538</ele>
        <time>2004-01-19T18:03:57Z</time>
      </trkpt>
      <trkpt lat="45.86764" lon="6.46451">
        <ele>1528</ele>
        <time>2004-01-19T18:03:57Z</time>
      </trkpt>
      <trkpt lat="45.86828" lon="6.46391">
        <ele>1523</ele>
        <time>2004-01-19T18:03:57Z</time>
      </trkpt>
      <trkpt lat="45.86906" lon="6.4641">
        <ele>1519</ele>
        <time>2004-01-19T18:03:57Z</time>
      </trkpt>
      <trkpt lat="45.86899" lon="6.46372">
        <ele>1513</ele>
        <time>2004-01-19T18:03:57Z</time>
      </trkpt>
      <trkpt lat="45.8694" lon="6.46337">
        <ele>1506</ele>
        <time>2004-01-19T18:03:57Z</time>
      </trkpt>
      <trkpt lat="45.86981" lon="6.46273">
        <ele>1504</ele>
        <time>2004-01-19T18:03:57Z</time>
      </trkpt>
      <trkpt lat="45.87041" lon="6.46239">
        <ele>1492</ele>
        <time>2004-01-19T18:03:57Z</time>
      </trkpt>
      <trkpt lat="45.87088" lon="6.46185">
        <ele>1499</ele>
        <time>2004-01-19T18:03:57Z</time>
      </trkpt>
      <trkpt lat="45.8715" lon="6.46176">
        <ele>1478</ele>
        <time>2004-01-19T18:03:57Z</time>
      </trkpt>
      <trkpt lat="45.87191" lon="6.46176">
        <ele>1474</ele>
        <time>2004-01-19T18:03:57Z</time>
      </trkpt>
      <trkpt lat="45.87228" lon="6.46157">
        <ele>1488</ele>
        <time>2004-01-19T18:03:57Z</time>
      </trkpt>
      <trkpt lat="45.87275" lon="6.46056">
        <ele>1487</ele>
        <time>2004-01-19T18:03:57Z</time>
      </trkpt>
      <trkpt lat="45.87361" lon="6.46">
        <ele>1491</ele>
        <time>2004-01-19T18:03:57Z</time>
      </trkpt>
      <trkpt lat="45.87431" lon="6.45977">
        <ele>1480</ele>
        <time>2004-01-19T18:03:57Z</time>
      </trkpt>
      <trkpt lat="45.87436" lon="6.45919">
        <ele>1492</ele>
        <time>2004-01-19T18:03:57Z</time>
      </trkpt>
      <trkpt lat="45.8744" lon="6.45863">
        <ele>1514</ele>
        <time>2004-01-19T18:03:57Z</time>
      </trkpt>
      <trkpt lat="45.87476" lon="6.45766">
        <ele>1512</ele>
        <time>2004-01-19T18:03:57Z</time>
      </trkpt>
      <trkpt lat="45.87496" lon="6.45741">
        <ele>1513</ele>
        <time>2004-01-19T18:03:57Z</time>
      </trkpt>
      <trkpt lat="45.87537" lon="6.45749">
        <ele>1467</ele>
        <time>2004-01-19T18:03:57Z</time>
      </trkpt>
      <trkpt lat="45.8764" lon="6.45621">
        <ele>1458</ele>
        <time>2004-01-19T18:03:57Z</time>
      </trkpt>
      <trkpt lat="45.87659" lon="6.45569">
        <ele>1459</ele>
        <time>2004-01-19T18:03:57Z</time>
      </trkpt>
      <trkpt lat="45.8774" lon="6.4549">
        <ele>1450</ele>
        <time>2004-01-19T18:03:57Z</time>
      </trkpt>
      <trkpt lat="45.87777" lon="6.45415">
        <ele>1441</ele>
        <time>2004-01-19T18:03:57Z</time>
      </trkpt>
      <trkpt lat="45.87828" lon="6.45372">
        <ele>1432</ele>
        <time>2004-01-19T18:03:57Z</time>
      </trkpt>
      <trkpt lat="45.87858" lon="6.4532">
        <ele>1429</ele>
        <time>2004-01-19T18:03:57Z</time>
      </trkpt>
      <trkpt lat="45.87929" lon="6.45249">
        <ele>1416</ele>
        <time>2004-01-19T18:03:57Z</time>
      </trkpt>
      <trkpt lat="45.87961" lon="6.45194">
        <ele>1414</ele>
        <time>2004-01-19T18:03:57Z</time>
      </trkpt>
      <trkpt lat="45.87959" lon="6.44968">
        <ele>1379</ele>
        <time>2004-01-19T18:03:57Z</time>
      </trkpt>
      <trkpt lat="45.87951" lon="6.44893">
        <ele>1372</ele>
        <time>2004-01-19T18:03:57Z</time>
      </trkpt>
      <trkpt lat="45.87955" lon="6.44953">
        <ele>1331</ele>
        <time>2004-01-19T18:03:57Z</time>
      </trkpt>
    </trkseg>
  </trk>
  <trk>
    <name><![CDATA[Croix Cartier2]]></name>
    <trkseg>
      <trkpt lat="45.87949" lon="6.44925">
        <ele>1362</ele>
        <time>2004-01-19T18:03:57Z</time>
      </trkpt>
      <trkpt lat="45.87966" lon="6.45078">
        <ele>1363</ele>
        <time>2004-01-19T18:03:57Z</time>
      </trkpt>
      <trkpt lat="45.87944" lon="6.45041">
        <ele>1369</ele>
        <time>2004-01-19T18:03:57Z</time>
      </trkpt>
      <trkpt lat="45.87938" lon="6.45129">
        <ele>1406</ele>
        <time>2004-01-19T18:03:57Z</time>
      </trkpt>
      <trkpt lat="45.8797" lon="6.45125">
        <ele>1392</ele>
        <time>2004-01-19T18:03:57Z</time>
      </trkpt>
      <trkpt lat="45.87981" lon="6.45174">
        <ele>1392</ele>
        <time>2004-01-19T18:03:57Z</time>
      </trkpt>
      <trkpt lat="45.87964" lon="6.45224">
        <ele>1411</ele>
        <time>2004-01-19T18:03:57Z</time>
      </trkpt>
      <trkpt lat="45.87869" lon="6.45299">
        <ele>1411</ele>
        <time>2004-01-19T18:03:57Z</time>
      </trkpt>
      <trkpt lat="45.87837" lon="6.45376">
        <ele>1409</ele>
        <time>2004-01-19T18:03:57Z</time>
      </trkpt>
      <trkpt lat="45.87798" lon="6.45389">
        <ele>1405</ele>
        <time>2004-01-19T18:03:57Z</time>
      </trkpt>
      <trkpt lat="45.87751" lon="6.45571">
        <ele>1405</ele>
        <time>2004-01-19T18:03:57Z</time>
      </trkpt>
      <trkpt lat="45.87603" lon="6.45629">
        <ele>1465</ele>
        <time>2004-01-19T18:03:57Z</time>
      </trkpt>
      <trkpt lat="45.87545" lon="6.45769">
        <ele>1479</ele>
        <time>2004-01-19T18:03:57Z</time>
      </trkpt>
      <trkpt lat="45.87515" lon="6.45897">
        <ele>1482</ele>
        <time>2004-01-19T18:03:57Z</time>
      </trkpt>
      <trkpt lat="45.87479" lon="6.45938">
        <ele>1478</ele>
        <time>2004-01-19T18:03:57Z</time>
      </trkpt>
      <trkpt lat="45.87404" lon="6.45975">
        <ele>1472</ele>
        <time>2004-01-19T18:03:57Z</time>
      </trkpt>
      <trkpt lat="45.87397" lon="6.45932">
        <ele>1471</ele>
        <time>2004-01-19T18:03:57Z</time>
      </trkpt>
      <trkpt lat="45.87371" lon="6.45994">
        <ele>1472</ele>
        <time>2004-01-19T18:03:57Z</time>
      </trkpt>
      <trkpt lat="45.87331" lon="6.46043">
        <ele>1469</ele>
        <time>2004-01-19T18:03:57Z</time>
      </trkpt>
      <trkpt lat="45.87238" lon="6.46063">
        <ele>1469</ele>
        <time>2004-01-19T18:03:57Z</time>
      </trkpt>
      <trkpt lat="45.87208" lon="6.46178">
        <ele>1484</ele>
        <time>2004-01-19T18:03:57Z</time>
      </trkpt>
      <trkpt lat="45.8711" lon="6.46181">
        <ele>1496</ele>
        <time>2004-01-19T18:03:57Z</time>
      </trkpt>
      <trkpt lat="45.86972" lon="6.46273">
        <ele>1515</ele>
        <time>2004-01-19T18:03:57Z</time>
      </trkpt>
      <trkpt lat="45.86869" lon="6.46299">
        <ele>1533</ele>
        <time>2004-01-19T18:03:57Z</time>
      </trkpt>
      <trkpt lat="45.86796" lon="6.46288">
        <ele>1544</ele>
        <time>2004-01-19T18:03:57Z</time>
      </trkpt>
      <trkpt lat="45.86691" lon="6.46344">
        <ele>1566</ele>
        <time>2004-01-19T18:03:57Z</time>
      </trkpt>
      <trkpt lat="45.86614" lon="6.46327">
        <ele>1570</ele>
        <time>2004-01-19T18:03:57Z</time>
      </trkpt>
      <trkpt lat="45.86449" lon="6.46344">
        <ele>1586</ele>
        <time>2004-01-19T18:03:57Z</time>
      </trkpt>
      <trkpt lat="45.86324" lon="6.46312">
        <ele>1614</ele>
        <time>2004-01-19T18:03:57Z</time>
      </trkpt>
      <trkpt lat="45.86234" lon="6.46316">
        <ele>1634</ele>
        <time>2004-01-19T18:03:57Z</time>
      </trkpt>
      <trkpt lat="45.86116" lon="6.46277">
        <ele>1656</ele>
        <time>2004-01-19T18:03:57Z</time>
      </trkpt>
      <trkpt lat="45.86065" lon="6.46241">
        <ele>1668</ele>
        <time>2004-01-19T18:03:57Z</time>
      </trkpt>
      <trkpt lat="45.86041" lon="6.46262">
        <ele>1674</ele>
        <time>2004-01-19T18:03:57Z</time>
      </trkpt>
      <trkpt lat="45.85957" lon="6.46187">
        <ele>1698</ele>
        <time>2004-01-19T18:03:57Z</time>
      </trkpt>
      <trkpt lat="45.85919" lon="6.46209">
        <ele>1705</ele>
        <time>2004-01-19T18:03:57Z</time>
      </trkpt>
      <trkpt lat="45.85929" lon="6.46191">
        <ele>1706</ele>
        <time>2004-01-19T18:03:57Z</time>
      </trkpt>
      <trkpt lat="45.85914" lon="6.46224">
        <ele>1707</ele>
        <time>2004-01-19T18:03:57Z</time>
      </trkpt>
      <trkpt lat="45.85897" lon="6.46211">
        <ele>1717</ele>
        <time>2004-01-19T18:03:57Z</time>
      </trkpt>
      <trkpt lat="45.85865" lon="6.46279">
        <ele>1733</ele>
        <time>2004-01-19T18:03:57Z</time>
      </trkpt>
      <trkpt lat="45.85848" lon="6.46279">
        <ele>1740</ele>
        <time>2004-01-19T18:03:57Z</time>
      </trkpt>
      <trkpt lat="45.85871" lon="6.46232">
        <ele>1730</ele>
        <time>2004-01-19T18:03:57Z</time>
      </trkpt>
      <trkpt lat="45.85826" lon="6.46196">
        <ele>1750</ele>
        <time>2004-01-19T18:03:57Z</time>
      </trkpt>
      <trkpt lat="45.85835" lon="6.46215">
        <ele>1740</ele>
        <time>2004-01-19T18:03:57Z</time>
      </trkpt>
      <trkpt lat="45.85826" lon="6.46198">
        <ele>1728</ele>
        <time>2004-01-19T18:03:57Z</time>
      </trkpt>
      <trkpt lat="45.85811" lon="6.46204">
        <ele>1728</ele>
        <time>2004-01-19T18:03:57Z</time>
      </trkpt>
      <trkpt lat="45.85824" lon="6.46221">
        <ele>1725</ele>
        <time>2004-01-19T18:03:57Z</time>
      </trkpt>
      <trkpt lat="45.85796" lon="6.46236">
        <ele>1710</ele>
        <time>2004-01-19T18:03:57Z</time>
      </trkpt>
      <trkpt lat="45.85796" lon="6.46273">
        <ele>1708</ele>
        <time>2004-01-19T18:03:57Z</time>
      </trkpt>
      <trkpt lat="45.85773" lon="6.46254">
        <ele>1690</ele>
        <time>2004-01-19T18:03:57Z</time>
      </trkpt>
      <trkpt lat="45.85799" lon="6.46286">
        <ele>1715</ele>
        <time>2004-01-19T18:03:57Z</time>
      </trkpt>
      <trkpt lat="45.8579" lon="6.46243">
        <ele>1708</ele>
        <time>2004-01-19T18:03:57Z</time>
      </trkpt>
      <trkpt lat="45.85773" lon="6.46273">
        <ele>1704</ele>
        <time>2004-01-19T18:03:57Z</time>
      </trkpt>
      <trkpt lat="45.85781" lon="6.46275">
        <ele>1701</ele>
        <time>2004-01-19T18:03:57Z</time>
      </trkpt>
      <trkpt lat="45.85758" lon="6.46273">
        <ele>1699</ele>
        <time>2004-01-19T18:03:57Z</time>
      </trkpt>
      <trkpt lat="45.85753" lon="6.46292">
        <ele>1700</ele>
        <time>2004-01-19T18:03:57Z</time>
      </trkpt>
      <trkpt lat="45.85734" lon="6.46284">
        <ele>1693</ele>
        <time>2004-01-19T18:03:57Z</time>
      </trkpt>
      <trkpt lat="45.85753" lon="6.4629">
        <ele>1671</ele>
        <time>2004-01-19T18:03:57Z</time>
      </trkpt>
      <trkpt lat="45.85743" lon="6.46275">
        <ele>1668</ele>
        <time>2004-01-19T18:03:57Z</time>
      </trkpt>
      <trkpt lat="45.85749" lon="6.46286">
        <ele>1688</ele>
        <time>2004-01-19T18:03:57Z</time>
      </trkpt>
      <trkpt lat="45.85723" lon="6.46297">
        <ele>1689</ele>
        <time>2004-01-19T18:03:57Z</time>
      </trkpt>
      <trkpt lat="45.85685" lon="6.46352">
        <ele>1691</ele>
        <time>2004-01-19T18:03:57Z</time>
      </trkpt>
      <trkpt lat="45.8565" lon="6.46357">
        <ele>1679</ele>
        <time>2004-01-19T18:03:57Z</time>
      </trkpt>
      <trkpt lat="45.85623" lon="6.46335">
        <ele>1661</ele>
        <time>2004-01-19T18:03:57Z</time>
      </trkpt>
      <trkpt lat="45.85608" lon="6.46425">
        <ele>1728</ele>
        <time>2004-01-19T18:03:57Z</time>
      </trkpt>
      <trkpt lat="45.85627" lon="6.46316">
        <ele>1596</ele>
        <time>2004-01-19T18:03:57Z</time>
      </trkpt>
      <trkpt lat="45.85575" lon="6.46406">
        <ele>1663</ele>
        <time>2004-01-19T18:03:57Z</time>
      </trkpt>
      <trkpt lat="45.85507" lon="6.46485">
        <ele>1662</ele>
        <time>2004-01-19T18:03:57Z</time>
      </trkpt>
      <trkpt lat="45.85376" lon="6.46605">
        <ele>1612</ele>
        <time>2004-01-19T18:03:57Z</time>
      </trkpt>
      <trkpt lat="45.85354" lon="6.46599">
        <ele>1595</ele>
        <time>2004-01-19T18:03:57Z</time>
      </trkpt>
      <trkpt lat="45.85365" lon="6.46601">
        <ele>1609</ele>
        <time>2004-01-19T18:03:57Z</time>
      </trkpt>
      <trkpt lat="45.85311" lon="6.46659">
        <ele>1623</ele>
        <time>2004-01-19T18:03:57Z</time>
      </trkpt>
      <trkpt lat="45.85211" lon="6.46829">
        <ele>1648</ele>
        <time>2004-01-19T18:03:57Z</time>
      </trkpt>
      <trkpt lat="45.8506" lon="6.46917">
        <ele>1663</ele>
        <time>2004-01-19T18:03:57Z</time>
      </trkpt>
      <trkpt lat="45.85075" lon="6.46906">
        <ele>1658</ele>
        <time>2004-01-19T18:03:57Z</time>
      </trkpt>
      <trkpt lat="45.8503" lon="6.46887">
        <ele>1654</ele>
        <time>2004-01-19T18:03:57Z</time>
      </trkpt>
      <trkpt lat="45.85017" lon="6.46857">
        <ele>1649</ele>
        <time>2004-01-19T18:03:57Z</time>
      </trkpt>
      <trkpt lat="45.84985" lon="6.46698">
        <ele>1634</ele>
        <time>2004-01-19T18:03:57Z</time>
      </trkpt>
      <trkpt lat="45.84955" lon="6.46728">
        <ele>1618</ele>
        <time>2004-01-19T18:03:57Z</time>
      </trkpt>
      <trkpt lat="45.8491" lon="6.4667">
        <ele>1596</ele>
        <time>2004-01-19T18:03:57Z</time>
      </trkpt>
      <trkpt lat="45.84869" lon="6.46537">
        <ele>1578</ele>
        <time>2004-01-19T18:03:57Z</time>
      </trkpt>
      <trkpt lat="45.84796" lon="6.46455">
        <ele>1576</ele>
        <time>2004-01-19T18:03:57Z</time>
      </trkpt>
      <trkpt lat="45.84781" lon="6.46423">
        <ele>1574</ele>
        <time>2004-01-19T18:03:57Z</time>
      </trkpt>
      <trkpt lat="45.84781" lon="6.46372">
        <ele>1571</ele>
        <time>2004-01-19T18:03:57Z</time>
      </trkpt>
      <trkpt lat="45.84764" lon="6.46359">
        <ele>1579</ele>
        <time>2004-01-19T18:03:57Z</time>
      </trkpt>
      <trkpt lat="45.84708" lon="6.46202">
        <ele>1583</ele>
        <time>2004-01-19T18:03:57Z</time>
      </trkpt>
      <trkpt lat="45.84612" lon="6.46065">
        <ele>1596</ele>
        <time>2004-01-19T18:03:57Z</time>
      </trkpt>
      <trkpt lat="45.84498" lon="6.46022">
        <ele>1606</ele>
        <time>2004-01-19T18:03:57Z</time>
      </trkpt>
      <trkpt lat="45.84434" lon="6.46121">
        <ele>1645</ele>
        <time>2004-01-19T18:03:57Z</time>
      </trkpt>
      <trkpt lat="45.84318" lon="6.46136">
        <ele>1635</ele>
        <time>2004-01-19T18:03:57Z</time>
      </trkpt>
      <trkpt lat="45.84247" lon="6.46258">
        <ele>1626</ele>
        <time>2004-01-19T18:03:57Z</time>
      </trkpt>
      <trkpt lat="45.84266" lon="6.4629">
        <ele>1648</ele>
        <time>2004-01-19T18:03:57Z</time>
      </trkpt>
      <trkpt lat="45.84178" lon="6.46136">
        <ele>1642</ele>
        <time>2004-01-19T18:03:57Z</time>
      </trkpt>
      <trkpt lat="45.83829" lon="6.45908">
        <ele>-383</ele>
        <time>2004-01-19T18:03:57Z</time>
      </trkpt>
      <trkpt lat="45.8426" lon="6.46269">
        <ele>1661</ele>
        <time>2004-01-19T18:03:57Z</time>
      </trkpt>
      <trkpt lat="45.84118" lon="6.46275">
        <ele>1648</ele>
        <time>2004-01-19T18:03:57Z</time>
      </trkpt>
      <trkpt lat="45.84075" lon="6.46217">
        <ele>1648</ele>
        <time>2004-01-19T18:03:57Z</time>
      </trkpt>
      <trkpt lat="45.83942" lon="6.46206">
        <ele>1668</ele>
        <time>2004-01-19T18:03:57Z</time>
      </trkpt>
      <trkpt lat="45.83904" lon="6.46161">
        <ele>1672</ele>
        <time>2004-01-19T18:03:57Z</time>
      </trkpt>
      <trkpt lat="45.8388" lon="6.46172">
        <ele>1675</ele>
        <time>2004-01-19T18:03:57Z</time>
      </trkpt>
      <trkpt lat="45.83863" lon="6.46234">
        <ele>1682</ele>
        <time>2004-01-19T18:03:57Z</time>
      </trkpt>
      <trkpt lat="45.83846" lon="6.46254">
        <ele>1680</ele>
        <time>2004-01-19T18:03:57Z</time>
      </trkpt>
      <trkpt lat="45.83786" lon="6.46279">
        <ele>1686</ele>
        <time>2004-01-19T18:03:57Z</time>
      </trkpt>
      <trkpt lat="45.83781" lon="6.46312">
        <ele>1694</ele>
        <time>2004-01-19T18:03:57Z</time>
      </trkpt>
      <trkpt lat="45.83685" lon="6.46384">
        <ele>1695</ele>
        <time>2004-01-19T18:03:57Z</time>
      </trkpt>
      <trkpt lat="45.8367" lon="6.46447">
        <ele>1695</ele>
        <time>2004-01-19T18:03:57Z</time>
      </trkpt>
      <trkpt lat="45.83668" lon="6.46616">
        <ele>1709</ele>
        <time>2004-01-19T18:03:57Z</time>
      </trkpt>
      <trkpt lat="45.8361" lon="6.46803">
        <ele>1717</ele>
        <time>2004-01-19T18:03:57Z</time>
      </trkpt>
      <trkpt lat="45.83556" lon="6.46889">
        <ele>1730</ele>
        <time>2004-01-19T18:03:57Z</time>
      </trkpt>
      <trkpt lat="45.83541" lon="6.47058">
        <ele>1760</ele>
        <time>2004-01-19T18:03:57Z</time>
      </trkpt>
      <trkpt lat="45.83509" lon="6.47211">
        <ele>1784</ele>
        <time>2004-01-19T18:03:57Z</time>
      </trkpt>
      <trkpt lat="45.83543" lon="6.47286">
        <ele>1802</ele>
        <time>2004-01-19T18:03:57Z</time>
      </trkpt>
      <trkpt lat="45.83569" lon="6.47545">
        <ele>1810</ele>
        <time>2004-01-19T18:03:57Z</time>
      </trkpt>
      <trkpt lat="45.83631" lon="6.47814">
        <ele>1831</ele>
        <time>2004-01-19T18:03:57Z</time>
      </trkpt>
      <trkpt lat="45.83616" lon="6.47884">
        <ele>1839</ele>
        <time>2004-01-19T18:03:57Z</time>
      </trkpt>
      <trkpt lat="45.83625" lon="6.4791">
        <ele>1834</ele>
        <time>2004-01-19T18:03:57Z</time>
      </trkpt>
      <trkpt lat="45.83657" lon="6.47895">
        <ele>1834</ele>
        <time>2004-01-19T18:03:57Z</time>
      </trkpt>
      <trkpt lat="45.83709" lon="6.48011">
        <ele>1830</ele>
        <time>2004-01-19T18:03:57Z</time>
      </trkpt>
      <trkpt lat="45.83784" lon="6.48101">
        <ele>1816</ele>
        <time>2004-01-19T18:03:57Z</time>
      </trkpt>
      <trkpt lat="45.83803" lon="6.48142">
        <ele>1817</ele>
        <time>2004-01-19T18:03:57Z</time>
      </trkpt>
      <trkpt lat="45.83829" lon="6.48365">
        <ele>1837</ele>
        <time>2004-01-19T18:03:57Z</time>
      </trkpt>
      <trkpt lat="45.83816" lon="6.48339">
        <ele>1832</ele>
        <time>2004-01-19T18:03:57Z</time>
      </trkpt>
      <trkpt lat="45.83805" lon="6.48148">
        <ele>1804</ele>
        <time>2004-01-19T18:03:57Z</time>
      </trkpt>
      <trkpt lat="45.83775" lon="6.48099">
        <ele>1810</ele>
        <time>2004-01-19T18:03:57Z</time>
      </trkpt>
      <trkpt lat="45.83745" lon="6.4808">
        <ele>1819</ele>
        <time>2004-01-19T18:03:57Z</time>
      </trkpt>
      <trkpt lat="45.83685" lon="6.47979">
        <ele>1828</ele>
        <time>2004-01-19T18:03:57Z</time>
      </trkpt>
      <trkpt lat="45.83648" lon="6.47891">
        <ele>1832</ele>
        <time>2004-01-19T18:03:57Z</time>
      </trkpt>
      <trkpt lat="45.83575" lon="6.47603">
        <ele>1801</ele>
        <time>2004-01-19T18:03:57Z</time>
      </trkpt>
      <trkpt lat="45.83545" lon="6.47374">
        <ele>1795</ele>
        <time>2004-01-19T18:03:57Z</time>
      </trkpt>
      <trkpt lat="45.83541" lon="6.47245">
        <ele>1787</ele>
        <time>2004-01-19T18:03:57Z</time>
      </trkpt>
      <trkpt lat="45.83556" lon="6.47097">
        <ele>1754</ele>
        <time>2004-01-19T18:03:57Z</time>
      </trkpt>
      <trkpt lat="45.83539" lon="6.47041">
        <ele>1753</ele>
        <time>2004-01-19T18:03:57Z</time>
      </trkpt>
      <trkpt lat="45.83556" lon="6.4694">
        <ele>1726</ele>
        <time>2004-01-19T18:03:57Z</time>
      </trkpt>
      <trkpt lat="45.83655" lon="6.46685">
        <ele>1713</ele>
        <time>2004-01-19T18:03:57Z</time>
      </trkpt>
      <trkpt lat="45.83668" lon="6.46522">
        <ele>1703</ele>
        <time>2004-01-19T18:03:57Z</time>
      </trkpt>
      <trkpt lat="45.837" lon="6.46369">
        <ele>1692</ele>
        <time>2004-01-19T18:03:57Z</time>
      </trkpt>
      <trkpt lat="45.83794" lon="6.46297">
        <ele>1693</ele>
        <time>2004-01-19T18:03:57Z</time>
      </trkpt>
      <trkpt lat="45.83833" lon="6.46299">
        <ele>1694</ele>
        <time>2004-01-19T18:03:57Z</time>
      </trkpt>
      <trkpt lat="45.83908" lon="6.46178">
        <ele>1689</ele>
        <time>2004-01-19T18:03:57Z</time>
      </trkpt>
      <trkpt lat="45.83957" lon="6.46226">
        <ele>1680</ele>
        <time>2004-01-19T18:03:57Z</time>
      </trkpt>
      <trkpt lat="45.84168" lon="6.46264">
        <ele>1645</ele>
        <time>2004-01-19T18:03:57Z</time>
      </trkpt>
      <trkpt lat="45.84251" lon="6.46215">
        <ele>1630</ele>
        <time>2004-01-19T18:03:57Z</time>
      </trkpt>
      <trkpt lat="45.84316" lon="6.46146">
        <ele>1631</ele>
        <time>2004-01-19T18:03:57Z</time>
      </trkpt>
      <trkpt lat="45.84434" lon="6.46125">
        <ele>1624</ele>
        <time>2004-01-19T18:03:57Z</time>
      </trkpt>
      <trkpt lat="45.84502" lon="6.46033">
        <ele>1618</ele>
        <time>2004-01-19T18:03:57Z</time>
      </trkpt>
      <trkpt lat="45.84605" lon="6.46065">
        <ele>1605</ele>
        <time>2004-01-19T18:03:57Z</time>
      </trkpt>
      <trkpt lat="45.84708" lon="6.46198">
        <ele>1589</ele>
        <time>2004-01-19T18:03:57Z</time>
      </trkpt>
      <trkpt lat="45.84758" lon="6.46324">
        <ele>1585</ele>
        <time>2004-01-19T18:03:57Z</time>
      </trkpt>
      <trkpt lat="45.84743" lon="6.46316">
        <ele>1587</ele>
        <time>2004-01-19T18:03:57Z</time>
      </trkpt>
      <trkpt lat="45.84781" lon="6.46391">
        <ele>1581</ele>
        <time>2004-01-19T18:03:57Z</time>
      </trkpt>
      <trkpt lat="45.84794" lon="6.46457">
        <ele>1579</ele>
        <time>2004-01-19T18:03:57Z</time>
      </trkpt>
      <trkpt lat="45.84876" lon="6.46539">
        <ele>1575</ele>
        <time>2004-01-19T18:03:57Z</time>
      </trkpt>
      <trkpt lat="45.84904" lon="6.46668">
        <ele>1580</ele>
        <time>2004-01-19T18:03:57Z</time>
      </trkpt>
      <trkpt lat="45.84955" lon="6.46796">
        <ele>1603</ele>
        <time>2004-01-19T18:03:57Z</time>
      </trkpt>
      <trkpt lat="45.84951" lon="6.46842">
        <ele>1611</ele>
        <time>2004-01-19T18:03:57Z</time>
      </trkpt>
      <trkpt lat="45.84925" lon="6.4688">
        <ele>1621</ele>
        <time>2004-01-19T18:03:57Z</time>
      </trkpt>
      <trkpt lat="45.84936" lon="6.46951">
        <ele>1626</ele>
        <time>2004-01-19T18:03:57Z</time>
      </trkpt>
      <trkpt lat="45.84949" lon="6.46983">
        <ele>1633</ele>
        <time>2004-01-19T18:03:57Z</time>
      </trkpt>
      <trkpt lat="45.85" lon="6.47026">
        <ele>1656</ele>
        <time>2004-01-19T18:03:57Z</time>
      </trkpt>
      <trkpt lat="45.85028" lon="6.47097">
        <ele>1653</ele>
        <time>2004-01-19T18:03:57Z</time>
      </trkpt>
      <trkpt lat="45.85022" lon="6.47183">
        <ele>1655</ele>
        <time>2004-01-19T18:03:57Z</time>
      </trkpt>
      <trkpt lat="45.84994" lon="6.47249">
        <ele>1651</ele>
        <time>2004-01-19T18:03:57Z</time>
      </trkpt>
      <trkpt lat="45.85013" lon="6.47271">
        <ele>1650</ele>
        <time>2004-01-19T18:03:57Z</time>
      </trkpt>
      <trkpt lat="45.85028" lon="6.47223">
        <ele>1643</ele>
        <time>2004-01-19T18:03:57Z</time>
      </trkpt>
      <trkpt lat="45.85129" lon="6.4705">
        <ele>1637</ele>
        <time>2004-01-19T18:03:57Z</time>
      </trkpt>
      <trkpt lat="45.85146" lon="6.46985">
        <ele>1634</ele>
        <time>2004-01-19T18:03:57Z</time>
      </trkpt>
      <trkpt lat="45.85238" lon="6.46891">
        <ele>1623</ele>
        <time>2004-01-19T18:03:57Z</time>
      </trkpt>
      <trkpt lat="45.85275" lon="6.46749">
        <ele>1613</ele>
        <time>2004-01-19T18:03:57Z</time>
      </trkpt>
      <trkpt lat="45.85337" lon="6.46633">
        <ele>1612</ele>
        <time>2004-01-19T18:03:57Z</time>
      </trkpt>
      <trkpt lat="45.85371" lon="6.46599">
        <ele>1606</ele>
        <time>2004-01-19T18:03:57Z</time>
      </trkpt>
      <trkpt lat="45.85423" lon="6.46601">
        <ele>1599</ele>
        <time>2004-01-19T18:03:57Z</time>
      </trkpt>
      <trkpt lat="45.85597" lon="6.46681">
        <ele>1597</ele>
        <time>2004-01-19T18:03:57Z</time>
      </trkpt>
      <trkpt lat="45.85605" lon="6.46708">
        <ele>1587</ele>
        <time>2004-01-19T18:03:57Z</time>
      </trkpt>
      <trkpt lat="45.85648" lon="6.46724">
        <ele>1587</ele>
        <time>2004-01-19T18:03:57Z</time>
      </trkpt>
      <trkpt lat="45.8567" lon="6.46751">
        <ele>1587</ele>
        <time>2004-01-19T18:03:57Z</time>
      </trkpt>
      <trkpt lat="45.8568" lon="6.46794">
        <ele>1585</ele>
        <time>2004-01-19T18:03:57Z</time>
      </trkpt>
      <trkpt lat="45.85713" lon="6.46807">
        <ele>1546</ele>
        <time>2004-01-19T18:03:57Z</time>
      </trkpt>
      <trkpt lat="45.85668" lon="6.46784">
        <ele>1501</ele>
        <time>2004-01-19T18:03:57Z</time>
      </trkpt>
      <trkpt lat="45.85708" lon="6.4688">
        <ele>1562</ele>
        <time>2004-01-19T18:03:57Z</time>
      </trkpt>
      <trkpt lat="45.85747" lon="6.46874">
        <ele>1562</ele>
        <time>2004-01-19T18:03:57Z</time>
      </trkpt>
      <trkpt lat="45.8585" lon="6.46975">
        <ele>1562</ele>
        <time>2004-01-19T18:03:57Z</time>
      </trkpt>
      <trkpt lat="45.85897" lon="6.46968">
        <ele>1560</ele>
        <time>2004-01-19T18:03:57Z</time>
      </trkpt>
      <trkpt lat="45.85979" lon="6.46996">
        <ele>1559</ele>
        <time>2004-01-19T18:03:57Z</time>
      </trkpt>
      <trkpt lat="45.86026" lon="6.47093">
        <ele>1552</ele>
        <time>2004-01-19T18:03:57Z</time>
      </trkpt>
      <trkpt lat="45.86161" lon="6.47123">
        <ele>1552</ele>
        <time>2004-01-19T18:03:57Z</time>
      </trkpt>
      <trkpt lat="45.86251" lon="6.47071">
        <ele>1552</ele>
        <time>2004-01-19T18:03:57Z</time>
      </trkpt>
      <trkpt lat="45.86348" lon="6.47097">
        <ele>1552</ele>
        <time>2004-01-19T18:03:57Z</time>
      </trkpt>
      <trkpt lat="45.86466" lon="6.4709">
        <ele>1552</ele>
        <time>2004-01-19T18:03:57Z</time>
      </trkpt>
      <trkpt lat="45.86582" lon="6.47148">
        <ele>1552</ele>
        <time>2004-01-19T18:03:57Z</time>
      </trkpt>
      <trkpt lat="45.86532" lon="6.47176">
        <ele>1552</ele>
        <time>2004-01-19T18:03:57Z</time>
      </trkpt>
      <trkpt lat="45.8661" lon="6.47213">
        <ele>1586</ele>
        <time>2004-01-19T18:03:57Z</time>
      </trkpt>
      <trkpt lat="45.86693" lon="6.47219">
        <ele>1596</ele>
        <time>2004-01-19T18:03:57Z</time>
      </trkpt>
      <trkpt lat="45.86704" lon="6.47243">
        <ele>1591</ele>
        <time>2004-01-19T18:03:57Z</time>
      </trkpt>
      <trkpt lat="45.86734" lon="6.47232">
        <ele>1589</ele>
        <time>2004-01-19T18:03:57Z</time>
      </trkpt>
      <trkpt lat="45.8676" lon="6.47178">
        <ele>1585</ele>
        <time>2004-01-19T18:03:57Z</time>
      </trkpt>
      <trkpt lat="45.86762" lon="6.47097">
        <ele>1582</ele>
        <time>2004-01-19T18:03:57Z</time>
      </trkpt>
      <trkpt lat="45.86715" lon="6.47024">
        <ele>1575</ele>
        <time>2004-01-19T18:03:57Z</time>
      </trkpt>
      <trkpt lat="45.86685" lon="6.46923">
        <ele>1567</ele>
        <time>2004-01-19T18:03:57Z</time>
      </trkpt>
      <trkpt lat="45.86631" lon="6.46822">
        <ele>1565</ele>
        <time>2004-01-19T18:03:57Z</time>
      </trkpt>
      <trkpt lat="45.86618" lon="6.46696">
        <ele>1555</ele>
        <time>2004-01-19T18:03:57Z</time>
      </trkpt>
      <trkpt lat="45.86547" lon="6.4658">
        <ele>1550</ele>
        <time>2004-01-19T18:03:57Z</time>
      </trkpt>
      <trkpt lat="45.86543" lon="6.46533">
        <ele>1550</ele>
        <time>2004-01-19T18:03:57Z</time>
      </trkpt>
      <trkpt lat="45.86586" lon="6.46434">
        <ele>1550</ele>
        <time>2004-01-19T18:03:57Z</time>
      </trkpt>
      <trkpt lat="45.86616" lon="6.46427">
        <ele>1547</ele>
        <time>2004-01-19T18:03:57Z</time>
      </trkpt>
      <trkpt lat="45.86719" lon="6.46464">
        <ele>1538</ele>
        <time>2004-01-19T18:03:57Z</time>
      </trkpt>
      <trkpt lat="45.86764" lon="6.46451">
        <ele>1528</ele>
        <time>2004-01-19T18:03:57Z</time>
      </trkpt>
      <trkpt lat="45.86828" lon="6.46391">
        <ele>1523</ele>
        <time>2004-01-19T18:03:57Z</time>
      </trkpt>
      <trkpt lat="45.86906" lon="6.4641">
        <ele>1519</ele>
        <time>2004-01-19T18:03:57Z</time>
      </trkpt>
      <trkpt lat="45.86899" lon="6.46372">
        <ele>1513</ele>
        <time>2004-01-19T18:03:57Z</time>
      </trkpt>
      <trkpt lat="45.8694" lon="6.46337">
        <ele>1506</ele>
        <time>2004-01-19T18:03:57Z</time>
      </trkpt>
      <trkpt lat="45.86981" lon="6.46273">
        <ele>1504</ele>
        <time>2004-01-19T18:03:57Z</time>
      </trkpt>
      <trkpt lat="45.87041" lon="6.46239">
        <ele>1492</ele>
        <time>2004-01-19T18:03:57Z</time>
      </trkpt>
      <trkpt lat="45.87088" lon="6.46185">
        <ele>1499</ele>
        <time>2004-01-19T18:03:57Z</time>
      </trkpt>
      <trkpt lat="45.87095" lon="6.46198">
        <ele>1491</ele>
        <time>2004-01-19T18:03:57Z</time>
      </trkpt>
      <trkpt lat="45.87073" lon="6.46172">
        <ele>1549</ele>
        <time>2004-01-19T18:03:57Z</time>
      </trkpt>
      <trkpt lat="45.87088" lon="6.46198">
        <ele>1539</ele>
        <time>2004-01-19T18:03:57Z</time>
      </trkpt>
      <trkpt lat="45.87157" lon="6.46146">
        <ele>1554</ele>
        <time>2004-01-19T18:03:57Z</time>
      </trkpt>
      <trkpt lat="45.8703" lon="6.46005">
        <ele>1593</ele>
        <time>2004-01-19T18:03:57Z</time>
      </trkpt>
      <trkpt lat="45.8717" lon="6.45865">
        <ele>1717</ele>
        <time>2004-01-19T18:03:57Z</time>
      </trkpt>
      <trkpt lat="45.8715" lon="6.46176">
        <ele>1478</ele>
        <time>2004-01-19T18:03:57Z</time>
      </trkpt>
      <trkpt lat="45.87296" lon="6.45998">
        <ele>1652</ele>
        <time>2004-01-19T18:03:57Z</time>
      </trkpt>
      <trkpt lat="45.87191" lon="6.46176">
        <ele>1474</ele>
        <time>2004-01-19T18:03:57Z</time>
      </trkpt>
      <trkpt lat="45.8715" lon="6.45955">
        <ele>1699</ele>
        <time>2004-01-19T18:03:57Z</time>
      </trkpt>
      <trkpt lat="45.87228" lon="6.46157">
        <ele>1488</ele>
        <time>2004-01-19T18:03:57Z</time>
      </trkpt>
      <trkpt lat="45.8714" lon="6.45951">
        <ele>1594</ele>
        <time>2004-01-19T18:03:57Z</time>
      </trkpt>
      <trkpt lat="45.87165" lon="6.45936">
        <ele>1595</ele>
        <time>2004-01-19T18:03:57Z</time>
      </trkpt>
      <trkpt lat="45.87281" lon="6.46129">
        <ele>1469</ele>
        <time>2004-01-19T18:03:57Z</time>
      </trkpt>
      <trkpt lat="45.87275" lon="6.46056">
        <ele>1487</ele>
        <time>2004-01-19T18:03:57Z</time>
      </trkpt>
      <trkpt lat="45.87326" lon="6.46091">
        <ele>1489</ele>
        <time>2004-01-19T18:03:57Z</time>
      </trkpt>
      <trkpt lat="45.87361" lon="6.46">
        <ele>1491</ele>
        <time>2004-01-19T18:03:57Z</time>
      </trkpt>
      <trkpt lat="45.87399" lon="6.4596">
        <ele>1478</ele>
        <time>2004-01-19T18:03:57Z</time>
      </trkpt>
      <trkpt lat="45.87393" lon="6.45932">
        <ele>1481</ele>
        <time>2004-01-19T18:03:57Z</time>
      </trkpt>
      <trkpt lat="45.87427" lon="6.45934">
        <ele>1500</ele>
        <time>2004-01-19T18:03:57Z</time>
      </trkpt>
      <trkpt lat="45.87431" lon="6.45977">
        <ele>1480</ele>
        <time>2004-01-19T18:03:57Z</time>
      </trkpt>
      <trkpt lat="45.87328" lon="6.45839">
        <ele>1460</ele>
        <time>2004-01-19T18:03:57Z</time>
      </trkpt>
      <trkpt lat="45.87489" lon="6.45636">
        <ele>1719</ele>
        <time>2004-01-19T18:03:57Z</time>
      </trkpt>
      <trkpt lat="45.8727" lon="6.45676">
        <ele>1593</ele>
        <time>2004-01-19T18:03:57Z</time>
      </trkpt>
      <trkpt lat="45.87436" lon="6.45919">
        <ele>1492</ele>
        <time>2004-01-19T18:03:57Z</time>
      </trkpt>
      <trkpt lat="45.87461" lon="6.45908">
        <ele>1471</ele>
        <time>2004-01-19T18:03:57Z</time>
      </trkpt>
      <trkpt lat="45.8744" lon="6.45863">
        <ele>1514</ele>
        <time>2004-01-19T18:03:57Z</time>
      </trkpt>
      <trkpt lat="45.87485" lon="6.45848">
        <ele>1521</ele>
        <time>2004-01-19T18:03:57Z</time>
      </trkpt>
      <trkpt lat="45.87476" lon="6.45766">
        <ele>1512</ele>
        <time>2004-01-19T18:03:57Z</time>
      </trkpt>
      <trkpt lat="45.87496" lon="6.45741">
        <ele>1513</ele>
        <time>2004-01-19T18:03:57Z</time>
      </trkpt>
      <trkpt lat="45.87399" lon="6.45593">
        <ele>1633</ele>
        <time>2004-01-19T18:03:57Z</time>
      </trkpt>
      <trkpt lat="45.87511" lon="6.45732">
        <ele>1614</ele>
        <time>2004-01-19T18:03:57Z</time>
      </trkpt>
      <trkpt lat="45.87537" lon="6.45749">
        <ele>1467</ele>
        <time>2004-01-19T18:03:57Z</time>
      </trkpt>
      <trkpt lat="45.87519" lon="6.45653">
        <ele>1491</ele>
        <time>2004-01-19T18:03:57Z</time>
      </trkpt>
      <trkpt lat="45.87616" lon="6.45844">
        <ele>1459</ele>
        <time>2004-01-19T18:03:57Z</time>
      </trkpt>
      <trkpt lat="45.87466" lon="6.45453">
        <ele>1472</ele>
        <time>2004-01-19T18:03:57Z</time>
      </trkpt>
      <trkpt lat="45.87625" lon="6.45689">
        <ele>1556</ele>
        <time>2004-01-19T18:03:57Z</time>
      </trkpt>
      <trkpt lat="45.87455" lon="6.4538">
        <ele>1592</ele>
        <time>2004-01-19T18:03:57Z</time>
      </trkpt>
      <trkpt lat="45.87472" lon="6.45344">
        <ele>1574</ele>
        <time>2004-01-19T18:03:57Z</time>
      </trkpt>
      <trkpt lat="45.8764" lon="6.45621">
        <ele>1458</ele>
        <time>2004-01-19T18:03:57Z</time>
      </trkpt>
      <trkpt lat="45.87659" lon="6.45569">
        <ele>1459</ele>
        <time>2004-01-19T18:03:57Z</time>
      </trkpt>
      <trkpt lat="45.8774" lon="6.4549">
        <ele>1450</ele>
        <time>2004-01-19T18:03:57Z</time>
      </trkpt>
      <trkpt lat="45.87777" lon="6.45415">
        <ele>1441</ele>
        <time>2004-01-19T18:03:57Z</time>
      </trkpt>
      <trkpt lat="45.87828" lon="6.45372">
        <ele>1432</ele>
        <time>2004-01-19T18:03:57Z</time>
      </trkpt>
      <trkpt lat="45.87858" lon="6.4532">
        <ele>1429</ele>
        <time>2004-01-19T18:03:57Z</time>
      </trkpt>
      <trkpt lat="45.87929" lon="6.45249">
        <ele>1416</ele>
        <time>2004-01-19T18:03:57Z</time>
      </trkpt>
      <trkpt lat="45.87961" lon="6.45194">
        <ele>1414</ele>
        <time>2004-01-19T18:03:57Z</time>
      </trkpt>
      <trkpt lat="45.87959" lon="6.44968">
        <ele>1379</ele>
        <time>2004-01-19T18:03:57Z</time>
      </trkpt>
      <trkpt lat="45.87951" lon="6.44893">
        <ele>1372</ele>
        <time>2004-01-19T18:03:57Z</time>
      </trkpt>
      <trkpt lat="45.87955" lon="6.44953">
        <ele>1331</ele>
        <time>2004-01-19T18:03:57Z</time>
      </trkpt>
      <trkpt lat="45.87942" lon="6.44966">
        <ele>1347</ele>
        <time>2004-01-19T18:03:57Z</time>
      </trkpt>
    </trkseg>
  </trk>
  <trk>
    <name><![CDATA[Frete2]]></name>
    <trkseg>
      <trkpt lat="45.8797" lon="6.45131">
        <ele>1421</ele>
        <time>2003-02-06T13:08:28Z</time>
      </trkpt>
      <trkpt lat="45.87981" lon="6.45149">
        <ele>1426</ele>
        <time>2003-02-06T13:08:28Z</time>
      </trkpt>
      <trkpt lat="45.87957" lon="6.45217">
        <ele>1428</ele>
        <time>2003-02-06T13:08:28Z</time>
      </trkpt>
      <trkpt lat="45.87919" lon="6.45267">
        <ele>1429</ele>
        <time>2003-02-06T13:08:28Z</time>
      </trkpt>
      <trkpt lat="45.87869" lon="6.45376">
        <ele>1433</ele>
        <time>2003-02-06T13:08:28Z</time>
      </trkpt>
      <trkpt lat="45.8785" lon="6.45479">
        <ele>1440</ele>
        <time>2003-02-06T13:08:28Z</time>
      </trkpt>
      <trkpt lat="45.87777" lon="6.4555">
        <ele>1449</ele>
        <time>2003-02-06T13:08:28Z</time>
      </trkpt>
      <trkpt lat="45.87637" lon="6.45616">
        <ele>1465</ele>
        <time>2003-02-06T13:08:28Z</time>
      </trkpt>
      <trkpt lat="45.87631" lon="6.45591">
        <ele>1466</ele>
        <time>2003-02-06T13:08:28Z</time>
      </trkpt>
      <trkpt lat="45.87601" lon="6.45582">
        <ele>1470</ele>
        <time>2003-02-06T13:08:28Z</time>
      </trkpt>
      <trkpt lat="45.87524" lon="6.45739">
        <ele>1486</ele>
        <time>2003-02-06T13:08:28Z</time>
      </trkpt>
      <trkpt lat="45.87492" lon="6.45773">
        <ele>1488</ele>
        <time>2003-02-06T13:08:28Z</time>
      </trkpt>
      <trkpt lat="45.87446" lon="6.45854">
        <ele>1493</ele>
        <time>2003-02-06T13:08:28Z</time>
      </trkpt>
      <trkpt lat="45.87401" lon="6.46003">
        <ele>1494</ele>
        <time>2003-02-06T13:08:28Z</time>
      </trkpt>
      <trkpt lat="45.87369" lon="6.46039">
        <ele>1493</ele>
        <time>2003-02-06T13:08:28Z</time>
      </trkpt>
      <trkpt lat="45.87404" lon="6.46013">
        <ele>1493</ele>
        <time>2003-02-06T13:08:28Z</time>
      </trkpt>
      <trkpt lat="45.87404" lon="6.45998">
        <ele>1485</ele>
        <time>2003-02-06T13:08:28Z</time>
      </trkpt>
      <trkpt lat="45.87303" lon="6.46056">
        <ele>1492</ele>
        <time>2003-02-06T13:08:28Z</time>
      </trkpt>
      <trkpt lat="45.87273" lon="6.46112">
        <ele>1493</ele>
        <time>2003-02-06T13:08:28Z</time>
      </trkpt>
      <trkpt lat="45.87232" lon="6.46151">
        <ele>1494</ele>
        <time>2003-02-06T13:08:28Z</time>
      </trkpt>
      <trkpt lat="45.8709" lon="6.46157">
        <ele>1499</ele>
        <time>2003-02-06T13:08:28Z</time>
      </trkpt>
      <trkpt lat="45.87082" lon="6.46191">
        <ele>1507</ele>
        <time>2003-02-06T13:08:28Z</time>
      </trkpt>
      <trkpt lat="45.87037" lon="6.46166">
        <ele>1527</ele>
        <time>2003-02-06T13:08:28Z</time>
      </trkpt>
      <trkpt lat="45.87017" lon="6.46187">
        <ele>1529</ele>
        <time>2003-02-06T13:08:28Z</time>
      </trkpt>
      <trkpt lat="45.86972" lon="6.46187">
        <ele>1531</ele>
        <time>2003-02-06T13:08:28Z</time>
      </trkpt>
      <trkpt lat="45.86867" lon="6.46234">
        <ele>1549</ele>
        <time>2003-02-06T13:08:28Z</time>
      </trkpt>
      <trkpt lat="45.86713" lon="6.46335">
        <ele>1567</ele>
        <time>2003-02-06T13:08:28Z</time>
      </trkpt>
      <trkpt lat="45.86459" lon="6.46369">
        <ele>1596</ele>
        <time>2003-02-06T13:08:28Z</time>
      </trkpt>
      <trkpt lat="45.86337" lon="6.46324">
        <ele>1615</ele>
        <time>2003-02-06T13:08:28Z</time>
      </trkpt>
      <trkpt lat="45.86238" lon="6.4632">
        <ele>1621</ele>
        <time>2003-02-06T13:08:28Z</time>
      </trkpt>
      <trkpt lat="45.86247" lon="6.46337">
        <ele>1627</ele>
        <time>2003-02-06T13:08:28Z</time>
      </trkpt>
      <trkpt lat="45.86247" lon="6.46312">
        <ele>1651</ele>
        <time>2003-02-06T13:08:28Z</time>
      </trkpt>
      <trkpt lat="45.86219" lon="6.46294">
        <ele>1658</ele>
        <time>2003-02-06T13:08:28Z</time>
      </trkpt>
      <trkpt lat="45.86084" lon="6.46273">
        <ele>1671</ele>
        <time>2003-02-06T13:08:28Z</time>
      </trkpt>
      <trkpt lat="45.85987" lon="6.46213">
        <ele>1690</ele>
        <time>2003-02-06T13:08:28Z</time>
      </trkpt>
      <trkpt lat="45.85932" lon="6.46221">
        <ele>1711</ele>
        <time>2003-02-06T13:08:28Z</time>
      </trkpt>
      <trkpt lat="45.85923" lon="6.46239">
        <ele>1716</ele>
        <time>2003-02-06T13:08:28Z</time>
      </trkpt>
      <trkpt lat="45.85912" lon="6.46221">
        <ele>1715</ele>
        <time>2003-02-06T13:08:28Z</time>
      </trkpt>
      <trkpt lat="45.85878" lon="6.46262">
        <ele>1729</ele>
        <time>2003-02-06T13:08:28Z</time>
      </trkpt>
      <trkpt lat="45.85865" lon="6.46228">
        <ele>1731</ele>
        <time>2003-02-06T13:08:28Z</time>
      </trkpt>
      <trkpt lat="45.8585" lon="6.46234">
        <ele>1740</ele>
        <time>2003-02-06T13:08:28Z</time>
      </trkpt>
      <trkpt lat="45.85844" lon="6.46209">
        <ele>1746</ele>
        <time>2003-02-06T13:08:28Z</time>
      </trkpt>
      <trkpt lat="45.85846" lon="6.46221">
        <ele>1761</ele>
        <time>2003-02-06T13:08:28Z</time>
      </trkpt>
      <trkpt lat="45.85833" lon="6.46211">
        <ele>1762</ele>
        <time>2003-02-06T13:08:28Z</time>
      </trkpt>
      <trkpt lat="45.85779" lon="6.46251">
        <ele>1746</ele>
        <time>2003-02-06T13:08:28Z</time>
      </trkpt>
      <trkpt lat="45.85779" lon="6.46284">
        <ele>1737</ele>
        <time>2003-02-06T13:08:28Z</time>
      </trkpt>
      <trkpt lat="45.85734" lon="6.46288">
        <ele>1725</ele>
        <time>2003-02-06T13:08:28Z</time>
      </trkpt>
      <trkpt lat="45.85597" lon="6.46389">
        <ele>1698</ele>
        <time>2003-02-06T13:08:28Z</time>
      </trkpt>
      <trkpt lat="45.85378" lon="6.46468">
        <ele>1671</ele>
        <time>2003-02-06T13:08:28Z</time>
      </trkpt>
      <trkpt lat="45.85294" lon="6.46629">
        <ele>1666</ele>
        <time>2003-02-06T13:08:28Z</time>
      </trkpt>
      <trkpt lat="45.85245" lon="6.46822">
        <ele>1654</ele>
        <time>2003-02-06T13:08:28Z</time>
      </trkpt>
      <trkpt lat="45.85138" lon="6.46914">
        <ele>1659</ele>
        <time>2003-02-06T13:08:28Z</time>
      </trkpt>
      <trkpt lat="45.85032" lon="6.47196">
        <ele>1662</ele>
        <time>2003-02-06T13:08:28Z</time>
      </trkpt>
      <trkpt lat="45.84985" lon="6.47281">
        <ele>1665</ele>
        <time>2003-02-06T13:08:28Z</time>
      </trkpt>
      <trkpt lat="45.84998" lon="6.47286">
        <ele>1648</ele>
        <time>2003-02-06T13:08:28Z</time>
      </trkpt>
      <trkpt lat="45.85" lon="6.47271">
        <ele>1656</ele>
        <time>2003-02-06T13:08:28Z</time>
      </trkpt>
      <trkpt lat="45.85015" lon="6.4729">
        <ele>1658</ele>
        <time>2003-02-06T13:08:28Z</time>
      </trkpt>
      <trkpt lat="45.85041" lon="6.4738">
        <ele>1650</ele>
        <time>2003-02-06T13:08:28Z</time>
      </trkpt>
      <trkpt lat="45.8505" lon="6.47629">
        <ele>1641</ele>
        <time>2003-02-06T13:08:28Z</time>
      </trkpt>
      <trkpt lat="45.85035" lon="6.47644">
        <ele>1643</ele>
        <time>2003-02-06T13:08:28Z</time>
      </trkpt>
      <trkpt lat="45.85028" lon="6.47743">
        <ele>1644</ele>
        <time>2003-02-06T13:08:28Z</time>
      </trkpt>
      <trkpt lat="45.85007" lon="6.47822">
        <ele>1645</ele>
        <time>2003-02-06T13:08:28Z</time>
      </trkpt>
      <trkpt lat="45.84962" lon="6.47871">
        <ele>1647</ele>
        <time>2003-02-06T13:08:28Z</time>
      </trkpt>
      <trkpt lat="45.85011" lon="6.47829">
        <ele>1645</ele>
        <time>2003-02-06T13:08:28Z</time>
      </trkpt>
      <trkpt lat="45.85039" lon="6.47646">
        <ele>1639</ele>
        <time>2003-02-06T13:08:28Z</time>
      </trkpt>
      <trkpt lat="45.85058" lon="6.47612">
        <ele>1637</ele>
        <time>2003-02-06T13:08:28Z</time>
      </trkpt>
      <trkpt lat="45.85045" lon="6.4744">
        <ele>1642</ele>
        <time>2003-02-06T13:08:28Z</time>
      </trkpt>
      <trkpt lat="45.85065" lon="6.47305">
        <ele>1642</ele>
        <time>2003-02-06T13:08:28Z</time>
      </trkpt>
      <trkpt lat="45.85129" lon="6.47185">
        <ele>1643</ele>
        <time>2003-02-06T13:08:28Z</time>
      </trkpt>
      <trkpt lat="45.85196" lon="6.47">
        <ele>1644</ele>
        <time>2003-02-06T13:08:28Z</time>
      </trkpt>
      <trkpt lat="45.85262" lon="6.46957">
        <ele>1643</ele>
        <time>2003-02-06T13:08:28Z</time>
      </trkpt>
      <trkpt lat="45.85247" lon="6.4688">
        <ele>1644</ele>
        <time>2003-02-06T13:08:28Z</time>
      </trkpt>
      <trkpt lat="45.85253" lon="6.46846">
        <ele>1641</ele>
        <time>2003-02-06T13:08:28Z</time>
      </trkpt>
      <trkpt lat="45.85378" lon="6.46614">
        <ele>1632</ele>
        <time>2003-02-06T13:08:28Z</time>
      </trkpt>
      <trkpt lat="45.85455" lon="6.46616">
        <ele>1626</ele>
        <time>2003-02-06T13:08:28Z</time>
      </trkpt>
      <trkpt lat="45.85631" lon="6.46715">
        <ele>1601</ele>
        <time>2003-02-06T13:08:28Z</time>
      </trkpt>
      <trkpt lat="45.85663" lon="6.46741">
        <ele>1601</ele>
        <time>2003-02-06T13:08:28Z</time>
      </trkpt>
      <trkpt lat="45.85678" lon="6.46822">
        <ele>1595</ele>
        <time>2003-02-06T13:08:28Z</time>
      </trkpt>
      <trkpt lat="45.85713" lon="6.46884">
        <ele>1571</ele>
        <time>2003-02-06T13:08:28Z</time>
      </trkpt>
      <trkpt lat="45.85751" lon="6.46872">
        <ele>1571</ele>
        <time>2003-02-06T13:08:28Z</time>
      </trkpt>
      <trkpt lat="45.85803" lon="6.4694">
        <ele>1571</ele>
        <time>2003-02-06T13:08:28Z</time>
      </trkpt>
      <trkpt lat="45.85854" lon="6.46981">
        <ele>1572</ele>
        <time>2003-02-06T13:08:28Z</time>
      </trkpt>
      <trkpt lat="45.8591" lon="6.46968">
        <ele>1570</ele>
        <time>2003-02-06T13:08:28Z</time>
      </trkpt>
      <trkpt lat="45.85962" lon="6.46983">
        <ele>1569</ele>
        <time>2003-02-06T13:08:28Z</time>
      </trkpt>
      <trkpt lat="45.8602" lon="6.4708">
        <ele>1570</ele>
        <time>2003-02-06T13:08:28Z</time>
      </trkpt>
      <trkpt lat="45.86045" lon="6.47097">
        <ele>1570</ele>
        <time>2003-02-06T13:08:28Z</time>
      </trkpt>
      <trkpt lat="45.86135" lon="6.47123">
        <ele>1569</ele>
        <time>2003-02-06T13:08:28Z</time>
      </trkpt>
      <trkpt lat="45.86195" lon="6.47116">
        <ele>1574</ele>
        <time>2003-02-06T13:08:28Z</time>
      </trkpt>
      <trkpt lat="45.86271" lon="6.47073">
        <ele>1575</ele>
        <time>2003-02-06T13:08:28Z</time>
      </trkpt>
      <trkpt lat="45.86313" lon="6.47075">
        <ele>1578</ele>
        <time>2003-02-06T13:08:28Z</time>
      </trkpt>
      <trkpt lat="45.86479" lon="6.4711">
        <ele>1594</ele>
        <time>2003-02-06T13:08:28Z</time>
      </trkpt>
      <trkpt lat="45.86612" lon="6.47193">
        <ele>1608</ele>
        <time>2003-02-06T13:08:28Z</time>
      </trkpt>
      <trkpt lat="45.8667" lon="6.47176">
        <ele>1617</ele>
        <time>2003-02-06T13:08:28Z</time>
      </trkpt>
      <trkpt lat="45.8664" lon="6.47082">
        <ele>1625</ele>
        <time>2003-02-06T13:08:28Z</time>
      </trkpt>
      <trkpt lat="45.86592" lon="6.4702">
        <ele>1628</ele>
        <time>2003-02-06T13:08:28Z</time>
      </trkpt>
      <trkpt lat="45.86554" lon="6.4702">
        <ele>1632</ele>
        <time>2003-02-06T13:08:28Z</time>
      </trkpt>
      <trkpt lat="45.86489" lon="6.46947">
        <ele>1640</ele>
        <time>2003-02-06T13:08:28Z</time>
      </trkpt>
      <trkpt lat="45.86496" lon="6.46921">
        <ele>1642</ele>
        <time>2003-02-06T13:08:28Z</time>
      </trkpt>
      <trkpt lat="45.86468" lon="6.46837">
        <ele>1640</ele>
        <time>2003-02-06T13:08:28Z</time>
      </trkpt>
      <trkpt lat="45.86449" lon="6.46831">
        <ele>1641</ele>
        <time>2003-02-06T13:08:28Z</time>
      </trkpt>
      <trkpt lat="45.86412" lon="6.46747">
        <ele>1643</ele>
        <time>2003-02-06T13:08:28Z</time>
      </trkpt>
      <trkpt lat="45.86365" lon="6.46689">
        <ele>1645</ele>
        <time>2003-02-06T13:08:28Z</time>
      </trkpt>
      <trkpt lat="45.86288" lon="6.46539">
        <ele>1643</ele>
        <time>2003-02-06T13:08:28Z</time>
      </trkpt>
      <trkpt lat="45.86281" lon="6.46494">
        <ele>1642</ele>
        <time>2003-02-06T13:08:28Z</time>
      </trkpt>
      <trkpt lat="45.86374" lon="6.46389">
        <ele>1636</ele>
        <time>2003-02-06T13:08:28Z</time>
      </trkpt>
      <trkpt lat="45.86384" lon="6.46331">
        <ele>1628</ele>
        <time>2003-02-06T13:08:28Z</time>
      </trkpt>
      <trkpt lat="45.86462" lon="6.46359">
        <ele>1614</ele>
        <time>2003-02-06T13:08:28Z</time>
      </trkpt>
      <trkpt lat="45.86532" lon="6.46344">
        <ele>1606</ele>
        <time>2003-02-06T13:08:28Z</time>
      </trkpt>
      <trkpt lat="45.86689" lon="6.46352">
        <ele>1587</ele>
        <time>2003-02-06T13:08:28Z</time>
      </trkpt>
      <trkpt lat="45.86839" lon="6.46254">
        <ele>1574</ele>
        <time>2003-02-06T13:08:28Z</time>
      </trkpt>
      <trkpt lat="45.87034" lon="6.46172">
        <ele>1547</ele>
        <time>2003-02-06T13:08:28Z</time>
      </trkpt>
      <trkpt lat="45.87092" lon="6.46189">
        <ele>1542</ele>
        <time>2003-02-06T13:08:28Z</time>
      </trkpt>
      <trkpt lat="45.87249" lon="6.46159">
        <ele>1527</ele>
        <time>2003-02-06T13:08:28Z</time>
      </trkpt>
      <trkpt lat="45.87277" lon="6.46131">
        <ele>1528</ele>
        <time>2003-02-06T13:08:28Z</time>
      </trkpt>
      <trkpt lat="45.87326" lon="6.46043">
        <ele>1514</ele>
        <time>2003-02-06T13:08:28Z</time>
      </trkpt>
      <trkpt lat="45.87414" lon="6.45981">
        <ele>1502</ele>
        <time>2003-02-06T13:08:28Z</time>
      </trkpt>
      <trkpt lat="45.87528" lon="6.45771">
        <ele>1486</ele>
        <time>2003-02-06T13:08:28Z</time>
      </trkpt>
      <trkpt lat="45.87655" lon="6.45597">
        <ele>1482</ele>
        <time>2003-02-06T13:08:28Z</time>
      </trkpt>
      <trkpt lat="45.87816" lon="6.45492">
        <ele>1472</ele>
        <time>2003-02-06T13:08:28Z</time>
      </trkpt>
      <trkpt lat="45.87901" lon="6.45342">
        <ele>1464</ele>
        <time>2003-02-06T13:08:28Z</time>
      </trkpt>
      <trkpt lat="45.87953" lon="6.45241">
        <ele>1451</ele>
        <time>2003-02-06T13:08:28Z</time>
      </trkpt>
      <trkpt lat="45.87966" lon="6.45181">
        <ele>1445</ele>
        <time>2003-02-06T13:08:28Z</time>
      </trkpt>
      <trkpt lat="45.87957" lon="6.45187">
        <ele>1434</ele>
        <time>2003-02-06T13:08:28Z</time>
      </trkpt>
      <trkpt lat="45.87942" lon="6.44992">
        <ele>1409</ele>
        <time>2003-02-06T13:08:28Z</time>
      </trkpt>
      <trkpt lat="45.87914" lon="6.4494">
        <ele>1397</ele>
        <time>2003-02-06T13:08:28Z</time>
      </trkpt>
    </trkseg>
  </trk>
  <trk>
    <name><![CDATA[Fretes]]></name>
    <trkseg>
      <trkpt lat="45.97191" lon="6.35105">
        <ele>1392.1</ele>
        <time>2003-02-06T13:08:28Z</time>
      </trkpt>
      <trkpt lat="45.97251" lon="6.35006">
        <ele>1389.6</ele>
        <time>2003-02-06T13:08:28Z</time>
      </trkpt>
      <trkpt lat="45.97236" lon="6.34911">
        <ele>1384.8</ele>
        <time>2003-02-06T13:08:28Z</time>
      </trkpt>
      <trkpt lat="45.9712" lon="6.34764">
        <ele>1390.7</ele>
        <time>2003-02-06T13:08:28Z</time>
      </trkpt>
      <trkpt lat="45.96972" lon="6.34624">
        <ele>1388.7</ele>
        <time>2003-02-06T13:08:28Z</time>
      </trkpt>
      <trkpt lat="45.9684" lon="6.34217">
        <ele>1401.2</ele>
        <time>2003-02-06T13:08:28Z</time>
      </trkpt>
      <trkpt lat="45.96688" lon="6.33931">
        <ele>1412</ele>
        <time>2003-02-06T13:08:28Z</time>
      </trkpt>
      <trkpt lat="45.96517" lon="6.33405">
        <ele>1434.3</ele>
        <time>2003-02-06T13:08:28Z</time>
      </trkpt>
      <trkpt lat="45.96688" lon="6.33221">
        <ele>1449.4</ele>
        <time>2003-02-06T13:08:28Z</time>
      </trkpt>
      <trkpt lat="45.96788" lon="6.32892">
        <ele>1539.8</ele>
        <time>2003-02-06T13:08:28Z</time>
      </trkpt>
      <trkpt lat="45.96824" lon="6.32878">
        <ele>1549.1</ele>
        <time>2003-02-06T13:08:28Z</time>
      </trkpt>
      <trkpt lat="45.96829" lon="6.32814">
        <ele>1547.2</ele>
        <time>2003-02-06T13:08:28Z</time>
      </trkpt>
      <trkpt lat="45.96787" lon="6.32727">
        <ele>1542.2</ele>
        <time>2003-02-06T13:08:28Z</time>
      </trkpt>
      <trkpt lat="45.96811" lon="6.3269">
        <ele>1538.9</ele>
        <time>2003-02-06T13:08:28Z</time>
      </trkpt>
      <trkpt lat="45.96841" lon="6.32718">
        <ele>1542.1</ele>
        <time>2003-02-06T13:08:28Z</time>
      </trkpt>
      <trkpt lat="45.96893" lon="6.32709">
        <ele>1548.5</ele>
        <time>2003-02-06T13:08:28Z</time>
      </trkpt>
      <trkpt lat="45.9693" lon="6.32631">
        <ele>1550.4</ele>
        <time>2003-02-06T13:08:28Z</time>
      </trkpt>
      <trkpt lat="45.97048" lon="6.32607">
        <ele>1565</ele>
        <time>2003-02-06T13:08:28Z</time>
      </trkpt>
      <trkpt lat="45.97119" lon="6.32561">
        <ele>1577.9</ele>
        <time>2003-02-06T13:08:28Z</time>
      </trkpt>
      <trkpt lat="45.97175" lon="6.32587">
        <ele>1582.9</ele>
        <time>2003-02-06T13:08:28Z</time>
      </trkpt>
      <trkpt lat="45.97283" lon="6.32511">
        <ele>1581.7</ele>
        <time>2003-02-06T13:08:28Z</time>
      </trkpt>
      <trkpt lat="45.97348" lon="6.32523">
        <ele>1581.1</ele>
        <time>2003-02-06T13:08:28Z</time>
      </trkpt>
      <trkpt lat="45.97677" lon="6.32069">
        <ele>1526.7</ele>
        <time>2003-02-06T13:08:28Z</time>
      </trkpt>
      <trkpt lat="45.97732" lon="6.3205">
        <ele>1513.8</ele>
        <time>2003-02-06T13:08:28Z</time>
      </trkpt>
      <trkpt lat="45.97812" lon="6.32146">
        <ele>1521.2</ele>
        <time>2003-02-06T13:08:28Z</time>
      </trkpt>
      <trkpt lat="45.97861" lon="6.32108">
        <ele>1492.2</ele>
        <time>2003-02-06T13:08:28Z</time>
      </trkpt>
      <trkpt lat="45.97866" lon="6.32024">
        <ele>1467.7</ele>
        <time>2003-02-06T13:08:28Z</time>
      </trkpt>
      <trkpt lat="45.97798" lon="6.31829">
        <ele>1432</ele>
        <time>2003-02-06T13:08:28Z</time>
      </trkpt>
      <trkpt lat="45.97853" lon="6.31823">
        <ele>1405</ele>
        <time>2003-02-06T13:08:28Z</time>
      </trkpt>
      <trkpt lat="45.98009" lon="6.3187">
        <ele>1357.5</ele>
        <time>2003-02-06T13:08:28Z</time>
      </trkpt>
      <trkpt lat="45.98442" lon="6.32664">
        <ele>1370.4</ele>
        <time>2003-02-06T13:08:28Z</time>
      </trkpt>
      <trkpt lat="45.98691" lon="6.3296">
        <ele>1380.9</ele>
        <time>2003-02-06T13:08:28Z</time>
      </trkpt>
      <trkpt lat="45.98924" lon="6.33426">
        <ele>1405.1</ele>
        <time>2003-02-06T13:08:28Z</time>
      </trkpt>
      <trkpt lat="45.99129" lon="6.33754">
        <ele>1447.7</ele>
        <time>2003-02-06T13:08:28Z</time>
      </trkpt>
      <trkpt lat="45.99219" lon="6.33822">
        <ele>1461.6</ele>
        <time>2003-02-06T13:08:28Z</time>
      </trkpt>
      <trkpt lat="45.99273" lon="6.33952">
        <ele>1477.9</ele>
        <time>2003-02-06T13:08:28Z</time>
      </trkpt>
      <trkpt lat="45.99322" lon="6.34217">
        <ele>1526.7</ele>
        <time>2003-02-06T13:08:28Z</time>
      </trkpt>
      <trkpt lat="45.99477" lon="6.34801">
        <ele>1604</ele>
        <time>2003-02-06T13:08:28Z</time>
      </trkpt>
      <trkpt lat="46.00016" lon="6.35412">
        <ele>1569.4</ele>
        <time>2003-02-06T13:08:28Z</time>
      </trkpt>
      <trkpt lat="46.00328" lon="6.36001">
        <ele>1552.3</ele>
        <time>2003-02-06T13:08:28Z</time>
      </trkpt>
      <trkpt lat="46.00304" lon="6.36154">
        <ele>1549</ele>
        <time>2003-02-06T13:08:28Z</time>
      </trkpt>
      <trkpt lat="46.00434" lon="6.365">
        <ele>1550.5</ele>
        <time>2003-02-06T13:08:28Z</time>
      </trkpt>
      <trkpt lat="46.00385" lon="6.36551">
        <ele>1549.1</ele>
        <time>2003-02-06T13:08:28Z</time>
      </trkpt>
      <trkpt lat="46.00178" lon="6.36096">
        <ele>1564.7</ele>
        <time>2003-02-06T13:08:28Z</time>
      </trkpt>
      <trkpt lat="46.00113" lon="6.36085">
        <ele>1572.7</ele>
        <time>2003-02-06T13:08:28Z</time>
      </trkpt>
      <trkpt lat="46.00045" lon="6.36035">
        <ele>1587</ele>
        <time>2003-02-06T13:08:28Z</time>
      </trkpt>
      <trkpt lat="46.00022" lon="6.36107">
        <ele>1616.7</ele>
        <time>2003-02-06T13:08:28Z</time>
      </trkpt>
      <trkpt lat="45.99937" lon="6.36091">
        <ele>1656.1</ele>
        <time>2003-02-06T13:08:28Z</time>
      </trkpt>
      <trkpt lat="45.99925" lon="6.3611">
        <ele>1666.7</ele>
        <time>2003-02-06T13:08:28Z</time>
      </trkpt>
      <trkpt lat="45.99905" lon="6.36109">
        <ele>1670.3</ele>
        <time>2003-02-06T13:08:28Z</time>
      </trkpt>
      <trkpt lat="45.9991" lon="6.36222">
        <ele>1647.4</ele>
        <time>2003-02-06T13:08:28Z</time>
      </trkpt>
      <trkpt lat="45.99848" lon="6.36382">
        <ele>1612.3</ele>
        <time>2003-02-06T13:08:28Z</time>
      </trkpt>
      <trkpt lat="45.99817" lon="6.3638">
        <ele>1596.7</ele>
        <time>2003-02-06T13:08:28Z</time>
      </trkpt>
      <trkpt lat="45.99596" lon="6.36829">
        <ele>1524.4</ele>
        <time>2003-02-06T13:08:28Z</time>
      </trkpt>
      <trkpt lat="45.99399" lon="6.37109">
        <ele>1462.2</ele>
        <time>2003-02-06T13:08:28Z</time>
      </trkpt>
      <trkpt lat="45.99306" lon="6.37176">
        <ele>1461.3</ele>
        <time>2003-02-06T13:08:28Z</time>
      </trkpt>
      <trkpt lat="45.99207" lon="6.37185">
        <ele>1441.7</ele>
        <time>2003-02-06T13:08:28Z</time>
      </trkpt>
      <trkpt lat="45.99117" lon="6.37375">
        <ele>1419.1</ele>
        <time>2003-02-06T13:08:28Z</time>
      </trkpt>
      <trkpt lat="45.98962" lon="6.37228">
        <ele>1433.2</ele>
        <time>2003-02-06T13:08:28Z</time>
      </trkpt>
      <trkpt lat="45.98728" lon="6.36846">
        <ele>1387.1</ele>
        <time>2003-02-06T13:08:28Z</time>
      </trkpt>
      <trkpt lat="45.98588" lon="6.36529">
        <ele>1366.4</ele>
        <time>2003-02-06T13:08:28Z</time>
      </trkpt>
      <trkpt lat="45.98488" lon="6.36499">
        <ele>1356.5</ele>
        <time>2003-02-06T13:08:28Z</time>
      </trkpt>
      <trkpt lat="45.98409" lon="6.36393">
        <ele>1363.3</ele>
        <time>2003-02-06T13:08:28Z</time>
      </trkpt>
      <trkpt lat="45.98186" lon="6.35879">
        <ele>1374.9</ele>
        <time>2003-02-06T13:08:28Z</time>
      </trkpt>
      <trkpt lat="45.98137" lon="6.35807">
        <ele>1374.2</ele>
        <time>2003-02-06T13:08:28Z</time>
      </trkpt>
      <trkpt lat="45.98017" lon="6.35559">
        <ele>1376.3</ele>
        <time>2003-02-06T13:08:28Z</time>
      </trkpt>
      <trkpt lat="45.97758" lon="6.35133">
        <ele>1387</ele>
        <time>2003-02-06T13:08:28Z</time>
      </trkpt>
      <trkpt lat="45.97548" lon="6.34999">
        <ele>1395.2</ele>
        <time>2003-02-06T13:08:28Z</time>
      </trkpt>
      <trkpt lat="45.97253" lon="6.35009">
        <ele>1390</ele>
        <time>2003-02-06T13:08:28Z</time>
      </trkpt>
      <trkpt lat="45.97193" lon="6.35102">
        <ele>1393.2</ele>
        <time>2003-02-06T13:08:28Z</time>
      </trkpt>
    </trkseg>
  </trk>
  <trk>
    <name><![CDATA[La Frete]]></name>
    <trkseg>
      <trkpt lat="45.8797" lon="6.45131">
        <ele>1421</ele>
        <time>2003-02-06T13:08:28Z</time>
      </trkpt>
      <trkpt lat="45.87981" lon="6.45149">
        <ele>1426</ele>
        <time>2003-02-06T13:08:28Z</time>
      </trkpt>
      <trkpt lat="45.87957" lon="6.45217">
        <ele>1428</ele>
        <time>2003-02-06T13:08:28Z</time>
      </trkpt>
      <trkpt lat="45.87919" lon="6.45267">
        <ele>1429</ele>
        <time>2003-02-06T13:08:28Z</time>
      </trkpt>
      <trkpt lat="45.87869" lon="6.45376">
        <ele>1433</ele>
        <time>2003-02-06T13:08:28Z</time>
      </trkpt>
      <trkpt lat="45.8785" lon="6.45479">
        <ele>1440</ele>
        <time>2003-02-06T13:08:28Z</time>
      </trkpt>
      <trkpt lat="45.87777" lon="6.4555">
        <ele>1449</ele>
        <time>2003-02-06T13:08:28Z</time>
      </trkpt>
      <trkpt lat="45.87637" lon="6.45616">
        <ele>1465</ele>
        <time>2003-02-06T13:08:28Z</time>
      </trkpt>
      <trkpt lat="45.87631" lon="6.45591">
        <ele>1466</ele>
        <time>2003-02-06T13:08:28Z</time>
      </trkpt>
      <trkpt lat="45.87601" lon="6.45582">
        <ele>1470</ele>
        <time>2003-02-06T13:08:28Z</time>
      </trkpt>
      <trkpt lat="45.87524" lon="6.45739">
        <ele>1486</ele>
        <time>2003-02-06T13:08:28Z</time>
      </trkpt>
      <trkpt lat="45.87492" lon="6.45773">
        <ele>1488</ele>
        <time>2003-02-06T13:08:28Z</time>
      </trkpt>
      <trkpt lat="45.87446" lon="6.45854">
        <ele>1493</ele>
        <time>2003-02-06T13:08:28Z</time>
      </trkpt>
      <trkpt lat="45.87401" lon="6.46003">
        <ele>1494</ele>
        <time>2003-02-06T13:08:28Z</time>
      </trkpt>
      <trkpt lat="45.87369" lon="6.46039">
        <ele>1493</ele>
        <time>2003-02-06T13:08:28Z</time>
      </trkpt>
      <trkpt lat="45.87404" lon="6.46013">
        <ele>1493</ele>
        <time>2003-02-06T13:08:28Z</time>
      </trkpt>
      <trkpt lat="45.87404" lon="6.45998">
        <ele>1485</ele>
        <time>2003-02-06T13:08:28Z</time>
      </trkpt>
      <trkpt lat="45.87303" lon="6.46056">
        <ele>1492</ele>
        <time>2003-02-06T13:08:28Z</time>
      </trkpt>
      <trkpt lat="45.87273" lon="6.46112">
        <ele>1493</ele>
        <time>2003-02-06T13:08:28Z</time>
      </trkpt>
      <trkpt lat="45.87232" lon="6.46151">
        <ele>1494</ele>
        <time>2003-02-06T13:08:28Z</time>
      </trkpt>
      <trkpt lat="45.8709" lon="6.46157">
        <ele>1499</ele>
        <time>2003-02-06T13:08:28Z</time>
      </trkpt>
      <trkpt lat="45.87082" lon="6.46191">
        <ele>1507</ele>
        <time>2003-02-06T13:08:28Z</time>
      </trkpt>
      <trkpt lat="45.87037" lon="6.46166">
        <ele>1527</ele>
        <time>2003-02-06T13:08:28Z</time>
      </trkpt>
      <trkpt lat="45.87017" lon="6.46187">
        <ele>1529</ele>
        <time>2003-02-06T13:08:28Z</time>
      </trkpt>
      <trkpt lat="45.86972" lon="6.46187">
        <ele>1531</ele>
        <time>2003-02-06T13:08:28Z</time>
      </trkpt>
      <trkpt lat="45.86867" lon="6.46234">
        <ele>1549</ele>
        <time>2003-02-06T13:08:28Z</time>
      </trkpt>
      <trkpt lat="45.86713" lon="6.46335">
        <ele>1567</ele>
        <time>2003-02-06T13:08:28Z</time>
      </trkpt>
      <trkpt lat="45.86459" lon="6.46369">
        <ele>1596</ele>
        <time>2003-02-06T13:08:28Z</time>
      </trkpt>
      <trkpt lat="45.86337" lon="6.46324">
        <ele>1615</ele>
        <time>2003-02-06T13:08:28Z</time>
      </trkpt>
      <trkpt lat="45.86238" lon="6.4632">
        <ele>1621</ele>
        <time>2003-02-06T13:08:28Z</time>
      </trkpt>
      <trkpt lat="45.86247" lon="6.46337">
        <ele>1627</ele>
        <time>2003-02-06T13:08:28Z</time>
      </trkpt>
      <trkpt lat="45.86247" lon="6.46312">
        <ele>1651</ele>
        <time>2003-02-06T13:08:28Z</time>
      </trkpt>
      <trkpt lat="45.86219" lon="6.46294">
        <ele>1658</ele>
        <time>2003-02-06T13:08:28Z</time>
      </trkpt>
      <trkpt lat="45.86084" lon="6.46273">
        <ele>1671</ele>
        <time>2003-02-06T13:08:28Z</time>
      </trkpt>
      <trkpt lat="45.85987" lon="6.46213">
        <ele>1690</ele>
        <time>2003-02-06T13:08:28Z</time>
      </trkpt>
      <trkpt lat="45.85932" lon="6.46221">
        <ele>1711</ele>
        <time>2003-02-06T13:08:28Z</time>
      </trkpt>
      <trkpt lat="45.85923" lon="6.46239">
        <ele>1716</ele>
        <time>2003-02-06T13:08:28Z</time>
      </trkpt>
      <trkpt lat="45.85912" lon="6.46221">
        <ele>1715</ele>
        <time>2003-02-06T13:08:28Z</time>
      </trkpt>
      <trkpt lat="45.85878" lon="6.46262">
        <ele>1729</ele>
        <time>2003-02-06T13:08:28Z</time>
      </trkpt>
      <trkpt lat="45.85865" lon="6.46228">
        <ele>1731</ele>
        <time>2003-02-06T13:08:28Z</time>
      </trkpt>
      <trkpt lat="45.8585" lon="6.46234">
        <ele>1740</ele>
        <time>2003-02-06T13:08:28Z</time>
      </trkpt>
      <trkpt lat="45.85844" lon="6.46209">
        <ele>1746</ele>
        <time>2003-02-06T13:08:28Z</time>
      </trkpt>
      <trkpt lat="45.85846" lon="6.46221">
        <ele>1761</ele>
        <time>2003-02-06T13:08:28Z</time>
      </trkpt>
      <trkpt lat="45.85833" lon="6.46211">
        <ele>1762</ele>
        <time>2003-02-06T13:08:28Z</time>
      </trkpt>
      <trkpt lat="45.85779" lon="6.46251">
        <ele>1746</ele>
        <time>2003-02-06T13:08:28Z</time>
      </trkpt>
      <trkpt lat="45.85779" lon="6.46284">
        <ele>1737</ele>
        <time>2003-02-06T13:08:28Z</time>
      </trkpt>
      <trkpt lat="45.85734" lon="6.46288">
        <ele>1725</ele>
        <time>2003-02-06T13:08:28Z</time>
      </trkpt>
      <trkpt lat="45.85597" lon="6.46389">
        <ele>1698</ele>
        <time>2003-02-06T13:08:28Z</time>
      </trkpt>
      <trkpt lat="45.85378" lon="6.46468">
        <ele>1671</ele>
        <time>2003-02-06T13:08:28Z</time>
      </trkpt>
      <trkpt lat="45.85294" lon="6.46629">
        <ele>1666</ele>
        <time>2003-02-06T13:08:28Z</time>
      </trkpt>
      <trkpt lat="45.85245" lon="6.46822">
        <ele>1654</ele>
        <time>2003-02-06T13:08:28Z</time>
      </trkpt>
      <trkpt lat="45.85138" lon="6.46914">
        <ele>1659</ele>
        <time>2003-02-06T13:08:28Z</time>
      </trkpt>
      <trkpt lat="45.85032" lon="6.47196">
        <ele>1662</ele>
        <time>2003-02-06T13:08:28Z</time>
      </trkpt>
      <trkpt lat="45.84985" lon="6.47281">
        <ele>1665</ele>
        <time>2003-02-06T13:08:28Z</time>
      </trkpt>
      <trkpt lat="45.84998" lon="6.47286">
        <ele>1648</ele>
        <time>2003-02-06T13:08:28Z</time>
      </trkpt>
      <trkpt lat="45.85" lon="6.47271">
        <ele>1656</ele>
        <time>2003-02-06T13:08:28Z</time>
      </trkpt>
      <trkpt lat="45.85015" lon="6.4729">
        <ele>1658</ele>
        <time>2003-02-06T13:08:28Z</time>
      </trkpt>
      <trkpt lat="45.85041" lon="6.4738">
        <ele>1650</ele>
        <time>2003-02-06T13:08:28Z</time>
      </trkpt>
      <trkpt lat="45.8505" lon="6.47629">
        <ele>1641</ele>
        <time>2003-02-06T13:08:28Z</time>
      </trkpt>
      <trkpt lat="45.85035" lon="6.47644">
        <ele>1643</ele>
        <time>2003-02-06T13:08:28Z</time>
      </trkpt>
      <trkpt lat="45.85028" lon="6.47743">
        <ele>1644</ele>
        <time>2003-02-06T13:08:28Z</time>
      </trkpt>
      <trkpt lat="45.85007" lon="6.47822">
        <ele>1645</ele>
        <time>2003-02-06T13:08:28Z</time>
      </trkpt>
      <trkpt lat="45.84962" lon="6.47871">
        <ele>1647</ele>
        <time>2003-02-06T13:08:28Z</time>
      </trkpt>
      <trkpt lat="45.85011" lon="6.47829">
        <ele>1645</ele>
        <time>2003-02-06T13:08:28Z</time>
      </trkpt>
      <trkpt lat="45.85039" lon="6.47646">
        <ele>1639</ele>
        <time>2003-02-06T13:08:28Z</time>
      </trkpt>
      <trkpt lat="45.85058" lon="6.47612">
        <ele>1637</ele>
        <time>2003-02-06T13:08:28Z</time>
      </trkpt>
      <trkpt lat="45.85045" lon="6.4744">
        <ele>1642</ele>
        <time>2003-02-06T13:08:28Z</time>
      </trkpt>
      <trkpt lat="45.85065" lon="6.47305">
        <ele>1642</ele>
        <time>2003-02-06T13:08:28Z</time>
      </trkpt>
      <trkpt lat="45.85129" lon="6.47185">
        <ele>1643</ele>
        <time>2003-02-06T13:08:28Z</time>
      </trkpt>
      <trkpt lat="45.85196" lon="6.47">
        <ele>1644</ele>
        <time>2003-02-06T13:08:28Z</time>
      </trkpt>
      <trkpt lat="45.85262" lon="6.46957">
        <ele>1643</ele>
        <time>2003-02-06T13:08:28Z</time>
      </trkpt>
      <trkpt lat="45.85247" lon="6.4688">
        <ele>1644</ele>
        <time>2003-02-06T13:08:28Z</time>
      </trkpt>
      <trkpt lat="45.85253" lon="6.46846">
        <ele>1641</ele>
        <time>2003-02-06T13:08:28Z</time>
      </trkpt>
      <trkpt lat="45.85378" lon="6.46614">
        <ele>1632</ele>
        <time>2003-02-06T13:08:28Z</time>
      </trkpt>
      <trkpt lat="45.85455" lon="6.46616">
        <ele>1626</ele>
        <time>2003-02-06T13:08:28Z</time>
      </trkpt>
      <trkpt lat="45.85631" lon="6.46715">
        <ele>1601</ele>
        <time>2003-02-06T13:08:28Z</time>
      </trkpt>
      <trkpt lat="45.85663" lon="6.46741">
        <ele>1601</ele>
        <time>2003-02-06T13:08:28Z</time>
      </trkpt>
      <trkpt lat="45.85678" lon="6.46822">
        <ele>1595</ele>
        <time>2003-02-06T13:08:28Z</time>
      </trkpt>
      <trkpt lat="45.85713" lon="6.46884">
        <ele>1571</ele>
        <time>2003-02-06T13:08:28Z</time>
      </trkpt>
      <trkpt lat="45.85751" lon="6.46872">
        <ele>1571</ele>
        <time>2003-02-06T13:08:28Z</time>
      </trkpt>
      <trkpt lat="45.85803" lon="6.4694">
        <ele>1571</ele>
        <time>2003-02-06T13:08:28Z</time>
      </trkpt>
      <trkpt lat="45.85854" lon="6.46981">
        <ele>1572</ele>
        <time>2003-02-06T13:08:28Z</time>
      </trkpt>
      <trkpt lat="45.8591" lon="6.46968">
        <ele>1570</ele>
        <time>2003-02-06T13:08:28Z</time>
      </trkpt>
      <trkpt lat="45.85962" lon="6.46983">
        <ele>1569</ele>
        <time>2003-02-06T13:08:28Z</time>
      </trkpt>
      <trkpt lat="45.8602" lon="6.4708">
        <ele>1570</ele>
        <time>2003-02-06T13:08:28Z</time>
      </trkpt>
      <trkpt lat="45.86045" lon="6.47097">
        <ele>1570</ele>
        <time>2003-02-06T13:08:28Z</time>
      </trkpt>
      <trkpt lat="45.86135" lon="6.47123">
        <ele>1569</ele>
        <time>2003-02-06T13:08:28Z</time>
      </trkpt>
      <trkpt lat="45.86195" lon="6.47116">
        <ele>1574</ele>
        <time>2003-02-06T13:08:28Z</time>
      </trkpt>
      <trkpt lat="45.86271" lon="6.47073">
        <ele>1575</ele>
        <time>2003-02-06T13:08:28Z</time>
      </trkpt>
      <trkpt lat="45.86313" lon="6.47075">
        <ele>1578</ele>
        <time>2003-02-06T13:08:28Z</time>
      </trkpt>
      <trkpt lat="45.86479" lon="6.4711">
        <ele>1594</ele>
        <time>2003-02-06T13:08:28Z</time>
      </trkpt>
      <trkpt lat="45.86612" lon="6.47193">
        <ele>1608</ele>
        <time>2003-02-06T13:08:28Z</time>
      </trkpt>
      <trkpt lat="45.8667" lon="6.47176">
        <ele>1617</ele>
        <time>2003-02-06T13:08:28Z</time>
      </trkpt>
      <trkpt lat="45.8664" lon="6.47082">
        <ele>1625</ele>
        <time>2003-02-06T13:08:28Z</time>
      </trkpt>
      <trkpt lat="45.86592" lon="6.4702">
        <ele>1628</ele>
        <time>2003-02-06T13:08:28Z</time>
      </trkpt>
      <trkpt lat="45.86554" lon="6.4702">
        <ele>1632</ele>
        <time>2003-02-06T13:08:28Z</time>
      </trkpt>
      <trkpt lat="45.86489" lon="6.46947">
        <ele>1640</ele>
        <time>2003-02-06T13:08:28Z</time>
      </trkpt>
      <trkpt lat="45.86496" lon="6.46921">
        <ele>1642</ele>
        <time>2003-02-06T13:08:28Z</time>
      </trkpt>
      <trkpt lat="45.86468" lon="6.46837">
        <ele>1640</ele>
        <time>2003-02-06T13:08:28Z</time>
      </trkpt>
      <trkpt lat="45.86449" lon="6.46831">
        <ele>1641</ele>
        <time>2003-02-06T13:08:28Z</time>
      </trkpt>
      <trkpt lat="45.86412" lon="6.46747">
        <ele>1643</ele>
        <time>2003-02-06T13:08:28Z</time>
      </trkpt>
      <trkpt lat="45.86365" lon="6.46689">
        <ele>1645</ele>
        <time>2003-02-06T13:08:28Z</time>
      </trkpt>
      <trkpt lat="45.86288" lon="6.46539">
        <ele>1643</ele>
        <time>2003-02-06T13:08:28Z</time>
      </trkpt>
      <trkpt lat="45.86281" lon="6.46494">
        <ele>1642</ele>
        <time>2003-02-06T13:08:28Z</time>
      </trkpt>
      <trkpt lat="45.86374" lon="6.46389">
        <ele>1636</ele>
        <time>2003-02-06T13:08:28Z</time>
      </trkpt>
      <trkpt lat="45.86384" lon="6.46331">
        <ele>1628</ele>
        <time>2003-02-06T13:08:28Z</time>
      </trkpt>
      <trkpt lat="45.86462" lon="6.46359">
        <ele>1614</ele>
        <time>2003-02-06T13:08:28Z</time>
      </trkpt>
      <trkpt lat="45.86532" lon="6.46344">
        <ele>1606</ele>
        <time>2003-02-06T13:08:28Z</time>
      </trkpt>
      <trkpt lat="45.86689" lon="6.46352">
        <ele>1587</ele>
        <time>2003-02-06T13:08:28Z</time>
      </trkpt>
      <trkpt lat="45.86839" lon="6.46254">
        <ele>1574</ele>
        <time>2003-02-06T13:08:28Z</time>
      </trkpt>
      <trkpt lat="45.87034" lon="6.46172">
        <ele>1547</ele>
        <time>2003-02-06T13:08:28Z</time>
      </trkpt>
      <trkpt lat="45.87092" lon="6.46189">
        <ele>1542</ele>
        <time>2003-02-06T13:08:28Z</time>
      </trkpt>
      <trkpt lat="45.87249" lon="6.46159">
        <ele>1527</ele>
        <time>2003-02-06T13:08:28Z</time>
      </trkpt>
      <trkpt lat="45.87277" lon="6.46131">
        <ele>1528</ele>
        <time>2003-02-06T13:08:28Z</time>
      </trkpt>
      <trkpt lat="45.87326" lon="6.46043">
        <ele>1514</ele>
        <time>2003-02-06T13:08:28Z</time>
      </trkpt>
      <trkpt lat="45.87414" lon="6.45981">
        <ele>1502</ele>
        <time>2003-02-06T13:08:28Z</time>
      </trkpt>
      <trkpt lat="45.87528" lon="6.45771">
        <ele>1486</ele>
        <time>2003-02-06T13:08:28Z</time>
      </trkpt>
      <trkpt lat="45.87655" lon="6.45597">
        <ele>1482</ele>
        <time>2003-02-06T13:08:28Z</time>
      </trkpt>
      <trkpt lat="45.87816" lon="6.45492">
        <ele>1472</ele>
        <time>2003-02-06T13:08:28Z</time>
      </trkpt>
      <trkpt lat="45.87901" lon="6.45342">
        <ele>1464</ele>
        <time>2003-02-06T13:08:28Z</time>
      </trkpt>
      <trkpt lat="45.87953" lon="6.45241">
        <ele>1451</ele>
        <time>2003-02-06T13:08:28Z</time>
      </trkpt>
      <trkpt lat="45.87966" lon="6.45181">
        <ele>1445</ele>
        <time>2003-02-06T13:08:28Z</time>
      </trkpt>
      <trkpt lat="45.87957" lon="6.45187">
        <ele>1434</ele>
        <time>2003-02-06T13:08:28Z</time>
      </trkpt>
      <trkpt lat="45.87942" lon="6.44992">
        <ele>1409</ele>
        <time>2003-02-06T13:08:28Z</time>
      </trkpt>
      <trkpt lat="45.87914" lon="6.4494">
        <ele>1397</ele>
        <time>2003-02-06T13:08:28Z</time>
      </trkpt>
    </trkseg>
  </trk>
  <trk>
    <name><![CDATA[Montagne de Sulens]]></name>
    <trkseg>
      <trkpt lat="45.84475" lon="6.36525">
        <ele>1138</ele>
        <time>2003-02-06T13:08:28Z</time>
      </trkpt>
      <trkpt lat="45.8446" lon="6.36533">
        <ele>1139</ele>
        <time>2003-02-06T13:08:28Z</time>
      </trkpt>
      <trkpt lat="45.84445" lon="6.36514">
        <ele>1144</ele>
        <time>2003-02-06T13:08:28Z</time>
      </trkpt>
      <trkpt lat="45.8444" lon="6.36458">
        <ele>1152</ele>
        <time>2003-02-06T13:08:28Z</time>
      </trkpt>
      <trkpt lat="45.84269" lon="6.36351">
        <ele>1183</ele>
        <time>2003-02-06T13:08:28Z</time>
      </trkpt>
      <trkpt lat="45.84236" lon="6.36293">
        <ele>1193</ele>
        <time>2003-02-06T13:08:28Z</time>
      </trkpt>
      <trkpt lat="45.84133" lon="6.36214">
        <ele>1216</ele>
        <time>2003-02-06T13:08:28Z</time>
      </trkpt>
      <trkpt lat="45.84086" lon="6.36203">
        <ele>1224</ele>
        <time>2003-02-06T13:08:28Z</time>
      </trkpt>
      <trkpt lat="45.84052" lon="6.36153">
        <ele>1239</ele>
        <time>2003-02-06T13:08:28Z</time>
      </trkpt>
      <trkpt lat="45.84" lon="6.36115">
        <ele>1244</ele>
        <time>2003-02-06T13:08:28Z</time>
      </trkpt>
      <trkpt lat="45.8397" lon="6.3604">
        <ele>1255</ele>
        <time>2003-02-06T13:08:28Z</time>
      </trkpt>
      <trkpt lat="45.83949" lon="6.35864">
        <ele>1304</ele>
        <time>2003-02-06T13:08:28Z</time>
      </trkpt>
      <trkpt lat="45.83902" lon="6.35881">
        <ele>1307</ele>
        <time>2003-02-06T13:08:28Z</time>
      </trkpt>
      <trkpt lat="45.83867" lon="6.35965">
        <ele>1310</ele>
        <time>2003-02-06T13:08:28Z</time>
      </trkpt>
      <trkpt lat="45.83876" lon="6.35932">
        <ele>1310</ele>
        <time>2003-02-06T13:08:28Z</time>
      </trkpt>
      <trkpt lat="45.83736" lon="6.35947">
        <ele>1318</ele>
        <time>2003-02-06T13:08:28Z</time>
      </trkpt>
      <trkpt lat="45.83588" lon="6.35879">
        <ele>1325</ele>
        <time>2003-02-06T13:08:28Z</time>
      </trkpt>
      <trkpt lat="45.83556" lon="6.35832">
        <ele>1321</ele>
        <time>2003-02-06T13:08:28Z</time>
      </trkpt>
      <trkpt lat="45.83569" lon="6.35804">
        <ele>1333</ele>
        <time>2003-02-06T13:08:28Z</time>
      </trkpt>
      <trkpt lat="45.83593" lon="6.35842">
        <ele>1322</ele>
        <time>2003-02-06T13:08:28Z</time>
      </trkpt>
      <trkpt lat="45.83558" lon="6.35847">
        <ele>1330</ele>
        <time>2003-02-06T13:08:28Z</time>
      </trkpt>
      <trkpt lat="45.83505" lon="6.35928">
        <ele>1339</ele>
        <time>2003-02-06T13:08:28Z</time>
      </trkpt>
      <trkpt lat="45.83457" lon="6.3604">
        <ele>1340</ele>
        <time>2003-02-06T13:08:28Z</time>
      </trkpt>
      <trkpt lat="45.83271" lon="6.35896">
        <ele>1434</ele>
        <time>2003-02-06T13:08:28Z</time>
      </trkpt>
      <trkpt lat="45.83236" lon="6.35911">
        <ele>1440</ele>
        <time>2003-02-06T13:08:28Z</time>
      </trkpt>
      <trkpt lat="45.83292" lon="6.3604">
        <ele>1462</ele>
        <time>2003-02-06T13:08:28Z</time>
      </trkpt>
      <trkpt lat="45.83249" lon="6.36012">
        <ele>1466</ele>
        <time>2003-02-06T13:08:28Z</time>
      </trkpt>
      <trkpt lat="45.83224" lon="6.3604">
        <ele>1469</ele>
        <time>2003-02-06T13:08:28Z</time>
      </trkpt>
      <trkpt lat="45.83206" lon="6.36156">
        <ele>1481</ele>
        <time>2003-02-06T13:08:28Z</time>
      </trkpt>
      <trkpt lat="45.83241" lon="6.36151">
        <ele>1483</ele>
        <time>2003-02-06T13:08:28Z</time>
      </trkpt>
      <trkpt lat="45.83312" lon="6.36261">
        <ele>1490</ele>
        <time>2003-02-06T13:08:28Z</time>
      </trkpt>
      <trkpt lat="45.83449" lon="6.36336">
        <ele>1505</ele>
        <time>2003-02-06T13:08:28Z</time>
      </trkpt>
      <trkpt lat="45.83578" lon="6.36443">
        <ele>1531</ele>
        <time>2003-02-06T13:08:28Z</time>
      </trkpt>
      <trkpt lat="45.83569" lon="6.36486">
        <ele>1535</ele>
        <time>2003-02-06T13:08:28Z</time>
      </trkpt>
      <trkpt lat="45.83614" lon="6.36486">
        <ele>1570</ele>
        <time>2003-02-06T13:08:28Z</time>
      </trkpt>
      <trkpt lat="45.83631" lon="6.3651">
        <ele>1571</ele>
        <time>2003-02-06T13:08:28Z</time>
      </trkpt>
      <trkpt lat="45.83625" lon="6.3648">
        <ele>1611</ele>
        <time>2003-02-06T13:08:28Z</time>
      </trkpt>
      <trkpt lat="45.83655" lon="6.3655">
        <ele>1611</ele>
        <time>2003-02-06T13:08:28Z</time>
      </trkpt>
      <trkpt lat="45.83627" lon="6.36574">
        <ele>1615</ele>
        <time>2003-02-06T13:08:28Z</time>
      </trkpt>
      <trkpt lat="45.8347" lon="6.36591">
        <ele>1618</ele>
        <time>2003-02-06T13:08:28Z</time>
      </trkpt>
      <trkpt lat="45.83301" lon="6.366">
        <ele>1639</ele>
        <time>2003-02-06T13:08:28Z</time>
      </trkpt>
      <trkpt lat="45.83163" lon="6.3666">
        <ele>1667</ele>
        <time>2003-02-06T13:08:28Z</time>
      </trkpt>
      <trkpt lat="45.83082" lon="6.36735">
        <ele>1689</ele>
        <time>2003-02-06T13:08:28Z</time>
      </trkpt>
      <trkpt lat="45.83058" lon="6.36722">
        <ele>1687</ele>
        <time>2003-02-06T13:08:28Z</time>
      </trkpt>
      <trkpt lat="45.83093" lon="6.36726">
        <ele>1691</ele>
        <time>2003-02-06T13:08:28Z</time>
      </trkpt>
      <trkpt lat="45.83084" lon="6.36754">
        <ele>1693</ele>
        <time>2003-02-06T13:08:28Z</time>
      </trkpt>
      <trkpt lat="45.82908" lon="6.36997">
        <ele>1751</ele>
        <time>2003-02-06T13:08:28Z</time>
      </trkpt>
      <trkpt lat="45.82942" lon="6.37023">
        <ele>1757</ele>
        <time>2003-02-06T13:08:28Z</time>
      </trkpt>
      <trkpt lat="45.82846" lon="6.3713">
        <ele>1795</ele>
        <time>2003-02-06T13:08:28Z</time>
      </trkpt>
      <trkpt lat="45.82919" lon="6.37186">
        <ele>1837</ele>
        <time>2003-02-06T13:08:28Z</time>
      </trkpt>
      <trkpt lat="45.82925" lon="6.37166">
        <ele>1847</ele>
        <time>2003-02-06T13:08:28Z</time>
      </trkpt>
      <trkpt lat="45.82767" lon="6.37138">
        <ele>1830</ele>
        <time>2003-02-06T13:08:28Z</time>
      </trkpt>
      <trkpt lat="45.82732" lon="6.3711">
        <ele>1821</ele>
        <time>2003-02-06T13:08:28Z</time>
      </trkpt>
      <trkpt lat="45.82402" lon="6.36986">
        <ele>1761</ele>
        <time>2003-02-06T13:08:28Z</time>
      </trkpt>
      <trkpt lat="45.82376" lon="6.36924">
        <ele>1755</ele>
        <time>2003-02-06T13:08:28Z</time>
      </trkpt>
      <trkpt lat="45.82391" lon="6.36849">
        <ele>1740</ele>
        <time>2003-02-06T13:08:28Z</time>
      </trkpt>
      <trkpt lat="45.82434" lon="6.36877">
        <ele>1726</ele>
        <time>2003-02-06T13:08:28Z</time>
      </trkpt>
      <trkpt lat="45.82485" lon="6.36851">
        <ele>1717</ele>
        <time>2003-02-06T13:08:28Z</time>
      </trkpt>
      <trkpt lat="45.82518" lon="6.36808">
        <ele>1705</ele>
        <time>2003-02-06T13:08:28Z</time>
      </trkpt>
      <trkpt lat="45.82541" lon="6.36799">
        <ele>1698</ele>
        <time>2003-02-06T13:08:28Z</time>
      </trkpt>
      <trkpt lat="45.82543" lon="6.36767">
        <ele>1690</ele>
        <time>2003-02-06T13:08:28Z</time>
      </trkpt>
      <trkpt lat="45.82569" lon="6.36726">
        <ele>1681</ele>
        <time>2003-02-06T13:08:28Z</time>
      </trkpt>
      <trkpt lat="45.82721" lon="6.36611">
        <ele>1654</ele>
        <time>2003-02-06T13:08:28Z</time>
      </trkpt>
      <trkpt lat="45.82728" lon="6.36559">
        <ele>1653</ele>
        <time>2003-02-06T13:08:28Z</time>
      </trkpt>
      <trkpt lat="45.82679" lon="6.3652">
        <ele>1652</ele>
        <time>2003-02-06T13:08:28Z</time>
      </trkpt>
      <trkpt lat="45.82784" lon="6.36701">
        <ele>1648</ele>
        <time>2003-02-06T13:08:28Z</time>
      </trkpt>
      <trkpt lat="45.82893" lon="6.36767">
        <ele>1653</ele>
        <time>2003-02-06T13:08:28Z</time>
      </trkpt>
      <trkpt lat="45.82927" lon="6.36767">
        <ele>1654</ele>
        <time>2003-02-06T13:08:28Z</time>
      </trkpt>
      <trkpt lat="45.83026" lon="6.36707">
        <ele>1660</ele>
        <time>2003-02-06T13:08:28Z</time>
      </trkpt>
      <trkpt lat="45.8305" lon="6.36707">
        <ele>1662</ele>
        <time>2003-02-06T13:08:28Z</time>
      </trkpt>
      <trkpt lat="45.8308" lon="6.3675">
        <ele>1671</ele>
        <time>2003-02-06T13:08:28Z</time>
      </trkpt>
      <trkpt lat="45.83084" lon="6.36737">
        <ele>1681</ele>
        <time>2003-02-06T13:08:28Z</time>
      </trkpt>
      <trkpt lat="45.83043" lon="6.36722">
        <ele>1682</ele>
        <time>2003-02-06T13:08:28Z</time>
      </trkpt>
      <trkpt lat="45.82921" lon="6.36739">
        <ele>1667</ele>
        <time>2003-02-06T13:08:28Z</time>
      </trkpt>
      <trkpt lat="45.82803" lon="6.36711">
        <ele>1656</ele>
        <time>2003-02-06T13:08:28Z</time>
      </trkpt>
      <trkpt lat="45.82724" lon="6.36604">
        <ele>1651</ele>
        <time>2003-02-06T13:08:28Z</time>
      </trkpt>
      <trkpt lat="45.82702" lon="6.36525">
        <ele>1651</ele>
        <time>2003-02-06T13:08:28Z</time>
      </trkpt>
      <trkpt lat="45.82724" lon="6.3657">
        <ele>1634</ele>
        <time>2003-02-06T13:08:28Z</time>
      </trkpt>
      <trkpt lat="45.82773" lon="6.36589">
        <ele>1625</ele>
        <time>2003-02-06T13:08:28Z</time>
      </trkpt>
      <trkpt lat="45.82816" lon="6.36555">
        <ele>1620</ele>
        <time>2003-02-06T13:08:28Z</time>
      </trkpt>
      <trkpt lat="45.82822" lon="6.36514">
        <ele>1614</ele>
        <time>2003-02-06T13:08:28Z</time>
      </trkpt>
      <trkpt lat="45.82861" lon="6.36445">
        <ele>1602</ele>
        <time>2003-02-06T13:08:28Z</time>
      </trkpt>
      <trkpt lat="45.82919" lon="6.36456">
        <ele>1592</ele>
        <time>2003-02-06T13:08:28Z</time>
      </trkpt>
      <trkpt lat="45.82973" lon="6.36415">
        <ele>1581</ele>
        <time>2003-02-06T13:08:28Z</time>
      </trkpt>
      <trkpt lat="45.83026" lon="6.36293">
        <ele>1534</ele>
        <time>2003-02-06T13:08:28Z</time>
      </trkpt>
      <trkpt lat="45.83166" lon="6.36192">
        <ele>1490</ele>
        <time>2003-02-06T13:08:28Z</time>
      </trkpt>
      <trkpt lat="45.83215" lon="6.36126">
        <ele>1483</ele>
        <time>2003-02-06T13:08:28Z</time>
      </trkpt>
      <trkpt lat="45.83245" lon="6.35935">
        <ele>1452</ele>
        <time>2003-02-06T13:08:28Z</time>
      </trkpt>
      <trkpt lat="45.83299" lon="6.3593">
        <ele>1442</ele>
        <time>2003-02-06T13:08:28Z</time>
      </trkpt>
      <trkpt lat="45.83369" lon="6.36018">
        <ele>1434</ele>
        <time>2003-02-06T13:08:28Z</time>
      </trkpt>
      <trkpt lat="45.8343" lon="6.36025">
        <ele>1425</ele>
        <time>2003-02-06T13:08:28Z</time>
      </trkpt>
      <trkpt lat="45.83541" lon="6.3584">
        <ele>1397</ele>
        <time>2003-02-06T13:08:28Z</time>
      </trkpt>
      <trkpt lat="45.83575" lon="6.35808">
        <ele>1392</ele>
        <time>2003-02-06T13:08:28Z</time>
      </trkpt>
      <trkpt lat="45.83588" lon="6.35812">
        <ele>1391</ele>
        <time>2003-02-06T13:08:28Z</time>
      </trkpt>
      <trkpt lat="45.83668" lon="6.35928">
        <ele>1388</ele>
        <time>2003-02-06T13:08:28Z</time>
      </trkpt>
      <trkpt lat="45.83724" lon="6.35967">
        <ele>1372</ele>
        <time>2003-02-06T13:08:28Z</time>
      </trkpt>
      <trkpt lat="45.83848" lon="6.35956">
        <ele>1351</ele>
        <time>2003-02-06T13:08:28Z</time>
      </trkpt>
      <trkpt lat="45.83884" lon="6.35932">
        <ele>1332</ele>
        <time>2003-02-06T13:08:28Z</time>
      </trkpt>
      <trkpt lat="45.83904" lon="6.35885">
        <ele>1326</ele>
        <time>2003-02-06T13:08:28Z</time>
      </trkpt>
      <trkpt lat="45.83932" lon="6.3592">
        <ele>1319</ele>
        <time>2003-02-06T13:08:28Z</time>
      </trkpt>
      <trkpt lat="45.83955" lon="6.35894">
        <ele>1320</ele>
        <time>2003-02-06T13:08:28Z</time>
      </trkpt>
      <trkpt lat="45.84007" lon="6.36023">
        <ele>1293</ele>
        <time>2003-02-06T13:08:28Z</time>
      </trkpt>
      <trkpt lat="45.84187" lon="6.36222">
        <ele>1254</ele>
        <time>2003-02-06T13:08:28Z</time>
      </trkpt>
      <trkpt lat="45.84213" lon="6.36239">
        <ele>1246</ele>
        <time>2003-02-06T13:08:28Z</time>
      </trkpt>
      <trkpt lat="45.84314" lon="6.36426">
        <ele>1208</ele>
        <time>2003-02-06T13:08:28Z</time>
      </trkpt>
      <trkpt lat="45.84425" lon="6.36482">
        <ele>1171</ele>
        <time>2003-02-06T13:08:28Z</time>
      </trkpt>
      <trkpt lat="45.84479" lon="6.3652">
        <ele>1159</ele>
        <time>2003-02-06T13:08:28Z</time>
      </trkpt>
      <trkpt lat="45.84479" lon="6.36542">
        <ele>1155</ele>
        <time>2003-02-06T13:08:28Z</time>
      </trkpt>
    </trkseg>
  </trk>
  <trk>
    <name><![CDATA[Niard]]></name>
    <trkseg>
      <trkpt lat="45.8793" lon="6.52395">
        <ele>1223.4</ele>
        <time>2003-02-06T13:08:28Z</time>
      </trkpt>
      <trkpt lat="45.88011" lon="6.52401">
        <ele>1231.6</ele>
        <time>2003-02-06T13:08:28Z</time>
      </trkpt>
      <trkpt lat="45.8797" lon="6.52305">
        <ele>1256.7</ele>
        <time>2003-02-06T13:08:28Z</time>
      </trkpt>
      <trkpt lat="45.87931" lon="6.52208">
        <ele>1278.6</ele>
        <time>2003-02-06T13:08:28Z</time>
      </trkpt>
      <trkpt lat="45.87926" lon="6.52098">
        <ele>1304.1</ele>
        <time>2003-02-06T13:08:28Z</time>
      </trkpt>
      <trkpt lat="45.87889" lon="6.52044">
        <ele>1310.5</ele>
        <time>2003-02-06T13:08:28Z</time>
      </trkpt>
      <trkpt lat="45.8788" lon="6.5194">
        <ele>1330.7</ele>
        <time>2003-02-06T13:08:28Z</time>
      </trkpt>
      <trkpt lat="45.87854" lon="6.51902">
        <ele>1332.4</ele>
        <time>2003-02-06T13:08:28Z</time>
      </trkpt>
      <trkpt lat="45.87823" lon="6.51781">
        <ele>1356.2</ele>
        <time>2003-02-06T13:08:28Z</time>
      </trkpt>
      <trkpt lat="45.87816" lon="6.51657">
        <ele>1397</ele>
        <time>2003-02-06T13:08:28Z</time>
      </trkpt>
      <trkpt lat="45.87838" lon="6.51617">
        <ele>1426</ele>
        <time>2003-02-06T13:08:28Z</time>
      </trkpt>
      <trkpt lat="45.87889" lon="6.51631">
        <ele>1443.9</ele>
        <time>2003-02-06T13:08:28Z</time>
      </trkpt>
      <trkpt lat="45.8795" lon="6.51568">
        <ele>1479.2</ele>
        <time>2003-02-06T13:08:28Z</time>
      </trkpt>
      <trkpt lat="45.88011" lon="6.51553">
        <ele>1502.3</ele>
        <time>2003-02-06T13:08:28Z</time>
      </trkpt>
      <trkpt lat="45.88121" lon="6.51681">
        <ele>1504.9</ele>
        <time>2003-02-06T13:08:28Z</time>
      </trkpt>
      <trkpt lat="45.88217" lon="6.51701">
        <ele>1513.3</ele>
        <time>2003-02-06T13:08:28Z</time>
      </trkpt>
      <trkpt lat="45.88311" lon="6.51615">
        <ele>1522.9</ele>
        <time>2003-02-06T13:08:28Z</time>
      </trkpt>
      <trkpt lat="45.88351" lon="6.51611">
        <ele>1524.5</ele>
        <time>2003-02-06T13:08:28Z</time>
      </trkpt>
      <trkpt lat="45.88369" lon="6.51674">
        <ele>1518.1</ele>
        <time>2003-02-06T13:08:28Z</time>
      </trkpt>
      <trkpt lat="45.88441" lon="6.51689">
        <ele>1540.8</ele>
        <time>2003-02-06T13:08:28Z</time>
      </trkpt>
      <trkpt lat="45.88482" lon="6.51676">
        <ele>1553.1</ele>
        <time>2003-02-06T13:08:28Z</time>
      </trkpt>
      <trkpt lat="45.88493" lon="6.51751">
        <ele>1557.4</ele>
        <time>2003-02-06T13:08:28Z</time>
      </trkpt>
      <trkpt lat="45.88565" lon="6.51798">
        <ele>1564.6</ele>
        <time>2003-02-06T13:08:28Z</time>
      </trkpt>
      <trkpt lat="45.88621" lon="6.51874">
        <ele>1568.2</ele>
        <time>2003-02-06T13:08:28Z</time>
      </trkpt>
      <trkpt lat="45.88865" lon="6.51921">
        <ele>1570.8</ele>
        <time>2003-02-06T13:08:28Z</time>
      </trkpt>
      <trkpt lat="45.88951" lon="6.51841">
        <ele>1560.4</ele>
        <time>2003-02-06T13:08:28Z</time>
      </trkpt>
      <trkpt lat="45.88952" lon="6.51821">
        <ele>1560.6</ele>
        <time>2003-02-06T13:08:28Z</time>
      </trkpt>
      <trkpt lat="45.88983" lon="6.51821">
        <ele>1554.2</ele>
        <time>2003-02-06T13:08:28Z</time>
      </trkpt>
      <trkpt lat="45.89091" lon="6.51719">
        <ele>1559.6</ele>
        <time>2003-02-06T13:08:28Z</time>
      </trkpt>
      <trkpt lat="45.89182" lon="6.51684">
        <ele>1553.5</ele>
        <time>2003-02-06T13:08:28Z</time>
      </trkpt>
      <trkpt lat="45.89244" lon="6.51708">
        <ele>1556.3</ele>
        <time>2003-02-06T13:08:28Z</time>
      </trkpt>
      <trkpt lat="45.8929" lon="6.51802">
        <ele>1564.3</ele>
        <time>2003-02-06T13:08:28Z</time>
      </trkpt>
      <trkpt lat="45.89338" lon="6.51857">
        <ele>1566.3</ele>
        <time>2003-02-06T13:08:28Z</time>
      </trkpt>
      <trkpt lat="45.89327" lon="6.51898">
        <ele>1568.4</ele>
        <time>2003-02-06T13:08:28Z</time>
      </trkpt>
      <trkpt lat="45.89406" lon="6.51969">
        <ele>1575.9</ele>
        <time>2003-02-06T13:08:28Z</time>
      </trkpt>
      <trkpt lat="45.8946" lon="6.52138">
        <ele>1578.2</ele>
        <time>2003-02-06T13:08:28Z</time>
      </trkpt>
      <trkpt lat="45.89441" lon="6.52285">
        <ele>1572</ele>
        <time>2003-02-06T13:08:28Z</time>
      </trkpt>
      <trkpt lat="45.89493" lon="6.5235">
        <ele>1566.5</ele>
        <time>2003-02-06T13:08:28Z</time>
      </trkpt>
      <trkpt lat="45.89562" lon="6.52239">
        <ele>1559.6</ele>
        <time>2003-02-06T13:08:28Z</time>
      </trkpt>
      <trkpt lat="45.89679" lon="6.5218">
        <ele>1548.9</ele>
        <time>2003-02-06T13:08:28Z</time>
      </trkpt>
      <trkpt lat="45.89728" lon="6.52213">
        <ele>1541.5</ele>
        <time>2003-02-06T13:08:28Z</time>
      </trkpt>
      <trkpt lat="45.89732" lon="6.52268">
        <ele>1533.8</ele>
        <time>2003-02-06T13:08:28Z</time>
      </trkpt>
      <trkpt lat="45.89812" lon="6.52377">
        <ele>1526.8</ele>
        <time>2003-02-06T13:08:28Z</time>
      </trkpt>
      <trkpt lat="45.89887" lon="6.52425">
        <ele>1520.9</ele>
        <time>2003-02-06T13:08:28Z</time>
      </trkpt>
      <trkpt lat="45.89894" lon="6.52471">
        <ele>1519.2</ele>
        <time>2003-02-06T13:08:28Z</time>
      </trkpt>
      <trkpt lat="45.8994" lon="6.52452">
        <ele>1512.9</ele>
        <time>2003-02-06T13:08:28Z</time>
      </trkpt>
      <trkpt lat="45.9005" lon="6.52518">
        <ele>1506.1</ele>
        <time>2003-02-06T13:08:28Z</time>
      </trkpt>
      <trkpt lat="45.90083" lon="6.52479">
        <ele>1501.3</ele>
        <time>2003-02-06T13:08:28Z</time>
      </trkpt>
      <trkpt lat="45.90214" lon="6.52589">
        <ele>1508.7</ele>
        <time>2003-02-06T13:08:28Z</time>
      </trkpt>
      <trkpt lat="45.90446" lon="6.52642">
        <ele>1524.1</ele>
        <time>2003-02-06T13:08:28Z</time>
      </trkpt>
      <trkpt lat="45.90521" lon="6.52738">
        <ele>1525.6</ele>
        <time>2003-02-06T13:08:28Z</time>
      </trkpt>
      <trkpt lat="45.9059" lon="6.52779">
        <ele>1531</ele>
        <time>2003-02-06T13:08:28Z</time>
      </trkpt>
      <trkpt lat="45.90586" lon="6.52872">
        <ele>1527.6</ele>
        <time>2003-02-06T13:08:28Z</time>
      </trkpt>
      <trkpt lat="45.90683" lon="6.52873">
        <ele>1541.1</ele>
        <time>2003-02-06T13:08:28Z</time>
      </trkpt>
      <trkpt lat="45.9072" lon="6.52918">
        <ele>1538.9</ele>
        <time>2003-02-06T13:08:28Z</time>
      </trkpt>
      <trkpt lat="45.90866" lon="6.52906">
        <ele>1567</ele>
        <time>2003-02-06T13:08:28Z</time>
      </trkpt>
      <trkpt lat="45.90946" lon="6.52942">
        <ele>1571.2</ele>
        <time>2003-02-06T13:08:28Z</time>
      </trkpt>
      <trkpt lat="45.90861" lon="6.53048">
        <ele>1563.7</ele>
        <time>2003-02-06T13:08:28Z</time>
      </trkpt>
      <trkpt lat="45.90789" lon="6.53162">
        <ele>1565.6</ele>
        <time>2003-02-06T13:08:28Z</time>
      </trkpt>
      <trkpt lat="45.90747" lon="6.53339">
        <ele>1581.4</ele>
        <time>2003-02-06T13:08:28Z</time>
      </trkpt>
      <trkpt lat="45.90734" lon="6.53506">
        <ele>1591.1</ele>
        <time>2003-02-06T13:08:28Z</time>
      </trkpt>
      <trkpt lat="45.90773" lon="6.53729">
        <ele>1620.7</ele>
        <time>2003-02-06T13:08:28Z</time>
      </trkpt>
      <trkpt lat="45.90874" lon="6.53849">
        <ele>1660.8</ele>
        <time>2003-02-06T13:08:28Z</time>
      </trkpt>
      <trkpt lat="45.90921" lon="6.53914">
        <ele>1670.1</ele>
        <time>2003-02-06T13:08:28Z</time>
      </trkpt>
      <trkpt lat="45.9089" lon="6.54028">
        <ele>1708.1</ele>
        <time>2003-02-06T13:08:28Z</time>
      </trkpt>
      <trkpt lat="45.90925" lon="6.54102">
        <ele>1737</ele>
        <time>2003-02-06T13:08:28Z</time>
      </trkpt>
      <trkpt lat="45.9098" lon="6.54148">
        <ele>1757.9</ele>
        <time>2003-02-06T13:08:28Z</time>
      </trkpt>
      <trkpt lat="45.9102" lon="6.54283">
        <ele>1786.3</ele>
        <time>2003-02-06T13:08:28Z</time>
      </trkpt>
      <trkpt lat="45.91104" lon="6.54319">
        <ele>1794.4</ele>
        <time>2003-02-06T13:08:28Z</time>
      </trkpt>
      <trkpt lat="45.91206" lon="6.54375">
        <ele>1801</ele>
        <time>2003-02-06T13:08:28Z</time>
      </trkpt>
      <trkpt lat="45.91118" lon="6.5432">
        <ele>1794.8</ele>
        <time>2003-02-06T13:08:28Z</time>
      </trkpt>
      <trkpt lat="45.9102" lon="6.5428">
        <ele>1785.7</ele>
        <time>2003-02-06T13:08:28Z</time>
      </trkpt>
      <trkpt lat="45.90976" lon="6.54189">
        <ele>1767.4</ele>
        <time>2003-02-06T13:08:28Z</time>
      </trkpt>
      <trkpt lat="45.90974" lon="6.54131">
        <ele>1752.6</ele>
        <time>2003-02-06T13:08:28Z</time>
      </trkpt>
      <trkpt lat="45.90917" lon="6.54075">
        <ele>1729.8</ele>
        <time>2003-02-06T13:08:28Z</time>
      </trkpt>
      <trkpt lat="45.90897" lon="6.54006">
        <ele>1698.4</ele>
        <time>2003-02-06T13:08:28Z</time>
      </trkpt>
      <trkpt lat="45.90922" lon="6.53966">
        <ele>1683.6</ele>
        <time>2003-02-06T13:08:28Z</time>
      </trkpt>
      <trkpt lat="45.90916" lon="6.53881">
        <ele>1666.8</ele>
        <time>2003-02-06T13:08:28Z</time>
      </trkpt>
      <trkpt lat="45.9087" lon="6.5383">
        <ele>1660.8</ele>
        <time>2003-02-06T13:08:28Z</time>
      </trkpt>
      <trkpt lat="45.90773" lon="6.53719">
        <ele>1619.7</ele>
        <time>2003-02-06T13:08:28Z</time>
      </trkpt>
      <trkpt lat="45.90596" lon="6.53641">
        <ele>1565.8</ele>
        <time>2003-02-06T13:08:28Z</time>
      </trkpt>
      <trkpt lat="45.90483" lon="6.53516">
        <ele>1528.6</ele>
        <time>2003-02-06T13:08:28Z</time>
      </trkpt>
      <trkpt lat="45.90296" lon="6.53282">
        <ele>1459.6</ele>
        <time>2003-02-06T13:08:28Z</time>
      </trkpt>
      <trkpt lat="45.90161" lon="6.53217">
        <ele>1416.2</ele>
        <time>2003-02-06T13:08:28Z</time>
      </trkpt>
      <trkpt lat="45.90015" lon="6.5308">
        <ele>1399.4</ele>
        <time>2003-02-06T13:08:28Z</time>
      </trkpt>
      <trkpt lat="45.89877" lon="6.52976">
        <ele>1381.4</ele>
        <time>2003-02-06T13:08:28Z</time>
      </trkpt>
      <trkpt lat="45.89765" lon="6.52958">
        <ele>1362.6</ele>
        <time>2003-02-06T13:08:28Z</time>
      </trkpt>
      <trkpt lat="45.89708" lon="6.52937">
        <ele>1353.4</ele>
        <time>2003-02-06T13:08:28Z</time>
      </trkpt>
      <trkpt lat="45.89678" lon="6.52893">
        <ele>1344.8</ele>
        <time>2003-02-06T13:08:28Z</time>
      </trkpt>
      <trkpt lat="45.89583" lon="6.52905">
        <ele>1336.5</ele>
        <time>2003-02-06T13:08:28Z</time>
      </trkpt>
      <trkpt lat="45.89476" lon="6.52871">
        <ele>1328.2</ele>
        <time>2003-02-06T13:08:28Z</time>
      </trkpt>
      <trkpt lat="45.89421" lon="6.5289">
        <ele>1319.6</ele>
        <time>2003-02-06T13:08:28Z</time>
      </trkpt>
      <trkpt lat="45.89346" lon="6.52858">
        <ele>1320.5</ele>
        <time>2003-02-06T13:08:28Z</time>
      </trkpt>
      <trkpt lat="45.89208" lon="6.52928">
        <ele>1300.2</ele>
        <time>2003-02-06T13:08:28Z</time>
      </trkpt>
      <trkpt lat="45.89063" lon="6.52894">
        <ele>1290.1</ele>
        <time>2003-02-06T13:08:28Z</time>
      </trkpt>
      <trkpt lat="45.88949" lon="6.52921">
        <ele>1288.6</ele>
        <time>2003-02-06T13:08:28Z</time>
      </trkpt>
      <trkpt lat="45.88729" lon="6.52795">
        <ele>1267.6</ele>
        <time>2003-02-06T13:08:28Z</time>
      </trkpt>
      <trkpt lat="45.88655" lon="6.52779">
        <ele>1261.1</ele>
        <time>2003-02-06T13:08:28Z</time>
      </trkpt>
      <trkpt lat="45.88592" lon="6.52707">
        <ele>1257.7</ele>
        <time>2003-02-06T13:08:28Z</time>
      </trkpt>
      <trkpt lat="45.8842" lon="6.526">
        <ele>1249</ele>
        <time>2003-02-06T13:08:28Z</time>
      </trkpt>
      <trkpt lat="45.8814" lon="6.5244">
        <ele>1233.3</ele>
        <time>2003-02-06T13:08:28Z</time>
      </trkpt>
      <trkpt lat="45.88074" lon="6.52464">
        <ele>1228</ele>
        <time>2003-02-06T13:08:28Z</time>
      </trkpt>
      <trkpt lat="45.88007" lon="6.52452">
        <ele>1225.5</ele>
        <time>2003-02-06T13:08:28Z</time>
      </trkpt>
      <trkpt lat="45.87946" lon="6.52461">
        <ele>1223.4</ele>
        <time>2003-02-06T13:08:28Z</time>
      </trkpt>
      <trkpt lat="45.87928" lon="6.52395">
        <ele>1223.3</ele>
        <time>2003-02-06T13:08:28Z</time>
      </trkpt>
    </trkseg>
  </trk>
  <trk>
    <name><![CDATA[Orsiere]]></name>
    <trkseg>
      <trkpt lat="45.84816" lon="6.37692">
        <ele>1187</ele>
        <time>2003-02-06T13:08:28Z</time>
      </trkpt>
      <trkpt lat="45.84734" lon="6.37969">
        <ele>1204</ele>
        <time>2003-02-06T13:08:28Z</time>
      </trkpt>
      <trkpt lat="45.84655" lon="6.38048">
        <ele>1205</ele>
        <time>2003-02-06T13:08:28Z</time>
      </trkpt>
      <trkpt lat="45.84627" lon="6.38119">
        <ele>1207</ele>
        <time>2003-02-06T13:08:28Z</time>
      </trkpt>
      <trkpt lat="45.84584" lon="6.38299">
        <ele>1212</ele>
        <time>2003-02-06T13:08:28Z</time>
      </trkpt>
      <trkpt lat="45.84548" lon="6.3834">
        <ele>1213</ele>
        <time>2003-02-06T13:08:28Z</time>
      </trkpt>
      <trkpt lat="45.84481" lon="6.3837">
        <ele>1213</ele>
        <time>2003-02-06T13:08:28Z</time>
      </trkpt>
      <trkpt lat="45.84468" lon="6.38357">
        <ele>1213</ele>
        <time>2003-02-06T13:08:28Z</time>
      </trkpt>
      <trkpt lat="45.84449" lon="6.38518">
        <ele>1221</ele>
        <time>2003-02-06T13:08:28Z</time>
      </trkpt>
      <trkpt lat="45.8438" lon="6.38525">
        <ele>1222</ele>
        <time>2003-02-06T13:08:28Z</time>
      </trkpt>
      <trkpt lat="45.84399" lon="6.38537">
        <ele>1222</ele>
        <time>2003-02-06T13:08:28Z</time>
      </trkpt>
      <trkpt lat="45.84397" lon="6.38557">
        <ele>1240</ele>
        <time>2003-02-06T13:08:28Z</time>
      </trkpt>
      <trkpt lat="45.84335" lon="6.38625">
        <ele>1237</ele>
        <time>2003-02-06T13:08:28Z</time>
      </trkpt>
      <trkpt lat="45.84202" lon="6.38655">
        <ele>1245</ele>
        <time>2003-02-06T13:08:28Z</time>
      </trkpt>
      <trkpt lat="45.8414" lon="6.38707">
        <ele>1247</ele>
        <time>2003-02-06T13:08:28Z</time>
      </trkpt>
      <trkpt lat="45.84108" lon="6.38799">
        <ele>1249</ele>
        <time>2003-02-06T13:08:28Z</time>
      </trkpt>
      <trkpt lat="45.84121" lon="6.38812">
        <ele>1247</ele>
        <time>2003-02-06T13:08:28Z</time>
      </trkpt>
      <trkpt lat="45.84133" lon="6.38806">
        <ele>1247</ele>
        <time>2003-02-06T13:08:28Z</time>
      </trkpt>
      <trkpt lat="45.84121" lon="6.38795">
        <ele>1238</ele>
        <time>2003-02-06T13:08:28Z</time>
      </trkpt>
      <trkpt lat="45.84153" lon="6.38797">
        <ele>1255</ele>
        <time>2003-02-06T13:08:28Z</time>
      </trkpt>
      <trkpt lat="45.84105" lon="6.3884">
        <ele>1253</ele>
        <time>2003-02-06T13:08:28Z</time>
      </trkpt>
      <trkpt lat="45.8408" lon="6.38964">
        <ele>1263</ele>
        <time>2003-02-06T13:08:28Z</time>
      </trkpt>
      <trkpt lat="45.84116" lon="6.39192">
        <ele>1282</ele>
        <time>2003-02-06T13:08:28Z</time>
      </trkpt>
      <trkpt lat="45.83829" lon="6.39318">
        <ele>1321</ele>
        <time>2003-02-06T13:08:28Z</time>
      </trkpt>
      <trkpt lat="45.83781" lon="6.39312">
        <ele>1327</ele>
        <time>2003-02-06T13:08:28Z</time>
      </trkpt>
      <trkpt lat="45.83758" lon="6.39288">
        <ele>1329</ele>
        <time>2003-02-06T13:08:28Z</time>
      </trkpt>
      <trkpt lat="45.83636" lon="6.39306">
        <ele>1343</ele>
        <time>2003-02-06T13:08:28Z</time>
      </trkpt>
      <trkpt lat="45.83483" lon="6.39271">
        <ele>1355</ele>
        <time>2003-02-06T13:08:28Z</time>
      </trkpt>
      <trkpt lat="45.83395" lon="6.39306">
        <ele>1357</ele>
        <time>2003-02-06T13:08:28Z</time>
      </trkpt>
      <trkpt lat="45.83342" lon="6.39306">
        <ele>1359</ele>
        <time>2003-02-06T13:08:28Z</time>
      </trkpt>
      <trkpt lat="45.83297" lon="6.39271">
        <ele>1362</ele>
        <time>2003-02-06T13:08:28Z</time>
      </trkpt>
      <trkpt lat="45.83288" lon="6.3937">
        <ele>1369</ele>
        <time>2003-02-06T13:08:28Z</time>
      </trkpt>
      <trkpt lat="45.83256" lon="6.39434">
        <ele>1376</ele>
        <time>2003-02-06T13:08:28Z</time>
      </trkpt>
      <trkpt lat="45.83213" lon="6.39473">
        <ele>1376</ele>
        <time>2003-02-06T13:08:28Z</time>
      </trkpt>
      <trkpt lat="45.83211" lon="6.3946">
        <ele>1381</ele>
        <time>2003-02-06T13:08:28Z</time>
      </trkpt>
      <trkpt lat="45.83078" lon="6.39505">
        <ele>1393</ele>
        <time>2003-02-06T13:08:28Z</time>
      </trkpt>
      <trkpt lat="45.8302" lon="6.39471">
        <ele>1398</ele>
        <time>2003-02-06T13:08:28Z</time>
      </trkpt>
      <trkpt lat="45.8296" lon="6.39505">
        <ele>1406</ele>
        <time>2003-02-06T13:08:28Z</time>
      </trkpt>
      <trkpt lat="45.82953" lon="6.39537">
        <ele>1410</ele>
        <time>2003-02-06T13:08:28Z</time>
      </trkpt>
      <trkpt lat="45.82917" lon="6.39518">
        <ele>1422</ele>
        <time>2003-02-06T13:08:28Z</time>
      </trkpt>
      <trkpt lat="45.82852" lon="6.39576">
        <ele>1435</ele>
        <time>2003-02-06T13:08:28Z</time>
      </trkpt>
      <trkpt lat="45.82779" lon="6.396">
        <ele>1441</ele>
        <time>2003-02-06T13:08:28Z</time>
      </trkpt>
      <trkpt lat="45.82771" lon="6.39619">
        <ele>1441</ele>
        <time>2003-02-06T13:08:28Z</time>
      </trkpt>
      <trkpt lat="45.82739" lon="6.39576">
        <ele>1443</ele>
        <time>2003-02-06T13:08:28Z</time>
      </trkpt>
      <trkpt lat="45.8267" lon="6.3964">
        <ele>1486</ele>
        <time>2003-02-06T13:08:28Z</time>
      </trkpt>
      <trkpt lat="45.82621" lon="6.39612">
        <ele>1505</ele>
        <time>2003-02-06T13:08:28Z</time>
      </trkpt>
      <trkpt lat="45.82552" lon="6.39709">
        <ele>1529</ele>
        <time>2003-02-06T13:08:28Z</time>
      </trkpt>
      <trkpt lat="45.82522" lon="6.39806">
        <ele>1546</ele>
        <time>2003-02-06T13:08:28Z</time>
      </trkpt>
      <trkpt lat="45.82573" lon="6.39951">
        <ele>1564</ele>
        <time>2003-02-06T13:08:28Z</time>
      </trkpt>
      <trkpt lat="45.82537" lon="6.39973">
        <ele>1576</ele>
        <time>2003-02-06T13:08:28Z</time>
      </trkpt>
      <trkpt lat="45.82539" lon="6.40035">
        <ele>1588</ele>
        <time>2003-02-06T13:08:28Z</time>
      </trkpt>
      <trkpt lat="45.82522" lon="6.40048">
        <ele>1599</ele>
        <time>2003-02-06T13:08:28Z</time>
      </trkpt>
      <trkpt lat="45.82515" lon="6.40078">
        <ele>1609</ele>
        <time>2003-02-06T13:08:28Z</time>
      </trkpt>
      <trkpt lat="45.82507" lon="6.40076">
        <ele>1611</ele>
        <time>2003-02-06T13:08:28Z</time>
      </trkpt>
      <trkpt lat="45.82492" lon="6.40183">
        <ele>1652</ele>
        <time>2003-02-06T13:08:28Z</time>
      </trkpt>
      <trkpt lat="45.8247" lon="6.40181">
        <ele>1660</ele>
        <time>2003-02-06T13:08:28Z</time>
      </trkpt>
      <trkpt lat="45.82458" lon="6.40157">
        <ele>1666</ele>
        <time>2003-02-06T13:08:28Z</time>
      </trkpt>
      <trkpt lat="45.82421" lon="6.40179">
        <ele>1672</ele>
        <time>2003-02-06T13:08:28Z</time>
      </trkpt>
      <trkpt lat="45.82389" lon="6.40258">
        <ele>1679</ele>
        <time>2003-02-06T13:08:28Z</time>
      </trkpt>
      <trkpt lat="45.82406" lon="6.40239">
        <ele>1702</ele>
        <time>2003-02-06T13:08:28Z</time>
      </trkpt>
      <trkpt lat="45.82404" lon="6.40271">
        <ele>1711</ele>
        <time>2003-02-06T13:08:28Z</time>
      </trkpt>
      <trkpt lat="45.82387" lon="6.40273">
        <ele>1715</ele>
        <time>2003-02-06T13:08:28Z</time>
      </trkpt>
      <trkpt lat="45.82372" lon="6.40308">
        <ele>1721</ele>
        <time>2003-02-06T13:08:28Z</time>
      </trkpt>
      <trkpt lat="45.82355" lon="6.40316">
        <ele>1726</ele>
        <time>2003-02-06T13:08:28Z</time>
      </trkpt>
      <trkpt lat="45.82342" lon="6.40374">
        <ele>1742</ele>
        <time>2003-02-06T13:08:28Z</time>
      </trkpt>
      <trkpt lat="45.82307" lon="6.404">
        <ele>1747</ele>
        <time>2003-02-06T13:08:28Z</time>
      </trkpt>
      <trkpt lat="45.82312" lon="6.4043">
        <ele>1748</ele>
        <time>2003-02-06T13:08:28Z</time>
      </trkpt>
      <trkpt lat="45.82282" lon="6.40535">
        <ele>1765</ele>
        <time>2003-02-06T13:08:28Z</time>
      </trkpt>
      <trkpt lat="45.82324" lon="6.40563">
        <ele>1764</ele>
        <time>2003-02-06T13:08:28Z</time>
      </trkpt>
      <trkpt lat="45.82352" lon="6.40595">
        <ele>1755</ele>
        <time>2003-02-06T13:08:28Z</time>
      </trkpt>
      <trkpt lat="45.82357" lon="6.40619">
        <ele>1757</ele>
        <time>2003-02-06T13:08:28Z</time>
      </trkpt>
      <trkpt lat="45.82428" lon="6.40649">
        <ele>1742</ele>
        <time>2003-02-06T13:08:28Z</time>
      </trkpt>
      <trkpt lat="45.82455" lon="6.40705">
        <ele>1737</ele>
        <time>2003-02-06T13:08:28Z</time>
      </trkpt>
      <trkpt lat="45.82479" lon="6.4072">
        <ele>1733</ele>
        <time>2003-02-06T13:08:28Z</time>
      </trkpt>
      <trkpt lat="45.82661" lon="6.40668">
        <ele>1721</ele>
        <time>2003-02-06T13:08:28Z</time>
      </trkpt>
      <trkpt lat="45.82681" lon="6.40657">
        <ele>1720</ele>
        <time>2003-02-06T13:08:28Z</time>
      </trkpt>
      <trkpt lat="45.82691" lon="6.40621">
        <ele>1721</ele>
        <time>2003-02-06T13:08:28Z</time>
      </trkpt>
      <trkpt lat="45.82726" lon="6.40589">
        <ele>1730</ele>
        <time>2003-02-06T13:08:28Z</time>
      </trkpt>
      <trkpt lat="45.82756" lon="6.40615">
        <ele>1737</ele>
        <time>2003-02-06T13:08:28Z</time>
      </trkpt>
      <trkpt lat="45.82773" lon="6.40606">
        <ele>1743</ele>
        <time>2003-02-06T13:08:28Z</time>
      </trkpt>
      <trkpt lat="45.82784" lon="6.4058">
        <ele>1746</ele>
        <time>2003-02-06T13:08:28Z</time>
      </trkpt>
      <trkpt lat="45.82837" lon="6.40574">
        <ele>1757</ele>
        <time>2003-02-06T13:08:28Z</time>
      </trkpt>
      <trkpt lat="45.82915" lon="6.40625">
        <ele>1730</ele>
        <time>2003-02-06T13:08:28Z</time>
      </trkpt>
      <trkpt lat="45.83013" lon="6.40559">
        <ele>1690</ele>
        <time>2003-02-06T13:08:28Z</time>
      </trkpt>
      <trkpt lat="45.83206" lon="6.40494">
        <ele>1630</ele>
        <time>2003-02-06T13:08:28Z</time>
      </trkpt>
      <trkpt lat="45.83275" lon="6.40424">
        <ele>1615</ele>
        <time>2003-02-06T13:08:28Z</time>
      </trkpt>
      <trkpt lat="45.83271" lon="6.40417">
        <ele>1613</ele>
        <time>2003-02-06T13:08:28Z</time>
      </trkpt>
      <trkpt lat="45.83331" lon="6.40404">
        <ele>1592</ele>
        <time>2003-02-06T13:08:28Z</time>
      </trkpt>
      <trkpt lat="45.83488" lon="6.40297">
        <ele>1533</ele>
        <time>2003-02-06T13:08:28Z</time>
      </trkpt>
      <trkpt lat="45.83472" lon="6.40245">
        <ele>1522</ele>
        <time>2003-02-06T13:08:28Z</time>
      </trkpt>
      <trkpt lat="45.83479" lon="6.40209">
        <ele>1509</ele>
        <time>2003-02-06T13:08:28Z</time>
      </trkpt>
      <trkpt lat="45.83466" lon="6.402">
        <ele>1497</ele>
        <time>2003-02-06T13:08:28Z</time>
      </trkpt>
      <trkpt lat="45.83505" lon="6.40168">
        <ele>1482</ele>
        <time>2003-02-06T13:08:28Z</time>
      </trkpt>
      <trkpt lat="45.83481" lon="6.40142">
        <ele>1477</ele>
        <time>2003-02-06T13:08:28Z</time>
      </trkpt>
      <trkpt lat="45.8349" lon="6.40076">
        <ele>1463</ele>
        <time>2003-02-06T13:08:28Z</time>
      </trkpt>
      <trkpt lat="45.834" lon="6.40061">
        <ele>1451</ele>
        <time>2003-02-06T13:08:28Z</time>
      </trkpt>
      <trkpt lat="45.83385" lon="6.40005">
        <ele>1446</ele>
        <time>2003-02-06T13:08:28Z</time>
      </trkpt>
      <trkpt lat="45.83301" lon="6.39945">
        <ele>1438</ele>
        <time>2003-02-06T13:08:28Z</time>
      </trkpt>
      <trkpt lat="45.83241" lon="6.39964">
        <ele>1433</ele>
        <time>2003-02-06T13:08:28Z</time>
      </trkpt>
      <trkpt lat="45.83234" lon="6.39919">
        <ele>1432</ele>
        <time>2003-02-06T13:08:28Z</time>
      </trkpt>
      <trkpt lat="45.83204" lon="6.39874">
        <ele>1432</ele>
        <time>2003-02-06T13:08:28Z</time>
      </trkpt>
      <trkpt lat="45.83121" lon="6.39827">
        <ele>1425</ele>
        <time>2003-02-06T13:08:28Z</time>
      </trkpt>
      <trkpt lat="45.83114" lon="6.39795">
        <ele>1396</ele>
        <time>2003-02-06T13:08:28Z</time>
      </trkpt>
      <trkpt lat="45.83026" lon="6.39666">
        <ele>1396</ele>
        <time>2003-02-06T13:08:28Z</time>
      </trkpt>
      <trkpt lat="45.83024" lon="6.39638">
        <ele>1396</ele>
        <time>2003-02-06T13:08:28Z</time>
      </trkpt>
      <trkpt lat="45.83076" lon="6.39625">
        <ele>1398</ele>
        <time>2003-02-06T13:08:28Z</time>
      </trkpt>
      <trkpt lat="45.83127" lon="6.39557">
        <ele>1400</ele>
        <time>2003-02-06T13:08:28Z</time>
      </trkpt>
      <trkpt lat="45.8317" lon="6.39561">
        <ele>1400</ele>
        <time>2003-02-06T13:08:28Z</time>
      </trkpt>
      <trkpt lat="45.83211" lon="6.39518">
        <ele>1400</ele>
        <time>2003-02-06T13:08:28Z</time>
      </trkpt>
      <trkpt lat="45.83202" lon="6.39492">
        <ele>1401</ele>
        <time>2003-02-06T13:08:28Z</time>
      </trkpt>
      <trkpt lat="45.83157" lon="6.39479">
        <ele>1400</ele>
        <time>2003-02-06T13:08:28Z</time>
      </trkpt>
      <trkpt lat="45.83168" lon="6.39449">
        <ele>1400</ele>
        <time>2003-02-06T13:08:28Z</time>
      </trkpt>
      <trkpt lat="45.83209" lon="6.39417">
        <ele>1400</ele>
        <time>2003-02-06T13:08:28Z</time>
      </trkpt>
      <trkpt lat="45.83228" lon="6.39329">
        <ele>1393</ele>
        <time>2003-02-06T13:08:28Z</time>
      </trkpt>
      <trkpt lat="45.83241" lon="6.39295">
        <ele>1390</ele>
        <time>2003-02-06T13:08:28Z</time>
      </trkpt>
      <trkpt lat="45.8326" lon="6.3928">
        <ele>1385</ele>
        <time>2003-02-06T13:08:28Z</time>
      </trkpt>
      <trkpt lat="45.83404" lon="6.39308">
        <ele>1378</ele>
        <time>2003-02-06T13:08:28Z</time>
      </trkpt>
      <trkpt lat="45.83528" lon="6.39248">
        <ele>1372</ele>
        <time>2003-02-06T13:08:28Z</time>
      </trkpt>
      <trkpt lat="45.83601" lon="6.39258">
        <ele>1371</ele>
        <time>2003-02-06T13:08:28Z</time>
      </trkpt>
      <trkpt lat="45.83683" lon="6.39166">
        <ele>1366</ele>
        <time>2003-02-06T13:08:28Z</time>
      </trkpt>
      <trkpt lat="45.83745" lon="6.39162">
        <ele>1358</ele>
        <time>2003-02-06T13:08:28Z</time>
      </trkpt>
      <trkpt lat="45.83786" lon="6.39127">
        <ele>1356</ele>
        <time>2003-02-06T13:08:28Z</time>
      </trkpt>
      <trkpt lat="45.83833" lon="6.39121">
        <ele>1355</ele>
        <time>2003-02-06T13:08:28Z</time>
      </trkpt>
      <trkpt lat="45.83945" lon="6.39162">
        <ele>1346</ele>
        <time>2003-02-06T13:08:28Z</time>
      </trkpt>
      <trkpt lat="45.84013" lon="6.39153">
        <ele>1328</ele>
        <time>2003-02-06T13:08:28Z</time>
      </trkpt>
      <trkpt lat="45.84138" lon="6.39065">
        <ele>1291</ele>
        <time>2003-02-06T13:08:28Z</time>
      </trkpt>
      <trkpt lat="45.84196" lon="6.38949">
        <ele>1260</ele>
        <time>2003-02-06T13:08:28Z</time>
      </trkpt>
      <trkpt lat="45.84196" lon="6.38797">
        <ele>1251</ele>
        <time>2003-02-06T13:08:28Z</time>
      </trkpt>
      <trkpt lat="45.84211" lon="6.38752">
        <ele>1250</ele>
        <time>2003-02-06T13:08:28Z</time>
      </trkpt>
      <trkpt lat="45.84239" lon="6.38724">
        <ele>1248</ele>
        <time>2003-02-06T13:08:28Z</time>
      </trkpt>
      <trkpt lat="45.84339" lon="6.38735">
        <ele>1245</ele>
        <time>2003-02-06T13:08:28Z</time>
      </trkpt>
      <trkpt lat="45.84361" lon="6.38666">
        <ele>1245</ele>
        <time>2003-02-06T13:08:28Z</time>
      </trkpt>
      <trkpt lat="45.84475" lon="6.38494">
        <ele>1240</ele>
        <time>2003-02-06T13:08:28Z</time>
      </trkpt>
      <trkpt lat="45.84496" lon="6.38415">
        <ele>1236</ele>
        <time>2003-02-06T13:08:28Z</time>
      </trkpt>
      <trkpt lat="45.8453" lon="6.38353">
        <ele>1234</ele>
        <time>2003-02-06T13:08:28Z</time>
      </trkpt>
      <trkpt lat="45.84565" lon="6.38329">
        <ele>1231</ele>
        <time>2003-02-06T13:08:28Z</time>
      </trkpt>
      <trkpt lat="45.84595" lon="6.38278">
        <ele>1230</ele>
        <time>2003-02-06T13:08:28Z</time>
      </trkpt>
      <trkpt lat="45.84631" lon="6.38082">
        <ele>1221</ele>
        <time>2003-02-06T13:08:28Z</time>
      </trkpt>
      <trkpt lat="45.84657" lon="6.38035">
        <ele>1220</ele>
        <time>2003-02-06T13:08:28Z</time>
      </trkpt>
      <trkpt lat="45.84723" lon="6.37977">
        <ele>1214</ele>
        <time>2003-02-06T13:08:28Z</time>
      </trkpt>
      <trkpt lat="45.84803" lon="6.37701">
        <ele>1194</ele>
        <time>2003-02-06T13:08:28Z</time>
      </trkpt>
      <trkpt lat="45.84826" lon="6.37681">
        <ele>1192</ele>
        <time>2003-02-06T13:08:28Z</time>
      </trkpt>
    </trkseg>
  </trk>
  <trk>
    <name><![CDATA[Orsiere 3]]></name>
    <trkseg>
      <trkpt lat="45.84814" lon="6.37666">
        <ele>1177.7</ele>
        <time>2003-02-06T13:08:28Z</time>
      </trkpt>
      <trkpt lat="45.84721" lon="6.3799">
        <ele>1195.3</ele>
        <time>2003-02-06T13:08:28Z</time>
      </trkpt>
      <trkpt lat="45.84623" lon="6.38065">
        <ele>1207.6</ele>
        <time>2003-02-06T13:08:28Z</time>
      </trkpt>
      <trkpt lat="45.84573" lon="6.38295">
        <ele>1207.5</ele>
        <time>2003-02-06T13:08:28Z</time>
      </trkpt>
      <trkpt lat="45.84464" lon="6.3837">
        <ele>1215.5</ele>
        <time>2003-02-06T13:08:28Z</time>
      </trkpt>
      <trkpt lat="45.84436" lon="6.38501">
        <ele>1224.7</ele>
        <time>2003-02-06T13:08:28Z</time>
      </trkpt>
      <trkpt lat="45.84333" lon="6.3858">
        <ele>1238.3</ele>
        <time>2003-02-06T13:08:28Z</time>
      </trkpt>
      <trkpt lat="45.84305" lon="6.38739">
        <ele>1232.9</ele>
        <time>2003-02-06T13:08:28Z</time>
      </trkpt>
      <trkpt lat="45.84236" lon="6.38707">
        <ele>1233.1</ele>
        <time>2003-02-06T13:08:28Z</time>
      </trkpt>
      <trkpt lat="45.84176" lon="6.38819">
        <ele>1232.3</ele>
        <time>2003-02-06T13:08:28Z</time>
      </trkpt>
      <trkpt lat="45.84224" lon="6.38945">
        <ele>1235.3</ele>
        <time>2003-02-06T13:08:28Z</time>
      </trkpt>
      <trkpt lat="45.84288" lon="6.38964">
        <ele>1242.4</ele>
        <time>2003-02-06T13:08:28Z</time>
      </trkpt>
      <trkpt lat="45.8417" lon="6.39091">
        <ele>1263.6</ele>
        <time>2003-02-06T13:08:28Z</time>
      </trkpt>
      <trkpt lat="45.84086" lon="6.39078">
        <ele>1266.8</ele>
        <time>2003-02-06T13:08:28Z</time>
      </trkpt>
      <trkpt lat="45.84133" lon="6.39162">
        <ele>1274.5</ele>
        <time>2003-02-06T13:08:28Z</time>
      </trkpt>
      <trkpt lat="45.84" lon="6.3923">
        <ele>1299</ele>
        <time>2003-02-06T13:08:28Z</time>
      </trkpt>
      <trkpt lat="45.83859" lon="6.39323">
        <ele>1317.1</ele>
        <time>2003-02-06T13:08:28Z</time>
      </trkpt>
      <trkpt lat="45.8376" lon="6.39299">
        <ele>1332.4</ele>
        <time>2003-02-06T13:08:28Z</time>
      </trkpt>
      <trkpt lat="45.8361" lon="6.39306">
        <ele>1344.9</ele>
        <time>2003-02-06T13:08:28Z</time>
      </trkpt>
      <trkpt lat="45.83509" lon="6.39261">
        <ele>1355.1</ele>
        <time>2003-02-06T13:08:28Z</time>
      </trkpt>
      <trkpt lat="45.83385" lon="6.39295">
        <ele>1359.1</ele>
        <time>2003-02-06T13:08:28Z</time>
      </trkpt>
      <trkpt lat="45.83286" lon="6.39269">
        <ele>1374.9</ele>
        <time>2003-02-06T13:08:28Z</time>
      </trkpt>
      <trkpt lat="45.83299" lon="6.39368">
        <ele>1378.2</ele>
        <time>2003-02-06T13:08:28Z</time>
      </trkpt>
      <trkpt lat="45.83161" lon="6.39443">
        <ele>1398.2</ele>
        <time>2003-02-06T13:08:28Z</time>
      </trkpt>
      <trkpt lat="45.83048" lon="6.39589">
        <ele>1410.3</ele>
        <time>2003-02-06T13:08:28Z</time>
      </trkpt>
      <trkpt lat="45.8287" lon="6.39608">
        <ele>1447.8</ele>
        <time>2003-02-06T13:08:28Z</time>
      </trkpt>
      <trkpt lat="45.82689" lon="6.39769">
        <ele>1520.1</ele>
        <time>2003-02-06T13:08:28Z</time>
      </trkpt>
      <trkpt lat="45.82608" lon="6.401">
        <ele>1601.2</ele>
        <time>2003-02-06T13:08:28Z</time>
      </trkpt>
      <trkpt lat="45.82552" lon="6.40357">
        <ele>1653.1</ele>
        <time>2003-02-06T13:08:28Z</time>
      </trkpt>
      <trkpt lat="45.82494" lon="6.40554">
        <ele>1700.3</ele>
        <time>2003-02-06T13:08:28Z</time>
      </trkpt>
      <trkpt lat="45.8255" lon="6.4066">
        <ele>1706.4</ele>
        <time>2003-02-06T13:08:28Z</time>
      </trkpt>
      <trkpt lat="45.82651" lon="6.4066">
        <ele>1707.2</ele>
        <time>2003-02-06T13:08:28Z</time>
      </trkpt>
      <trkpt lat="45.82769" lon="6.40552">
        <ele>1733.6</ele>
        <time>2003-02-06T13:08:28Z</time>
      </trkpt>
      <trkpt lat="45.82829" lon="6.40552">
        <ele>1746.5</ele>
        <time>2003-02-06T13:08:28Z</time>
      </trkpt>
      <trkpt lat="45.82949" lon="6.4063">
        <ele>1698.9</ele>
        <time>2003-02-06T13:08:28Z</time>
      </trkpt>
      <trkpt lat="45.83088" lon="6.40576">
        <ele>1642.9</ele>
        <time>2003-02-06T13:08:28Z</time>
      </trkpt>
      <trkpt lat="45.83251" lon="6.40443">
        <ele>1603.5</ele>
        <time>2003-02-06T13:08:28Z</time>
      </trkpt>
      <trkpt lat="45.83284" lon="6.40185">
        <ele>1521.4</ele>
        <time>2003-02-06T13:08:28Z</time>
      </trkpt>
      <trkpt lat="45.83374" lon="6.39994">
        <ele>1432.1</ele>
        <time>2003-02-06T13:08:28Z</time>
      </trkpt>
      <trkpt lat="45.83305" lon="6.39928">
        <ele>1419.6</ele>
        <time>2003-02-06T13:08:28Z</time>
      </trkpt>
      <trkpt lat="45.8326" lon="6.39934">
        <ele>1418</ele>
        <time>2003-02-06T13:08:28Z</time>
      </trkpt>
      <trkpt lat="45.83228" lon="6.3987">
        <ele>1407.2</ele>
        <time>2003-02-06T13:08:28Z</time>
      </trkpt>
      <trkpt lat="45.83035" lon="6.39688">
        <ele>1389.9</ele>
        <time>2003-02-06T13:08:28Z</time>
      </trkpt>
      <trkpt lat="45.83112" lon="6.3958">
        <ele>1395.5</ele>
        <time>2003-02-06T13:08:28Z</time>
      </trkpt>
      <trkpt lat="45.8314" lon="6.39488">
        <ele>1397.5</ele>
        <time>2003-02-06T13:08:28Z</time>
      </trkpt>
      <trkpt lat="45.83194" lon="6.39415">
        <ele>1397.2</ele>
        <time>2003-02-06T13:08:28Z</time>
      </trkpt>
      <trkpt lat="45.83294" lon="6.39368">
        <ele>1379.2</ele>
        <time>2003-02-06T13:08:28Z</time>
      </trkpt>
      <trkpt lat="45.83288" lon="6.39263">
        <ele>1375.8</ele>
        <time>2003-02-06T13:08:28Z</time>
      </trkpt>
      <trkpt lat="45.83404" lon="6.39301">
        <ele>1355.5</ele>
        <time>2003-02-06T13:08:28Z</time>
      </trkpt>
      <trkpt lat="45.83513" lon="6.39261">
        <ele>1354.7</ele>
        <time>2003-02-06T13:08:28Z</time>
      </trkpt>
      <trkpt lat="45.83603" lon="6.39306">
        <ele>1344.4</ele>
        <time>2003-02-06T13:08:28Z</time>
      </trkpt>
      <trkpt lat="45.83764" lon="6.39293">
        <ele>1332.9</ele>
        <time>2003-02-06T13:08:28Z</time>
      </trkpt>
      <trkpt lat="45.83863" lon="6.39323">
        <ele>1316.4</ele>
        <time>2003-02-06T13:08:28Z</time>
      </trkpt>
      <trkpt lat="45.84133" lon="6.39162">
        <ele>1274.5</ele>
        <time>2003-02-06T13:08:28Z</time>
      </trkpt>
      <trkpt lat="45.84086" lon="6.39085">
        <ele>1268.1</ele>
        <time>2003-02-06T13:08:28Z</time>
      </trkpt>
      <trkpt lat="45.84174" lon="6.39082">
        <ele>1261</ele>
        <time>2003-02-06T13:08:28Z</time>
      </trkpt>
      <trkpt lat="45.84288" lon="6.38964">
        <ele>1242.4</ele>
        <time>2003-02-06T13:08:28Z</time>
      </trkpt>
      <trkpt lat="45.84219" lon="6.38952">
        <ele>1236.4</ele>
        <time>2003-02-06T13:08:28Z</time>
      </trkpt>
      <trkpt lat="45.84178" lon="6.38806">
        <ele>1232.5</ele>
        <time>2003-02-06T13:08:28Z</time>
      </trkpt>
      <trkpt lat="45.84232" lon="6.38726">
        <ele>1231.2</ele>
        <time>2003-02-06T13:08:28Z</time>
      </trkpt>
      <trkpt lat="45.84301" lon="6.38739">
        <ele>1232.5</ele>
        <time>2003-02-06T13:08:28Z</time>
      </trkpt>
      <trkpt lat="45.84333" lon="6.3858">
        <ele>1238.3</ele>
        <time>2003-02-06T13:08:28Z</time>
      </trkpt>
      <trkpt lat="45.84436" lon="6.38501">
        <ele>1224.7</ele>
        <time>2003-02-06T13:08:28Z</time>
      </trkpt>
      <trkpt lat="45.84464" lon="6.3837">
        <ele>1215.5</ele>
        <time>2003-02-06T13:08:28Z</time>
      </trkpt>
      <trkpt lat="45.84578" lon="6.38288">
        <ele>1206.8</ele>
        <time>2003-02-06T13:08:28Z</time>
      </trkpt>
      <trkpt lat="45.84627" lon="6.38063">
        <ele>1206</ele>
        <time>2003-02-06T13:08:28Z</time>
      </trkpt>
      <trkpt lat="45.84721" lon="6.3799">
        <ele>1195.3</ele>
        <time>2003-02-06T13:08:28Z</time>
      </trkpt>
      <trkpt lat="45.84807" lon="6.37666">
        <ele>1177.9</ele>
        <time>2003-02-06T13:08:28Z</time>
      </trkpt>
    </trkseg>
  </trk>
  <trk>
    <name><![CDATA[Orsiere 4]]></name>
    <trkseg>
      <trkpt lat="45.84816" lon="6.37692">
        <ele>1187</ele>
        <time>2003-02-06T13:08:28Z</time>
      </trkpt>
      <trkpt lat="45.84734" lon="6.37969">
        <ele>1204</ele>
        <time>2003-02-06T13:08:28Z</time>
      </trkpt>
      <trkpt lat="45.84655" lon="6.38048">
        <ele>1205</ele>
        <time>2003-02-06T13:08:28Z</time>
      </trkpt>
      <trkpt lat="45.84627" lon="6.38119">
        <ele>1207</ele>
        <time>2003-02-06T13:08:28Z</time>
      </trkpt>
      <trkpt lat="45.84584" lon="6.38299">
        <ele>1212</ele>
        <time>2003-02-06T13:08:28Z</time>
      </trkpt>
      <trkpt lat="45.84548" lon="6.3834">
        <ele>1213</ele>
        <time>2003-02-06T13:08:28Z</time>
      </trkpt>
      <trkpt lat="45.84481" lon="6.3837">
        <ele>1213</ele>
        <time>2003-02-06T13:08:28Z</time>
      </trkpt>
      <trkpt lat="45.84468" lon="6.38357">
        <ele>1213</ele>
        <time>2003-02-06T13:08:28Z</time>
      </trkpt>
      <trkpt lat="45.84449" lon="6.38518">
        <ele>1221</ele>
        <time>2003-02-06T13:08:28Z</time>
      </trkpt>
      <trkpt lat="45.84399" lon="6.38537">
        <ele>1222</ele>
        <time>2003-02-06T13:08:28Z</time>
      </trkpt>
      <trkpt lat="45.84397" lon="6.38557">
        <ele>1240</ele>
        <time>2003-02-06T13:08:28Z</time>
      </trkpt>
      <trkpt lat="45.84335" lon="6.38625">
        <ele>1237</ele>
        <time>2003-02-06T13:08:28Z</time>
      </trkpt>
      <trkpt lat="45.84202" lon="6.38655">
        <ele>1245</ele>
        <time>2003-02-06T13:08:28Z</time>
      </trkpt>
      <trkpt lat="45.8414" lon="6.38707">
        <ele>1247</ele>
        <time>2003-02-06T13:08:28Z</time>
      </trkpt>
      <trkpt lat="45.84108" lon="6.38799">
        <ele>1249</ele>
        <time>2003-02-06T13:08:28Z</time>
      </trkpt>
      <trkpt lat="45.84121" lon="6.38795">
        <ele>1238</ele>
        <time>2003-02-06T13:08:28Z</time>
      </trkpt>
      <trkpt lat="45.84105" lon="6.3884">
        <ele>1253</ele>
        <time>2003-02-06T13:08:28Z</time>
      </trkpt>
      <trkpt lat="45.8408" lon="6.38964">
        <ele>1263</ele>
        <time>2003-02-06T13:08:28Z</time>
      </trkpt>
      <trkpt lat="45.84116" lon="6.39192">
        <ele>1282</ele>
        <time>2003-02-06T13:08:28Z</time>
      </trkpt>
      <trkpt lat="45.83829" lon="6.39318">
        <ele>1321</ele>
        <time>2003-02-06T13:08:28Z</time>
      </trkpt>
      <trkpt lat="45.83781" lon="6.39312">
        <ele>1327</ele>
        <time>2003-02-06T13:08:28Z</time>
      </trkpt>
      <trkpt lat="45.83758" lon="6.39288">
        <ele>1329</ele>
        <time>2003-02-06T13:08:28Z</time>
      </trkpt>
      <trkpt lat="45.83636" lon="6.39306">
        <ele>1343</ele>
        <time>2003-02-06T13:08:28Z</time>
      </trkpt>
      <trkpt lat="45.83483" lon="6.39271">
        <ele>1355</ele>
        <time>2003-02-06T13:08:28Z</time>
      </trkpt>
      <trkpt lat="45.83395" lon="6.39306">
        <ele>1357</ele>
        <time>2003-02-06T13:08:28Z</time>
      </trkpt>
      <trkpt lat="45.83342" lon="6.39306">
        <ele>1359</ele>
        <time>2003-02-06T13:08:28Z</time>
      </trkpt>
      <trkpt lat="45.83297" lon="6.39271">
        <ele>1362</ele>
        <time>2003-02-06T13:08:28Z</time>
      </trkpt>
      <trkpt lat="45.83288" lon="6.3937">
        <ele>1369</ele>
        <time>2003-02-06T13:08:28Z</time>
      </trkpt>
      <trkpt lat="45.83256" lon="6.39434">
        <ele>1376</ele>
        <time>2003-02-06T13:08:28Z</time>
      </trkpt>
      <trkpt lat="45.83213" lon="6.39473">
        <ele>1376</ele>
        <time>2003-02-06T13:08:28Z</time>
      </trkpt>
      <trkpt lat="45.83211" lon="6.3946">
        <ele>1381</ele>
        <time>2003-02-06T13:08:28Z</time>
      </trkpt>
      <trkpt lat="45.83078" lon="6.39505">
        <ele>1393</ele>
        <time>2003-02-06T13:08:28Z</time>
      </trkpt>
      <trkpt lat="45.8302" lon="6.39471">
        <ele>1398</ele>
        <time>2003-02-06T13:08:28Z</time>
      </trkpt>
      <trkpt lat="45.8296" lon="6.39505">
        <ele>1406</ele>
        <time>2003-02-06T13:08:28Z</time>
      </trkpt>
      <trkpt lat="45.82953" lon="6.39537">
        <ele>1410</ele>
        <time>2003-02-06T13:08:28Z</time>
      </trkpt>
      <trkpt lat="45.82917" lon="6.39518">
        <ele>1422</ele>
        <time>2003-02-06T13:08:28Z</time>
      </trkpt>
      <trkpt lat="45.82852" lon="6.39576">
        <ele>1435</ele>
        <time>2003-02-06T13:08:28Z</time>
      </trkpt>
      <trkpt lat="45.82779" lon="6.396">
        <ele>1441</ele>
        <time>2003-02-06T13:08:28Z</time>
      </trkpt>
      <trkpt lat="45.82771" lon="6.39619">
        <ele>1441</ele>
        <time>2003-02-06T13:08:28Z</time>
      </trkpt>
      <trkpt lat="45.82739" lon="6.39576">
        <ele>1443</ele>
        <time>2003-02-06T13:08:28Z</time>
      </trkpt>
      <trkpt lat="45.8267" lon="6.3964">
        <ele>1486</ele>
        <time>2003-02-06T13:08:28Z</time>
      </trkpt>
      <trkpt lat="45.82621" lon="6.39612">
        <ele>1505</ele>
        <time>2003-02-06T13:08:28Z</time>
      </trkpt>
      <trkpt lat="45.82552" lon="6.39709">
        <ele>1529</ele>
        <time>2003-02-06T13:08:28Z</time>
      </trkpt>
      <trkpt lat="45.82522" lon="6.39806">
        <ele>1546</ele>
        <time>2003-02-06T13:08:28Z</time>
      </trkpt>
      <trkpt lat="45.82573" lon="6.39951">
        <ele>1564</ele>
        <time>2003-02-06T13:08:28Z</time>
      </trkpt>
      <trkpt lat="45.82537" lon="6.39973">
        <ele>1576</ele>
        <time>2003-02-06T13:08:28Z</time>
      </trkpt>
      <trkpt lat="45.82539" lon="6.40035">
        <ele>1588</ele>
        <time>2003-02-06T13:08:28Z</time>
      </trkpt>
      <trkpt lat="45.82522" lon="6.40048">
        <ele>1599</ele>
        <time>2003-02-06T13:08:28Z</time>
      </trkpt>
      <trkpt lat="45.82515" lon="6.40078">
        <ele>1609</ele>
        <time>2003-02-06T13:08:28Z</time>
      </trkpt>
      <trkpt lat="45.82507" lon="6.40076">
        <ele>1611</ele>
        <time>2003-02-06T13:08:28Z</time>
      </trkpt>
      <trkpt lat="45.82492" lon="6.40183">
        <ele>1652</ele>
        <time>2003-02-06T13:08:28Z</time>
      </trkpt>
      <trkpt lat="45.8247" lon="6.40181">
        <ele>1660</ele>
        <time>2003-02-06T13:08:28Z</time>
      </trkpt>
      <trkpt lat="45.82458" lon="6.40157">
        <ele>1666</ele>
        <time>2003-02-06T13:08:28Z</time>
      </trkpt>
      <trkpt lat="45.82421" lon="6.40179">
        <ele>1672</ele>
        <time>2003-02-06T13:08:28Z</time>
      </trkpt>
      <trkpt lat="45.82389" lon="6.40258">
        <ele>1679</ele>
        <time>2003-02-06T13:08:28Z</time>
      </trkpt>
      <trkpt lat="45.82406" lon="6.40239">
        <ele>1702</ele>
        <time>2003-02-06T13:08:28Z</time>
      </trkpt>
      <trkpt lat="45.82404" lon="6.40271">
        <ele>1711</ele>
        <time>2003-02-06T13:08:28Z</time>
      </trkpt>
      <trkpt lat="45.82387" lon="6.40273">
        <ele>1715</ele>
        <time>2003-02-06T13:08:28Z</time>
      </trkpt>
      <trkpt lat="45.82372" lon="6.40308">
        <ele>1721</ele>
        <time>2003-02-06T13:08:28Z</time>
      </trkpt>
      <trkpt lat="45.82355" lon="6.40316">
        <ele>1726</ele>
        <time>2003-02-06T13:08:28Z</time>
      </trkpt>
      <trkpt lat="45.82342" lon="6.40374">
        <ele>1742</ele>
        <time>2003-02-06T13:08:28Z</time>
      </trkpt>
      <trkpt lat="45.82307" lon="6.404">
        <ele>1747</ele>
        <time>2003-02-06T13:08:28Z</time>
      </trkpt>
      <trkpt lat="45.82312" lon="6.4043">
        <ele>1748</ele>
        <time>2003-02-06T13:08:28Z</time>
      </trkpt>
      <trkpt lat="45.82282" lon="6.40535">
        <ele>1765</ele>
        <time>2003-02-06T13:08:28Z</time>
      </trkpt>
      <trkpt lat="45.82324" lon="6.40563">
        <ele>1764</ele>
        <time>2003-02-06T13:08:28Z</time>
      </trkpt>
      <trkpt lat="45.82352" lon="6.40595">
        <ele>1755</ele>
        <time>2003-02-06T13:08:28Z</time>
      </trkpt>
      <trkpt lat="45.82357" lon="6.40619">
        <ele>1757</ele>
        <time>2003-02-06T13:08:28Z</time>
      </trkpt>
      <trkpt lat="45.82428" lon="6.40649">
        <ele>1742</ele>
        <time>2003-02-06T13:08:28Z</time>
      </trkpt>
      <trkpt lat="45.82455" lon="6.40705">
        <ele>1737</ele>
        <time>2003-02-06T13:08:28Z</time>
      </trkpt>
      <trkpt lat="45.82479" lon="6.4072">
        <ele>1733</ele>
        <time>2003-02-06T13:08:28Z</time>
      </trkpt>
      <trkpt lat="45.82661" lon="6.40668">
        <ele>1721</ele>
        <time>2003-02-06T13:08:28Z</time>
      </trkpt>
      <trkpt lat="45.82681" lon="6.40657">
        <ele>1720</ele>
        <time>2003-02-06T13:08:28Z</time>
      </trkpt>
      <trkpt lat="45.82691" lon="6.40621">
        <ele>1721</ele>
        <time>2003-02-06T13:08:28Z</time>
      </trkpt>
      <trkpt lat="45.82726" lon="6.40589">
        <ele>1730</ele>
        <time>2003-02-06T13:08:28Z</time>
      </trkpt>
      <trkpt lat="45.82756" lon="6.40615">
        <ele>1737</ele>
        <time>2003-02-06T13:08:28Z</time>
      </trkpt>
      <trkpt lat="45.82773" lon="6.40606">
        <ele>1743</ele>
        <time>2003-02-06T13:08:28Z</time>
      </trkpt>
      <trkpt lat="45.82784" lon="6.4058">
        <ele>1746</ele>
        <time>2003-02-06T13:08:28Z</time>
      </trkpt>
      <trkpt lat="45.82837" lon="6.40574">
        <ele>1757</ele>
        <time>2003-02-06T13:08:28Z</time>
      </trkpt>
      <trkpt lat="45.82915" lon="6.40625">
        <ele>1730</ele>
        <time>2003-02-06T13:08:28Z</time>
      </trkpt>
      <trkpt lat="45.83013" lon="6.40559">
        <ele>1690</ele>
        <time>2003-02-06T13:08:28Z</time>
      </trkpt>
      <trkpt lat="45.83206" lon="6.40494">
        <ele>1630</ele>
        <time>2003-02-06T13:08:28Z</time>
      </trkpt>
      <trkpt lat="45.83275" lon="6.40424">
        <ele>1615</ele>
        <time>2003-02-06T13:08:28Z</time>
      </trkpt>
      <trkpt lat="45.83271" lon="6.40417">
        <ele>1613</ele>
        <time>2003-02-06T13:08:28Z</time>
      </trkpt>
      <trkpt lat="45.83331" lon="6.40404">
        <ele>1592</ele>
        <time>2003-02-06T13:08:28Z</time>
      </trkpt>
      <trkpt lat="45.83488" lon="6.40297">
        <ele>1533</ele>
        <time>2003-02-06T13:08:28Z</time>
      </trkpt>
      <trkpt lat="45.83472" lon="6.40245">
        <ele>1522</ele>
        <time>2003-02-06T13:08:28Z</time>
      </trkpt>
      <trkpt lat="45.83479" lon="6.40209">
        <ele>1509</ele>
        <time>2003-02-06T13:08:28Z</time>
      </trkpt>
      <trkpt lat="45.83466" lon="6.402">
        <ele>1497</ele>
        <time>2003-02-06T13:08:28Z</time>
      </trkpt>
      <trkpt lat="45.83505" lon="6.40168">
        <ele>1482</ele>
        <time>2003-02-06T13:08:28Z</time>
      </trkpt>
      <trkpt lat="45.83481" lon="6.40142">
        <ele>1477</ele>
        <time>2003-02-06T13:08:28Z</time>
      </trkpt>
      <trkpt lat="45.8349" lon="6.40076">
        <ele>1463</ele>
        <time>2003-02-06T13:08:28Z</time>
      </trkpt>
      <trkpt lat="45.834" lon="6.40061">
        <ele>1451</ele>
        <time>2003-02-06T13:08:28Z</time>
      </trkpt>
      <trkpt lat="45.83385" lon="6.40005">
        <ele>1446</ele>
        <time>2003-02-06T13:08:28Z</time>
      </trkpt>
      <trkpt lat="45.83301" lon="6.39945">
        <ele>1438</ele>
        <time>2003-02-06T13:08:28Z</time>
      </trkpt>
      <trkpt lat="45.83241" lon="6.39964">
        <ele>1433</ele>
        <time>2003-02-06T13:08:28Z</time>
      </trkpt>
      <trkpt lat="45.83234" lon="6.39919">
        <ele>1432</ele>
        <time>2003-02-06T13:08:28Z</time>
      </trkpt>
      <trkpt lat="45.83204" lon="6.39874">
        <ele>1432</ele>
        <time>2003-02-06T13:08:28Z</time>
      </trkpt>
      <trkpt lat="45.83121" lon="6.39827">
        <ele>1425</ele>
        <time>2003-02-06T13:08:28Z</time>
      </trkpt>
      <trkpt lat="45.83114" lon="6.39795">
        <ele>1396</ele>
        <time>2003-02-06T13:08:28Z</time>
      </trkpt>
      <trkpt lat="45.83026" lon="6.39666">
        <ele>1396</ele>
        <time>2003-02-06T13:08:28Z</time>
      </trkpt>
      <trkpt lat="45.83024" lon="6.39638">
        <ele>1396</ele>
        <time>2003-02-06T13:08:28Z</time>
      </trkpt>
      <trkpt lat="45.83076" lon="6.39625">
        <ele>1398</ele>
        <time>2003-02-06T13:08:28Z</time>
      </trkpt>
      <trkpt lat="45.83127" lon="6.39557">
        <ele>1400</ele>
        <time>2003-02-06T13:08:28Z</time>
      </trkpt>
      <trkpt lat="45.8317" lon="6.39561">
        <ele>1400</ele>
        <time>2003-02-06T13:08:28Z</time>
      </trkpt>
      <trkpt lat="45.83211" lon="6.39518">
        <ele>1400</ele>
        <time>2003-02-06T13:08:28Z</time>
      </trkpt>
      <trkpt lat="45.83202" lon="6.39492">
        <ele>1401</ele>
        <time>2003-02-06T13:08:28Z</time>
      </trkpt>
      <trkpt lat="45.83157" lon="6.39479">
        <ele>1400</ele>
        <time>2003-02-06T13:08:28Z</time>
      </trkpt>
      <trkpt lat="45.83168" lon="6.39449">
        <ele>1400</ele>
        <time>2003-02-06T13:08:28Z</time>
      </trkpt>
      <trkpt lat="45.83209" lon="6.39417">
        <ele>1400</ele>
        <time>2003-02-06T13:08:28Z</time>
      </trkpt>
      <trkpt lat="45.83228" lon="6.39329">
        <ele>1393</ele>
        <time>2003-02-06T13:08:28Z</time>
      </trkpt>
      <trkpt lat="45.83241" lon="6.39295">
        <ele>1390</ele>
        <time>2003-02-06T13:08:28Z</time>
      </trkpt>
      <trkpt lat="45.8326" lon="6.3928">
        <ele>1385</ele>
        <time>2003-02-06T13:08:28Z</time>
      </trkpt>
      <trkpt lat="45.83404" lon="6.39308">
        <ele>1378</ele>
        <time>2003-02-06T13:08:28Z</time>
      </trkpt>
      <trkpt lat="45.83528" lon="6.39248">
        <ele>1372</ele>
        <time>2003-02-06T13:08:28Z</time>
      </trkpt>
      <trkpt lat="45.83601" lon="6.39258">
        <ele>1371</ele>
        <time>2003-02-06T13:08:28Z</time>
      </trkpt>
      <trkpt lat="45.83683" lon="6.39166">
        <ele>1366</ele>
        <time>2003-02-06T13:08:28Z</time>
      </trkpt>
      <trkpt lat="45.83745" lon="6.39162">
        <ele>1358</ele>
        <time>2003-02-06T13:08:28Z</time>
      </trkpt>
      <trkpt lat="45.83786" lon="6.39127">
        <ele>1356</ele>
        <time>2003-02-06T13:08:28Z</time>
      </trkpt>
      <trkpt lat="45.83833" lon="6.39121">
        <ele>1355</ele>
        <time>2003-02-06T13:08:28Z</time>
      </trkpt>
      <trkpt lat="45.83945" lon="6.39162">
        <ele>1346</ele>
        <time>2003-02-06T13:08:28Z</time>
      </trkpt>
      <trkpt lat="45.84013" lon="6.39153">
        <ele>1328</ele>
        <time>2003-02-06T13:08:28Z</time>
      </trkpt>
      <trkpt lat="45.84138" lon="6.39065">
        <ele>1291</ele>
        <time>2003-02-06T13:08:28Z</time>
      </trkpt>
      <trkpt lat="45.84196" lon="6.38949">
        <ele>1260</ele>
        <time>2003-02-06T13:08:28Z</time>
      </trkpt>
      <trkpt lat="45.84196" lon="6.38797">
        <ele>1251</ele>
        <time>2003-02-06T13:08:28Z</time>
      </trkpt>
      <trkpt lat="45.84211" lon="6.38752">
        <ele>1250</ele>
        <time>2003-02-06T13:08:28Z</time>
      </trkpt>
      <trkpt lat="45.84239" lon="6.38724">
        <ele>1248</ele>
        <time>2003-02-06T13:08:28Z</time>
      </trkpt>
      <trkpt lat="45.84339" lon="6.38735">
        <ele>1245</ele>
        <time>2003-02-06T13:08:28Z</time>
      </trkpt>
      <trkpt lat="45.84361" lon="6.38666">
        <ele>1245</ele>
        <time>2003-02-06T13:08:28Z</time>
      </trkpt>
      <trkpt lat="45.84475" lon="6.38494">
        <ele>1240</ele>
        <time>2003-02-06T13:08:28Z</time>
      </trkpt>
      <trkpt lat="45.84496" lon="6.38415">
        <ele>1236</ele>
        <time>2003-02-06T13:08:28Z</time>
      </trkpt>
      <trkpt lat="45.8453" lon="6.38353">
        <ele>1234</ele>
        <time>2003-02-06T13:08:28Z</time>
      </trkpt>
      <trkpt lat="45.84565" lon="6.38329">
        <ele>1231</ele>
        <time>2003-02-06T13:08:28Z</time>
      </trkpt>
      <trkpt lat="45.84595" lon="6.38278">
        <ele>1230</ele>
        <time>2003-02-06T13:08:28Z</time>
      </trkpt>
      <trkpt lat="45.84631" lon="6.38082">
        <ele>1221</ele>
        <time>2003-02-06T13:08:28Z</time>
      </trkpt>
      <trkpt lat="45.84657" lon="6.38035">
        <ele>1220</ele>
        <time>2003-02-06T13:08:28Z</time>
      </trkpt>
      <trkpt lat="45.84723" lon="6.37977">
        <ele>1214</ele>
        <time>2003-02-06T13:08:28Z</time>
      </trkpt>
      <trkpt lat="45.84803" lon="6.37701">
        <ele>1194</ele>
        <time>2003-02-06T13:08:28Z</time>
      </trkpt>
      <trkpt lat="45.84826" lon="6.37681">
        <ele>1192</ele>
        <time>2003-02-06T13:08:28Z</time>
      </trkpt>
    </trkseg>
  </trk>
  <trk>
    <name><![CDATA[Orsiere2]]></name>
    <trkseg>
      <trkpt lat="45.84983" lon="6.37634">
        <ele>1172</ele>
        <time>2004-01-19T18:03:57Z</time>
      </trkpt>
      <trkpt lat="45.84977" lon="6.37677">
        <ele>1175</ele>
        <time>2004-01-19T18:03:57Z</time>
      </trkpt>
      <trkpt lat="45.84951" lon="6.37713">
        <ele>1178</ele>
        <time>2004-01-19T18:03:57Z</time>
      </trkpt>
      <trkpt lat="45.84841" lon="6.37677">
        <ele>1179</ele>
        <time>2004-01-19T18:03:57Z</time>
      </trkpt>
      <trkpt lat="45.84807" lon="6.37698">
        <ele>1181</ele>
        <time>2004-01-19T18:03:57Z</time>
      </trkpt>
      <trkpt lat="45.84745" lon="6.37941">
        <ele>1195</ele>
        <time>2004-01-19T18:03:57Z</time>
      </trkpt>
      <trkpt lat="45.84713" lon="6.37995">
        <ele>1198</ele>
        <time>2004-01-19T18:03:57Z</time>
      </trkpt>
      <trkpt lat="45.84657" lon="6.38035">
        <ele>1200</ele>
        <time>2004-01-19T18:03:57Z</time>
      </trkpt>
      <trkpt lat="45.8464" lon="6.38065">
        <ele>1203</ele>
        <time>2004-01-19T18:03:57Z</time>
      </trkpt>
      <trkpt lat="45.8458" lon="6.38297">
        <ele>1207</ele>
        <time>2004-01-19T18:03:57Z</time>
      </trkpt>
      <trkpt lat="45.84524" lon="6.38351">
        <ele>1210</ele>
        <time>2004-01-19T18:03:57Z</time>
      </trkpt>
      <trkpt lat="45.84481" lon="6.38357">
        <ele>1209</ele>
        <time>2004-01-19T18:03:57Z</time>
      </trkpt>
      <trkpt lat="45.84453" lon="6.38499">
        <ele>1212</ele>
        <time>2004-01-19T18:03:57Z</time>
      </trkpt>
      <trkpt lat="45.84376" lon="6.38561">
        <ele>1217</ele>
        <time>2004-01-19T18:03:57Z</time>
      </trkpt>
      <trkpt lat="45.84303" lon="6.38731">
        <ele>1230</ele>
        <time>2004-01-19T18:03:57Z</time>
      </trkpt>
      <trkpt lat="45.84234" lon="6.38739">
        <ele>1238</ele>
        <time>2004-01-19T18:03:57Z</time>
      </trkpt>
      <trkpt lat="45.84187" lon="6.38821">
        <ele>1233</ele>
        <time>2004-01-19T18:03:57Z</time>
      </trkpt>
      <trkpt lat="45.84219" lon="6.38921">
        <ele>1232</ele>
        <time>2004-01-19T18:03:57Z</time>
      </trkpt>
      <trkpt lat="45.84286" lon="6.38937">
        <ele>1246</ele>
        <time>2004-01-19T18:03:57Z</time>
      </trkpt>
      <trkpt lat="45.84288" lon="6.38958">
        <ele>1245</ele>
        <time>2004-01-19T18:03:57Z</time>
      </trkpt>
      <trkpt lat="45.84243" lon="6.39029">
        <ele>1260</ele>
        <time>2004-01-19T18:03:57Z</time>
      </trkpt>
      <trkpt lat="45.84204" lon="6.39067">
        <ele>1267</ele>
        <time>2004-01-19T18:03:57Z</time>
      </trkpt>
      <trkpt lat="45.84133" lon="6.39108">
        <ele>1279</ele>
        <time>2004-01-19T18:03:57Z</time>
      </trkpt>
      <trkpt lat="45.84082" lon="6.39108">
        <ele>1283</ele>
        <time>2004-01-19T18:03:57Z</time>
      </trkpt>
      <trkpt lat="45.84118" lon="6.39164">
        <ele>1280</ele>
        <time>2004-01-19T18:03:57Z</time>
      </trkpt>
      <trkpt lat="45.84108" lon="6.39183">
        <ele>1285</ele>
        <time>2004-01-19T18:03:57Z</time>
      </trkpt>
      <trkpt lat="45.84048" lon="6.3923">
        <ele>1305</ele>
        <time>2004-01-19T18:03:57Z</time>
      </trkpt>
      <trkpt lat="45.84007" lon="6.39235">
        <ele>1311</ele>
        <time>2004-01-19T18:03:57Z</time>
      </trkpt>
      <trkpt lat="45.83827" lon="6.39327">
        <ele>1331</ele>
        <time>2004-01-19T18:03:57Z</time>
      </trkpt>
      <trkpt lat="45.83749" lon="6.39299">
        <ele>1347</ele>
        <time>2004-01-19T18:03:57Z</time>
      </trkpt>
      <trkpt lat="45.83601" lon="6.39299">
        <ele>1356</ele>
        <time>2004-01-19T18:03:57Z</time>
      </trkpt>
      <trkpt lat="45.83494" lon="6.39261">
        <ele>1367</ele>
        <time>2004-01-19T18:03:57Z</time>
      </trkpt>
      <trkpt lat="45.83382" lon="6.39306">
        <ele>1368</ele>
        <time>2004-01-19T18:03:57Z</time>
      </trkpt>
      <trkpt lat="45.83277" lon="6.39273">
        <ele>1382</ele>
        <time>2004-01-19T18:03:57Z</time>
      </trkpt>
      <trkpt lat="45.83284" lon="6.39346">
        <ele>1384</ele>
        <time>2004-01-19T18:03:57Z</time>
      </trkpt>
      <trkpt lat="45.8326" lon="6.39415">
        <ele>1389</ele>
        <time>2004-01-19T18:03:57Z</time>
      </trkpt>
      <trkpt lat="45.83241" lon="6.39434">
        <ele>1396</ele>
        <time>2004-01-19T18:03:57Z</time>
      </trkpt>
      <trkpt lat="45.83138" lon="6.39449">
        <ele>1415</ele>
        <time>2004-01-19T18:03:57Z</time>
      </trkpt>
      <trkpt lat="45.83093" lon="6.39482">
        <ele>1416</ele>
        <time>2004-01-19T18:03:57Z</time>
      </trkpt>
      <trkpt lat="45.8302" lon="6.39452">
        <ele>1441</ele>
        <time>2004-01-19T18:03:57Z</time>
      </trkpt>
      <trkpt lat="45.82949" lon="6.39518">
        <ele>1447</ele>
        <time>2004-01-19T18:03:57Z</time>
      </trkpt>
      <trkpt lat="45.8294" lon="6.39499">
        <ele>1454</ele>
        <time>2004-01-19T18:03:57Z</time>
      </trkpt>
      <trkpt lat="45.82917" lon="6.39486">
        <ele>1460</ele>
        <time>2004-01-19T18:03:57Z</time>
      </trkpt>
      <trkpt lat="45.82859" lon="6.39473">
        <ele>1451</ele>
        <time>2004-01-19T18:03:57Z</time>
      </trkpt>
      <trkpt lat="45.82878" lon="6.39475">
        <ele>1471</ele>
        <time>2004-01-19T18:03:57Z</time>
      </trkpt>
      <trkpt lat="45.82842" lon="6.39479">
        <ele>1466</ele>
        <time>2004-01-19T18:03:57Z</time>
      </trkpt>
      <trkpt lat="45.82788" lon="6.39518">
        <ele>1478</ele>
        <time>2004-01-19T18:03:57Z</time>
      </trkpt>
      <trkpt lat="45.82764" lon="6.39561">
        <ele>1485</ele>
        <time>2004-01-19T18:03:57Z</time>
      </trkpt>
      <trkpt lat="45.82756" lon="6.3955">
        <ele>1487</ele>
        <time>2004-01-19T18:03:57Z</time>
      </trkpt>
      <trkpt lat="45.82709" lon="6.3964">
        <ele>1505</ele>
        <time>2004-01-19T18:03:57Z</time>
      </trkpt>
      <trkpt lat="45.82659" lon="6.39673">
        <ele>1519</ele>
        <time>2004-01-19T18:03:57Z</time>
      </trkpt>
      <trkpt lat="45.82659" lon="6.3972">
        <ele>1524</ele>
        <time>2004-01-19T18:03:57Z</time>
      </trkpt>
      <trkpt lat="45.82629" lon="6.39776">
        <ele>1539</ele>
        <time>2004-01-19T18:03:57Z</time>
      </trkpt>
      <trkpt lat="45.82625" lon="6.39838">
        <ele>1550</ele>
        <time>2004-01-19T18:03:57Z</time>
      </trkpt>
      <trkpt lat="45.82582" lon="6.39876">
        <ele>1565</ele>
        <time>2004-01-19T18:03:57Z</time>
      </trkpt>
      <trkpt lat="45.82588" lon="6.40007">
        <ele>1590</ele>
        <time>2004-01-19T18:03:57Z</time>
      </trkpt>
      <trkpt lat="45.82571" lon="6.40024">
        <ele>1595</ele>
        <time>2004-01-19T18:03:57Z</time>
      </trkpt>
      <trkpt lat="45.82588" lon="6.4008">
        <ele>1604</ele>
        <time>2004-01-19T18:03:57Z</time>
      </trkpt>
      <trkpt lat="45.82593" lon="6.40185">
        <ele>1620</ele>
        <time>2004-01-19T18:03:57Z</time>
      </trkpt>
      <trkpt lat="45.82567" lon="6.402">
        <ele>1629</ele>
        <time>2004-01-19T18:03:57Z</time>
      </trkpt>
      <trkpt lat="45.82554" lon="6.40239">
        <ele>1636</ele>
        <time>2004-01-19T18:03:57Z</time>
      </trkpt>
      <trkpt lat="45.82554" lon="6.40503">
        <ele>1676</ele>
        <time>2004-01-19T18:03:57Z</time>
      </trkpt>
      <trkpt lat="45.82582" lon="6.40529">
        <ele>1688</ele>
        <time>2004-01-19T18:03:57Z</time>
      </trkpt>
      <trkpt lat="45.8261" lon="6.40606">
        <ele>1696</ele>
        <time>2004-01-19T18:03:57Z</time>
      </trkpt>
      <trkpt lat="45.82655" lon="6.4066">
        <ele>1711</ele>
        <time>2004-01-19T18:03:57Z</time>
      </trkpt>
      <trkpt lat="45.82689" lon="6.40599">
        <ele>1724</ele>
        <time>2004-01-19T18:03:57Z</time>
      </trkpt>
      <trkpt lat="45.82831" lon="6.40572">
        <ele>1752</ele>
        <time>2004-01-19T18:03:57Z</time>
      </trkpt>
      <trkpt lat="45.82885" lon="6.4061">
        <ele>1729</ele>
        <time>2004-01-19T18:03:57Z</time>
      </trkpt>
      <trkpt lat="45.829" lon="6.40597">
        <ele>1716</ele>
        <time>2004-01-19T18:03:57Z</time>
      </trkpt>
      <trkpt lat="45.82921" lon="6.40627">
        <ele>1708</ele>
        <time>2004-01-19T18:03:57Z</time>
      </trkpt>
      <trkpt lat="45.83022" lon="6.40524">
        <ele>1664</ele>
        <time>2004-01-19T18:03:57Z</time>
      </trkpt>
      <trkpt lat="45.83093" lon="6.40548">
        <ele>1636</ele>
        <time>2004-01-19T18:03:57Z</time>
      </trkpt>
      <trkpt lat="45.83269" lon="6.40417">
        <ele>1593</ele>
        <time>2004-01-19T18:03:57Z</time>
      </trkpt>
      <trkpt lat="45.83288" lon="6.40434">
        <ele>1591</ele>
        <time>2004-01-19T18:03:57Z</time>
      </trkpt>
      <trkpt lat="45.83275" lon="6.40464">
        <ele>1594</ele>
        <time>2004-01-19T18:03:57Z</time>
      </trkpt>
      <trkpt lat="45.83286" lon="6.40464">
        <ele>1590</ele>
        <time>2004-01-19T18:03:57Z</time>
      </trkpt>
      <trkpt lat="45.83266" lon="6.40466">
        <ele>1571</ele>
        <time>2004-01-19T18:03:57Z</time>
      </trkpt>
      <trkpt lat="45.83282" lon="6.40462">
        <ele>1596</ele>
        <time>2004-01-19T18:03:57Z</time>
      </trkpt>
      <trkpt lat="45.83292" lon="6.40436">
        <ele>1598</ele>
        <time>2004-01-19T18:03:57Z</time>
      </trkpt>
      <trkpt lat="45.8344" lon="6.40327">
        <ele>1532</ele>
        <time>2004-01-19T18:03:57Z</time>
      </trkpt>
      <trkpt lat="45.83432" lon="6.40306">
        <ele>1526</ele>
        <time>2004-01-19T18:03:57Z</time>
      </trkpt>
      <trkpt lat="45.83475" lon="6.40293">
        <ele>1510</ele>
        <time>2004-01-19T18:03:57Z</time>
      </trkpt>
      <trkpt lat="45.83475" lon="6.4025">
        <ele>1506</ele>
        <time>2004-01-19T18:03:57Z</time>
      </trkpt>
      <trkpt lat="45.83494" lon="6.40252">
        <ele>1504</ele>
        <time>2004-01-19T18:03:57Z</time>
      </trkpt>
      <trkpt lat="45.83518" lon="6.40303">
        <ele>1493</ele>
        <time>2004-01-19T18:03:57Z</time>
      </trkpt>
      <trkpt lat="45.8352" lon="6.4022">
        <ele>1486</ele>
        <time>2004-01-19T18:03:57Z</time>
      </trkpt>
      <trkpt lat="45.83468" lon="6.40147">
        <ele>1478</ele>
        <time>2004-01-19T18:03:57Z</time>
      </trkpt>
      <trkpt lat="45.83528" lon="6.40151">
        <ele>1461</ele>
        <time>2004-01-19T18:03:57Z</time>
      </trkpt>
      <trkpt lat="45.835" lon="6.40076">
        <ele>1446</ele>
        <time>2004-01-19T18:03:57Z</time>
      </trkpt>
      <trkpt lat="45.83455" lon="6.40078">
        <ele>1446</ele>
        <time>2004-01-19T18:03:57Z</time>
      </trkpt>
      <trkpt lat="45.83412" lon="6.40054">
        <ele>1443</ele>
        <time>2004-01-19T18:03:57Z</time>
      </trkpt>
      <trkpt lat="45.83378" lon="6.39984">
        <ele>1427</ele>
        <time>2004-01-19T18:03:57Z</time>
      </trkpt>
      <trkpt lat="45.83337" lon="6.39958">
        <ele>1424</ele>
        <time>2004-01-19T18:03:57Z</time>
      </trkpt>
      <trkpt lat="45.83241" lon="6.39943">
        <ele>1423</ele>
        <time>2004-01-19T18:03:57Z</time>
      </trkpt>
      <trkpt lat="45.83239" lon="6.39928">
        <ele>1422</ele>
        <time>2004-01-19T18:03:57Z</time>
      </trkpt>
      <trkpt lat="45.83266" lon="6.39904">
        <ele>1428</ele>
        <time>2004-01-19T18:03:57Z</time>
      </trkpt>
      <trkpt lat="45.83221" lon="6.39863">
        <ele>1419</ele>
        <time>2004-01-19T18:03:57Z</time>
      </trkpt>
      <trkpt lat="45.83099" lon="6.39816">
        <ele>1418</ele>
        <time>2004-01-19T18:03:57Z</time>
      </trkpt>
      <trkpt lat="45.83086" lon="6.39776">
        <ele>1409</ele>
        <time>2004-01-19T18:03:57Z</time>
      </trkpt>
      <trkpt lat="45.83054" lon="6.39745">
        <ele>1405</ele>
        <time>2004-01-19T18:03:57Z</time>
      </trkpt>
      <trkpt lat="45.83056" lon="6.39673">
        <ele>1395</ele>
        <time>2004-01-19T18:03:57Z</time>
      </trkpt>
      <trkpt lat="45.8302" lon="6.39668">
        <ele>1393</ele>
        <time>2004-01-19T18:03:57Z</time>
      </trkpt>
      <trkpt lat="45.83026" lon="6.39645">
        <ele>1392</ele>
        <time>2004-01-19T18:03:57Z</time>
      </trkpt>
      <trkpt lat="45.83086" lon="6.39636">
        <ele>1392</ele>
        <time>2004-01-19T18:03:57Z</time>
      </trkpt>
      <trkpt lat="45.83138" lon="6.3957">
        <ele>1392</ele>
        <time>2004-01-19T18:03:57Z</time>
      </trkpt>
      <trkpt lat="45.83179" lon="6.39563">
        <ele>1394</ele>
        <time>2004-01-19T18:03:57Z</time>
      </trkpt>
      <trkpt lat="45.83215" lon="6.39527">
        <ele>1392</ele>
        <time>2004-01-19T18:03:57Z</time>
      </trkpt>
      <trkpt lat="45.83215" lon="6.39505">
        <ele>1392</ele>
        <time>2004-01-19T18:03:57Z</time>
      </trkpt>
      <trkpt lat="45.83161" lon="6.39473">
        <ele>1396</ele>
        <time>2004-01-19T18:03:57Z</time>
      </trkpt>
      <trkpt lat="45.83213" lon="6.39436">
        <ele>1397</ele>
        <time>2004-01-19T18:03:57Z</time>
      </trkpt>
      <trkpt lat="45.83234" lon="6.39278">
        <ele>1378</ele>
        <time>2004-01-19T18:03:57Z</time>
      </trkpt>
      <trkpt lat="45.83204" lon="6.39261">
        <ele>1391</ele>
        <time>2004-01-19T18:03:57Z</time>
      </trkpt>
      <trkpt lat="45.83209" lon="6.39237">
        <ele>1391</ele>
        <time>2004-01-19T18:03:57Z</time>
      </trkpt>
      <trkpt lat="45.83322" lon="6.39175">
        <ele>1388</ele>
        <time>2004-01-19T18:03:57Z</time>
      </trkpt>
      <trkpt lat="45.83462" lon="6.39188">
        <ele>1368</ele>
        <time>2004-01-19T18:03:57Z</time>
      </trkpt>
      <trkpt lat="45.83569" lon="6.39226">
        <ele>1360</ele>
        <time>2004-01-19T18:03:57Z</time>
      </trkpt>
      <trkpt lat="45.8373" lon="6.39166">
        <ele>1351</ele>
        <time>2004-01-19T18:03:57Z</time>
      </trkpt>
      <trkpt lat="45.83865" lon="6.39155">
        <ele>1331</ele>
        <time>2004-01-19T18:03:57Z</time>
      </trkpt>
      <trkpt lat="45.83977" lon="6.392">
        <ele>1306</ele>
        <time>2004-01-19T18:03:57Z</time>
      </trkpt>
      <trkpt lat="45.84022" lon="6.3916">
        <ele>1292</ele>
        <time>2004-01-19T18:03:57Z</time>
      </trkpt>
      <trkpt lat="45.84048" lon="6.39164">
        <ele>1293</ele>
        <time>2004-01-19T18:03:57Z</time>
      </trkpt>
      <trkpt lat="45.84056" lon="6.3913">
        <ele>1274</ele>
        <time>2004-01-19T18:03:57Z</time>
      </trkpt>
      <trkpt lat="45.8403" lon="6.39001">
        <ele>1275</ele>
        <time>2004-01-19T18:03:57Z</time>
      </trkpt>
      <trkpt lat="45.84131" lon="6.38909">
        <ele>1257</ele>
        <time>2004-01-19T18:03:57Z</time>
      </trkpt>
      <trkpt lat="45.84196" lon="6.38909">
        <ele>1251</ele>
        <time>2004-01-19T18:03:57Z</time>
      </trkpt>
      <trkpt lat="45.84208" lon="6.38885">
        <ele>1246</ele>
        <time>2004-01-19T18:03:57Z</time>
      </trkpt>
      <trkpt lat="45.84208" lon="6.38782">
        <ele>1242</ele>
        <time>2004-01-19T18:03:57Z</time>
      </trkpt>
      <trkpt lat="45.84247" lon="6.38731">
        <ele>1240</ele>
        <time>2004-01-19T18:03:57Z</time>
      </trkpt>
      <trkpt lat="45.84335" lon="6.38746">
        <ele>1240</ele>
        <time>2004-01-19T18:03:57Z</time>
      </trkpt>
      <trkpt lat="45.84354" lon="6.38617">
        <ele>1231</ele>
        <time>2004-01-19T18:03:57Z</time>
      </trkpt>
      <trkpt lat="45.84382" lon="6.38578">
        <ele>1231</ele>
        <time>2004-01-19T18:03:57Z</time>
      </trkpt>
      <trkpt lat="45.84457" lon="6.38552">
        <ele>1230</ele>
        <time>2004-01-19T18:03:57Z</time>
      </trkpt>
      <trkpt lat="45.84472" lon="6.38357">
        <ele>1228</ele>
        <time>2004-01-19T18:03:57Z</time>
      </trkpt>
      <trkpt lat="45.84584" lon="6.38278">
        <ele>1211</ele>
        <time>2004-01-19T18:03:57Z</time>
      </trkpt>
      <trkpt lat="45.84633" lon="6.38085">
        <ele>1201</ele>
        <time>2004-01-19T18:03:57Z</time>
      </trkpt>
      <trkpt lat="45.84663" lon="6.38035">
        <ele>1201</ele>
        <time>2004-01-19T18:03:57Z</time>
      </trkpt>
      <trkpt lat="45.84723" lon="6.37984">
        <ele>1200</ele>
        <time>2004-01-19T18:03:57Z</time>
      </trkpt>
      <trkpt lat="45.84754" lon="6.37926">
        <ele>1197</ele>
        <time>2004-01-19T18:03:57Z</time>
      </trkpt>
      <trkpt lat="45.84805" lon="6.37711">
        <ele>1180</ele>
        <time>2004-01-19T18:03:57Z</time>
      </trkpt>
      <trkpt lat="45.84841" lon="6.37686">
        <ele>1179</ele>
        <time>2004-01-19T18:03:57Z</time>
      </trkpt>
      <trkpt lat="45.84925" lon="6.37713">
        <ele>1178</ele>
        <time>2004-01-19T18:03:57Z</time>
      </trkpt>
      <trkpt lat="45.84966" lon="6.37705">
        <ele>1177</ele>
        <time>2004-01-19T18:03:57Z</time>
      </trkpt>
      <trkpt lat="45.84998" lon="6.37568">
        <ele>1166</ele>
        <time>2004-01-19T18:03:57Z</time>
      </trkpt>
    </trkseg>
  </trk>
  <trk>
    <name><![CDATA[Plan Dessus]]></name>
    <trkseg>
      <trkpt lat="45.84203" lon="6.50641">
        <ele>979.6</ele>
        <time>2003-02-06T13:08:28Z</time>
      </trkpt>
      <trkpt lat="45.84315" lon="6.50414">
        <ele>978.8</ele>
        <time>2003-02-06T13:08:28Z</time>
      </trkpt>
      <trkpt lat="45.84132" lon="6.50529">
        <ele>996.8</ele>
        <time>2003-02-06T13:08:28Z</time>
      </trkpt>
      <trkpt lat="45.84026" lon="6.50483">
        <ele>1012.6</ele>
        <time>2003-02-06T13:08:28Z</time>
      </trkpt>
      <trkpt lat="45.83874" lon="6.50584">
        <ele>1030.6</ele>
        <time>2003-02-06T13:08:28Z</time>
      </trkpt>
      <trkpt lat="45.83745" lon="6.5059">
        <ele>1038.8</ele>
        <time>2003-02-06T13:08:28Z</time>
      </trkpt>
      <trkpt lat="45.83708" lon="6.50504">
        <ele>1052.8</ele>
        <time>2003-02-06T13:08:28Z</time>
      </trkpt>
      <trkpt lat="45.83816" lon="6.50499">
        <ele>1063.9</ele>
        <time>2003-02-06T13:08:28Z</time>
      </trkpt>
      <trkpt lat="45.8371" lon="6.50427">
        <ele>1080.7</ele>
        <time>2003-02-06T13:08:28Z</time>
      </trkpt>
      <trkpt lat="45.83849" lon="6.50386">
        <ele>1100.1</ele>
        <time>2003-02-06T13:08:28Z</time>
      </trkpt>
      <trkpt lat="45.83947" lon="6.50235">
        <ele>1115.6</ele>
        <time>2003-02-06T13:08:28Z</time>
      </trkpt>
      <trkpt lat="45.83948" lon="6.50151">
        <ele>1125.9</ele>
        <time>2003-02-06T13:08:28Z</time>
      </trkpt>
      <trkpt lat="45.84072" lon="6.49977">
        <ele>1150.3</ele>
        <time>2003-02-06T13:08:28Z</time>
      </trkpt>
      <trkpt lat="45.84074" lon="6.49922">
        <ele>1171.3</ele>
        <time>2003-02-06T13:08:28Z</time>
      </trkpt>
      <trkpt lat="45.84125" lon="6.49888">
        <ele>1188.5</ele>
        <time>2003-02-06T13:08:28Z</time>
      </trkpt>
      <trkpt lat="45.84072" lon="6.4979">
        <ele>1224.3</ele>
        <time>2003-02-06T13:08:28Z</time>
      </trkpt>
      <trkpt lat="45.84162" lon="6.496">
        <ele>1265.7</ele>
        <time>2003-02-06T13:08:28Z</time>
      </trkpt>
      <trkpt lat="45.84333" lon="6.49552">
        <ele>1273.8</ele>
        <time>2003-02-06T13:08:28Z</time>
      </trkpt>
      <trkpt lat="45.84488" lon="6.49435">
        <ele>1292.1</ele>
        <time>2003-02-06T13:08:28Z</time>
      </trkpt>
      <trkpt lat="45.84798" lon="6.4941">
        <ele>1338.3</ele>
        <time>2003-02-06T13:08:28Z</time>
      </trkpt>
      <trkpt lat="45.84872" lon="6.4899">
        <ele>1324.9</ele>
        <time>2003-02-06T13:08:28Z</time>
      </trkpt>
      <trkpt lat="45.84836" lon="6.48855">
        <ele>1325.4</ele>
        <time>2003-02-06T13:08:28Z</time>
      </trkpt>
      <trkpt lat="45.84405" lon="6.48156">
        <ele>1364.1</ele>
        <time>2003-02-06T13:08:28Z</time>
      </trkpt>
      <trkpt lat="45.84475" lon="6.47726">
        <ele>1374.7</ele>
        <time>2003-02-06T13:08:28Z</time>
      </trkpt>
      <trkpt lat="45.84442" lon="6.47275">
        <ele>1399.2</ele>
        <time>2003-02-06T13:08:28Z</time>
      </trkpt>
      <trkpt lat="45.84549" lon="6.46997">
        <ele>1432.6</ele>
        <time>2003-02-06T13:08:28Z</time>
      </trkpt>
      <trkpt lat="45.84537" lon="6.46841">
        <ele>1461.9</ele>
        <time>2003-02-06T13:08:28Z</time>
      </trkpt>
      <trkpt lat="45.84474" lon="6.46707">
        <ele>1499.1</ele>
        <time>2003-02-06T13:08:28Z</time>
      </trkpt>
      <trkpt lat="45.84373" lon="6.46584">
        <ele>1522.4</ele>
        <time>2003-02-06T13:08:28Z</time>
      </trkpt>
      <trkpt lat="45.84248" lon="6.46487">
        <ele>1562.3</ele>
        <time>2003-02-06T13:08:28Z</time>
      </trkpt>
      <trkpt lat="45.84139" lon="6.46373">
        <ele>1614.6</ele>
        <time>2003-02-06T13:08:28Z</time>
      </trkpt>
      <trkpt lat="45.84077" lon="6.4623">
        <ele>1655.4</ele>
        <time>2003-02-06T13:08:28Z</time>
      </trkpt>
      <trkpt lat="45.83949" lon="6.46223">
        <ele>1666.6</ele>
        <time>2003-02-06T13:08:28Z</time>
      </trkpt>
      <trkpt lat="45.83903" lon="6.46175">
        <ele>1672.6</ele>
        <time>2003-02-06T13:08:28Z</time>
      </trkpt>
      <trkpt lat="45.83825" lon="6.46291">
        <ele>1684.8</ele>
        <time>2003-02-06T13:08:28Z</time>
      </trkpt>
      <trkpt lat="45.83688" lon="6.46394">
        <ele>1693.8</ele>
        <time>2003-02-06T13:08:28Z</time>
      </trkpt>
      <trkpt lat="45.83669" lon="6.46737">
        <ele>1710.2</ele>
        <time>2003-02-06T13:08:28Z</time>
      </trkpt>
      <trkpt lat="45.83605" lon="6.46813">
        <ele>1710.6</ele>
        <time>2003-02-06T13:08:28Z</time>
      </trkpt>
      <trkpt lat="45.83518" lon="6.46967">
        <ele>1745</ele>
        <time>2003-02-06T13:08:28Z</time>
      </trkpt>
      <trkpt lat="45.8349" lon="6.47178">
        <ele>1772.5</ele>
        <time>2003-02-06T13:08:28Z</time>
      </trkpt>
      <trkpt lat="45.83557" lon="6.47515">
        <ele>1802.9</ele>
        <time>2003-02-06T13:08:28Z</time>
      </trkpt>
      <trkpt lat="45.83642" lon="6.47705">
        <ele>1804.9</ele>
        <time>2003-02-06T13:08:28Z</time>
      </trkpt>
      <trkpt lat="45.83653" lon="6.47912">
        <ele>1829.7</ele>
        <time>2003-02-06T13:08:28Z</time>
      </trkpt>
      <trkpt lat="45.83778" lon="6.48118">
        <ele>1807.5</ele>
        <time>2003-02-06T13:08:28Z</time>
      </trkpt>
      <trkpt lat="45.8382" lon="6.48366">
        <ele>1830.8</ele>
        <time>2003-02-06T13:08:28Z</time>
      </trkpt>
      <trkpt lat="45.83867" lon="6.48508">
        <ele>1778.1</ele>
        <time>2003-02-06T13:08:28Z</time>
      </trkpt>
      <trkpt lat="45.83936" lon="6.48665">
        <ele>1719.7</ele>
        <time>2003-02-06T13:08:28Z</time>
      </trkpt>
      <trkpt lat="45.83959" lon="6.48824">
        <ele>1656.8</ele>
        <time>2003-02-06T13:08:28Z</time>
      </trkpt>
      <trkpt lat="45.84027" lon="6.48991">
        <ele>1582.8</ele>
        <time>2003-02-06T13:08:28Z</time>
      </trkpt>
      <trkpt lat="45.84112" lon="6.48952">
        <ele>1553.4</ele>
        <time>2003-02-06T13:08:28Z</time>
      </trkpt>
      <trkpt lat="45.842" lon="6.48949">
        <ele>1571.7</ele>
        <time>2003-02-06T13:08:28Z</time>
      </trkpt>
      <trkpt lat="45.84338" lon="6.4894">
        <ele>1544.1</ele>
        <time>2003-02-06T13:08:28Z</time>
      </trkpt>
      <trkpt lat="45.8444" lon="6.48967">
        <ele>1527.5</ele>
        <time>2003-02-06T13:08:28Z</time>
      </trkpt>
      <trkpt lat="45.84532" lon="6.49045">
        <ele>1465.8</ele>
        <time>2003-02-06T13:08:28Z</time>
      </trkpt>
      <trkpt lat="45.84647" lon="6.49173">
        <ele>1406.7</ele>
        <time>2003-02-06T13:08:28Z</time>
      </trkpt>
      <trkpt lat="45.84791" lon="6.49406">
        <ele>1339.4</ele>
        <time>2003-02-06T13:08:28Z</time>
      </trkpt>
      <trkpt lat="45.84465" lon="6.49446">
        <ele>1289</ele>
        <time>2003-02-06T13:08:28Z</time>
      </trkpt>
      <trkpt lat="45.84305" lon="6.49569">
        <ele>1273.5</ele>
        <time>2003-02-06T13:08:28Z</time>
      </trkpt>
      <trkpt lat="45.8416" lon="6.496">
        <ele>1266.2</ele>
        <time>2003-02-06T13:08:28Z</time>
      </trkpt>
      <trkpt lat="45.84065" lon="6.49793">
        <ele>1221.7</ele>
        <time>2003-02-06T13:08:28Z</time>
      </trkpt>
      <trkpt lat="45.84124" lon="6.49894">
        <ele>1185.6</ele>
        <time>2003-02-06T13:08:28Z</time>
      </trkpt>
      <trkpt lat="45.84072" lon="6.49922">
        <ele>1170.7</ele>
        <time>2003-02-06T13:08:28Z</time>
      </trkpt>
      <trkpt lat="45.84072" lon="6.4998">
        <ele>1149.1</ele>
        <time>2003-02-06T13:08:28Z</time>
      </trkpt>
      <trkpt lat="45.83951" lon="6.50148">
        <ele>1125.9</ele>
        <time>2003-02-06T13:08:28Z</time>
      </trkpt>
      <trkpt lat="45.83945" lon="6.50241">
        <ele>1116</ele>
        <time>2003-02-06T13:08:28Z</time>
      </trkpt>
      <trkpt lat="45.83856" lon="6.50383">
        <ele>1101.5</ele>
        <time>2003-02-06T13:08:28Z</time>
      </trkpt>
      <trkpt lat="45.83706" lon="6.50426">
        <ele>1081.3</ele>
        <time>2003-02-06T13:08:28Z</time>
      </trkpt>
      <trkpt lat="45.83813" lon="6.50502">
        <ele>1063.1</ele>
        <time>2003-02-06T13:08:28Z</time>
      </trkpt>
      <trkpt lat="45.83708" lon="6.50504">
        <ele>1052.8</ele>
        <time>2003-02-06T13:08:28Z</time>
      </trkpt>
      <trkpt lat="45.83743" lon="6.50584">
        <ele>1040.6</ele>
        <time>2003-02-06T13:08:28Z</time>
      </trkpt>
      <trkpt lat="45.83876" lon="6.50584">
        <ele>1030.1</ele>
        <time>2003-02-06T13:08:28Z</time>
      </trkpt>
      <trkpt lat="45.84033" lon="6.50483">
        <ele>1011.6</ele>
        <time>2003-02-06T13:08:28Z</time>
      </trkpt>
      <trkpt lat="45.8413" lon="6.50529">
        <ele>997.2</ele>
        <time>2003-02-06T13:08:28Z</time>
      </trkpt>
      <trkpt lat="45.84317" lon="6.50418">
        <ele>978.5</ele>
        <time>2003-02-06T13:08:28Z</time>
      </trkpt>
      <trkpt lat="45.84205" lon="6.50638">
        <ele>978.4</ele>
        <time>2003-02-06T13:08:28Z</time>
      </trkpt>
    </trkseg>
  </trk>
  <trk>
    <name><![CDATA[Riondaz]]></name>
    <trkseg>
      <trkpt lat="45.84983" lon="6.37634">
        <ele>1172</ele>
        <time>2004-01-19T18:03:57Z</time>
      </trkpt>
      <trkpt lat="45.84977" lon="6.37677">
        <ele>1175</ele>
        <time>2004-01-19T18:03:57Z</time>
      </trkpt>
      <trkpt lat="45.84951" lon="6.37713">
        <ele>1178</ele>
        <time>2004-01-19T18:03:57Z</time>
      </trkpt>
      <trkpt lat="45.84841" lon="6.37677">
        <ele>1179</ele>
        <time>2004-01-19T18:03:57Z</time>
      </trkpt>
      <trkpt lat="45.84807" lon="6.37698">
        <ele>1181</ele>
        <time>2004-01-19T18:03:57Z</time>
      </trkpt>
      <trkpt lat="45.84745" lon="6.37941">
        <ele>1195</ele>
        <time>2004-01-19T18:03:57Z</time>
      </trkpt>
      <trkpt lat="45.84713" lon="6.37995">
        <ele>1198</ele>
        <time>2004-01-19T18:03:57Z</time>
      </trkpt>
      <trkpt lat="45.84657" lon="6.38035">
        <ele>1200</ele>
        <time>2004-01-19T18:03:57Z</time>
      </trkpt>
      <trkpt lat="45.8464" lon="6.38065">
        <ele>1203</ele>
        <time>2004-01-19T18:03:57Z</time>
      </trkpt>
      <trkpt lat="45.8458" lon="6.38297">
        <ele>1207</ele>
        <time>2004-01-19T18:03:57Z</time>
      </trkpt>
      <trkpt lat="45.84524" lon="6.38351">
        <ele>1210</ele>
        <time>2004-01-19T18:03:57Z</time>
      </trkpt>
      <trkpt lat="45.84481" lon="6.38357">
        <ele>1209</ele>
        <time>2004-01-19T18:03:57Z</time>
      </trkpt>
      <trkpt lat="45.84453" lon="6.38499">
        <ele>1212</ele>
        <time>2004-01-19T18:03:57Z</time>
      </trkpt>
      <trkpt lat="45.84376" lon="6.38561">
        <ele>1217</ele>
        <time>2004-01-19T18:03:57Z</time>
      </trkpt>
      <trkpt lat="45.84303" lon="6.38731">
        <ele>1230</ele>
        <time>2004-01-19T18:03:57Z</time>
      </trkpt>
      <trkpt lat="45.84234" lon="6.38739">
        <ele>1238</ele>
        <time>2004-01-19T18:03:57Z</time>
      </trkpt>
      <trkpt lat="45.84187" lon="6.38821">
        <ele>1233</ele>
        <time>2004-01-19T18:03:57Z</time>
      </trkpt>
      <trkpt lat="45.84219" lon="6.38921">
        <ele>1232</ele>
        <time>2004-01-19T18:03:57Z</time>
      </trkpt>
      <trkpt lat="45.84286" lon="6.38937">
        <ele>1246</ele>
        <time>2004-01-19T18:03:57Z</time>
      </trkpt>
      <trkpt lat="45.84288" lon="6.38958">
        <ele>1245</ele>
        <time>2004-01-19T18:03:57Z</time>
      </trkpt>
      <trkpt lat="45.84243" lon="6.39029">
        <ele>1260</ele>
        <time>2004-01-19T18:03:57Z</time>
      </trkpt>
      <trkpt lat="45.84204" lon="6.39067">
        <ele>1267</ele>
        <time>2004-01-19T18:03:57Z</time>
      </trkpt>
      <trkpt lat="45.84133" lon="6.39108">
        <ele>1279</ele>
        <time>2004-01-19T18:03:57Z</time>
      </trkpt>
      <trkpt lat="45.84082" lon="6.39108">
        <ele>1283</ele>
        <time>2004-01-19T18:03:57Z</time>
      </trkpt>
      <trkpt lat="45.84118" lon="6.39164">
        <ele>1280</ele>
        <time>2004-01-19T18:03:57Z</time>
      </trkpt>
      <trkpt lat="45.84108" lon="6.39183">
        <ele>1285</ele>
        <time>2004-01-19T18:03:57Z</time>
      </trkpt>
      <trkpt lat="45.84048" lon="6.3923">
        <ele>1305</ele>
        <time>2004-01-19T18:03:57Z</time>
      </trkpt>
      <trkpt lat="45.84007" lon="6.39235">
        <ele>1311</ele>
        <time>2004-01-19T18:03:57Z</time>
      </trkpt>
      <trkpt lat="45.83827" lon="6.39327">
        <ele>1331</ele>
        <time>2004-01-19T18:03:57Z</time>
      </trkpt>
      <trkpt lat="45.83749" lon="6.39299">
        <ele>1347</ele>
        <time>2004-01-19T18:03:57Z</time>
      </trkpt>
      <trkpt lat="45.83601" lon="6.39299">
        <ele>1356</ele>
        <time>2004-01-19T18:03:57Z</time>
      </trkpt>
      <trkpt lat="45.83494" lon="6.39261">
        <ele>1367</ele>
        <time>2004-01-19T18:03:57Z</time>
      </trkpt>
      <trkpt lat="45.83382" lon="6.39306">
        <ele>1368</ele>
        <time>2004-01-19T18:03:57Z</time>
      </trkpt>
      <trkpt lat="45.83277" lon="6.39273">
        <ele>1382</ele>
        <time>2004-01-19T18:03:57Z</time>
      </trkpt>
      <trkpt lat="45.83284" lon="6.39346">
        <ele>1384</ele>
        <time>2004-01-19T18:03:57Z</time>
      </trkpt>
      <trkpt lat="45.8326" lon="6.39415">
        <ele>1389</ele>
        <time>2004-01-19T18:03:57Z</time>
      </trkpt>
      <trkpt lat="45.83241" lon="6.39434">
        <ele>1396</ele>
        <time>2004-01-19T18:03:57Z</time>
      </trkpt>
      <trkpt lat="45.83138" lon="6.39449">
        <ele>1415</ele>
        <time>2004-01-19T18:03:57Z</time>
      </trkpt>
      <trkpt lat="45.83093" lon="6.39482">
        <ele>1416</ele>
        <time>2004-01-19T18:03:57Z</time>
      </trkpt>
      <trkpt lat="45.8302" lon="6.39452">
        <ele>1441</ele>
        <time>2004-01-19T18:03:57Z</time>
      </trkpt>
      <trkpt lat="45.82949" lon="6.39518">
        <ele>1447</ele>
        <time>2004-01-19T18:03:57Z</time>
      </trkpt>
      <trkpt lat="45.8294" lon="6.39499">
        <ele>1454</ele>
        <time>2004-01-19T18:03:57Z</time>
      </trkpt>
      <trkpt lat="45.82917" lon="6.39486">
        <ele>1460</ele>
        <time>2004-01-19T18:03:57Z</time>
      </trkpt>
      <trkpt lat="45.82859" lon="6.39473">
        <ele>1451</ele>
        <time>2004-01-19T18:03:57Z</time>
      </trkpt>
      <trkpt lat="45.82878" lon="6.39475">
        <ele>1471</ele>
        <time>2004-01-19T18:03:57Z</time>
      </trkpt>
      <trkpt lat="45.82842" lon="6.39479">
        <ele>1466</ele>
        <time>2004-01-19T18:03:57Z</time>
      </trkpt>
      <trkpt lat="45.82788" lon="6.39518">
        <ele>1478</ele>
        <time>2004-01-19T18:03:57Z</time>
      </trkpt>
      <trkpt lat="45.82764" lon="6.39561">
        <ele>1485</ele>
        <time>2004-01-19T18:03:57Z</time>
      </trkpt>
      <trkpt lat="45.82756" lon="6.3955">
        <ele>1487</ele>
        <time>2004-01-19T18:03:57Z</time>
      </trkpt>
      <trkpt lat="45.82709" lon="6.3964">
        <ele>1505</ele>
        <time>2004-01-19T18:03:57Z</time>
      </trkpt>
      <trkpt lat="45.82659" lon="6.39673">
        <ele>1519</ele>
        <time>2004-01-19T18:03:57Z</time>
      </trkpt>
      <trkpt lat="45.82659" lon="6.3972">
        <ele>1524</ele>
        <time>2004-01-19T18:03:57Z</time>
      </trkpt>
      <trkpt lat="45.82629" lon="6.39776">
        <ele>1539</ele>
        <time>2004-01-19T18:03:57Z</time>
      </trkpt>
      <trkpt lat="45.82625" lon="6.39838">
        <ele>1550</ele>
        <time>2004-01-19T18:03:57Z</time>
      </trkpt>
      <trkpt lat="45.82582" lon="6.39876">
        <ele>1565</ele>
        <time>2004-01-19T18:03:57Z</time>
      </trkpt>
      <trkpt lat="45.82588" lon="6.40007">
        <ele>1590</ele>
        <time>2004-01-19T18:03:57Z</time>
      </trkpt>
      <trkpt lat="45.82571" lon="6.40024">
        <ele>1595</ele>
        <time>2004-01-19T18:03:57Z</time>
      </trkpt>
      <trkpt lat="45.82588" lon="6.4008">
        <ele>1604</ele>
        <time>2004-01-19T18:03:57Z</time>
      </trkpt>
      <trkpt lat="45.82593" lon="6.40185">
        <ele>1620</ele>
        <time>2004-01-19T18:03:57Z</time>
      </trkpt>
      <trkpt lat="45.82567" lon="6.402">
        <ele>1629</ele>
        <time>2004-01-19T18:03:57Z</time>
      </trkpt>
      <trkpt lat="45.82554" lon="6.40239">
        <ele>1636</ele>
        <time>2004-01-19T18:03:57Z</time>
      </trkpt>
      <trkpt lat="45.82554" lon="6.40503">
        <ele>1676</ele>
        <time>2004-01-19T18:03:57Z</time>
      </trkpt>
      <trkpt lat="45.82582" lon="6.40529">
        <ele>1688</ele>
        <time>2004-01-19T18:03:57Z</time>
      </trkpt>
      <trkpt lat="45.8261" lon="6.40606">
        <ele>1696</ele>
        <time>2004-01-19T18:03:57Z</time>
      </trkpt>
      <trkpt lat="45.82655" lon="6.4066">
        <ele>1711</ele>
        <time>2004-01-19T18:03:57Z</time>
      </trkpt>
      <trkpt lat="45.82689" lon="6.40599">
        <ele>1724</ele>
        <time>2004-01-19T18:03:57Z</time>
      </trkpt>
      <trkpt lat="45.82831" lon="6.40572">
        <ele>1752</ele>
        <time>2004-01-19T18:03:57Z</time>
      </trkpt>
      <trkpt lat="45.82885" lon="6.4061">
        <ele>1729</ele>
        <time>2004-01-19T18:03:57Z</time>
      </trkpt>
      <trkpt lat="45.829" lon="6.40597">
        <ele>1716</ele>
        <time>2004-01-19T18:03:57Z</time>
      </trkpt>
      <trkpt lat="45.82921" lon="6.40627">
        <ele>1708</ele>
        <time>2004-01-19T18:03:57Z</time>
      </trkpt>
      <trkpt lat="45.83022" lon="6.40524">
        <ele>1664</ele>
        <time>2004-01-19T18:03:57Z</time>
      </trkpt>
      <trkpt lat="45.83093" lon="6.40548">
        <ele>1636</ele>
        <time>2004-01-19T18:03:57Z</time>
      </trkpt>
      <trkpt lat="45.83269" lon="6.40417">
        <ele>1593</ele>
        <time>2004-01-19T18:03:57Z</time>
      </trkpt>
      <trkpt lat="45.83292" lon="6.40436">
        <ele>1598</ele>
        <time>2004-01-19T18:03:57Z</time>
      </trkpt>
      <trkpt lat="45.8344" lon="6.40327">
        <ele>1532</ele>
        <time>2004-01-19T18:03:57Z</time>
      </trkpt>
      <trkpt lat="45.83475" lon="6.40293">
        <ele>1510</ele>
        <time>2004-01-19T18:03:57Z</time>
      </trkpt>
      <trkpt lat="45.83475" lon="6.4025">
        <ele>1506</ele>
        <time>2004-01-19T18:03:57Z</time>
      </trkpt>
      <trkpt lat="45.83494" lon="6.40252">
        <ele>1504</ele>
        <time>2004-01-19T18:03:57Z</time>
      </trkpt>
      <trkpt lat="45.83518" lon="6.40303">
        <ele>1493</ele>
        <time>2004-01-19T18:03:57Z</time>
      </trkpt>
      <trkpt lat="45.8352" lon="6.4022">
        <ele>1486</ele>
        <time>2004-01-19T18:03:57Z</time>
      </trkpt>
      <trkpt lat="45.83468" lon="6.40147">
        <ele>1478</ele>
        <time>2004-01-19T18:03:57Z</time>
      </trkpt>
      <trkpt lat="45.83528" lon="6.40151">
        <ele>1461</ele>
        <time>2004-01-19T18:03:57Z</time>
      </trkpt>
      <trkpt lat="45.835" lon="6.40076">
        <ele>1446</ele>
        <time>2004-01-19T18:03:57Z</time>
      </trkpt>
      <trkpt lat="45.83455" lon="6.40078">
        <ele>1446</ele>
        <time>2004-01-19T18:03:57Z</time>
      </trkpt>
      <trkpt lat="45.83412" lon="6.40054">
        <ele>1443</ele>
        <time>2004-01-19T18:03:57Z</time>
      </trkpt>
      <trkpt lat="45.83378" lon="6.39984">
        <ele>1427</ele>
        <time>2004-01-19T18:03:57Z</time>
      </trkpt>
      <trkpt lat="45.83337" lon="6.39958">
        <ele>1424</ele>
        <time>2004-01-19T18:03:57Z</time>
      </trkpt>
      <trkpt lat="45.83241" lon="6.39943">
        <ele>1423</ele>
        <time>2004-01-19T18:03:57Z</time>
      </trkpt>
      <trkpt lat="45.83239" lon="6.39928">
        <ele>1422</ele>
        <time>2004-01-19T18:03:57Z</time>
      </trkpt>
      <trkpt lat="45.83266" lon="6.39904">
        <ele>1428</ele>
        <time>2004-01-19T18:03:57Z</time>
      </trkpt>
      <trkpt lat="45.83221" lon="6.39863">
        <ele>1419</ele>
        <time>2004-01-19T18:03:57Z</time>
      </trkpt>
      <trkpt lat="45.83099" lon="6.39816">
        <ele>1418</ele>
        <time>2004-01-19T18:03:57Z</time>
      </trkpt>
      <trkpt lat="45.83086" lon="6.39776">
        <ele>1409</ele>
        <time>2004-01-19T18:03:57Z</time>
      </trkpt>
      <trkpt lat="45.83054" lon="6.39745">
        <ele>1405</ele>
        <time>2004-01-19T18:03:57Z</time>
      </trkpt>
      <trkpt lat="45.83056" lon="6.39673">
        <ele>1395</ele>
        <time>2004-01-19T18:03:57Z</time>
      </trkpt>
      <trkpt lat="45.8302" lon="6.39668">
        <ele>1393</ele>
        <time>2004-01-19T18:03:57Z</time>
      </trkpt>
      <trkpt lat="45.83026" lon="6.39645">
        <ele>1392</ele>
        <time>2004-01-19T18:03:57Z</time>
      </trkpt>
      <trkpt lat="45.83086" lon="6.39636">
        <ele>1392</ele>
        <time>2004-01-19T18:03:57Z</time>
      </trkpt>
      <trkpt lat="45.83138" lon="6.3957">
        <ele>1392</ele>
        <time>2004-01-19T18:03:57Z</time>
      </trkpt>
      <trkpt lat="45.83179" lon="6.39563">
        <ele>1394</ele>
        <time>2004-01-19T18:03:57Z</time>
      </trkpt>
      <trkpt lat="45.83215" lon="6.39527">
        <ele>1392</ele>
        <time>2004-01-19T18:03:57Z</time>
      </trkpt>
      <trkpt lat="45.83215" lon="6.39505">
        <ele>1392</ele>
        <time>2004-01-19T18:03:57Z</time>
      </trkpt>
      <trkpt lat="45.83161" lon="6.39473">
        <ele>1396</ele>
        <time>2004-01-19T18:03:57Z</time>
      </trkpt>
      <trkpt lat="45.83213" lon="6.39436">
        <ele>1397</ele>
        <time>2004-01-19T18:03:57Z</time>
      </trkpt>
      <trkpt lat="45.83234" lon="6.39278">
        <ele>1378</ele>
        <time>2004-01-19T18:03:57Z</time>
      </trkpt>
      <trkpt lat="45.83204" lon="6.39261">
        <ele>1391</ele>
        <time>2004-01-19T18:03:57Z</time>
      </trkpt>
      <trkpt lat="45.83209" lon="6.39237">
        <ele>1391</ele>
        <time>2004-01-19T18:03:57Z</time>
      </trkpt>
      <trkpt lat="45.83322" lon="6.39175">
        <ele>1388</ele>
        <time>2004-01-19T18:03:57Z</time>
      </trkpt>
      <trkpt lat="45.83462" lon="6.39188">
        <ele>1368</ele>
        <time>2004-01-19T18:03:57Z</time>
      </trkpt>
      <trkpt lat="45.83569" lon="6.39226">
        <ele>1360</ele>
        <time>2004-01-19T18:03:57Z</time>
      </trkpt>
      <trkpt lat="45.8373" lon="6.39166">
        <ele>1351</ele>
        <time>2004-01-19T18:03:57Z</time>
      </trkpt>
      <trkpt lat="45.83865" lon="6.39155">
        <ele>1331</ele>
        <time>2004-01-19T18:03:57Z</time>
      </trkpt>
      <trkpt lat="45.83977" lon="6.392">
        <ele>1306</ele>
        <time>2004-01-19T18:03:57Z</time>
      </trkpt>
      <trkpt lat="45.84022" lon="6.3916">
        <ele>1292</ele>
        <time>2004-01-19T18:03:57Z</time>
      </trkpt>
      <trkpt lat="45.84048" lon="6.39164">
        <ele>1293</ele>
        <time>2004-01-19T18:03:57Z</time>
      </trkpt>
      <trkpt lat="45.84056" lon="6.3913">
        <ele>1274</ele>
        <time>2004-01-19T18:03:57Z</time>
      </trkpt>
      <trkpt lat="45.8403" lon="6.39001">
        <ele>1275</ele>
        <time>2004-01-19T18:03:57Z</time>
      </trkpt>
      <trkpt lat="45.84131" lon="6.38909">
        <ele>1257</ele>
        <time>2004-01-19T18:03:57Z</time>
      </trkpt>
      <trkpt lat="45.84196" lon="6.38909">
        <ele>1251</ele>
        <time>2004-01-19T18:03:57Z</time>
      </trkpt>
      <trkpt lat="45.84208" lon="6.38782">
        <ele>1242</ele>
        <time>2004-01-19T18:03:57Z</time>
      </trkpt>
      <trkpt lat="45.84247" lon="6.38731">
        <ele>1240</ele>
        <time>2004-01-19T18:03:57Z</time>
      </trkpt>
      <trkpt lat="45.84335" lon="6.38746">
        <ele>1240</ele>
        <time>2004-01-19T18:03:57Z</time>
      </trkpt>
      <trkpt lat="45.84354" lon="6.38617">
        <ele>1231</ele>
        <time>2004-01-19T18:03:57Z</time>
      </trkpt>
      <trkpt lat="45.84382" lon="6.38578">
        <ele>1231</ele>
        <time>2004-01-19T18:03:57Z</time>
      </trkpt>
      <trkpt lat="45.84457" lon="6.38552">
        <ele>1230</ele>
        <time>2004-01-19T18:03:57Z</time>
      </trkpt>
      <trkpt lat="45.84472" lon="6.38357">
        <ele>1228</ele>
        <time>2004-01-19T18:03:57Z</time>
      </trkpt>
      <trkpt lat="45.84584" lon="6.38278">
        <ele>1211</ele>
        <time>2004-01-19T18:03:57Z</time>
      </trkpt>
      <trkpt lat="45.84633" lon="6.38085">
        <ele>1201</ele>
        <time>2004-01-19T18:03:57Z</time>
      </trkpt>
      <trkpt lat="45.84663" lon="6.38035">
        <ele>1201</ele>
        <time>2004-01-19T18:03:57Z</time>
      </trkpt>
      <trkpt lat="45.84723" lon="6.37984">
        <ele>1200</ele>
        <time>2004-01-19T18:03:57Z</time>
      </trkpt>
      <trkpt lat="45.84754" lon="6.37926">
        <ele>1197</ele>
        <time>2004-01-19T18:03:57Z</time>
      </trkpt>
      <trkpt lat="45.84805" lon="6.37711">
        <ele>1180</ele>
        <time>2004-01-19T18:03:57Z</time>
      </trkpt>
      <trkpt lat="45.84841" lon="6.37686">
        <ele>1179</ele>
        <time>2004-01-19T18:03:57Z</time>
      </trkpt>
      <trkpt lat="45.84925" lon="6.37713">
        <ele>1178</ele>
        <time>2004-01-19T18:03:57Z</time>
      </trkpt>
      <trkpt lat="45.84966" lon="6.37705">
        <ele>1177</ele>
        <time>2004-01-19T18:03:57Z</time>
      </trkpt>
      <trkpt lat="45.84998" lon="6.37568">
        <ele>1166</ele>
        <time>2004-01-19T18:03:57Z</time>
      </trkpt>
    </trkseg>
  </trk>
  <trk>
    <name><![CDATA[Roc des Tours]]></name>
    <trkseg>
      <trkpt lat="45.9745" lon="6.45355">
        <ele>1368</ele>
        <time>2003-02-06T13:08:28Z</time>
      </trkpt>
      <trkpt lat="45.97437" lon="6.45357">
        <ele>1352</ele>
        <time>2003-02-06T13:08:28Z</time>
      </trkpt>
      <trkpt lat="45.97437" lon="6.45239">
        <ele>1357</ele>
        <time>2003-02-06T13:08:28Z</time>
      </trkpt>
      <trkpt lat="45.97508" lon="6.45303">
        <ele>1370</ele>
        <time>2003-02-06T13:08:28Z</time>
      </trkpt>
      <trkpt lat="45.97596" lon="6.45322">
        <ele>1390</ele>
        <time>2003-02-06T13:08:28Z</time>
      </trkpt>
      <trkpt lat="45.97549" lon="6.45155">
        <ele>1423</ele>
        <time>2003-02-06T13:08:28Z</time>
      </trkpt>
      <trkpt lat="45.97557" lon="6.45144">
        <ele>1425</ele>
        <time>2003-02-06T13:08:28Z</time>
      </trkpt>
      <trkpt lat="45.97617" lon="6.45181">
        <ele>1435</ele>
        <time>2003-02-06T13:08:28Z</time>
      </trkpt>
      <trkpt lat="45.97613" lon="6.45084">
        <ele>1447</ele>
        <time>2003-02-06T13:08:28Z</time>
      </trkpt>
      <trkpt lat="45.97705" lon="6.44992">
        <ele>1464</ele>
        <time>2003-02-06T13:08:28Z</time>
      </trkpt>
      <trkpt lat="45.97864" lon="6.44773">
        <ele>1494</ele>
        <time>2003-02-06T13:08:28Z</time>
      </trkpt>
      <trkpt lat="45.97935" lon="6.44756">
        <ele>1520</ele>
        <time>2003-02-06T13:08:28Z</time>
      </trkpt>
      <trkpt lat="45.97952" lon="6.44726">
        <ele>1524</ele>
        <time>2003-02-06T13:08:28Z</time>
      </trkpt>
      <trkpt lat="45.97991" lon="6.44694">
        <ele>1523</ele>
        <time>2003-02-06T13:08:28Z</time>
      </trkpt>
      <trkpt lat="45.98068" lon="6.44653">
        <ele>1529</ele>
        <time>2003-02-06T13:08:28Z</time>
      </trkpt>
      <trkpt lat="45.98074" lon="6.44603">
        <ele>1573</ele>
        <time>2003-02-06T13:08:28Z</time>
      </trkpt>
      <trkpt lat="45.98079" lon="6.44548">
        <ele>1580</ele>
        <time>2003-02-06T13:08:28Z</time>
      </trkpt>
      <trkpt lat="45.98068" lon="6.4447">
        <ele>1580</ele>
        <time>2003-02-06T13:08:28Z</time>
      </trkpt>
      <trkpt lat="45.98085" lon="6.44434">
        <ele>1591</ele>
        <time>2003-02-06T13:08:28Z</time>
      </trkpt>
      <trkpt lat="45.98068" lon="6.44406">
        <ele>1593</ele>
        <time>2003-02-06T13:08:28Z</time>
      </trkpt>
      <trkpt lat="45.97995" lon="6.44382">
        <ele>1611</ele>
        <time>2003-02-06T13:08:28Z</time>
      </trkpt>
      <trkpt lat="45.97997" lon="6.44269">
        <ele>1632</ele>
        <time>2003-02-06T13:08:28Z</time>
      </trkpt>
      <trkpt lat="45.98001" lon="6.44168">
        <ele>1634</ele>
        <time>2003-02-06T13:08:28Z</time>
      </trkpt>
      <trkpt lat="45.97971" lon="6.44138">
        <ele>1645</ele>
        <time>2003-02-06T13:08:28Z</time>
      </trkpt>
      <trkpt lat="45.97939" lon="6.44091">
        <ele>1671</ele>
        <time>2003-02-06T13:08:28Z</time>
      </trkpt>
      <trkpt lat="45.97954" lon="6.44033">
        <ele>1674</ele>
        <time>2003-02-06T13:08:28Z</time>
      </trkpt>
      <trkpt lat="45.97948" lon="6.44001">
        <ele>1680</ele>
        <time>2003-02-06T13:08:28Z</time>
      </trkpt>
      <trkpt lat="45.97976" lon="6.43919">
        <ele>1686</ele>
        <time>2003-02-06T13:08:28Z</time>
      </trkpt>
      <trkpt lat="45.97954" lon="6.43872">
        <ele>1743</ele>
        <time>2003-02-06T13:08:28Z</time>
      </trkpt>
      <trkpt lat="45.97965" lon="6.43773">
        <ele>1777</ele>
        <time>2003-02-06T13:08:28Z</time>
      </trkpt>
      <trkpt lat="45.97967" lon="6.43709">
        <ele>1778</ele>
        <time>2003-02-06T13:08:28Z</time>
      </trkpt>
      <trkpt lat="45.97946" lon="6.43614">
        <ele>1781</ele>
        <time>2003-02-06T13:08:28Z</time>
      </trkpt>
      <trkpt lat="45.97929" lon="6.43593">
        <ele>1798</ele>
        <time>2003-02-06T13:08:28Z</time>
      </trkpt>
      <trkpt lat="45.97916" lon="6.43567">
        <ele>1807</ele>
        <time>2003-02-06T13:08:28Z</time>
      </trkpt>
      <trkpt lat="45.97903" lon="6.43486">
        <ele>1812</ele>
        <time>2003-02-06T13:08:28Z</time>
      </trkpt>
      <trkpt lat="45.97909" lon="6.43383">
        <ele>1823</ele>
        <time>2003-02-06T13:08:28Z</time>
      </trkpt>
      <trkpt lat="45.97838" lon="6.43174">
        <ele>1844</ele>
        <time>2003-02-06T13:08:28Z</time>
      </trkpt>
      <trkpt lat="45.97813" lon="6.43155">
        <ele>1887</ele>
        <time>2003-02-06T13:08:28Z</time>
      </trkpt>
      <trkpt lat="45.97753" lon="6.43147">
        <ele>1888</ele>
        <time>2003-02-06T13:08:28Z</time>
      </trkpt>
      <trkpt lat="45.97716" lon="6.43127">
        <ele>1887</ele>
        <time>2003-02-06T13:08:28Z</time>
      </trkpt>
      <trkpt lat="45.97692" lon="6.43091">
        <ele>1889</ele>
        <time>2003-02-06T13:08:28Z</time>
      </trkpt>
      <trkpt lat="45.97677" lon="6.43018">
        <ele>1901</ele>
        <time>2003-02-06T13:08:28Z</time>
      </trkpt>
      <trkpt lat="45.97645" lon="6.42994">
        <ele>1903</ele>
        <time>2003-02-06T13:08:28Z</time>
      </trkpt>
      <trkpt lat="45.9757" lon="6.42861">
        <ele>1920</ele>
        <time>2003-02-06T13:08:28Z</time>
      </trkpt>
      <trkpt lat="45.97504" lon="6.42818">
        <ele>1931</ele>
        <time>2003-02-06T13:08:28Z</time>
      </trkpt>
      <trkpt lat="45.97465" lon="6.42827">
        <ele>1936</ele>
        <time>2003-02-06T13:08:28Z</time>
      </trkpt>
      <trkpt lat="45.97448" lon="6.42795">
        <ele>1939</ele>
        <time>2003-02-06T13:08:28Z</time>
      </trkpt>
      <trkpt lat="45.97459" lon="6.4278">
        <ele>1941</ele>
        <time>2003-02-06T13:08:28Z</time>
      </trkpt>
      <trkpt lat="45.97444" lon="6.42765">
        <ele>1945</ele>
        <time>2003-02-06T13:08:28Z</time>
      </trkpt>
      <trkpt lat="45.97411" lon="6.42773">
        <ele>1951</ele>
        <time>2003-02-06T13:08:28Z</time>
      </trkpt>
      <trkpt lat="45.97399" lon="6.4273">
        <ele>1974</ele>
        <time>2003-02-06T13:08:28Z</time>
      </trkpt>
      <trkpt lat="45.97429" lon="6.42655">
        <ele>1989</ele>
        <time>2003-02-06T13:08:28Z</time>
      </trkpt>
      <trkpt lat="45.97405" lon="6.42674">
        <ele>2004</ele>
        <time>2003-02-06T13:08:28Z</time>
      </trkpt>
      <trkpt lat="45.97405" lon="6.42782">
        <ele>1976</ele>
        <time>2003-02-06T13:08:28Z</time>
      </trkpt>
      <trkpt lat="45.97441" lon="6.42767">
        <ele>1968</ele>
        <time>2003-02-06T13:08:28Z</time>
      </trkpt>
      <trkpt lat="45.97463" lon="6.42784">
        <ele>1966</ele>
        <time>2003-02-06T13:08:28Z</time>
      </trkpt>
      <trkpt lat="45.97452" lon="6.42807">
        <ele>1959</ele>
        <time>2003-02-06T13:08:28Z</time>
      </trkpt>
      <trkpt lat="45.97465" lon="6.42829">
        <ele>1955</ele>
        <time>2003-02-06T13:08:28Z</time>
      </trkpt>
      <trkpt lat="45.97544" lon="6.42827">
        <ele>1945</ele>
        <time>2003-02-06T13:08:28Z</time>
      </trkpt>
      <trkpt lat="45.97555" lon="6.42842">
        <ele>1944</ele>
        <time>2003-02-06T13:08:28Z</time>
      </trkpt>
      <trkpt lat="45.97611" lon="6.42891">
        <ele>1937</ele>
        <time>2003-02-06T13:08:28Z</time>
      </trkpt>
      <trkpt lat="45.97671" lon="6.42977">
        <ele>1918</ele>
        <time>2003-02-06T13:08:28Z</time>
      </trkpt>
      <trkpt lat="45.97699" lon="6.43101">
        <ele>1908</ele>
        <time>2003-02-06T13:08:28Z</time>
      </trkpt>
      <trkpt lat="45.9772" lon="6.43112">
        <ele>1906</ele>
        <time>2003-02-06T13:08:28Z</time>
      </trkpt>
      <trkpt lat="45.97742" lon="6.43147">
        <ele>1902</ele>
        <time>2003-02-06T13:08:28Z</time>
      </trkpt>
      <trkpt lat="45.97817" lon="6.43155">
        <ele>1879</ele>
        <time>2003-02-06T13:08:28Z</time>
      </trkpt>
      <trkpt lat="45.97873" lon="6.43237">
        <ele>1872</ele>
        <time>2003-02-06T13:08:28Z</time>
      </trkpt>
      <trkpt lat="45.97892" lon="6.43316">
        <ele>1870</ele>
        <time>2003-02-06T13:08:28Z</time>
      </trkpt>
      <trkpt lat="45.97896" lon="6.43374">
        <ele>1853</ele>
        <time>2003-02-06T13:08:28Z</time>
      </trkpt>
      <trkpt lat="45.97907" lon="6.43406">
        <ele>1850</ele>
        <time>2003-02-06T13:08:28Z</time>
      </trkpt>
      <trkpt lat="45.97971" lon="6.43773">
        <ele>1788</ele>
        <time>2003-02-06T13:08:28Z</time>
      </trkpt>
      <trkpt lat="45.97991" lon="6.44013">
        <ele>1737</ele>
        <time>2003-02-06T13:08:28Z</time>
      </trkpt>
      <trkpt lat="45.97963" lon="6.44058">
        <ele>1700</ele>
        <time>2003-02-06T13:08:28Z</time>
      </trkpt>
      <trkpt lat="45.97952" lon="6.44106">
        <ele>1690</ele>
        <time>2003-02-06T13:08:28Z</time>
      </trkpt>
      <trkpt lat="45.97989" lon="6.44172">
        <ele>1680</ele>
        <time>2003-02-06T13:08:28Z</time>
      </trkpt>
      <trkpt lat="45.97974" lon="6.44245">
        <ele>1662</ele>
        <time>2003-02-06T13:08:28Z</time>
      </trkpt>
      <trkpt lat="45.97995" lon="6.44269">
        <ele>1659</ele>
        <time>2003-02-06T13:08:28Z</time>
      </trkpt>
      <trkpt lat="45.98006" lon="6.44331">
        <ele>1650</ele>
        <time>2003-02-06T13:08:28Z</time>
      </trkpt>
      <trkpt lat="45.98029" lon="6.44372">
        <ele>1646</ele>
        <time>2003-02-06T13:08:28Z</time>
      </trkpt>
      <trkpt lat="45.98027" lon="6.44389">
        <ele>1640</ele>
        <time>2003-02-06T13:08:28Z</time>
      </trkpt>
      <trkpt lat="45.98049" lon="6.44421">
        <ele>1618</ele>
        <time>2003-02-06T13:08:28Z</time>
      </trkpt>
      <trkpt lat="45.98021" lon="6.44511">
        <ele>1604</ele>
        <time>2003-02-06T13:08:28Z</time>
      </trkpt>
      <trkpt lat="45.98068" lon="6.44619">
        <ele>1592</ele>
        <time>2003-02-06T13:08:28Z</time>
      </trkpt>
      <trkpt lat="45.98057" lon="6.44739">
        <ele>1583</ele>
        <time>2003-02-06T13:08:28Z</time>
      </trkpt>
      <trkpt lat="45.98158" lon="6.44938">
        <ele>1570</ele>
        <time>2003-02-06T13:08:28Z</time>
      </trkpt>
      <trkpt lat="45.98154" lon="6.44973">
        <ele>1569</ele>
        <time>2003-02-06T13:08:28Z</time>
      </trkpt>
      <trkpt lat="45.98152" lon="6.4496">
        <ele>1551</ele>
        <time>2003-02-06T13:08:28Z</time>
      </trkpt>
      <trkpt lat="45.98169" lon="6.4497">
        <ele>1556</ele>
        <time>2003-02-06T13:08:28Z</time>
      </trkpt>
      <trkpt lat="45.98199" lon="6.45033">
        <ele>1556</ele>
        <time>2003-02-06T13:08:28Z</time>
      </trkpt>
      <trkpt lat="45.98195" lon="6.45093">
        <ele>1546</ele>
        <time>2003-02-06T13:08:28Z</time>
      </trkpt>
      <trkpt lat="45.9818" lon="6.45103">
        <ele>1542</ele>
        <time>2003-02-06T13:08:28Z</time>
      </trkpt>
      <trkpt lat="45.98154" lon="6.45183">
        <ele>1532</ele>
        <time>2003-02-06T13:08:28Z</time>
      </trkpt>
      <trkpt lat="45.98021" lon="6.45455">
        <ele>1497</ele>
        <time>2003-02-06T13:08:28Z</time>
      </trkpt>
      <trkpt lat="45.97995" lon="6.455">
        <ele>1494</ele>
        <time>2003-02-06T13:08:28Z</time>
      </trkpt>
      <trkpt lat="45.97909" lon="6.45576">
        <ele>1475</ele>
        <time>2003-02-06T13:08:28Z</time>
      </trkpt>
      <trkpt lat="45.97823" lon="6.45571">
        <ele>1453</ele>
        <time>2003-02-06T13:08:28Z</time>
      </trkpt>
      <trkpt lat="45.97823" lon="6.45541">
        <ele>1446</ele>
        <time>2003-02-06T13:08:28Z</time>
      </trkpt>
      <trkpt lat="45.97806" lon="6.45537">
        <ele>1442</ele>
        <time>2003-02-06T13:08:28Z</time>
      </trkpt>
      <trkpt lat="45.97763" lon="6.45569">
        <ele>1430</ele>
        <time>2003-02-06T13:08:28Z</time>
      </trkpt>
      <trkpt lat="45.97757" lon="6.45522">
        <ele>1425</ele>
        <time>2003-02-06T13:08:28Z</time>
      </trkpt>
      <trkpt lat="45.97744" lon="6.45518">
        <ele>1421</ele>
        <time>2003-02-06T13:08:28Z</time>
      </trkpt>
      <trkpt lat="45.97703" lon="6.4546">
        <ele>1420</ele>
        <time>2003-02-06T13:08:28Z</time>
      </trkpt>
      <trkpt lat="45.9769" lon="6.45406">
        <ele>1420</ele>
        <time>2003-02-06T13:08:28Z</time>
      </trkpt>
      <trkpt lat="45.97652" lon="6.45359">
        <ele>1420</ele>
        <time>2003-02-06T13:08:28Z</time>
      </trkpt>
      <trkpt lat="45.97585" lon="6.45297">
        <ele>1410</ele>
        <time>2003-02-06T13:08:28Z</time>
      </trkpt>
      <trkpt lat="45.97476" lon="6.45264">
        <ele>1395</ele>
        <time>2003-02-06T13:08:28Z</time>
      </trkpt>
      <trkpt lat="45.97467" lon="6.45256">
        <ele>1387</ele>
        <time>2003-02-06T13:08:28Z</time>
      </trkpt>
      <trkpt lat="45.97448" lon="6.45303">
        <ele>1383</ele>
        <time>2003-02-06T13:08:28Z</time>
      </trkpt>
    </trkseg>
  </trk>
  <trk>
    <name><![CDATA[Signal du Sac]]></name>
    <trkseg>
      <trkpt lat="45.83682" lon="6.5084">
        <ele>988.1</ele>
        <time>2003-02-06T13:08:28Z</time>
      </trkpt>
      <trkpt lat="45.83837" lon="6.50891">
        <ele>1018.4</ele>
        <time>2003-02-06T13:08:28Z</time>
      </trkpt>
      <trkpt lat="45.83901" lon="6.50986">
        <ele>1018.9</ele>
        <time>2003-02-06T13:08:28Z</time>
      </trkpt>
      <trkpt lat="45.83821" lon="6.50967">
        <ele>1044.4</ele>
        <time>2003-02-06T13:08:28Z</time>
      </trkpt>
      <trkpt lat="45.83866" lon="6.51092">
        <ele>1055.8</ele>
        <time>2003-02-06T13:08:28Z</time>
      </trkpt>
      <trkpt lat="45.83774" lon="6.51021">
        <ele>1073.4</ele>
        <time>2003-02-06T13:08:28Z</time>
      </trkpt>
      <trkpt lat="45.83724" lon="6.51024">
        <ele>1075.8</ele>
        <time>2003-02-06T13:08:28Z</time>
      </trkpt>
      <trkpt lat="45.83777" lon="6.51054">
        <ele>1085.1</ele>
        <time>2003-02-06T13:08:28Z</time>
      </trkpt>
      <trkpt lat="45.83717" lon="6.51094">
        <ele>1096.7</ele>
        <time>2003-02-06T13:08:28Z</time>
      </trkpt>
      <trkpt lat="45.83797" lon="6.51119">
        <ele>1099.3</ele>
        <time>2003-02-06T13:08:28Z</time>
      </trkpt>
      <trkpt lat="45.83706" lon="6.51158">
        <ele>1119.6</ele>
        <time>2003-02-06T13:08:28Z</time>
      </trkpt>
      <trkpt lat="45.83817" lon="6.51314">
        <ele>1139.3</ele>
        <time>2003-02-06T13:08:28Z</time>
      </trkpt>
      <trkpt lat="45.83862" lon="6.5144">
        <ele>1154.5</ele>
        <time>2003-02-06T13:08:28Z</time>
      </trkpt>
      <trkpt lat="45.83767" lon="6.51343">
        <ele>1178.8</ele>
        <time>2003-02-06T13:08:28Z</time>
      </trkpt>
      <trkpt lat="45.83845" lon="6.51523">
        <ele>1220.8</ele>
        <time>2003-02-06T13:08:28Z</time>
      </trkpt>
      <trkpt lat="45.83929" lon="6.51568">
        <ele>1201.3</ele>
        <time>2003-02-06T13:08:28Z</time>
      </trkpt>
      <trkpt lat="45.84" lon="6.51721">
        <ele>1208.9</ele>
        <time>2003-02-06T13:08:28Z</time>
      </trkpt>
      <trkpt lat="45.84045" lon="6.51725">
        <ele>1209.3</ele>
        <time>2003-02-06T13:08:28Z</time>
      </trkpt>
      <trkpt lat="45.84104" lon="6.51832">
        <ele>1239</ele>
        <time>2003-02-06T13:08:28Z</time>
      </trkpt>
      <trkpt lat="45.84149" lon="6.51836">
        <ele>1222.5</ele>
        <time>2003-02-06T13:08:28Z</time>
      </trkpt>
      <trkpt lat="45.84189" lon="6.51987">
        <ele>1261.5</ele>
        <time>2003-02-06T13:08:28Z</time>
      </trkpt>
      <trkpt lat="45.84225" lon="6.51983">
        <ele>1255.9</ele>
        <time>2003-02-06T13:08:28Z</time>
      </trkpt>
      <trkpt lat="45.84298" lon="6.5206">
        <ele>1262.2</ele>
        <time>2003-02-06T13:08:28Z</time>
      </trkpt>
      <trkpt lat="45.84325" lon="6.52191">
        <ele>1280.6</ele>
        <time>2003-02-06T13:08:28Z</time>
      </trkpt>
      <trkpt lat="45.8427" lon="6.52103">
        <ele>1289.6</ele>
        <time>2003-02-06T13:08:28Z</time>
      </trkpt>
      <trkpt lat="45.84209" lon="6.5204">
        <ele>1283.6</ele>
        <time>2003-02-06T13:08:28Z</time>
      </trkpt>
      <trkpt lat="45.84163" lon="6.52075">
        <ele>1293.7</ele>
        <time>2003-02-06T13:08:28Z</time>
      </trkpt>
      <trkpt lat="45.84126" lon="6.51982">
        <ele>1282.9</ele>
        <time>2003-02-06T13:08:28Z</time>
      </trkpt>
      <trkpt lat="45.84021" lon="6.51884">
        <ele>1280.4</ele>
        <time>2003-02-06T13:08:28Z</time>
      </trkpt>
      <trkpt lat="45.83953" lon="6.51911">
        <ele>1273</ele>
        <time>2003-02-06T13:08:28Z</time>
      </trkpt>
      <trkpt lat="45.8392" lon="6.51818">
        <ele>1272</ele>
        <time>2003-02-06T13:08:28Z</time>
      </trkpt>
      <trkpt lat="45.83836" lon="6.5178">
        <ele>1291.4</ele>
        <time>2003-02-06T13:08:28Z</time>
      </trkpt>
      <trkpt lat="45.83733" lon="6.51649">
        <ele>1305.3</ele>
        <time>2003-02-06T13:08:28Z</time>
      </trkpt>
      <trkpt lat="45.83678" lon="6.51542">
        <ele>1306.5</ele>
        <time>2003-02-06T13:08:28Z</time>
      </trkpt>
      <trkpt lat="45.83621" lon="6.51499">
        <ele>1316.7</ele>
        <time>2003-02-06T13:08:28Z</time>
      </trkpt>
      <trkpt lat="45.83571" lon="6.51502">
        <ele>1334</ele>
        <time>2003-02-06T13:08:28Z</time>
      </trkpt>
      <trkpt lat="45.83626" lon="6.51603">
        <ele>1343.2</ele>
        <time>2003-02-06T13:08:28Z</time>
      </trkpt>
      <trkpt lat="45.83708" lon="6.5206">
        <ele>1404.5</ele>
        <time>2003-02-06T13:08:28Z</time>
      </trkpt>
      <trkpt lat="45.83525" lon="6.51775">
        <ele>1439.5</ele>
        <time>2003-02-06T13:08:28Z</time>
      </trkpt>
      <trkpt lat="45.83472" lon="6.51746">
        <ele>1449.9</ele>
        <time>2003-02-06T13:08:28Z</time>
      </trkpt>
      <trkpt lat="45.83495" lon="6.52102">
        <ele>1505</ele>
        <time>2003-02-06T13:08:28Z</time>
      </trkpt>
      <trkpt lat="45.83465" lon="6.52312">
        <ele>1528.9</ele>
        <time>2003-02-06T13:08:28Z</time>
      </trkpt>
      <trkpt lat="45.83427" lon="6.52367">
        <ele>1537.9</ele>
        <time>2003-02-06T13:08:28Z</time>
      </trkpt>
      <trkpt lat="45.83227" lon="6.52416">
        <ele>1582</ele>
        <time>2003-02-06T13:08:28Z</time>
      </trkpt>
      <trkpt lat="45.83326" lon="6.52534">
        <ele>1575.6</ele>
        <time>2003-02-06T13:08:28Z</time>
      </trkpt>
      <trkpt lat="45.83401" lon="6.52559">
        <ele>1580.3</ele>
        <time>2003-02-06T13:08:28Z</time>
      </trkpt>
      <trkpt lat="45.83508" lon="6.52728">
        <ele>1589.8</ele>
        <time>2003-02-06T13:08:28Z</time>
      </trkpt>
      <trkpt lat="45.83625" lon="6.52853">
        <ele>1599.1</ele>
        <time>2003-02-06T13:08:28Z</time>
      </trkpt>
      <trkpt lat="45.83689" lon="6.53064">
        <ele>1630.8</ele>
        <time>2003-02-06T13:08:28Z</time>
      </trkpt>
      <trkpt lat="45.83786" lon="6.53245">
        <ele>1660.4</ele>
        <time>2003-02-06T13:08:28Z</time>
      </trkpt>
      <trkpt lat="45.83952" lon="6.53374">
        <ele>1670.6</ele>
        <time>2003-02-06T13:08:28Z</time>
      </trkpt>
      <trkpt lat="45.8405" lon="6.53407">
        <ele>1668.8</ele>
        <time>2003-02-06T13:08:28Z</time>
      </trkpt>
      <trkpt lat="45.84104" lon="6.5346">
        <ele>1668.4</ele>
        <time>2003-02-06T13:08:28Z</time>
      </trkpt>
      <trkpt lat="45.84192" lon="6.53521">
        <ele>1668.4</ele>
        <time>2003-02-06T13:08:28Z</time>
      </trkpt>
      <trkpt lat="45.84298" lon="6.53465">
        <ele>1636.1</ele>
        <time>2003-02-06T13:08:28Z</time>
      </trkpt>
      <trkpt lat="45.84294" lon="6.53339">
        <ele>1613.6</ele>
        <time>2003-02-06T13:08:28Z</time>
      </trkpt>
      <trkpt lat="45.84307" lon="6.5316">
        <ele>1562</ele>
        <time>2003-02-06T13:08:28Z</time>
      </trkpt>
      <trkpt lat="45.84343" lon="6.52924">
        <ele>1491</ele>
        <time>2003-02-06T13:08:28Z</time>
      </trkpt>
      <trkpt lat="45.84348" lon="6.52779">
        <ele>1443</ele>
        <time>2003-02-06T13:08:28Z</time>
      </trkpt>
      <trkpt lat="45.84321" lon="6.52606">
        <ele>1393.4</ele>
        <time>2003-02-06T13:08:28Z</time>
      </trkpt>
      <trkpt lat="45.84358" lon="6.52445">
        <ele>1345.5</ele>
        <time>2003-02-06T13:08:28Z</time>
      </trkpt>
      <trkpt lat="45.84379" lon="6.52321">
        <ele>1311.7</ele>
        <time>2003-02-06T13:08:28Z</time>
      </trkpt>
      <trkpt lat="45.84354" lon="6.52193">
        <ele>1285.1</ele>
        <time>2003-02-06T13:08:28Z</time>
      </trkpt>
      <trkpt lat="45.84325" lon="6.52191">
        <ele>1280.6</ele>
        <time>2003-02-06T13:08:28Z</time>
      </trkpt>
      <trkpt lat="45.84294" lon="6.52063">
        <ele>1265.2</ele>
        <time>2003-02-06T13:08:28Z</time>
      </trkpt>
      <trkpt lat="45.84222" lon="6.51983">
        <ele>1256.7</ele>
        <time>2003-02-06T13:08:28Z</time>
      </trkpt>
      <trkpt lat="45.84191" lon="6.51987">
        <ele>1261.6</ele>
        <time>2003-02-06T13:08:28Z</time>
      </trkpt>
      <trkpt lat="45.84145" lon="6.51829">
        <ele>1224.9</ele>
        <time>2003-02-06T13:08:28Z</time>
      </trkpt>
      <trkpt lat="45.84097" lon="6.51832">
        <ele>1240.2</ele>
        <time>2003-02-06T13:08:28Z</time>
      </trkpt>
      <trkpt lat="45.84045" lon="6.51722">
        <ele>1207.9</ele>
        <time>2003-02-06T13:08:28Z</time>
      </trkpt>
      <trkpt lat="45.83998" lon="6.51718">
        <ele>1209.8</ele>
        <time>2003-02-06T13:08:28Z</time>
      </trkpt>
      <trkpt lat="45.83929" lon="6.51568">
        <ele>1201.3</ele>
        <time>2003-02-06T13:08:28Z</time>
      </trkpt>
      <trkpt lat="45.83843" lon="6.51523">
        <ele>1222</ele>
        <time>2003-02-06T13:08:28Z</time>
      </trkpt>
      <trkpt lat="45.83762" lon="6.51342">
        <ele>1182.7</ele>
        <time>2003-02-06T13:08:28Z</time>
      </trkpt>
      <trkpt lat="45.83862" lon="6.51431">
        <ele>1151.5</ele>
        <time>2003-02-06T13:08:28Z</time>
      </trkpt>
      <trkpt lat="45.83811" lon="6.51311">
        <ele>1141.3</ele>
        <time>2003-02-06T13:08:28Z</time>
      </trkpt>
      <trkpt lat="45.83699" lon="6.51164">
        <ele>1123.6</ele>
        <time>2003-02-06T13:08:28Z</time>
      </trkpt>
      <trkpt lat="45.83797" lon="6.51119">
        <ele>1099.3</ele>
        <time>2003-02-06T13:08:28Z</time>
      </trkpt>
      <trkpt lat="45.83717" lon="6.51097">
        <ele>1097.9</ele>
        <time>2003-02-06T13:08:28Z</time>
      </trkpt>
      <trkpt lat="45.83775" lon="6.51057">
        <ele>1086.5</ele>
        <time>2003-02-06T13:08:28Z</time>
      </trkpt>
      <trkpt lat="45.83724" lon="6.51027">
        <ele>1076.8</ele>
        <time>2003-02-06T13:08:28Z</time>
      </trkpt>
      <trkpt lat="45.83774" lon="6.51027">
        <ele>1074.5</ele>
        <time>2003-02-06T13:08:28Z</time>
      </trkpt>
      <trkpt lat="45.83866" lon="6.51083">
        <ele>1052.8</ele>
        <time>2003-02-06T13:08:28Z</time>
      </trkpt>
      <trkpt lat="45.83814" lon="6.50969">
        <ele>1047.3</ele>
        <time>2003-02-06T13:08:28Z</time>
      </trkpt>
      <trkpt lat="45.83899" lon="6.50985">
        <ele>1020.4</ele>
        <time>2003-02-06T13:08:28Z</time>
      </trkpt>
      <trkpt lat="45.83837" lon="6.50887">
        <ele>1017.3</ele>
        <time>2003-02-06T13:08:28Z</time>
      </trkpt>
      <trkpt lat="45.83679" lon="6.50843">
        <ele>988.1</ele>
        <time>2003-02-06T13:08:28Z</time>
      </trkpt>
      <trkpt lat="45.83677" lon="6.50846">
        <ele>988</ele>
        <time>2003-02-06T13:08:28Z</time>
      </trkpt>
    </trkseg>
  </trk>
  <trk>
    <name><![CDATA[Sosay]]></name>
    <trkseg>
      <trkpt lat="46.00482" lon="6.40917">
        <ele>940.6</ele>
        <time>2003-02-06T13:08:28Z</time>
      </trkpt>
      <trkpt lat="46.00482" lon="6.41016">
        <ele>963.8</ele>
        <time>2003-02-06T13:08:28Z</time>
      </trkpt>
      <trkpt lat="46.00332" lon="6.41391">
        <ele>1055.6</ele>
        <time>2003-02-06T13:08:28Z</time>
      </trkpt>
      <trkpt lat="46.00327" lon="6.41458">
        <ele>1071.5</ele>
        <time>2003-02-06T13:08:28Z</time>
      </trkpt>
      <trkpt lat="46.00405" lon="6.41413">
        <ele>1104.5</ele>
        <time>2003-02-06T13:08:28Z</time>
      </trkpt>
      <trkpt lat="46.00368" lon="6.41709">
        <ele>1182.1</ele>
        <time>2003-02-06T13:08:28Z</time>
      </trkpt>
      <trkpt lat="46.00415" lon="6.41795">
        <ele>1218.9</ele>
        <time>2003-02-06T13:08:28Z</time>
      </trkpt>
      <trkpt lat="46.00454" lon="6.41808">
        <ele>1246.4</ele>
        <time>2003-02-06T13:08:28Z</time>
      </trkpt>
      <trkpt lat="46.00533" lon="6.42119">
        <ele>1316.3</ele>
        <time>2003-02-06T13:08:28Z</time>
      </trkpt>
      <trkpt lat="46.00621" lon="6.42331">
        <ele>1371.6</ele>
        <time>2003-02-06T13:08:28Z</time>
      </trkpt>
      <trkpt lat="46.00722" lon="6.42659">
        <ele>1441.6</ele>
        <time>2003-02-06T13:08:28Z</time>
      </trkpt>
      <trkpt lat="46.00761" lon="6.42951">
        <ele>1481</ele>
        <time>2003-02-06T13:08:28Z</time>
      </trkpt>
      <trkpt lat="46.00894" lon="6.43069">
        <ele>1518.1</ele>
        <time>2003-02-06T13:08:28Z</time>
      </trkpt>
      <trkpt lat="46.01072" lon="6.43428">
        <ele>1563.7</ele>
        <time>2003-02-06T13:08:28Z</time>
      </trkpt>
      <trkpt lat="46.01104" lon="6.43679">
        <ele>1609.3</ele>
        <time>2003-02-06T13:08:28Z</time>
      </trkpt>
      <trkpt lat="46.0107" lon="6.4387">
        <ele>1669</ele>
        <time>2003-02-06T13:08:28Z</time>
      </trkpt>
      <trkpt lat="46.00978" lon="6.44028">
        <ele>1688.8</ele>
        <time>2003-02-06T13:08:28Z</time>
      </trkpt>
      <trkpt lat="46.00905" lon="6.442">
        <ele>1685.7</ele>
        <time>2003-02-06T13:08:28Z</time>
      </trkpt>
      <trkpt lat="46.00924" lon="6.4441">
        <ele>1679.2</ele>
        <time>2003-02-06T13:08:28Z</time>
      </trkpt>
      <trkpt lat="46.00851" lon="6.4476">
        <ele>1708.3</ele>
        <time>2003-02-06T13:08:28Z</time>
      </trkpt>
      <trkpt lat="46.00765" lon="6.44833">
        <ele>1730.7</ele>
        <time>2003-02-06T13:08:28Z</time>
      </trkpt>
      <trkpt lat="46.00673" lon="6.44734">
        <ele>1749.4</ele>
        <time>2003-02-06T13:08:28Z</time>
      </trkpt>
      <trkpt lat="46.00619" lon="6.44743">
        <ele>1798.6</ele>
        <time>2003-02-06T13:08:28Z</time>
      </trkpt>
      <trkpt lat="46.00572" lon="6.44728">
        <ele>1808</ele>
        <time>2003-02-06T13:08:28Z</time>
      </trkpt>
      <trkpt lat="46.00518" lon="6.44801">
        <ele>1814.9</ele>
        <time>2003-02-06T13:08:28Z</time>
      </trkpt>
      <trkpt lat="46.00446" lon="6.44794">
        <ele>1851.2</ele>
        <time>2003-02-06T13:08:28Z</time>
      </trkpt>
      <trkpt lat="46.0039" lon="6.44655">
        <ele>1849.9</ele>
        <time>2003-02-06T13:08:28Z</time>
      </trkpt>
      <trkpt lat="46.0039" lon="6.44584">
        <ele>1854.1</ele>
        <time>2003-02-06T13:08:28Z</time>
      </trkpt>
      <trkpt lat="46.00454" lon="6.44543">
        <ele>1872.4</ele>
        <time>2003-02-06T13:08:28Z</time>
      </trkpt>
      <trkpt lat="46.0039" lon="6.44584">
        <ele>1854.1</ele>
        <time>2003-02-06T13:08:28Z</time>
      </trkpt>
      <trkpt lat="46.0039" lon="6.44649">
        <ele>1849.5</ele>
        <time>2003-02-06T13:08:28Z</time>
      </trkpt>
      <trkpt lat="46.00441" lon="6.44782">
        <ele>1852.2</ele>
        <time>2003-02-06T13:08:28Z</time>
      </trkpt>
      <trkpt lat="46.00527" lon="6.44794">
        <ele>1810.9</ele>
        <time>2003-02-06T13:08:28Z</time>
      </trkpt>
      <trkpt lat="46.00583" lon="6.44715">
        <ele>1806.4</ele>
        <time>2003-02-06T13:08:28Z</time>
      </trkpt>
      <trkpt lat="46.00688" lon="6.44728">
        <ele>1737</ele>
        <time>2003-02-06T13:08:28Z</time>
      </trkpt>
      <trkpt lat="46.00757" lon="6.44715">
        <ele>1700.6</ele>
        <time>2003-02-06T13:08:28Z</time>
      </trkpt>
      <trkpt lat="46.00774" lon="6.44556">
        <ele>1664.5</ele>
        <time>2003-02-06T13:08:28Z</time>
      </trkpt>
      <trkpt lat="46.00727" lon="6.44331">
        <ele>1619.2</ele>
        <time>2003-02-06T13:08:28Z</time>
      </trkpt>
      <trkpt lat="46.00703" lon="6.44073">
        <ele>1593.1</ele>
        <time>2003-02-06T13:08:28Z</time>
      </trkpt>
      <trkpt lat="46.00671" lon="6.43908">
        <ele>1534.2</ele>
        <time>2003-02-06T13:08:28Z</time>
      </trkpt>
      <trkpt lat="46.00634" lon="6.43724">
        <ele>1500.5</ele>
        <time>2003-02-06T13:08:28Z</time>
      </trkpt>
      <trkpt lat="46.00643" lon="6.43533">
        <ele>1489.4</ele>
        <time>2003-02-06T13:08:28Z</time>
      </trkpt>
      <trkpt lat="46.00624" lon="6.43307">
        <ele>1451</ele>
        <time>2003-02-06T13:08:28Z</time>
      </trkpt>
      <trkpt lat="46.00632" lon="6.4311">
        <ele>1421.3</ele>
        <time>2003-02-06T13:08:28Z</time>
      </trkpt>
      <trkpt lat="46.00624" lon="6.4291">
        <ele>1389</ele>
        <time>2003-02-06T13:08:28Z</time>
      </trkpt>
      <trkpt lat="46.00596" lon="6.42758">
        <ele>1371</ele>
        <time>2003-02-06T13:08:28Z</time>
      </trkpt>
      <trkpt lat="46.00572" lon="6.42574">
        <ele>1373.9</ele>
        <time>2003-02-06T13:08:28Z</time>
      </trkpt>
      <trkpt lat="46.00549" lon="6.42376">
        <ele>1386.1</ele>
        <time>2003-02-06T13:08:28Z</time>
      </trkpt>
      <trkpt lat="46.00529" lon="6.42104">
        <ele>1313.1</ele>
        <time>2003-02-06T13:08:28Z</time>
      </trkpt>
      <trkpt lat="46.00465" lon="6.41788">
        <ele>1254.8</ele>
        <time>2003-02-06T13:08:28Z</time>
      </trkpt>
      <trkpt lat="46.0042" lon="6.41788">
        <ele>1220</ele>
        <time>2003-02-06T13:08:28Z</time>
      </trkpt>
      <trkpt lat="46.00373" lon="6.41702">
        <ele>1180.4</ele>
        <time>2003-02-06T13:08:28Z</time>
      </trkpt>
      <trkpt lat="46.00409" lon="6.41398">
        <ele>1099.3</ele>
        <time>2003-02-06T13:08:28Z</time>
      </trkpt>
      <trkpt lat="46.00336" lon="6.41458">
        <ele>1076.6</ele>
        <time>2003-02-06T13:08:28Z</time>
      </trkpt>
      <trkpt lat="46.00336" lon="6.41378">
        <ele>1055</ele>
        <time>2003-02-06T13:08:28Z</time>
      </trkpt>
      <trkpt lat="46.00491" lon="6.41003">
        <ele>964.6</ele>
        <time>2003-02-06T13:08:28Z</time>
      </trkpt>
      <trkpt lat="46.00491" lon="6.40902">
        <ele>939.2</ele>
        <time>2003-02-06T13:08:28Z</time>
      </trkpt>
    </trkseg>
  </trk>
  <trk>
    <name><![CDATA[Spee]]></name>
    <trkseg>
      <trkpt lat="45.97225" lon="6.3507">
        <ele>1389</ele>
        <time>2004-01-19T18:03:57Z</time>
      </trkpt>
      <trkpt lat="45.97272" lon="6.35089">
        <ele>1394</ele>
        <time>2004-01-19T18:03:57Z</time>
      </trkpt>
      <trkpt lat="45.97416" lon="6.35302">
        <ele>1410</ele>
        <time>2004-01-19T18:03:57Z</time>
      </trkpt>
      <trkpt lat="45.97456" lon="6.35334">
        <ele>1421</ele>
        <time>2004-01-19T18:03:57Z</time>
      </trkpt>
      <trkpt lat="45.97474" lon="6.35381">
        <ele>1431</ele>
        <time>2004-01-19T18:03:57Z</time>
      </trkpt>
      <trkpt lat="45.97607" lon="6.35585">
        <ele>1457</ele>
        <time>2004-01-19T18:03:57Z</time>
      </trkpt>
      <trkpt lat="45.97656" lon="6.35714">
        <ele>1448</ele>
        <time>2004-01-19T18:03:57Z</time>
      </trkpt>
      <trkpt lat="45.97708" lon="6.35776">
        <ele>1442</ele>
        <time>2004-01-19T18:03:57Z</time>
      </trkpt>
      <trkpt lat="45.97838" lon="6.36012">
        <ele>1436</ele>
        <time>2004-01-19T18:03:57Z</time>
      </trkpt>
      <trkpt lat="45.97853" lon="6.36083">
        <ele>1430</ele>
        <time>2004-01-19T18:03:57Z</time>
      </trkpt>
      <trkpt lat="45.97946" lon="6.36282">
        <ele>1432</ele>
        <time>2004-01-19T18:03:57Z</time>
      </trkpt>
      <trkpt lat="45.97924" lon="6.36304">
        <ele>1435</ele>
        <time>2004-01-19T18:03:57Z</time>
      </trkpt>
      <trkpt lat="45.97959" lon="6.36338">
        <ele>1435</ele>
        <time>2004-01-19T18:03:57Z</time>
      </trkpt>
      <trkpt lat="45.98027" lon="6.36456">
        <ele>1436</ele>
        <time>2004-01-19T18:03:57Z</time>
      </trkpt>
      <trkpt lat="45.98102" lon="6.36501">
        <ele>1432</ele>
        <time>2004-01-19T18:03:57Z</time>
      </trkpt>
      <trkpt lat="45.98128" lon="6.36499">
        <ele>1428</ele>
        <time>2004-01-19T18:03:57Z</time>
      </trkpt>
      <trkpt lat="45.98156" lon="6.36441">
        <ele>1422</ele>
        <time>2004-01-19T18:03:57Z</time>
      </trkpt>
      <trkpt lat="45.98199" lon="6.36475">
        <ele>1426</ele>
        <time>2004-01-19T18:03:57Z</time>
      </trkpt>
      <trkpt lat="45.98231" lon="6.36542">
        <ele>1418</ele>
        <time>2004-01-19T18:03:57Z</time>
      </trkpt>
      <trkpt lat="45.9827" lon="6.36574">
        <ele>1415</ele>
        <time>2004-01-19T18:03:57Z</time>
      </trkpt>
      <trkpt lat="45.98293" lon="6.36634">
        <ele>1407</ele>
        <time>2004-01-19T18:03:57Z</time>
      </trkpt>
      <trkpt lat="45.98345" lon="6.36638">
        <ele>1397</ele>
        <time>2004-01-19T18:03:57Z</time>
      </trkpt>
      <trkpt lat="45.98356" lon="6.36683">
        <ele>1398</ele>
        <time>2004-01-19T18:03:57Z</time>
      </trkpt>
      <trkpt lat="45.98405" lon="6.36696">
        <ele>1394</ele>
        <time>2004-01-19T18:03:57Z</time>
      </trkpt>
      <trkpt lat="45.98426" lon="6.36673">
        <ele>1392</ele>
        <time>2004-01-19T18:03:57Z</time>
      </trkpt>
      <trkpt lat="45.98474" lon="6.36677">
        <ele>1376</ele>
        <time>2004-01-19T18:03:57Z</time>
      </trkpt>
      <trkpt lat="45.9845" lon="6.36664">
        <ele>1374</ele>
        <time>2004-01-19T18:03:57Z</time>
      </trkpt>
      <trkpt lat="45.98476" lon="6.36713">
        <ele>1363</ele>
        <time>2004-01-19T18:03:57Z</time>
      </trkpt>
      <trkpt lat="45.98482" lon="6.36694">
        <ele>1364</ele>
        <time>2004-01-19T18:03:57Z</time>
      </trkpt>
      <trkpt lat="45.98493" lon="6.36694">
        <ele>1366</ele>
        <time>2004-01-19T18:03:57Z</time>
      </trkpt>
      <trkpt lat="45.98495" lon="6.36666">
        <ele>1364</ele>
        <time>2004-01-19T18:03:57Z</time>
      </trkpt>
      <trkpt lat="45.98491" lon="6.36686">
        <ele>1353</ele>
        <time>2004-01-19T18:03:57Z</time>
      </trkpt>
      <trkpt lat="45.98499" lon="6.36675">
        <ele>1362</ele>
        <time>2004-01-19T18:03:57Z</time>
      </trkpt>
      <trkpt lat="45.98489" lon="6.36686">
        <ele>1353</ele>
        <time>2004-01-19T18:03:57Z</time>
      </trkpt>
      <trkpt lat="45.98486" lon="6.36662">
        <ele>1348</ele>
        <time>2004-01-19T18:03:57Z</time>
      </trkpt>
      <trkpt lat="45.98508" lon="6.36553">
        <ele>1347</ele>
        <time>2004-01-19T18:03:57Z</time>
      </trkpt>
      <trkpt lat="45.98549" lon="6.36497">
        <ele>1358</ele>
        <time>2004-01-19T18:03:57Z</time>
      </trkpt>
      <trkpt lat="45.98574" lon="6.36503">
        <ele>1357</ele>
        <time>2004-01-19T18:03:57Z</time>
      </trkpt>
      <trkpt lat="45.9865" lon="6.36636">
        <ele>1360</ele>
        <time>2004-01-19T18:03:57Z</time>
      </trkpt>
      <trkpt lat="45.98667" lon="6.36696">
        <ele>1361</ele>
        <time>2004-01-19T18:03:57Z</time>
      </trkpt>
      <trkpt lat="45.98712" lon="6.36756">
        <ele>1367</ele>
        <time>2004-01-19T18:03:57Z</time>
      </trkpt>
      <trkpt lat="45.98746" lon="6.36881">
        <ele>1369</ele>
        <time>2004-01-19T18:03:57Z</time>
      </trkpt>
      <trkpt lat="45.98783" lon="6.36939">
        <ele>1399</ele>
        <time>2004-01-19T18:03:57Z</time>
      </trkpt>
      <trkpt lat="45.98819" lon="6.37085">
        <ele>1393</ele>
        <time>2004-01-19T18:03:57Z</time>
      </trkpt>
      <trkpt lat="45.98849" lon="6.37143">
        <ele>1400</ele>
        <time>2004-01-19T18:03:57Z</time>
      </trkpt>
      <trkpt lat="45.98883" lon="6.37196">
        <ele>1416</ele>
        <time>2004-01-19T18:03:57Z</time>
      </trkpt>
      <trkpt lat="45.98984" lon="6.37246">
        <ele>1432</ele>
        <time>2004-01-19T18:03:57Z</time>
      </trkpt>
      <trkpt lat="45.98956" lon="6.37299">
        <ele>1442</ele>
        <time>2004-01-19T18:03:57Z</time>
      </trkpt>
      <trkpt lat="45.98989" lon="6.37263">
        <ele>1434</ele>
        <time>2004-01-19T18:03:57Z</time>
      </trkpt>
      <trkpt lat="45.99098" lon="6.37334">
        <ele>1430</ele>
        <time>2004-01-19T18:03:57Z</time>
      </trkpt>
      <trkpt lat="45.99128" lon="6.37308">
        <ele>1431</ele>
        <time>2004-01-19T18:03:57Z</time>
      </trkpt>
      <trkpt lat="45.99173" lon="6.37196">
        <ele>1430</ele>
        <time>2004-01-19T18:03:57Z</time>
      </trkpt>
      <trkpt lat="45.99207" lon="6.37164">
        <ele>1430</ele>
        <time>2004-01-19T18:03:57Z</time>
      </trkpt>
      <trkpt lat="45.99308" lon="6.37196">
        <ele>1440</ele>
        <time>2004-01-19T18:03:57Z</time>
      </trkpt>
      <trkpt lat="45.99379" lon="6.37102">
        <ele>1449</ele>
        <time>2004-01-19T18:03:57Z</time>
      </trkpt>
      <trkpt lat="45.99405" lon="6.37093">
        <ele>1449</ele>
        <time>2004-01-19T18:03:57Z</time>
      </trkpt>
      <trkpt lat="45.99377" lon="6.37072">
        <ele>1459</ele>
        <time>2004-01-19T18:03:57Z</time>
      </trkpt>
      <trkpt lat="45.99388" lon="6.37046">
        <ele>1457</ele>
        <time>2004-01-19T18:03:57Z</time>
      </trkpt>
      <trkpt lat="45.99488" lon="6.37104">
        <ele>1473</ele>
        <time>2004-01-19T18:03:57Z</time>
      </trkpt>
      <trkpt lat="45.99501" lon="6.37046">
        <ele>1478</ele>
        <time>2004-01-19T18:03:57Z</time>
      </trkpt>
      <trkpt lat="45.9948" lon="6.36952">
        <ele>1492</ele>
        <time>2004-01-19T18:03:57Z</time>
      </trkpt>
      <trkpt lat="45.99506" lon="6.36935">
        <ele>1507</ele>
        <time>2004-01-19T18:03:57Z</time>
      </trkpt>
      <trkpt lat="45.99566" lon="6.36748">
        <ele>1532</ele>
        <time>2004-01-19T18:03:57Z</time>
      </trkpt>
      <trkpt lat="45.99607" lon="6.36679">
        <ele>1542</ele>
        <time>2004-01-19T18:03:57Z</time>
      </trkpt>
      <trkpt lat="45.99654" lon="6.3663">
        <ele>1547</ele>
        <time>2004-01-19T18:03:57Z</time>
      </trkpt>
      <trkpt lat="45.9969" lon="6.36542">
        <ele>1561</ele>
        <time>2004-01-19T18:03:57Z</time>
      </trkpt>
      <trkpt lat="45.99744" lon="6.36514">
        <ele>1565</ele>
        <time>2004-01-19T18:03:57Z</time>
      </trkpt>
      <trkpt lat="45.99744" lon="6.36426">
        <ele>1574</ele>
        <time>2004-01-19T18:03:57Z</time>
      </trkpt>
      <trkpt lat="45.99767" lon="6.36405">
        <ele>1578</ele>
        <time>2004-01-19T18:03:57Z</time>
      </trkpt>
      <trkpt lat="45.99759" lon="6.364">
        <ele>1579</ele>
        <time>2004-01-19T18:03:57Z</time>
      </trkpt>
      <trkpt lat="45.99772" lon="6.36405">
        <ele>1587</ele>
        <time>2004-01-19T18:03:57Z</time>
      </trkpt>
      <trkpt lat="45.99761" lon="6.36409">
        <ele>1596</ele>
        <time>2004-01-19T18:03:57Z</time>
      </trkpt>
      <trkpt lat="45.99767" lon="6.36387">
        <ele>1594</ele>
        <time>2004-01-19T18:03:57Z</time>
      </trkpt>
      <trkpt lat="45.99789" lon="6.36349">
        <ele>1594</ele>
        <time>2004-01-19T18:03:57Z</time>
      </trkpt>
      <trkpt lat="45.99767" lon="6.36323">
        <ele>1580</ele>
        <time>2004-01-19T18:03:57Z</time>
      </trkpt>
      <trkpt lat="45.99778" lon="6.36321">
        <ele>1581</ele>
        <time>2004-01-19T18:03:57Z</time>
      </trkpt>
      <trkpt lat="45.99782" lon="6.36299">
        <ele>1584</ele>
        <time>2004-01-19T18:03:57Z</time>
      </trkpt>
      <trkpt lat="45.99767" lon="6.36276">
        <ele>1594</ele>
        <time>2004-01-19T18:03:57Z</time>
      </trkpt>
      <trkpt lat="45.9978" lon="6.36229">
        <ele>1606</ele>
        <time>2004-01-19T18:03:57Z</time>
      </trkpt>
      <trkpt lat="45.99866" lon="6.36179">
        <ele>1643</ele>
        <time>2004-01-19T18:03:57Z</time>
      </trkpt>
      <trkpt lat="45.99853" lon="6.36151">
        <ele>1646</ele>
        <time>2004-01-19T18:03:57Z</time>
      </trkpt>
      <trkpt lat="45.99939" lon="6.36134">
        <ele>1680</ele>
        <time>2004-01-19T18:03:57Z</time>
      </trkpt>
      <trkpt lat="45.999" lon="6.36158">
        <ele>1654</ele>
        <time>2004-01-19T18:03:57Z</time>
      </trkpt>
      <trkpt lat="45.99903" lon="6.36218">
        <ele>1647</ele>
        <time>2004-01-19T18:03:57Z</time>
      </trkpt>
      <trkpt lat="45.9984" lon="6.36349">
        <ele>1634</ele>
        <time>2004-01-19T18:03:57Z</time>
      </trkpt>
      <trkpt lat="45.99847" lon="6.36383">
        <ele>1636</ele>
        <time>2004-01-19T18:03:57Z</time>
      </trkpt>
      <trkpt lat="45.99759" lon="6.36413">
        <ele>1557</ele>
        <time>2004-01-19T18:03:57Z</time>
      </trkpt>
      <trkpt lat="45.99729" lon="6.36503">
        <ele>1570</ele>
        <time>2004-01-19T18:03:57Z</time>
      </trkpt>
      <trkpt lat="45.99688" lon="6.3655">
        <ele>1572</ele>
        <time>2004-01-19T18:03:57Z</time>
      </trkpt>
      <trkpt lat="45.99673" lon="6.36604">
        <ele>1570</ele>
        <time>2004-01-19T18:03:57Z</time>
      </trkpt>
      <trkpt lat="45.99632" lon="6.36668">
        <ele>1559</ele>
        <time>2004-01-19T18:03:57Z</time>
      </trkpt>
      <trkpt lat="45.99607" lon="6.36683">
        <ele>1553</ele>
        <time>2004-01-19T18:03:57Z</time>
      </trkpt>
      <trkpt lat="45.99551" lon="6.36838">
        <ele>1550</ele>
        <time>2004-01-19T18:03:57Z</time>
      </trkpt>
      <trkpt lat="45.99495" lon="6.36881">
        <ele>1525</ele>
        <time>2004-01-19T18:03:57Z</time>
      </trkpt>
      <trkpt lat="45.99379" lon="6.36874">
        <ele>1525</ele>
        <time>2004-01-19T18:03:57Z</time>
      </trkpt>
      <trkpt lat="45.9934" lon="6.36922">
        <ele>1529</ele>
        <time>2004-01-19T18:03:57Z</time>
      </trkpt>
      <trkpt lat="45.99336" lon="6.36889">
        <ele>1528</ele>
        <time>2004-01-19T18:03:57Z</time>
      </trkpt>
      <trkpt lat="45.99317" lon="6.36935">
        <ele>1533</ele>
        <time>2004-01-19T18:03:57Z</time>
      </trkpt>
      <trkpt lat="45.99272" lon="6.3693">
        <ele>1529</ele>
        <time>2004-01-19T18:03:57Z</time>
      </trkpt>
      <trkpt lat="45.99321" lon="6.36889">
        <ele>1522</ele>
        <time>2004-01-19T18:03:57Z</time>
      </trkpt>
      <trkpt lat="45.99345" lon="6.369">
        <ele>1512</ele>
        <time>2004-01-19T18:03:57Z</time>
      </trkpt>
      <trkpt lat="45.99334" lon="6.36926">
        <ele>1501</ele>
        <time>2004-01-19T18:03:57Z</time>
      </trkpt>
      <trkpt lat="45.9934" lon="6.36973">
        <ele>1493</ele>
        <time>2004-01-19T18:03:57Z</time>
      </trkpt>
      <trkpt lat="45.99319" lon="6.37007">
        <ele>1484</ele>
        <time>2004-01-19T18:03:57Z</time>
      </trkpt>
      <trkpt lat="45.99355" lon="6.37042">
        <ele>1477</ele>
        <time>2004-01-19T18:03:57Z</time>
      </trkpt>
      <trkpt lat="45.9936" lon="6.37031">
        <ele>1463</ele>
        <time>2004-01-19T18:03:57Z</time>
      </trkpt>
      <trkpt lat="45.99388" lon="6.37106">
        <ele>1464</ele>
        <time>2004-01-19T18:03:57Z</time>
      </trkpt>
      <trkpt lat="45.99413" lon="6.3707">
        <ele>1474</ele>
        <time>2004-01-19T18:03:57Z</time>
      </trkpt>
      <trkpt lat="45.9939" lon="6.37104">
        <ele>1460</ele>
        <time>2004-01-19T18:03:57Z</time>
      </trkpt>
      <trkpt lat="45.99304" lon="6.37179">
        <ele>1456</ele>
        <time>2004-01-19T18:03:57Z</time>
      </trkpt>
      <trkpt lat="45.99192" lon="6.37194">
        <ele>1450</ele>
        <time>2004-01-19T18:03:57Z</time>
      </trkpt>
      <trkpt lat="45.99119" lon="6.37319">
        <ele>1440</ele>
        <time>2004-01-19T18:03:57Z</time>
      </trkpt>
      <trkpt lat="45.99081" lon="6.37331">
        <ele>1435</ele>
        <time>2004-01-19T18:03:57Z</time>
      </trkpt>
      <trkpt lat="45.99027" lon="6.37308">
        <ele>1434</ele>
        <time>2004-01-19T18:03:57Z</time>
      </trkpt>
      <trkpt lat="45.98971" lon="6.37237">
        <ele>1437</ele>
        <time>2004-01-19T18:03:57Z</time>
      </trkpt>
      <trkpt lat="45.98905" lon="6.37125">
        <ele>1426</ele>
        <time>2004-01-19T18:03:57Z</time>
      </trkpt>
      <trkpt lat="45.98843" lon="6.3695">
        <ele>1415</ele>
        <time>2004-01-19T18:03:57Z</time>
      </trkpt>
      <trkpt lat="45.98765" lon="6.36808">
        <ele>1406</ele>
        <time>2004-01-19T18:03:57Z</time>
      </trkpt>
      <trkpt lat="45.98703" lon="6.36767">
        <ele>1398</ele>
        <time>2004-01-19T18:03:57Z</time>
      </trkpt>
      <trkpt lat="45.9871" lon="6.36756">
        <ele>1400</ele>
        <time>2004-01-19T18:03:57Z</time>
      </trkpt>
      <trkpt lat="45.9868" lon="6.36812">
        <ele>1395</ele>
        <time>2004-01-19T18:03:57Z</time>
      </trkpt>
      <trkpt lat="45.98714" lon="6.36752">
        <ele>1384</ele>
        <time>2004-01-19T18:03:57Z</time>
      </trkpt>
      <trkpt lat="45.98669" lon="6.36692">
        <ele>1386</ele>
        <time>2004-01-19T18:03:57Z</time>
      </trkpt>
      <trkpt lat="45.98645" lon="6.36604">
        <ele>1379</ele>
        <time>2004-01-19T18:03:57Z</time>
      </trkpt>
      <trkpt lat="45.98557" lon="6.36497">
        <ele>1365</ele>
        <time>2004-01-19T18:03:57Z</time>
      </trkpt>
      <trkpt lat="45.98525" lon="6.36475">
        <ele>1366</ele>
        <time>2004-01-19T18:03:57Z</time>
      </trkpt>
      <trkpt lat="45.98482" lon="6.36402">
        <ele>1364</ele>
        <time>2004-01-19T18:03:57Z</time>
      </trkpt>
      <trkpt lat="45.9845" lon="6.36377">
        <ele>1367</ele>
        <time>2004-01-19T18:03:57Z</time>
      </trkpt>
      <trkpt lat="45.98373" lon="6.36207">
        <ele>1373</ele>
        <time>2004-01-19T18:03:57Z</time>
      </trkpt>
      <trkpt lat="45.98295" lon="6.3613">
        <ele>1363</ele>
        <time>2004-01-19T18:03:57Z</time>
      </trkpt>
      <trkpt lat="45.98212" lon="6.35937">
        <ele>1370</ele>
        <time>2004-01-19T18:03:57Z</time>
      </trkpt>
      <trkpt lat="45.98038" lon="6.35598">
        <ele>1373</ele>
        <time>2004-01-19T18:03:57Z</time>
      </trkpt>
      <trkpt lat="45.97995" lon="6.35538">
        <ele>1373</ele>
        <time>2004-01-19T18:03:57Z</time>
      </trkpt>
      <trkpt lat="45.97935" lon="6.3551">
        <ele>1369</ele>
        <time>2004-01-19T18:03:57Z</time>
      </trkpt>
      <trkpt lat="45.97903" lon="6.3546">
        <ele>1371</ele>
        <time>2004-01-19T18:03:57Z</time>
      </trkpt>
      <trkpt lat="45.97898" lon="6.35422">
        <ele>1371</ele>
        <time>2004-01-19T18:03:57Z</time>
      </trkpt>
      <trkpt lat="45.97989" lon="6.35362">
        <ele>1375</ele>
        <time>2004-01-19T18:03:57Z</time>
      </trkpt>
      <trkpt lat="45.97926" lon="6.35402">
        <ele>1402</ele>
        <time>2004-01-19T18:03:57Z</time>
      </trkpt>
      <trkpt lat="45.97894" lon="6.35437">
        <ele>1375</ele>
        <time>2004-01-19T18:03:57Z</time>
      </trkpt>
      <trkpt lat="45.97903" lon="6.35443">
        <ele>1380</ele>
        <time>2004-01-19T18:03:57Z</time>
      </trkpt>
      <trkpt lat="45.97886" lon="6.35402">
        <ele>1380</ele>
        <time>2004-01-19T18:03:57Z</time>
      </trkpt>
      <trkpt lat="45.97716" lon="6.35171">
        <ele>1383</ele>
        <time>2004-01-19T18:03:57Z</time>
      </trkpt>
      <trkpt lat="45.97598" lon="6.35085">
        <ele>1400</ele>
        <time>2004-01-19T18:03:57Z</time>
      </trkpt>
      <trkpt lat="45.97529" lon="6.35066">
        <ele>1407</ele>
        <time>2004-01-19T18:03:57Z</time>
      </trkpt>
      <trkpt lat="45.97429" lon="6.35111">
        <ele>1405</ele>
        <time>2004-01-19T18:03:57Z</time>
      </trkpt>
      <trkpt lat="45.97323" lon="6.35074">
        <ele>1402</ele>
        <time>2004-01-19T18:03:57Z</time>
      </trkpt>
      <trkpt lat="45.97229" lon="6.35085">
        <ele>1400</ele>
        <time>2004-01-19T18:03:57Z</time>
      </trkpt>
      <trkpt lat="45.97216" lon="6.35068">
        <ele>1398</ele>
        <time>2004-01-19T18:03:57Z</time>
      </trkpt>
    </trkseg>
  </trk>
  <trk>
    <name><![CDATA[Sulens 4]]></name>
    <trkseg>
      <trkpt lat="45.84475" lon="6.36525">
        <ele>1138</ele>
        <time>2003-02-06T13:08:28Z</time>
      </trkpt>
      <trkpt lat="45.84" lon="6.36115">
        <ele>1244</ele>
        <time>2003-02-06T13:08:28Z</time>
      </trkpt>
      <trkpt lat="45.83949" lon="6.35864">
        <ele>1304</ele>
        <time>2003-02-06T13:08:28Z</time>
      </trkpt>
      <trkpt lat="45.83867" lon="6.35965">
        <ele>1310</ele>
        <time>2003-02-06T13:08:28Z</time>
      </trkpt>
      <trkpt lat="45.83876" lon="6.35932">
        <ele>1310</ele>
        <time>2003-02-06T13:08:28Z</time>
      </trkpt>
      <trkpt lat="45.83736" lon="6.35947">
        <ele>1318</ele>
        <time>2003-02-06T13:08:28Z</time>
      </trkpt>
      <trkpt lat="45.83588" lon="6.35879">
        <ele>1325</ele>
        <time>2003-02-06T13:08:28Z</time>
      </trkpt>
      <trkpt lat="45.83569" lon="6.35804">
        <ele>1333</ele>
        <time>2003-02-06T13:08:28Z</time>
      </trkpt>
      <trkpt lat="45.83593" lon="6.35842">
        <ele>1322</ele>
        <time>2003-02-06T13:08:28Z</time>
      </trkpt>
      <trkpt lat="45.83457" lon="6.3604">
        <ele>1340</ele>
        <time>2003-02-06T13:08:28Z</time>
      </trkpt>
      <trkpt lat="45.83236" lon="6.35911">
        <ele>1440</ele>
        <time>2003-02-06T13:08:28Z</time>
      </trkpt>
      <trkpt lat="45.83292" lon="6.3604">
        <ele>1462</ele>
        <time>2003-02-06T13:08:28Z</time>
      </trkpt>
      <trkpt lat="45.83224" lon="6.3604">
        <ele>1469</ele>
        <time>2003-02-06T13:08:28Z</time>
      </trkpt>
      <trkpt lat="45.83206" lon="6.36156">
        <ele>1481</ele>
        <time>2003-02-06T13:08:28Z</time>
      </trkpt>
      <trkpt lat="45.83578" lon="6.36443">
        <ele>1531</ele>
        <time>2003-02-06T13:08:28Z</time>
      </trkpt>
      <trkpt lat="45.83569" lon="6.36486">
        <ele>1535</ele>
        <time>2003-02-06T13:08:28Z</time>
      </trkpt>
      <trkpt lat="45.83625" lon="6.3648">
        <ele>1611</ele>
        <time>2003-02-06T13:08:28Z</time>
      </trkpt>
      <trkpt lat="45.83655" lon="6.3655">
        <ele>1611</ele>
        <time>2003-02-06T13:08:28Z</time>
      </trkpt>
      <trkpt lat="45.8347" lon="6.36591">
        <ele>1618</ele>
        <time>2003-02-06T13:08:28Z</time>
      </trkpt>
      <trkpt lat="45.83301" lon="6.366">
        <ele>1639</ele>
        <time>2003-02-06T13:08:28Z</time>
      </trkpt>
      <trkpt lat="45.83058" lon="6.36722">
        <ele>1687</ele>
        <time>2003-02-06T13:08:28Z</time>
      </trkpt>
      <trkpt lat="45.83084" lon="6.36754">
        <ele>1693</ele>
        <time>2003-02-06T13:08:28Z</time>
      </trkpt>
      <trkpt lat="45.82908" lon="6.36997">
        <ele>1751</ele>
        <time>2003-02-06T13:08:28Z</time>
      </trkpt>
      <trkpt lat="45.82846" lon="6.3713">
        <ele>1795</ele>
        <time>2003-02-06T13:08:28Z</time>
      </trkpt>
      <trkpt lat="45.82919" lon="6.37186">
        <ele>1837</ele>
        <time>2003-02-06T13:08:28Z</time>
      </trkpt>
      <trkpt lat="45.82402" lon="6.36986">
        <ele>1761</ele>
        <time>2003-02-06T13:08:28Z</time>
      </trkpt>
      <trkpt lat="45.82376" lon="6.36924">
        <ele>1755</ele>
        <time>2003-02-06T13:08:28Z</time>
      </trkpt>
      <trkpt lat="45.82391" lon="6.36849">
        <ele>1740</ele>
        <time>2003-02-06T13:08:28Z</time>
      </trkpt>
      <trkpt lat="45.82485" lon="6.36851">
        <ele>1717</ele>
        <time>2003-02-06T13:08:28Z</time>
      </trkpt>
      <trkpt lat="45.82728" lon="6.36559">
        <ele>1653</ele>
        <time>2003-02-06T13:08:28Z</time>
      </trkpt>
      <trkpt lat="45.82679" lon="6.3652">
        <ele>1652</ele>
        <time>2003-02-06T13:08:28Z</time>
      </trkpt>
      <trkpt lat="45.82702" lon="6.36525">
        <ele>1651</ele>
        <time>2003-02-06T13:08:28Z</time>
      </trkpt>
      <trkpt lat="45.82773" lon="6.36589">
        <ele>1625</ele>
        <time>2003-02-06T13:08:28Z</time>
      </trkpt>
      <trkpt lat="45.82861" lon="6.36445">
        <ele>1602</ele>
        <time>2003-02-06T13:08:28Z</time>
      </trkpt>
      <trkpt lat="45.82973" lon="6.36415">
        <ele>1581</ele>
        <time>2003-02-06T13:08:28Z</time>
      </trkpt>
      <trkpt lat="45.83026" lon="6.36293">
        <ele>1534</ele>
        <time>2003-02-06T13:08:28Z</time>
      </trkpt>
      <trkpt lat="45.83215" lon="6.36126">
        <ele>1483</ele>
        <time>2003-02-06T13:08:28Z</time>
      </trkpt>
      <trkpt lat="45.83245" lon="6.35935">
        <ele>1452</ele>
        <time>2003-02-06T13:08:28Z</time>
      </trkpt>
      <trkpt lat="45.8343" lon="6.36025">
        <ele>1425</ele>
        <time>2003-02-06T13:08:28Z</time>
      </trkpt>
      <trkpt lat="45.83575" lon="6.35808">
        <ele>1392</ele>
        <time>2003-02-06T13:08:28Z</time>
      </trkpt>
      <trkpt lat="45.83724" lon="6.35967">
        <ele>1372</ele>
        <time>2003-02-06T13:08:28Z</time>
      </trkpt>
      <trkpt lat="45.83848" lon="6.35956">
        <ele>1351</ele>
        <time>2003-02-06T13:08:28Z</time>
      </trkpt>
      <trkpt lat="45.83904" lon="6.35885">
        <ele>1326</ele>
        <time>2003-02-06T13:08:28Z</time>
      </trkpt>
      <trkpt lat="45.83955" lon="6.35894">
        <ele>1320</ele>
        <time>2003-02-06T13:08:28Z</time>
      </trkpt>
      <trkpt lat="45.84007" lon="6.36023">
        <ele>1293</ele>
        <time>2003-02-06T13:08:28Z</time>
      </trkpt>
      <trkpt lat="45.84213" lon="6.36239">
        <ele>1246</ele>
        <time>2003-02-06T13:08:28Z</time>
      </trkpt>
      <trkpt lat="45.84314" lon="6.36426">
        <ele>1208</ele>
        <time>2003-02-06T13:08:28Z</time>
      </trkpt>
      <trkpt lat="45.84479" lon="6.36542">
        <ele>1155</ele>
        <time>2003-02-06T13:08:28Z</time>
      </trkpt>
    </trkseg>
  </trk>
  <trk>
    <name><![CDATA[Sulens2]]></name>
    <trkseg>
      <trkpt lat="45.84526" lon="6.36443">
        <ele>1127</ele>
        <time>2004-01-19T18:03:57Z</time>
      </trkpt>
      <trkpt lat="45.8446" lon="6.36349">
        <ele>1136</ele>
        <time>2004-01-19T18:03:57Z</time>
      </trkpt>
      <trkpt lat="45.84395" lon="6.36383">
        <ele>1171</ele>
        <time>2004-01-19T18:03:57Z</time>
      </trkpt>
      <trkpt lat="45.84316" lon="6.36278">
        <ele>1190</ele>
        <time>2004-01-19T18:03:57Z</time>
      </trkpt>
      <trkpt lat="45.84271" lon="6.36286">
        <ele>1205</ele>
        <time>2004-01-19T18:03:57Z</time>
      </trkpt>
      <trkpt lat="45.84217" lon="6.36246">
        <ele>1213</ele>
        <time>2004-01-19T18:03:57Z</time>
      </trkpt>
      <trkpt lat="45.84176" lon="6.36252">
        <ele>1237</ele>
        <time>2004-01-19T18:03:57Z</time>
      </trkpt>
      <trkpt lat="45.84088" lon="6.361">
        <ele>1252</ele>
        <time>2004-01-19T18:03:57Z</time>
      </trkpt>
      <trkpt lat="45.8405" lon="6.3598">
        <ele>1264</ele>
        <time>2004-01-19T18:03:57Z</time>
      </trkpt>
      <trkpt lat="45.83962" lon="6.35917">
        <ele>1289</ele>
        <time>2004-01-19T18:03:57Z</time>
      </trkpt>
      <trkpt lat="45.83927" lon="6.3587">
        <ele>1303</ele>
        <time>2004-01-19T18:03:57Z</time>
      </trkpt>
      <trkpt lat="45.83867" lon="6.35945">
        <ele>1310</ele>
        <time>2004-01-19T18:03:57Z</time>
      </trkpt>
      <trkpt lat="45.8373" lon="6.35971">
        <ele>1315</ele>
        <time>2004-01-19T18:03:57Z</time>
      </trkpt>
      <trkpt lat="45.83666" lon="6.35932">
        <ele>1330</ele>
        <time>2004-01-19T18:03:57Z</time>
      </trkpt>
      <trkpt lat="45.8361" lon="6.35836">
        <ele>1327</ele>
        <time>2004-01-19T18:03:57Z</time>
      </trkpt>
      <trkpt lat="45.83552" lon="6.35814">
        <ele>1346</ele>
        <time>2004-01-19T18:03:57Z</time>
      </trkpt>
      <trkpt lat="45.83481" lon="6.35894">
        <ele>1371</ele>
        <time>2004-01-19T18:03:57Z</time>
      </trkpt>
      <trkpt lat="45.83442" lon="6.35971">
        <ele>1378</ele>
        <time>2004-01-19T18:03:57Z</time>
      </trkpt>
      <trkpt lat="45.83402" lon="6.36001">
        <ele>1379</ele>
        <time>2004-01-19T18:03:57Z</time>
      </trkpt>
      <trkpt lat="45.83367" lon="6.36012">
        <ele>1378</ele>
        <time>2004-01-19T18:03:57Z</time>
      </trkpt>
      <trkpt lat="45.83292" lon="6.35917">
        <ele>1425</ele>
        <time>2004-01-19T18:03:57Z</time>
      </trkpt>
      <trkpt lat="45.83239" lon="6.35915">
        <ele>1434</ele>
        <time>2004-01-19T18:03:57Z</time>
      </trkpt>
      <trkpt lat="45.83297" lon="6.36038">
        <ele>1457</ele>
        <time>2004-01-19T18:03:57Z</time>
      </trkpt>
      <trkpt lat="45.83247" lon="6.36016">
        <ele>1447</ele>
        <time>2004-01-19T18:03:57Z</time>
      </trkpt>
      <trkpt lat="45.83215" lon="6.36027">
        <ele>1458</ele>
        <time>2004-01-19T18:03:57Z</time>
      </trkpt>
      <trkpt lat="45.83213" lon="6.36126">
        <ele>1487</ele>
        <time>2004-01-19T18:03:57Z</time>
      </trkpt>
      <trkpt lat="45.832" lon="6.36138">
        <ele>1483</ele>
        <time>2004-01-19T18:03:57Z</time>
      </trkpt>
      <trkpt lat="45.83234" lon="6.36132">
        <ele>1499</ele>
        <time>2004-01-19T18:03:57Z</time>
      </trkpt>
      <trkpt lat="45.83301" lon="6.36248">
        <ele>1517</ele>
        <time>2004-01-19T18:03:57Z</time>
      </trkpt>
      <trkpt lat="45.83417" lon="6.36299">
        <ele>1539</ele>
        <time>2004-01-19T18:03:57Z</time>
      </trkpt>
      <trkpt lat="45.8355" lon="6.36413">
        <ele>1577</ele>
        <time>2004-01-19T18:03:57Z</time>
      </trkpt>
      <trkpt lat="45.83595" lon="6.36469">
        <ele>1587</ele>
        <time>2004-01-19T18:03:57Z</time>
      </trkpt>
      <trkpt lat="45.83618" lon="6.36508">
        <ele>1585</ele>
        <time>2004-01-19T18:03:57Z</time>
      </trkpt>
      <trkpt lat="45.83638" lon="6.36546">
        <ele>1591</ele>
        <time>2004-01-19T18:03:57Z</time>
      </trkpt>
      <trkpt lat="45.83468" lon="6.366">
        <ele>1632</ele>
        <time>2004-01-19T18:03:57Z</time>
      </trkpt>
      <trkpt lat="45.83324" lon="6.36619">
        <ele>1650</ele>
        <time>2004-01-19T18:03:57Z</time>
      </trkpt>
      <trkpt lat="45.83269" lon="6.36649">
        <ele>1662</ele>
        <time>2004-01-19T18:03:57Z</time>
      </trkpt>
      <trkpt lat="45.83181" lon="6.36658">
        <ele>1672</ele>
        <time>2004-01-19T18:03:57Z</time>
      </trkpt>
      <trkpt lat="45.83091" lon="6.36739">
        <ele>1692</ele>
        <time>2004-01-19T18:03:57Z</time>
      </trkpt>
      <trkpt lat="45.83041" lon="6.36744">
        <ele>1699</ele>
        <time>2004-01-19T18:03:57Z</time>
      </trkpt>
      <trkpt lat="45.8305" lon="6.36786">
        <ele>1718</ele>
        <time>2004-01-19T18:03:57Z</time>
      </trkpt>
      <trkpt lat="45.83028" lon="6.36857">
        <ele>1747</ele>
        <time>2004-01-19T18:03:57Z</time>
      </trkpt>
      <trkpt lat="45.83035" lon="6.36879">
        <ele>1756</ele>
        <time>2004-01-19T18:03:57Z</time>
      </trkpt>
      <trkpt lat="45.8299" lon="6.36937">
        <ele>1776</ele>
        <time>2004-01-19T18:03:57Z</time>
      </trkpt>
      <trkpt lat="45.82973" lon="6.36992">
        <ele>1790</ele>
        <time>2004-01-19T18:03:57Z</time>
      </trkpt>
      <trkpt lat="45.82975" lon="6.37044">
        <ele>1795</ele>
        <time>2004-01-19T18:03:57Z</time>
      </trkpt>
      <trkpt lat="45.82947" lon="6.37134">
        <ele>1828</ele>
        <time>2004-01-19T18:03:57Z</time>
      </trkpt>
      <trkpt lat="45.82912" lon="6.37188">
        <ele>1836</ele>
        <time>2004-01-19T18:03:57Z</time>
      </trkpt>
      <trkpt lat="45.8293" lon="6.37166">
        <ele>1835</ele>
        <time>2004-01-19T18:03:57Z</time>
      </trkpt>
      <trkpt lat="45.82756" lon="6.37147">
        <ele>1830</ele>
        <time>2004-01-19T18:03:57Z</time>
      </trkpt>
      <trkpt lat="45.82404" lon="6.36975">
        <ele>1743</ele>
        <time>2004-01-19T18:03:57Z</time>
      </trkpt>
      <trkpt lat="45.82318" lon="6.36881">
        <ele>1764</ele>
        <time>2004-01-19T18:03:57Z</time>
      </trkpt>
      <trkpt lat="45.82299" lon="6.36763">
        <ele>1767</ele>
        <time>2004-01-19T18:03:57Z</time>
      </trkpt>
      <trkpt lat="45.8238" lon="6.36671">
        <ele>1749</ele>
        <time>2004-01-19T18:03:57Z</time>
      </trkpt>
      <trkpt lat="45.82451" lon="6.36615">
        <ele>1738</ele>
        <time>2004-01-19T18:03:57Z</time>
      </trkpt>
      <trkpt lat="45.82618" lon="6.3654">
        <ele>1687</ele>
        <time>2004-01-19T18:03:57Z</time>
      </trkpt>
      <trkpt lat="45.82597" lon="6.36486">
        <ele>1677</ele>
        <time>2004-01-19T18:03:57Z</time>
      </trkpt>
      <trkpt lat="45.82642" lon="6.36471">
        <ele>1661</ele>
        <time>2004-01-19T18:03:57Z</time>
      </trkpt>
      <trkpt lat="45.82706" lon="6.36529">
        <ele>1634</ele>
        <time>2004-01-19T18:03:57Z</time>
      </trkpt>
      <trkpt lat="45.82706" lon="6.36533">
        <ele>1643</ele>
        <time>2004-01-19T18:03:57Z</time>
      </trkpt>
      <trkpt lat="45.82719" lon="6.36548">
        <ele>1632</ele>
        <time>2004-01-19T18:03:57Z</time>
      </trkpt>
      <trkpt lat="45.82799" lon="6.36559">
        <ele>1610</ele>
        <time>2004-01-19T18:03:57Z</time>
      </trkpt>
      <trkpt lat="45.82807" lon="6.36503">
        <ele>1597</ele>
        <time>2004-01-19T18:03:57Z</time>
      </trkpt>
      <trkpt lat="45.82837" lon="6.36443">
        <ele>1592</ele>
        <time>2004-01-19T18:03:57Z</time>
      </trkpt>
      <trkpt lat="45.82874" lon="6.36409">
        <ele>1578</ele>
        <time>2004-01-19T18:03:57Z</time>
      </trkpt>
      <trkpt lat="45.82949" lon="6.36394">
        <ele>1554</ele>
        <time>2004-01-19T18:03:57Z</time>
      </trkpt>
      <trkpt lat="45.82977" lon="6.36362">
        <ele>1544</ele>
        <time>2004-01-19T18:03:57Z</time>
      </trkpt>
      <trkpt lat="45.82985" lon="6.36306">
        <ele>1531</ele>
        <time>2004-01-19T18:03:57Z</time>
      </trkpt>
      <trkpt lat="45.83054" lon="6.36271">
        <ele>1504</ele>
        <time>2004-01-19T18:03:57Z</time>
      </trkpt>
      <trkpt lat="45.83129" lon="6.36203">
        <ele>1489</ele>
        <time>2004-01-19T18:03:57Z</time>
      </trkpt>
      <trkpt lat="45.83146" lon="6.36173">
        <ele>1486</ele>
        <time>2004-01-19T18:03:57Z</time>
      </trkpt>
      <trkpt lat="45.8317" lon="6.36166">
        <ele>1476</ele>
        <time>2004-01-19T18:03:57Z</time>
      </trkpt>
      <trkpt lat="45.8317" lon="6.36123">
        <ele>1514</ele>
        <time>2004-01-19T18:03:57Z</time>
      </trkpt>
      <trkpt lat="45.83206" lon="6.36074">
        <ele>1487</ele>
        <time>2004-01-19T18:03:57Z</time>
      </trkpt>
      <trkpt lat="45.83211" lon="6.36081">
        <ele>1476</ele>
        <time>2004-01-19T18:03:57Z</time>
      </trkpt>
      <trkpt lat="45.83204" lon="6.36027">
        <ele>1474</ele>
        <time>2004-01-19T18:03:57Z</time>
      </trkpt>
      <trkpt lat="45.83247" lon="6.35926">
        <ele>1449</ele>
        <time>2004-01-19T18:03:57Z</time>
      </trkpt>
      <trkpt lat="45.83236" lon="6.35909">
        <ele>1446</ele>
        <time>2004-01-19T18:03:57Z</time>
      </trkpt>
      <trkpt lat="45.83301" lon="6.35913">
        <ele>1434</ele>
        <time>2004-01-19T18:03:57Z</time>
      </trkpt>
      <trkpt lat="45.8335" lon="6.35952">
        <ele>1433</ele>
        <time>2004-01-19T18:03:57Z</time>
      </trkpt>
      <trkpt lat="45.83389" lon="6.36014">
        <ele>1432</ele>
        <time>2004-01-19T18:03:57Z</time>
      </trkpt>
      <trkpt lat="45.83438" lon="6.35971">
        <ele>1426</ele>
        <time>2004-01-19T18:03:57Z</time>
      </trkpt>
      <trkpt lat="45.8346" lon="6.35894">
        <ele>1426</ele>
        <time>2004-01-19T18:03:57Z</time>
      </trkpt>
      <trkpt lat="45.83554" lon="6.35782">
        <ele>1389</ele>
        <time>2004-01-19T18:03:57Z</time>
      </trkpt>
      <trkpt lat="45.83597" lon="6.35799">
        <ele>1388</ele>
        <time>2004-01-19T18:03:57Z</time>
      </trkpt>
      <trkpt lat="45.83627" lon="6.35868">
        <ele>1382</ele>
        <time>2004-01-19T18:03:57Z</time>
      </trkpt>
      <trkpt lat="45.83745" lon="6.35956">
        <ele>1362</ele>
        <time>2004-01-19T18:03:57Z</time>
      </trkpt>
      <trkpt lat="45.83807" lon="6.35928">
        <ele>1354</ele>
        <time>2004-01-19T18:03:57Z</time>
      </trkpt>
      <trkpt lat="45.83869" lon="6.35947">
        <ele>1328</ele>
        <time>2004-01-19T18:03:57Z</time>
      </trkpt>
      <trkpt lat="45.83891" lon="6.3593">
        <ele>1325</ele>
        <time>2004-01-19T18:03:57Z</time>
      </trkpt>
      <trkpt lat="45.83904" lon="6.35898">
        <ele>1320</ele>
        <time>2004-01-19T18:03:57Z</time>
      </trkpt>
      <trkpt lat="45.83957" lon="6.35872">
        <ele>1299</ele>
        <time>2004-01-19T18:03:57Z</time>
      </trkpt>
      <trkpt lat="45.8396" lon="6.35907">
        <ele>1295</ele>
        <time>2004-01-19T18:03:57Z</time>
      </trkpt>
      <trkpt lat="45.84026" lon="6.35995">
        <ele>1296</ele>
        <time>2004-01-19T18:03:57Z</time>
      </trkpt>
      <trkpt lat="45.84189" lon="6.36164">
        <ele>1290</ele>
        <time>2004-01-19T18:03:57Z</time>
      </trkpt>
      <trkpt lat="45.84193" lon="6.36196">
        <ele>1233</ele>
        <time>2004-01-19T18:03:57Z</time>
      </trkpt>
      <trkpt lat="45.84224" lon="6.36239">
        <ele>1233</ele>
        <time>2004-01-19T18:03:57Z</time>
      </trkpt>
      <trkpt lat="45.84537" lon="6.36467">
        <ele>1105</ele>
        <time>2004-01-19T18:03:57Z</time>
      </trkpt>
    </trkseg>
  </trk>
  <trk>
    <name><![CDATA[Sulens3]]></name>
    <trkseg>
      <trkpt lat="45.84526" lon="6.36443">
        <ele>1127</ele>
        <time>2004-01-19T18:03:57Z</time>
      </trkpt>
      <trkpt lat="45.8446" lon="6.36349">
        <ele>1136</ele>
        <time>2004-01-19T18:03:57Z</time>
      </trkpt>
      <trkpt lat="45.84395" lon="6.36383">
        <ele>1171</ele>
        <time>2004-01-19T18:03:57Z</time>
      </trkpt>
      <trkpt lat="45.84316" lon="6.36278">
        <ele>1190</ele>
        <time>2004-01-19T18:03:57Z</time>
      </trkpt>
      <trkpt lat="45.84271" lon="6.36286">
        <ele>1205</ele>
        <time>2004-01-19T18:03:57Z</time>
      </trkpt>
      <trkpt lat="45.84217" lon="6.36246">
        <ele>1213</ele>
        <time>2004-01-19T18:03:57Z</time>
      </trkpt>
      <trkpt lat="45.84224" lon="6.36259">
        <ele>1233</ele>
        <time>2004-01-19T18:03:57Z</time>
      </trkpt>
      <trkpt lat="45.84176" lon="6.36252">
        <ele>1237</ele>
        <time>2004-01-19T18:03:57Z</time>
      </trkpt>
      <trkpt lat="45.84088" lon="6.361">
        <ele>1252</ele>
        <time>2004-01-19T18:03:57Z</time>
      </trkpt>
      <trkpt lat="45.8405" lon="6.3598">
        <ele>1264</ele>
        <time>2004-01-19T18:03:57Z</time>
      </trkpt>
      <trkpt lat="45.83962" lon="6.35917">
        <ele>1289</ele>
        <time>2004-01-19T18:03:57Z</time>
      </trkpt>
      <trkpt lat="45.83927" lon="6.3587">
        <ele>1303</ele>
        <time>2004-01-19T18:03:57Z</time>
      </trkpt>
      <trkpt lat="45.83867" lon="6.35945">
        <ele>1310</ele>
        <time>2004-01-19T18:03:57Z</time>
      </trkpt>
      <trkpt lat="45.8373" lon="6.35971">
        <ele>1315</ele>
        <time>2004-01-19T18:03:57Z</time>
      </trkpt>
      <trkpt lat="45.83666" lon="6.35932">
        <ele>1330</ele>
        <time>2004-01-19T18:03:57Z</time>
      </trkpt>
      <trkpt lat="45.8361" lon="6.35836">
        <ele>1327</ele>
        <time>2004-01-19T18:03:57Z</time>
      </trkpt>
      <trkpt lat="45.83552" lon="6.35814">
        <ele>1346</ele>
        <time>2004-01-19T18:03:57Z</time>
      </trkpt>
      <trkpt lat="45.83481" lon="6.35894">
        <ele>1371</ele>
        <time>2004-01-19T18:03:57Z</time>
      </trkpt>
      <trkpt lat="45.83442" lon="6.35971">
        <ele>1378</ele>
        <time>2004-01-19T18:03:57Z</time>
      </trkpt>
      <trkpt lat="45.83402" lon="6.36001">
        <ele>1379</ele>
        <time>2004-01-19T18:03:57Z</time>
      </trkpt>
      <trkpt lat="45.83367" lon="6.36012">
        <ele>1378</ele>
        <time>2004-01-19T18:03:57Z</time>
      </trkpt>
      <trkpt lat="45.83292" lon="6.35917">
        <ele>1425</ele>
        <time>2004-01-19T18:03:57Z</time>
      </trkpt>
      <trkpt lat="45.83239" lon="6.35915">
        <ele>1434</ele>
        <time>2004-01-19T18:03:57Z</time>
      </trkpt>
      <trkpt lat="45.83297" lon="6.36038">
        <ele>1457</ele>
        <time>2004-01-19T18:03:57Z</time>
      </trkpt>
      <trkpt lat="45.83247" lon="6.36016">
        <ele>1447</ele>
        <time>2004-01-19T18:03:57Z</time>
      </trkpt>
      <trkpt lat="45.83215" lon="6.36027">
        <ele>1458</ele>
        <time>2004-01-19T18:03:57Z</time>
      </trkpt>
      <trkpt lat="45.83213" lon="6.36126">
        <ele>1487</ele>
        <time>2004-01-19T18:03:57Z</time>
      </trkpt>
      <trkpt lat="45.832" lon="6.36138">
        <ele>1483</ele>
        <time>2004-01-19T18:03:57Z</time>
      </trkpt>
      <trkpt lat="45.83234" lon="6.36132">
        <ele>1499</ele>
        <time>2004-01-19T18:03:57Z</time>
      </trkpt>
      <trkpt lat="45.83301" lon="6.36248">
        <ele>1517</ele>
        <time>2004-01-19T18:03:57Z</time>
      </trkpt>
      <trkpt lat="45.83417" lon="6.36299">
        <ele>1539</ele>
        <time>2004-01-19T18:03:57Z</time>
      </trkpt>
      <trkpt lat="45.8355" lon="6.36413">
        <ele>1577</ele>
        <time>2004-01-19T18:03:57Z</time>
      </trkpt>
      <trkpt lat="45.83595" lon="6.36469">
        <ele>1587</ele>
        <time>2004-01-19T18:03:57Z</time>
      </trkpt>
      <trkpt lat="45.83588" lon="6.36488">
        <ele>1586</ele>
        <time>2004-01-19T18:03:57Z</time>
      </trkpt>
      <trkpt lat="45.83591" lon="6.36475">
        <ele>1574</ele>
        <time>2004-01-19T18:03:57Z</time>
      </trkpt>
      <trkpt lat="45.83618" lon="6.36508">
        <ele>1585</ele>
        <time>2004-01-19T18:03:57Z</time>
      </trkpt>
      <trkpt lat="45.83638" lon="6.36546">
        <ele>1591</ele>
        <time>2004-01-19T18:03:57Z</time>
      </trkpt>
      <trkpt lat="45.83468" lon="6.366">
        <ele>1632</ele>
        <time>2004-01-19T18:03:57Z</time>
      </trkpt>
      <trkpt lat="45.83324" lon="6.36619">
        <ele>1650</ele>
        <time>2004-01-19T18:03:57Z</time>
      </trkpt>
      <trkpt lat="45.83269" lon="6.36649">
        <ele>1662</ele>
        <time>2004-01-19T18:03:57Z</time>
      </trkpt>
      <trkpt lat="45.83181" lon="6.36658">
        <ele>1672</ele>
        <time>2004-01-19T18:03:57Z</time>
      </trkpt>
      <trkpt lat="45.83091" lon="6.36739">
        <ele>1692</ele>
        <time>2004-01-19T18:03:57Z</time>
      </trkpt>
      <trkpt lat="45.83041" lon="6.36744">
        <ele>1699</ele>
        <time>2004-01-19T18:03:57Z</time>
      </trkpt>
      <trkpt lat="45.8305" lon="6.36786">
        <ele>1718</ele>
        <time>2004-01-19T18:03:57Z</time>
      </trkpt>
      <trkpt lat="45.83015" lon="6.36857">
        <ele>1734</ele>
        <time>2004-01-19T18:03:57Z</time>
      </trkpt>
      <trkpt lat="45.83028" lon="6.36857">
        <ele>1747</ele>
        <time>2004-01-19T18:03:57Z</time>
      </trkpt>
      <trkpt lat="45.83035" lon="6.36879">
        <ele>1756</ele>
        <time>2004-01-19T18:03:57Z</time>
      </trkpt>
      <trkpt lat="45.8299" lon="6.36937">
        <ele>1776</ele>
        <time>2004-01-19T18:03:57Z</time>
      </trkpt>
      <trkpt lat="45.82973" lon="6.36992">
        <ele>1790</ele>
        <time>2004-01-19T18:03:57Z</time>
      </trkpt>
      <trkpt lat="45.82968" lon="6.36975">
        <ele>1803</ele>
        <time>2004-01-19T18:03:57Z</time>
      </trkpt>
      <trkpt lat="45.82975" lon="6.37044">
        <ele>1795</ele>
        <time>2004-01-19T18:03:57Z</time>
      </trkpt>
      <trkpt lat="45.82947" lon="6.37134">
        <ele>1828</ele>
        <time>2004-01-19T18:03:57Z</time>
      </trkpt>
      <trkpt lat="45.82912" lon="6.37188">
        <ele>1836</ele>
        <time>2004-01-19T18:03:57Z</time>
      </trkpt>
      <trkpt lat="45.8293" lon="6.37166">
        <ele>1835</ele>
        <time>2004-01-19T18:03:57Z</time>
      </trkpt>
      <trkpt lat="45.82756" lon="6.37147">
        <ele>1830</ele>
        <time>2004-01-19T18:03:57Z</time>
      </trkpt>
      <trkpt lat="45.82404" lon="6.36975">
        <ele>1743</ele>
        <time>2004-01-19T18:03:57Z</time>
      </trkpt>
      <trkpt lat="45.82389" lon="6.36982">
        <ele>1729</ele>
        <time>2004-01-19T18:03:57Z</time>
      </trkpt>
      <trkpt lat="45.82318" lon="6.36881">
        <ele>1764</ele>
        <time>2004-01-19T18:03:57Z</time>
      </trkpt>
      <trkpt lat="45.82288" lon="6.36789">
        <ele>1768</ele>
        <time>2004-01-19T18:03:57Z</time>
      </trkpt>
      <trkpt lat="45.82299" lon="6.36763">
        <ele>1767</ele>
        <time>2004-01-19T18:03:57Z</time>
      </trkpt>
      <trkpt lat="45.8238" lon="6.36671">
        <ele>1749</ele>
        <time>2004-01-19T18:03:57Z</time>
      </trkpt>
      <trkpt lat="45.82451" lon="6.36615">
        <ele>1738</ele>
        <time>2004-01-19T18:03:57Z</time>
      </trkpt>
      <trkpt lat="45.82618" lon="6.3654">
        <ele>1687</ele>
        <time>2004-01-19T18:03:57Z</time>
      </trkpt>
      <trkpt lat="45.82597" lon="6.36486">
        <ele>1677</ele>
        <time>2004-01-19T18:03:57Z</time>
      </trkpt>
      <trkpt lat="45.82642" lon="6.36471">
        <ele>1661</ele>
        <time>2004-01-19T18:03:57Z</time>
      </trkpt>
      <trkpt lat="45.82711" lon="6.36516">
        <ele>1637</ele>
        <time>2004-01-19T18:03:57Z</time>
      </trkpt>
      <trkpt lat="45.82706" lon="6.36529">
        <ele>1634</ele>
        <time>2004-01-19T18:03:57Z</time>
      </trkpt>
      <trkpt lat="45.82711" lon="6.3651">
        <ele>1643</ele>
        <time>2004-01-19T18:03:57Z</time>
      </trkpt>
      <trkpt lat="45.82706" lon="6.36533">
        <ele>1643</ele>
        <time>2004-01-19T18:03:57Z</time>
      </trkpt>
      <trkpt lat="45.82719" lon="6.36548">
        <ele>1632</ele>
        <time>2004-01-19T18:03:57Z</time>
      </trkpt>
      <trkpt lat="45.82799" lon="6.36559">
        <ele>1610</ele>
        <time>2004-01-19T18:03:57Z</time>
      </trkpt>
      <trkpt lat="45.82807" lon="6.36503">
        <ele>1597</ele>
        <time>2004-01-19T18:03:57Z</time>
      </trkpt>
      <trkpt lat="45.82837" lon="6.36443">
        <ele>1592</ele>
        <time>2004-01-19T18:03:57Z</time>
      </trkpt>
      <trkpt lat="45.82874" lon="6.36409">
        <ele>1578</ele>
        <time>2004-01-19T18:03:57Z</time>
      </trkpt>
      <trkpt lat="45.82949" lon="6.36394">
        <ele>1554</ele>
        <time>2004-01-19T18:03:57Z</time>
      </trkpt>
      <trkpt lat="45.82977" lon="6.36362">
        <ele>1544</ele>
        <time>2004-01-19T18:03:57Z</time>
      </trkpt>
      <trkpt lat="45.82985" lon="6.36306">
        <ele>1531</ele>
        <time>2004-01-19T18:03:57Z</time>
      </trkpt>
      <trkpt lat="45.83054" lon="6.36271">
        <ele>1504</ele>
        <time>2004-01-19T18:03:57Z</time>
      </trkpt>
      <trkpt lat="45.83129" lon="6.36203">
        <ele>1489</ele>
        <time>2004-01-19T18:03:57Z</time>
      </trkpt>
      <trkpt lat="45.83146" lon="6.36173">
        <ele>1486</ele>
        <time>2004-01-19T18:03:57Z</time>
      </trkpt>
      <trkpt lat="45.8317" lon="6.36166">
        <ele>1476</ele>
        <time>2004-01-19T18:03:57Z</time>
      </trkpt>
      <trkpt lat="45.8317" lon="6.36123">
        <ele>1514</ele>
        <time>2004-01-19T18:03:57Z</time>
      </trkpt>
      <trkpt lat="45.83206" lon="6.36074">
        <ele>1487</ele>
        <time>2004-01-19T18:03:57Z</time>
      </trkpt>
      <trkpt lat="45.83211" lon="6.36081">
        <ele>1476</ele>
        <time>2004-01-19T18:03:57Z</time>
      </trkpt>
      <trkpt lat="45.83204" lon="6.36027">
        <ele>1474</ele>
        <time>2004-01-19T18:03:57Z</time>
      </trkpt>
      <trkpt lat="45.83247" lon="6.35926">
        <ele>1449</ele>
        <time>2004-01-19T18:03:57Z</time>
      </trkpt>
      <trkpt lat="45.83236" lon="6.35909">
        <ele>1446</ele>
        <time>2004-01-19T18:03:57Z</time>
      </trkpt>
      <trkpt lat="45.83301" lon="6.35913">
        <ele>1434</ele>
        <time>2004-01-19T18:03:57Z</time>
      </trkpt>
      <trkpt lat="45.8335" lon="6.35952">
        <ele>1433</ele>
        <time>2004-01-19T18:03:57Z</time>
      </trkpt>
      <trkpt lat="45.83389" lon="6.36014">
        <ele>1432</ele>
        <time>2004-01-19T18:03:57Z</time>
      </trkpt>
      <trkpt lat="45.83438" lon="6.35971">
        <ele>1426</ele>
        <time>2004-01-19T18:03:57Z</time>
      </trkpt>
      <trkpt lat="45.8346" lon="6.35894">
        <ele>1426</ele>
        <time>2004-01-19T18:03:57Z</time>
      </trkpt>
      <trkpt lat="45.83554" lon="6.35782">
        <ele>1389</ele>
        <time>2004-01-19T18:03:57Z</time>
      </trkpt>
      <trkpt lat="45.83597" lon="6.35799">
        <ele>1388</ele>
        <time>2004-01-19T18:03:57Z</time>
      </trkpt>
      <trkpt lat="45.83627" lon="6.35868">
        <ele>1382</ele>
        <time>2004-01-19T18:03:57Z</time>
      </trkpt>
      <trkpt lat="45.83745" lon="6.35956">
        <ele>1362</ele>
        <time>2004-01-19T18:03:57Z</time>
      </trkpt>
      <trkpt lat="45.83807" lon="6.35928">
        <ele>1354</ele>
        <time>2004-01-19T18:03:57Z</time>
      </trkpt>
      <trkpt lat="45.83869" lon="6.35947">
        <ele>1328</ele>
        <time>2004-01-19T18:03:57Z</time>
      </trkpt>
      <trkpt lat="45.83891" lon="6.3593">
        <ele>1325</ele>
        <time>2004-01-19T18:03:57Z</time>
      </trkpt>
      <trkpt lat="45.83904" lon="6.35898">
        <ele>1320</ele>
        <time>2004-01-19T18:03:57Z</time>
      </trkpt>
      <trkpt lat="45.8397" lon="6.35859">
        <ele>1302</ele>
        <time>2004-01-19T18:03:57Z</time>
      </trkpt>
      <trkpt lat="45.83972" lon="6.35879">
        <ele>1307</ele>
        <time>2004-01-19T18:03:57Z</time>
      </trkpt>
      <trkpt lat="45.83957" lon="6.35872">
        <ele>1299</ele>
        <time>2004-01-19T18:03:57Z</time>
      </trkpt>
      <trkpt lat="45.8396" lon="6.35907">
        <ele>1295</ele>
        <time>2004-01-19T18:03:57Z</time>
      </trkpt>
      <trkpt lat="45.84026" lon="6.35995">
        <ele>1296</ele>
        <time>2004-01-19T18:03:57Z</time>
      </trkpt>
      <trkpt lat="45.84189" lon="6.36164">
        <ele>1290</ele>
        <time>2004-01-19T18:03:57Z</time>
      </trkpt>
      <trkpt lat="45.84193" lon="6.36196">
        <ele>1233</ele>
        <time>2004-01-19T18:03:57Z</time>
      </trkpt>
      <trkpt lat="45.84224" lon="6.36239">
        <ele>1233</ele>
        <time>2004-01-19T18:03:57Z</time>
      </trkpt>
      <trkpt lat="45.8462" lon="6.36505">
        <ele>1227</ele>
        <time>2004-01-19T18:03:57Z</time>
      </trkpt>
      <trkpt lat="45.84629" lon="6.36525">
        <ele>1226</ele>
        <time>2004-01-19T18:03:57Z</time>
      </trkpt>
      <trkpt lat="45.84502" lon="6.36499">
        <ele>1223</ele>
        <time>2004-01-19T18:03:57Z</time>
      </trkpt>
      <trkpt lat="45.84537" lon="6.36467">
        <ele>1105</ele>
        <time>2004-01-19T18:03:57Z</time>
      </trkpt>
    </trkseg>
  </trk>
  <trk>
    <name><![CDATA[Tours]]></name>
    <trkseg>
      <trkpt lat="45.9745" lon="6.45355">
        <ele>1368</ele>
        <time>2003-02-06T13:08:28Z</time>
      </trkpt>
      <trkpt lat="45.97437" lon="6.45357">
        <ele>1352</ele>
        <time>2003-02-06T13:08:28Z</time>
      </trkpt>
      <trkpt lat="45.97437" lon="6.45239">
        <ele>1357</ele>
        <time>2003-02-06T13:08:28Z</time>
      </trkpt>
      <trkpt lat="45.97508" lon="6.45303">
        <ele>1370</ele>
        <time>2003-02-06T13:08:28Z</time>
      </trkpt>
      <trkpt lat="45.97596" lon="6.45322">
        <ele>1390</ele>
        <time>2003-02-06T13:08:28Z</time>
      </trkpt>
      <trkpt lat="45.97549" lon="6.45155">
        <ele>1423</ele>
        <time>2003-02-06T13:08:28Z</time>
      </trkpt>
      <trkpt lat="45.97557" lon="6.45144">
        <ele>1425</ele>
        <time>2003-02-06T13:08:28Z</time>
      </trkpt>
      <trkpt lat="45.97617" lon="6.45181">
        <ele>1435</ele>
        <time>2003-02-06T13:08:28Z</time>
      </trkpt>
      <trkpt lat="45.97613" lon="6.45084">
        <ele>1447</ele>
        <time>2003-02-06T13:08:28Z</time>
      </trkpt>
      <trkpt lat="45.97705" lon="6.44992">
        <ele>1464</ele>
        <time>2003-02-06T13:08:28Z</time>
      </trkpt>
      <trkpt lat="45.97864" lon="6.44773">
        <ele>1494</ele>
        <time>2003-02-06T13:08:28Z</time>
      </trkpt>
      <trkpt lat="45.97935" lon="6.44756">
        <ele>1520</ele>
        <time>2003-02-06T13:08:28Z</time>
      </trkpt>
      <trkpt lat="45.97952" lon="6.44726">
        <ele>1524</ele>
        <time>2003-02-06T13:08:28Z</time>
      </trkpt>
      <trkpt lat="45.97991" lon="6.44694">
        <ele>1523</ele>
        <time>2003-02-06T13:08:28Z</time>
      </trkpt>
      <trkpt lat="45.98068" lon="6.44653">
        <ele>1529</ele>
        <time>2003-02-06T13:08:28Z</time>
      </trkpt>
      <trkpt lat="45.98074" lon="6.44603">
        <ele>1573</ele>
        <time>2003-02-06T13:08:28Z</time>
      </trkpt>
      <trkpt lat="45.98079" lon="6.44548">
        <ele>1580</ele>
        <time>2003-02-06T13:08:28Z</time>
      </trkpt>
      <trkpt lat="45.98068" lon="6.4447">
        <ele>1580</ele>
        <time>2003-02-06T13:08:28Z</time>
      </trkpt>
      <trkpt lat="45.98085" lon="6.44434">
        <ele>1591</ele>
        <time>2003-02-06T13:08:28Z</time>
      </trkpt>
      <trkpt lat="45.98068" lon="6.44406">
        <ele>1593</ele>
        <time>2003-02-06T13:08:28Z</time>
      </trkpt>
      <trkpt lat="45.97995" lon="6.44382">
        <ele>1611</ele>
        <time>2003-02-06T13:08:28Z</time>
      </trkpt>
      <trkpt lat="45.98001" lon="6.44168">
        <ele>1634</ele>
        <time>2003-02-06T13:08:28Z</time>
      </trkpt>
      <trkpt lat="45.97971" lon="6.44138">
        <ele>1645</ele>
        <time>2003-02-06T13:08:28Z</time>
      </trkpt>
      <trkpt lat="45.97939" lon="6.44091">
        <ele>1671</ele>
        <time>2003-02-06T13:08:28Z</time>
      </trkpt>
      <trkpt lat="45.97954" lon="6.44033">
        <ele>1674</ele>
        <time>2003-02-06T13:08:28Z</time>
      </trkpt>
      <trkpt lat="45.97948" lon="6.44001">
        <ele>1680</ele>
        <time>2003-02-06T13:08:28Z</time>
      </trkpt>
      <trkpt lat="45.97976" lon="6.43919">
        <ele>1686</ele>
        <time>2003-02-06T13:08:28Z</time>
      </trkpt>
      <trkpt lat="45.97954" lon="6.43872">
        <ele>1743</ele>
        <time>2003-02-06T13:08:28Z</time>
      </trkpt>
      <trkpt lat="45.97965" lon="6.43773">
        <ele>1777</ele>
        <time>2003-02-06T13:08:28Z</time>
      </trkpt>
      <trkpt lat="45.97967" lon="6.43709">
        <ele>1778</ele>
        <time>2003-02-06T13:08:28Z</time>
      </trkpt>
      <trkpt lat="45.97946" lon="6.43614">
        <ele>1781</ele>
        <time>2003-02-06T13:08:28Z</time>
      </trkpt>
      <trkpt lat="45.97929" lon="6.43593">
        <ele>1798</ele>
        <time>2003-02-06T13:08:28Z</time>
      </trkpt>
      <trkpt lat="45.97916" lon="6.43567">
        <ele>1807</ele>
        <time>2003-02-06T13:08:28Z</time>
      </trkpt>
      <trkpt lat="45.97903" lon="6.43486">
        <ele>1812</ele>
        <time>2003-02-06T13:08:28Z</time>
      </trkpt>
      <trkpt lat="45.97909" lon="6.43383">
        <ele>1823</ele>
        <time>2003-02-06T13:08:28Z</time>
      </trkpt>
      <trkpt lat="45.97838" lon="6.43174">
        <ele>1844</ele>
        <time>2003-02-06T13:08:28Z</time>
      </trkpt>
      <trkpt lat="45.97813" lon="6.43155">
        <ele>1887</ele>
        <time>2003-02-06T13:08:28Z</time>
      </trkpt>
      <trkpt lat="45.97753" lon="6.43147">
        <ele>1888</ele>
        <time>2003-02-06T13:08:28Z</time>
      </trkpt>
      <trkpt lat="45.97716" lon="6.43127">
        <ele>1887</ele>
        <time>2003-02-06T13:08:28Z</time>
      </trkpt>
      <trkpt lat="45.97692" lon="6.43091">
        <ele>1889</ele>
        <time>2003-02-06T13:08:28Z</time>
      </trkpt>
      <trkpt lat="45.97677" lon="6.43018">
        <ele>1901</ele>
        <time>2003-02-06T13:08:28Z</time>
      </trkpt>
      <trkpt lat="45.97645" lon="6.42994">
        <ele>1903</ele>
        <time>2003-02-06T13:08:28Z</time>
      </trkpt>
      <trkpt lat="45.9757" lon="6.42861">
        <ele>1920</ele>
        <time>2003-02-06T13:08:28Z</time>
      </trkpt>
      <trkpt lat="45.97504" lon="6.42818">
        <ele>1931</ele>
        <time>2003-02-06T13:08:28Z</time>
      </trkpt>
      <trkpt lat="45.97465" lon="6.42827">
        <ele>1936</ele>
        <time>2003-02-06T13:08:28Z</time>
      </trkpt>
      <trkpt lat="45.97448" lon="6.42795">
        <ele>1939</ele>
        <time>2003-02-06T13:08:28Z</time>
      </trkpt>
      <trkpt lat="45.97459" lon="6.4278">
        <ele>1941</ele>
        <time>2003-02-06T13:08:28Z</time>
      </trkpt>
      <trkpt lat="45.97444" lon="6.42765">
        <ele>1945</ele>
        <time>2003-02-06T13:08:28Z</time>
      </trkpt>
      <trkpt lat="45.97411" lon="6.42773">
        <ele>1951</ele>
        <time>2003-02-06T13:08:28Z</time>
      </trkpt>
      <trkpt lat="45.97399" lon="6.4273">
        <ele>1974</ele>
        <time>2003-02-06T13:08:28Z</time>
      </trkpt>
      <trkpt lat="45.97429" lon="6.42655">
        <ele>1989</ele>
        <time>2003-02-06T13:08:28Z</time>
      </trkpt>
      <trkpt lat="45.97405" lon="6.42674">
        <ele>2004</ele>
        <time>2003-02-06T13:08:28Z</time>
      </trkpt>
      <trkpt lat="45.97405" lon="6.42782">
        <ele>1976</ele>
        <time>2003-02-06T13:08:28Z</time>
      </trkpt>
      <trkpt lat="45.97441" lon="6.42767">
        <ele>1968</ele>
        <time>2003-02-06T13:08:28Z</time>
      </trkpt>
      <trkpt lat="45.97463" lon="6.42784">
        <ele>1966</ele>
        <time>2003-02-06T13:08:28Z</time>
      </trkpt>
      <trkpt lat="45.97452" lon="6.42807">
        <ele>1959</ele>
        <time>2003-02-06T13:08:28Z</time>
      </trkpt>
      <trkpt lat="45.97465" lon="6.42829">
        <ele>1955</ele>
        <time>2003-02-06T13:08:28Z</time>
      </trkpt>
      <trkpt lat="45.97544" lon="6.42827">
        <ele>1945</ele>
        <time>2003-02-06T13:08:28Z</time>
      </trkpt>
      <trkpt lat="45.97555" lon="6.42842">
        <ele>1944</ele>
        <time>2003-02-06T13:08:28Z</time>
      </trkpt>
      <trkpt lat="45.97611" lon="6.42891">
        <ele>1937</ele>
        <time>2003-02-06T13:08:28Z</time>
      </trkpt>
      <trkpt lat="45.97671" lon="6.42977">
        <ele>1918</ele>
        <time>2003-02-06T13:08:28Z</time>
      </trkpt>
      <trkpt lat="45.97699" lon="6.43101">
        <ele>1908</ele>
        <time>2003-02-06T13:08:28Z</time>
      </trkpt>
      <trkpt lat="45.9772" lon="6.43112">
        <ele>1906</ele>
        <time>2003-02-06T13:08:28Z</time>
      </trkpt>
      <trkpt lat="45.97742" lon="6.43147">
        <ele>1902</ele>
        <time>2003-02-06T13:08:28Z</time>
      </trkpt>
      <trkpt lat="45.97817" lon="6.43155">
        <ele>1879</ele>
        <time>2003-02-06T13:08:28Z</time>
      </trkpt>
      <trkpt lat="45.97873" lon="6.43237">
        <ele>1872</ele>
        <time>2003-02-06T13:08:28Z</time>
      </trkpt>
      <trkpt lat="45.97892" lon="6.43316">
        <ele>1870</ele>
        <time>2003-02-06T13:08:28Z</time>
      </trkpt>
      <trkpt lat="45.97896" lon="6.43374">
        <ele>1853</ele>
        <time>2003-02-06T13:08:28Z</time>
      </trkpt>
      <trkpt lat="45.97907" lon="6.43406">
        <ele>1850</ele>
        <time>2003-02-06T13:08:28Z</time>
      </trkpt>
      <trkpt lat="45.97971" lon="6.43773">
        <ele>1788</ele>
        <time>2003-02-06T13:08:28Z</time>
      </trkpt>
      <trkpt lat="45.97991" lon="6.44013">
        <ele>1737</ele>
        <time>2003-02-06T13:08:28Z</time>
      </trkpt>
      <trkpt lat="45.97963" lon="6.44058">
        <ele>1700</ele>
        <time>2003-02-06T13:08:28Z</time>
      </trkpt>
      <trkpt lat="45.97952" lon="6.44106">
        <ele>1690</ele>
        <time>2003-02-06T13:08:28Z</time>
      </trkpt>
      <trkpt lat="45.97989" lon="6.44172">
        <ele>1680</ele>
        <time>2003-02-06T13:08:28Z</time>
      </trkpt>
      <trkpt lat="45.97974" lon="6.44245">
        <ele>1662</ele>
        <time>2003-02-06T13:08:28Z</time>
      </trkpt>
      <trkpt lat="45.97995" lon="6.44269">
        <ele>1659</ele>
        <time>2003-02-06T13:08:28Z</time>
      </trkpt>
      <trkpt lat="45.98006" lon="6.44331">
        <ele>1650</ele>
        <time>2003-02-06T13:08:28Z</time>
      </trkpt>
      <trkpt lat="45.98029" lon="6.44372">
        <ele>1646</ele>
        <time>2003-02-06T13:08:28Z</time>
      </trkpt>
      <trkpt lat="45.98027" lon="6.44389">
        <ele>1640</ele>
        <time>2003-02-06T13:08:28Z</time>
      </trkpt>
      <trkpt lat="45.98049" lon="6.44421">
        <ele>1618</ele>
        <time>2003-02-06T13:08:28Z</time>
      </trkpt>
      <trkpt lat="45.98021" lon="6.44511">
        <ele>1604</ele>
        <time>2003-02-06T13:08:28Z</time>
      </trkpt>
      <trkpt lat="45.98068" lon="6.44619">
        <ele>1592</ele>
        <time>2003-02-06T13:08:28Z</time>
      </trkpt>
      <trkpt lat="45.98057" lon="6.44739">
        <ele>1583</ele>
        <time>2003-02-06T13:08:28Z</time>
      </trkpt>
      <trkpt lat="45.98158" lon="6.44938">
        <ele>1570</ele>
        <time>2003-02-06T13:08:28Z</time>
      </trkpt>
      <trkpt lat="45.98154" lon="6.44973">
        <ele>1569</ele>
        <time>2003-02-06T13:08:28Z</time>
      </trkpt>
      <trkpt lat="45.98152" lon="6.4496">
        <ele>1551</ele>
        <time>2003-02-06T13:08:28Z</time>
      </trkpt>
      <trkpt lat="45.98169" lon="6.4497">
        <ele>1556</ele>
        <time>2003-02-06T13:08:28Z</time>
      </trkpt>
      <trkpt lat="45.98199" lon="6.45033">
        <ele>1556</ele>
        <time>2003-02-06T13:08:28Z</time>
      </trkpt>
      <trkpt lat="45.98195" lon="6.45093">
        <ele>1546</ele>
        <time>2003-02-06T13:08:28Z</time>
      </trkpt>
      <trkpt lat="45.9818" lon="6.45103">
        <ele>1542</ele>
        <time>2003-02-06T13:08:28Z</time>
      </trkpt>
      <trkpt lat="45.98154" lon="6.45183">
        <ele>1532</ele>
        <time>2003-02-06T13:08:28Z</time>
      </trkpt>
      <trkpt lat="45.98021" lon="6.45455">
        <ele>1497</ele>
        <time>2003-02-06T13:08:28Z</time>
      </trkpt>
      <trkpt lat="45.97995" lon="6.455">
        <ele>1494</ele>
        <time>2003-02-06T13:08:28Z</time>
      </trkpt>
      <trkpt lat="45.97909" lon="6.45576">
        <ele>1475</ele>
        <time>2003-02-06T13:08:28Z</time>
      </trkpt>
      <trkpt lat="45.97823" lon="6.45571">
        <ele>1453</ele>
        <time>2003-02-06T13:08:28Z</time>
      </trkpt>
      <trkpt lat="45.97823" lon="6.45541">
        <ele>1446</ele>
        <time>2003-02-06T13:08:28Z</time>
      </trkpt>
      <trkpt lat="45.97806" lon="6.45537">
        <ele>1442</ele>
        <time>2003-02-06T13:08:28Z</time>
      </trkpt>
      <trkpt lat="45.97763" lon="6.45569">
        <ele>1430</ele>
        <time>2003-02-06T13:08:28Z</time>
      </trkpt>
      <trkpt lat="45.97757" lon="6.45522">
        <ele>1425</ele>
        <time>2003-02-06T13:08:28Z</time>
      </trkpt>
      <trkpt lat="45.97744" lon="6.45518">
        <ele>1421</ele>
        <time>2003-02-06T13:08:28Z</time>
      </trkpt>
      <trkpt lat="45.97703" lon="6.4546">
        <ele>1420</ele>
        <time>2003-02-06T13:08:28Z</time>
      </trkpt>
      <trkpt lat="45.9769" lon="6.45406">
        <ele>1420</ele>
        <time>2003-02-06T13:08:28Z</time>
      </trkpt>
      <trkpt lat="45.97652" lon="6.45359">
        <ele>1420</ele>
        <time>2003-02-06T13:08:28Z</time>
      </trkpt>
      <trkpt lat="45.97585" lon="6.45297">
        <ele>1410</ele>
        <time>2003-02-06T13:08:28Z</time>
      </trkpt>
      <trkpt lat="45.97476" lon="6.45264">
        <ele>1395</ele>
        <time>2003-02-06T13:08:28Z</time>
      </trkpt>
      <trkpt lat="45.97467" lon="6.45256">
        <ele>1387</ele>
        <time>2003-02-06T13:08:28Z</time>
      </trkpt>
      <trkpt lat="45.97448" lon="6.45303">
        <ele>1383</ele>
        <time>2003-02-06T13:08:28Z</time>
      </trkpt>
    </trkseg>
  </trk>
  <trk>
    <name><![CDATA[Treu]]></name>
    <trkseg>
      <trkpt lat="45.8124" lon="6.49373">
        <ele>1156.3</ele>
        <time>2003-02-06T13:08:28Z</time>
      </trkpt>
      <trkpt lat="45.81086" lon="6.48672">
        <ele>1260.6</ele>
        <time>2003-02-06T13:08:28Z</time>
      </trkpt>
      <trkpt lat="45.81059" lon="6.4867">
        <ele>1256</ele>
        <time>2003-02-06T13:08:28Z</time>
      </trkpt>
      <trkpt lat="45.81081" lon="6.48562">
        <ele>1275.5</ele>
        <time>2003-02-06T13:08:28Z</time>
      </trkpt>
      <trkpt lat="45.81149" lon="6.48561">
        <ele>1327.2</ele>
        <time>2003-02-06T13:08:28Z</time>
      </trkpt>
      <trkpt lat="45.81139" lon="6.48463">
        <ele>1340.9</ele>
        <time>2003-02-06T13:08:28Z</time>
      </trkpt>
      <trkpt lat="45.81084" lon="6.48362">
        <ele>1369.5</ele>
        <time>2003-02-06T13:08:28Z</time>
      </trkpt>
      <trkpt lat="45.81071" lon="6.48226">
        <ele>1402</ele>
        <time>2003-02-06T13:08:28Z</time>
      </trkpt>
      <trkpt lat="45.81059" lon="6.4818">
        <ele>1410.1</ele>
        <time>2003-02-06T13:08:28Z</time>
      </trkpt>
      <trkpt lat="45.81033" lon="6.48146">
        <ele>1410.5</ele>
        <time>2003-02-06T13:08:28Z</time>
      </trkpt>
      <trkpt lat="45.80988" lon="6.48162">
        <ele>1413.4</ele>
        <time>2003-02-06T13:08:28Z</time>
      </trkpt>
      <trkpt lat="45.80986" lon="6.48084">
        <ele>1424.4</ele>
        <time>2003-02-06T13:08:28Z</time>
      </trkpt>
      <trkpt lat="45.81133" lon="6.48005">
        <ele>1476.7</ele>
        <time>2003-02-06T13:08:28Z</time>
      </trkpt>
      <trkpt lat="45.81204" lon="6.47921">
        <ele>1505.8</ele>
        <time>2003-02-06T13:08:28Z</time>
      </trkpt>
      <trkpt lat="45.81298" lon="6.47934">
        <ele>1535.8</ele>
        <time>2003-02-06T13:08:28Z</time>
      </trkpt>
      <trkpt lat="45.81346" lon="6.4797">
        <ele>1534.9</ele>
        <time>2003-02-06T13:08:28Z</time>
      </trkpt>
      <trkpt lat="45.81402" lon="6.47916">
        <ele>1536</ele>
        <time>2003-02-06T13:08:28Z</time>
      </trkpt>
      <trkpt lat="45.8148" lon="6.47896">
        <ele>1547.8</ele>
        <time>2003-02-06T13:08:28Z</time>
      </trkpt>
      <trkpt lat="45.81558" lon="6.47715">
        <ele>1583.2</ele>
        <time>2003-02-06T13:08:28Z</time>
      </trkpt>
      <trkpt lat="45.81599" lon="6.47706">
        <ele>1588.2</ele>
        <time>2003-02-06T13:08:28Z</time>
      </trkpt>
      <trkpt lat="45.8161" lon="6.47661">
        <ele>1592.2</ele>
        <time>2003-02-06T13:08:28Z</time>
      </trkpt>
      <trkpt lat="45.81652" lon="6.47606">
        <ele>1590.6</ele>
        <time>2003-02-06T13:08:28Z</time>
      </trkpt>
      <trkpt lat="45.8169" lon="6.47448">
        <ele>1587.1</ele>
        <time>2003-02-06T13:08:28Z</time>
      </trkpt>
      <trkpt lat="45.81754" lon="6.47305">
        <ele>1612</ele>
        <time>2003-02-06T13:08:28Z</time>
      </trkpt>
      <trkpt lat="45.81819" lon="6.47239">
        <ele>1648.2</ele>
        <time>2003-02-06T13:08:28Z</time>
      </trkpt>
      <trkpt lat="45.81882" lon="6.47134">
        <ele>1705</ele>
        <time>2003-02-06T13:08:28Z</time>
      </trkpt>
      <trkpt lat="45.81898" lon="6.47052">
        <ele>1731.9</ele>
        <time>2003-02-06T13:08:28Z</time>
      </trkpt>
      <trkpt lat="45.81946" lon="6.46971">
        <ele>1773.2</ele>
        <time>2003-02-06T13:08:28Z</time>
      </trkpt>
      <trkpt lat="45.8199" lon="6.46769">
        <ele>1798</ele>
        <time>2003-02-06T13:08:28Z</time>
      </trkpt>
      <trkpt lat="45.8202" lon="6.46545">
        <ele>1830.2</ele>
        <time>2003-02-06T13:08:28Z</time>
      </trkpt>
      <trkpt lat="45.82091" lon="6.46473">
        <ele>1814.8</ele>
        <time>2003-02-06T13:08:28Z</time>
      </trkpt>
      <trkpt lat="45.82282" lon="6.46526">
        <ele>1762.3</ele>
        <time>2003-02-06T13:08:28Z</time>
      </trkpt>
      <trkpt lat="45.82445" lon="6.46526">
        <ele>1723.1</ele>
        <time>2003-02-06T13:08:28Z</time>
      </trkpt>
      <trkpt lat="45.82577" lon="6.46342">
        <ele>1685.9</ele>
        <time>2003-02-06T13:08:28Z</time>
      </trkpt>
      <trkpt lat="45.82718" lon="6.45941">
        <ele>1646.6</ele>
        <time>2003-02-06T13:08:28Z</time>
      </trkpt>
      <trkpt lat="45.8281" lon="6.45896">
        <ele>1648.4</ele>
        <time>2003-02-06T13:08:28Z</time>
      </trkpt>
      <trkpt lat="45.82912" lon="6.45685">
        <ele>1654.9</ele>
        <time>2003-02-06T13:08:28Z</time>
      </trkpt>
      <trkpt lat="45.8303" lon="6.45668">
        <ele>1661.6</ele>
        <time>2003-02-06T13:08:28Z</time>
      </trkpt>
      <trkpt lat="45.83145" lon="6.45605">
        <ele>1666.5</ele>
        <time>2003-02-06T13:08:28Z</time>
      </trkpt>
      <trkpt lat="45.83212" lon="6.45752">
        <ele>1662.3</ele>
        <time>2003-02-06T13:08:28Z</time>
      </trkpt>
      <trkpt lat="45.83347" lon="6.45872">
        <ele>1675</ele>
        <time>2003-02-06T13:08:28Z</time>
      </trkpt>
      <trkpt lat="45.83462" lon="6.45926">
        <ele>1695.3</ele>
        <time>2003-02-06T13:08:28Z</time>
      </trkpt>
      <trkpt lat="45.83465" lon="6.461">
        <ele>1698</ele>
        <time>2003-02-06T13:08:28Z</time>
      </trkpt>
      <trkpt lat="45.83562" lon="6.46281">
        <ele>1685.7</ele>
        <time>2003-02-06T13:08:28Z</time>
      </trkpt>
      <trkpt lat="45.83628" lon="6.46434">
        <ele>1685.5</ele>
        <time>2003-02-06T13:08:28Z</time>
      </trkpt>
      <trkpt lat="45.83566" lon="6.46526">
        <ele>1685.3</ele>
        <time>2003-02-06T13:08:28Z</time>
      </trkpt>
      <trkpt lat="45.8345" lon="6.46492">
        <ele>1671.3</ele>
        <time>2003-02-06T13:08:28Z</time>
      </trkpt>
      <trkpt lat="45.83335" lon="6.46451">
        <ele>1624.1</ele>
        <time>2003-02-06T13:08:28Z</time>
      </trkpt>
      <trkpt lat="45.83247" lon="6.46496">
        <ele>1629</ele>
        <time>2003-02-06T13:08:28Z</time>
      </trkpt>
      <trkpt lat="45.83152" lon="6.46508">
        <ele>1616.2</ele>
        <time>2003-02-06T13:08:28Z</time>
      </trkpt>
      <trkpt lat="45.83223" lon="6.4643">
        <ele>1600.3</ele>
        <time>2003-02-06T13:08:28Z</time>
      </trkpt>
      <trkpt lat="45.83133" lon="6.4641">
        <ele>1579.4</ele>
        <time>2003-02-06T13:08:28Z</time>
      </trkpt>
      <trkpt lat="45.83036" lon="6.46493">
        <ele>1524.3</ele>
        <time>2003-02-06T13:08:28Z</time>
      </trkpt>
      <trkpt lat="45.8296" lon="6.4659">
        <ele>1493.3</ele>
        <time>2003-02-06T13:08:28Z</time>
      </trkpt>
      <trkpt lat="45.82896" lon="6.4674">
        <ele>1464.8</ele>
        <time>2003-02-06T13:08:28Z</time>
      </trkpt>
      <trkpt lat="45.82816" lon="6.46947">
        <ele>1434.3</ele>
        <time>2003-02-06T13:08:28Z</time>
      </trkpt>
      <trkpt lat="45.82669" lon="6.47284">
        <ele>1382.2</ele>
        <time>2003-02-06T13:08:28Z</time>
      </trkpt>
      <trkpt lat="45.82574" lon="6.47302">
        <ele>1393</ele>
        <time>2003-02-06T13:08:28Z</time>
      </trkpt>
      <trkpt lat="45.82512" lon="6.47388">
        <ele>1408.9</ele>
        <time>2003-02-06T13:08:28Z</time>
      </trkpt>
      <trkpt lat="45.82352" lon="6.4744">
        <ele>1451.3</ele>
        <time>2003-02-06T13:08:28Z</time>
      </trkpt>
      <trkpt lat="45.82205" lon="6.47416">
        <ele>1473.6</ele>
        <time>2003-02-06T13:08:28Z</time>
      </trkpt>
      <trkpt lat="45.82127" lon="6.47443">
        <ele>1489.4</ele>
        <time>2003-02-06T13:08:28Z</time>
      </trkpt>
      <trkpt lat="45.81831" lon="6.47768">
        <ele>1503</ele>
        <time>2003-02-06T13:08:28Z</time>
      </trkpt>
      <trkpt lat="45.81716" lon="6.47972">
        <ele>1506.9</ele>
        <time>2003-02-06T13:08:28Z</time>
      </trkpt>
      <trkpt lat="45.81609" lon="6.48041">
        <ele>1517.9</ele>
        <time>2003-02-06T13:08:28Z</time>
      </trkpt>
      <trkpt lat="45.81388" lon="6.47928">
        <ele>1533.9</ele>
        <time>2003-02-06T13:08:28Z</time>
      </trkpt>
      <trkpt lat="45.81346" lon="6.47976">
        <ele>1533.7</ele>
        <time>2003-02-06T13:08:28Z</time>
      </trkpt>
      <trkpt lat="45.81302" lon="6.47941">
        <ele>1535.8</ele>
        <time>2003-02-06T13:08:28Z</time>
      </trkpt>
      <trkpt lat="45.81204" lon="6.47921">
        <ele>1505.8</ele>
        <time>2003-02-06T13:08:28Z</time>
      </trkpt>
      <trkpt lat="45.81129" lon="6.48011">
        <ele>1474.4</ele>
        <time>2003-02-06T13:08:28Z</time>
      </trkpt>
      <trkpt lat="45.80986" lon="6.48084">
        <ele>1424.4</ele>
        <time>2003-02-06T13:08:28Z</time>
      </trkpt>
      <trkpt lat="45.80983" lon="6.48168">
        <ele>1411.8</ele>
        <time>2003-02-06T13:08:28Z</time>
      </trkpt>
      <trkpt lat="45.81033" lon="6.48146">
        <ele>1410.5</ele>
        <time>2003-02-06T13:08:28Z</time>
      </trkpt>
      <trkpt lat="45.81076" lon="6.48226">
        <ele>1403.2</ele>
        <time>2003-02-06T13:08:28Z</time>
      </trkpt>
      <trkpt lat="45.8108" lon="6.48362">
        <ele>1368.6</ele>
        <time>2003-02-06T13:08:28Z</time>
      </trkpt>
      <trkpt lat="45.81143" lon="6.4847">
        <ele>1340.5</ele>
        <time>2003-02-06T13:08:28Z</time>
      </trkpt>
      <trkpt lat="45.81144" lon="6.48567">
        <ele>1321.2</ele>
        <time>2003-02-06T13:08:28Z</time>
      </trkpt>
      <trkpt lat="45.8109" lon="6.48563">
        <ele>1281</ele>
        <time>2003-02-06T13:08:28Z</time>
      </trkpt>
      <trkpt lat="45.81055" lon="6.48663">
        <ele>1256.6</ele>
        <time>2003-02-06T13:08:28Z</time>
      </trkpt>
      <trkpt lat="45.81082" lon="6.48665">
        <ele>1262.1</ele>
        <time>2003-02-06T13:08:28Z</time>
      </trkpt>
      <trkpt lat="45.81236" lon="6.49379">
        <ele>1153.7</ele>
        <time>2003-02-06T13:08:28Z</time>
      </trkpt>
    </trkseg>
  </trk>
</gpx>